<<back to data home page
WILL WE GET ENOUGH RAIN TO BE OUT OF THE DROUGHT? Stay in touch AND help the station - DONATE ANY AMOUNT BY CLICKING THIS LINK!!!


    Month/Day/Year       Maximum   Minimum    Rel    Dew       Rainfall  Seasonal  Soil     Soil      Baro       Wind    Wind        Peak    Peak Gust  Evap     Leaf     Net
    and                  Air Temp  Air Temp   Hum    Point     Inches    Rainfall  Temp     Moisture  Pressure   Speed   Direction   Gust    Direction  Pan      Wetness  Radiation
    Local Time           Deg F     Deg F      %      Deg F               Inches    Deg F    dS/m      mbar       knots   comp deg    knots   comp deg   Inches   mV       W_m2
----------------------------------------------------------------------------------------------------------------------------------------------------------------------------------
   04/24/2017 00:10      55.5      55.4       77     48.4      0.00     18.24      73.7     0.39      1011.0     1        89         2        78        7.67     266      -67.4
   04/24/2017 00:00      56.1      55.5       76     48.3      0.00     18.24      73.9     0.39      1011.0     1       130         2       124        7.68     266      -68.0
   04/23/2017 23:50      57.0      56.0       74     48.3      0.00     18.24      73.6     0.39      1011.0     0        82         1        30        7.68     266      -68.2
   04/23/2017 23:40      57.4      57.0       73     48.5      0.00     18.24      73.8     0.39      1011.0     1        85         1        40        7.68     266      -68.5
   04/23/2017 23:30      57.6      57.3       72     48.5      0.00     18.24      73.9     0.39      1011.0     1       106         1        38        7.68     266      -69.3
   04/23/2017 23:20      57.8      57.5       71     48.4      0.00     18.24      73.9     0.39      1011.0     1        61         2        62        7.68     266      -69.7
   04/23/2017 23:10      58.1      57.9       70     48.4      0.00     18.24      73.9     0.39      1011.0     1        47         2        39        7.68     266      -70.4
   04/23/2017 23:00      58.6      58.0       69     48.3      0.00     18.24      73.8     0.39      1011.0     1        51         2        85        7.68     266      -72.1
   04/23/2017 22:50      58.9      58.6       69     48.5      0.00     18.24      73.9     0.39      1011.0     1        38         2       346        7.68     265      -72.9
   04/23/2017 22:40      59.5      59.1       68     48.6      0.00     18.24      74.0     0.39      1011.0     1        53         3        84        7.69     265      -75.4
   04/23/2017 22:30      60.5      59.8       66     48.7      0.00     18.24      73.8     0.39      1011.0     1        54         2        54        7.69     265      -76.9
   04/23/2017 22:20      61.2      60.6       64     48.9      0.00     18.24      73.9     0.39      1011.0     2        38         2        31        7.69     265      -78.0
   04/23/2017 22:10      62.0      61.4       63     48.9      0.00     18.24      73.8     0.39      1011.0     2        36         3        41        7.69     265      -78.5
   04/23/2017 22:00      62.3      62.1       61     48.7      0.00     18.24      73.8     0.39      1011.0     2        38         3        50        7.69     265      -78.0
   04/23/2017 21:50      62.4      62.1       61     48.6      0.00     18.24      74.0     0.39      1011.0     2        47         3        77        7.69     265      -78.9
   04/23/2017 21:40      62.6      62.4       61     48.7      0.00     18.24      73.8     0.39      1011.0     2        54         3        36        7.69     265      -79.5
   04/23/2017 21:30      63.4      62.4       60     48.8      0.00     18.24      73.8     0.39      1011.0     2        83         3        89        7.69     265      -79.6
   04/23/2017 21:20      63.5      63.3       59     48.7      0.00     18.24      73.8     0.39      1010.0     2        33         3        34        7.69     265      -79.7
   04/23/2017 21:10      63.8      63.5       58     48.6      0.00     18.24      73.8     0.39      1010.0     2        63         3        65        7.70     265      -79.9
   04/23/2017 21:00      64.7      64.0       57     48.6      0.00     18.24      73.9     0.39      1010.0     3        61         4        59        7.70     265      -80.5
   04/23/2017 20:50      65.1      64.7       56     48.8      0.00     18.24      73.8     0.39      1010.0     3        59         4        67        7.70     265      -80.4
   04/23/2017 20:40      65.7      65.2       55     49.0      0.00     18.24      73.8     0.39      1010.0     3        61         5        77        7.70     265      -79.6
   04/23/2017 20:30      66.9      66.0       53     48.8      0.00     18.24      73.8     0.39      1010.0     4        69         6        85        7.70     265      -80.6
   04/23/2017 20:20      67.9      67.2       51     48.5      0.00     18.24      73.8     0.39      1010.0     3        36         5        65        7.70     264      -81.4
   04/23/2017 20:10      68.7      68.0       49     48.2      0.00     18.24      73.7     0.39      1010.0     3        37         4        35        7.71     264      -81.9
   04/23/2017 20:00      69.7      69.0       47     48.0      0.00     18.24      73.7     0.39      1009.0     4        19         6        20        7.71     264      -81.4
   04/23/2017 19:50      70.5      70.0       45     47.8      0.00     18.24      73.6     0.39      1009.0     3        23         4         6        7.71     264      -82.3
   04/23/2017 19:40      71.7      70.6       43     47.5      0.00     18.24      73.7     0.39      1009.0     2        36         3        55        7.71     264      -84.0
   04/23/2017 19:30      72.8      71.8       41     47.4      0.00     18.24      73.7     0.39      1009.0     2        29         4        14        7.71     264      -81.3
   04/23/2017 19:20      73.4      72.9       40     47.7      0.00     18.24      73.6     0.39      1009.0     3       329         4       292        7.71     264      -76.1
   04/23/2017 19:10      74.1      73.7       40     48.0      0.00     18.24      73.6     0.39      1009.0     3       306         5       318        7.72     264      -66.9
   04/23/2017 19:00      74.8      74.2       39     48.2      0.00     18.24      73.6     0.38      1009.0     4       315         6       328        7.72     264      -48.6
   04/23/2017 18:50      75.4      74.8       39     48.4      0.00     18.24      73.4     0.38      1009.0     4       305         5       293        7.72     264      -34.3
   04/23/2017 18:40      75.9      75.5       38     48.5      0.00     18.24      73.4     0.38      1009.0     3       294         6       305        7.73     264      -12.3
   04/23/2017 18:30      76.1      75.7       38     48.4      0.00     18.24      73.6     0.38      1009.0     3       265         5       275        7.73     264       11.0
   04/23/2017 18:20      77.1      76.3       37     48.6      0.00     18.24      73.4     0.38      1009.0     3       263         7       298        7.73     263       33.3
   04/23/2017 18:10      77.1      76.8       37     48.7      0.00     18.24      73.4     0.38      1009.0     4       303         6       282        7.74     264       56.8
   04/23/2017 18:00      77.5      76.7       37     48.6      0.00     18.24      73.3     0.38      1009.0     4       306         7       294        7.74     264       82.0
   04/23/2017 17:50      77.7      77.2       36     48.5      0.00     18.24      73.2     0.38      1009.0     5       314         8       327        7.75     264      112.0
   04/23/2017 17:40      77.5      77.1       37     49.3      0.00     18.24      73.1     0.38      1009.0     4       249         6       311        7.75     264      140.3
   04/23/2017 17:30      77.5      76.8       38     49.8      0.00     18.24      73.1     0.38      1009.0     3       187         4       161        7.75     264      150.9
   04/23/2017 17:20      77.7      77.0       38     49.7      0.00     18.24      73.0     0.38      1009.0     4       177         6       203        7.76     264      176.1
   04/23/2017 17:10      78.4      77.5       38     50.4      0.00     18.24      73.0     0.38      1009.0     5       189         7       171        7.76     264      204.5
   04/23/2017 17:00      78.2      78.0       38     50.2      0.00     18.24      72.8     0.38      1009.0     3       173         6       157        7.76     264      230.5
   04/23/2017 16:50      78.3      77.3       38     50.3      0.00     18.24      72.9     0.38      1009.0     4       178         5       167        7.77     264      255.1
   04/23/2017 16:40      78.4      77.0       38     49.9      0.00     18.24      72.8     0.38      1009.0     5       173         8       186        7.77     264      281.0
   04/23/2017 16:30      78.2      77.8       37     50.0      0.00     18.24      72.7     0.38      1009.0     5       169        11       159        7.78     264      303.2
   04/23/2017 16:20      78.4      77.3       37     49.8      0.00     18.24      72.7     0.38      1009.0     4       159         6       171        7.78     264      326.6
   04/23/2017 16:10      78.4      77.6       38     50.2      0.00     18.24      72.5     0.38      1009.0     6       164         9       140        7.79     264      339.0
   04/23/2017 16:00      78.2      77.8       38     50.4      0.00     18.24      72.5     0.38      1009.0     4       191         6       218        7.79     264      353.4
   04/23/2017 15:50      78.1      77.1       38     50.3      0.00     18.24      72.3     0.38      1009.0     7       168         9       154        7.79     264      390.0
   04/23/2017 15:40      78.5      77.8       38     50.6      0.00     18.24      72.3     0.38      1009.0     5       151         8       135        7.79     264      415.9
   04/23/2017 15:30      78.0      77.0       39     50.8      0.00     18.24      72.3     0.38      1009.0     5       174         7       139        7.80     264      437.8
   04/23/2017 15:20      78.6      77.9       40     51.6      0.00     18.24      72.3     0.38      1010.0     6       160        10       145        7.80     264      444.0
   04/23/2017 15:10      78.8      77.5       39     51.3      0.00     18.24      72.0     0.38      1010.0     7       169         9       177        7.80     264      447.1
   04/23/2017 15:00      78.8      77.9       39     51.3      0.00     18.24      72.1     0.38      1010.0     7       151        10       127        7.81     264      490.1
   04/23/2017 14:50      79.3      78.7       38     51.4      0.00     18.24      71.9     0.38      1010.0     7       169         9       136        7.81     264      494.2
   04/23/2017 14:40      79.2      78.5       38     51.3      0.00     18.24      71.9     0.38      1010.0     7       172         9       182        7.81     264      492.7
   04/23/2017 14:30      79.2      78.4       38     51.1      0.00     18.24      71.8     0.38      1010.0     7       160         9       173        7.81     264      494.4
   04/23/2017 14:20      79.3      78.0       38     51.1      0.00     18.24      71.8     0.38      1010.0     7       160        11       169        7.82     264      530.0
   04/23/2017 14:10      79.2      78.7       37     50.3      0.00     18.24      71.7     0.38      1010.0     4       187         7       206        7.82     264      534.5
   04/23/2017 14:00      79.1      78.6       37     50.6      0.00     18.24      71.7     0.38      1010.0     7       154         9       225        7.82     264      544.6
   04/23/2017 13:50      80.2      78.8       35     49.6      0.00     18.24      71.7     0.38      1010.0     5       155         9       131        7.82     264      547.3
   04/23/2017 13:40      80.2      79.0       35     49.6      0.00     18.24      71.6     0.38      1010.0     4       115         8       155        7.82     264      553.3
   04/23/2017 13:30      79.3      78.8       34     48.7      0.00     18.24      71.5     0.38      1010.0     5       105         9       109        7.82     264      558.5
   04/23/2017 13:20      80.2      79.2       34     49.2      0.00     18.24      71.5     0.38      1010.0     4       151         7       159        7.82     264      563.8
   04/23/2017 13:10      80.9      78.4       34     48.8      0.00     18.24      71.5     0.38      1010.0     5       135         7       124        7.83     265      566.5
   04/23/2017 13:00      81.2      80.1       34     49.8      0.00     18.24      71.5     0.38      1010.0     4        83         6       126        7.83     265      566.6
   04/23/2017 12:50      81.2      80.1       34     49.7      0.00     18.24      71.5     0.38      1010.0     4        24         5        95        7.83     265      563.6
   04/23/2017 12:40      80.3      78.9       34     49.1      0.00     18.24      71.5     0.38      1011.0     2        44         4       122        7.83     265      566.0
   04/23/2017 12:30      79.9      78.0       35     49.1      0.00     18.24      71.4     0.38      1011.0     3       142         6       141        7.83     265      567.3
   04/23/2017 12:20      80.1      78.4       35     49.1      0.00     18.24      71.3     0.38      1011.0     4        59         6        76        7.83     265      563.4
   04/23/2017 12:10      78.1      77.4       37     49.1      0.00     18.24      71.3     0.38      1011.0     4       349         7       300        7.83     265      559.2
   04/23/2017 12:00      78.1      77.1       37     49.3      0.00     18.24      71.4     0.38      1011.0     3       356         6       328        7.83     265      553.0
   04/23/2017 11:50      78.0      77.0       38     50.2      0.00     18.24      71.4     0.38      1011.0     3       352         6       352        7.83     265      549.7
   04/23/2017 11:40      76.8      75.9       39     50.0      0.00     18.24      71.3     0.38      1011.0     2        29         5        50        7.83     265      542.5
   04/23/2017 11:30      75.9      75.3       41     50.4      0.00     18.24      71.2     0.38      1011.0     5         5         6       349        7.83     265      536.7
   04/23/2017 11:20      75.5      74.8       42     50.6      0.00     18.24      71.3     0.38      1011.0     3       342         5         6        7.83     266      528.3
   04/23/2017 11:10      75.4      73.3       44     50.8      0.00     18.24      71.5     0.38      1011.0     3        38         5        98        7.83     266      520.3
   04/23/2017 11:00      73.3      73.0       45     50.7      0.00     18.24      71.4     0.38      1011.0     3       354         5       343        7.83     266      507.0
   04/23/2017 10:50      73.2      72.8       46     50.9      0.00     18.24      71.4     0.38      1011.0     3        26         5        48        7.83     266      495.5
   04/23/2017 10:40      73.0      71.8       47     51.1      0.00     18.24      71.5     0.38      1011.0     3        47         7        76        7.83     266      484.6
   04/23/2017 10:30      72.6      71.5       48     51.4      0.00     18.24      71.3     0.38      1011.0     3        49         5        77        7.83     266      469.3
   04/23/2017 10:20      72.2      70.5       49     51.2      0.00     18.24      71.3     0.38      1011.0     3        34         5        13        7.83     266      453.4
   04/23/2017 10:10      70.5      70.0       50     50.8      0.00     18.24      71.4     0.38      1012.0     2        36         2        79        7.83     266      435.6
   04/23/2017 10:00      70.8      70.0       50     51.1      0.00     18.24      71.5     0.38      1012.0     2        74         4        64        7.83     267      421.1
   04/23/2017 09:50      69.3      68.5       53     50.9      0.00     18.24      71.4     0.38      1012.0     3       325         5         3        7.83     267      400.3
   04/23/2017 09:40      68.8      68.1       54     50.9      0.00     18.24      71.6     0.38      1012.0     2       321         3       289        7.83     267      381.9
   04/23/2017 09:30      67.7      66.5       56     50.6      0.00     18.24      71.7     0.38      1012.0     1         9         3        70        7.83     267      360.5
   04/23/2017 09:20      66.6      65.7       57     50.5      0.00     18.24      71.6     0.38      1012.0     2       353         4       297        7.83     267      339.9
   04/23/2017 09:10      66.7      66.0       57     50.5      0.00     18.24      71.8     0.38      1012.0     2         5         3        16        7.83     267      317.3
   04/23/2017 09:00      65.7      64.3       59     50.4      0.00     18.24      71.8     0.38      1012.0     2       315         4       302        7.83     267      293.6
   04/23/2017 08:50      64.2      62.8       62     50.3      0.00     18.24      71.7     0.38      1012.0     2       296         3       298        7.83     267      271.7
   04/23/2017 08:40      62.9      61.6       65     50.5      0.00     18.24      71.6     0.38      1012.0     2       332         3       339        7.83     267      253.9
   04/23/2017 08:30      61.7      61.3       67     50.4      0.00     18.24      71.6     0.38      1012.0     3         0         6       335        7.83     267      230.2
   04/23/2017 08:20      61.5      61.0       68     50.6      0.00     18.24      71.7     0.38      1011.0     2        31         3        24        7.83     267      203.9
   04/23/2017 08:10      61.1      60.9       68     50.4      0.00     18.24      71.7     0.39      1011.0     3        49         5        64        7.83     267      169.3
   04/23/2017 08:00      61.0      60.4       68     50.3      0.00     18.24      71.9     0.39      1011.0     3        65         5        71        7.83     267       26.0
   04/23/2017 07:50      60.7      60.0       69     50.1      0.00     18.24      71.9     0.39      1011.0     3        49         4        67        7.84     267       34.1
   04/23/2017 07:40      60.1      59.0       70     49.9      0.00     18.24      72.1     0.39      1012.0     2        60         3        56        7.84     268      -20.6
   04/23/2017 07:30      58.9      57.7       73     49.5      0.00     18.24      71.8     0.39      1012.0     2        52         4        74        7.84     268       -1.8
   04/23/2017 07:20      57.6      56.3       75     49.0      0.00     18.24      71.9     0.39      1011.0     2       335         2         7        7.84     267      -23.6
   04/23/2017 07:10      56.3      55.3       77     48.6      0.00     18.24      72.0     0.39      1011.0     1       101         3       127        7.84     267      -37.7
   04/23/2017 07:00      55.3      54.6       78     48.2      0.00     18.24      71.9     0.39      1011.0     2       129         3       127        7.84     267      -40.2
   04/23/2017 06:50      54.7      54.3       79     48.0      0.00     18.24      72.0     0.39      1011.0     1       201         1       214        7.84     267      -42.3
   04/23/2017 06:40      54.6      54.3       79     48.0      0.00     18.24      72.3     0.39      1011.0     1         7         1       344        7.84     267      -47.8
   04/23/2017 06:30      54.6      54.3       79     48.1      0.00     18.24      72.1     0.39      1010.0     0       200         1       232        7.84     267      -51.6
   04/23/2017 06:20      54.5      54.1       79     47.9      0.00     18.24      72.1     0.39      1010.0     2       180         3       151        7.84     267      -55.5
   04/23/2017 06:10      54.9      54.6       77     47.9      0.00     18.24      72.3     0.39      1010.0     1       153         2       131        7.84     267      -56.9
   04/23/2017 06:00      55.3      54.6       76     47.5      0.00     18.24      72.5     0.39      1010.0     1       143         2       139        7.84     266      -57.5
   04/23/2017 05:50      55.5      55.1       74     47.4      0.00     18.24      72.4     0.39      1010.0     1       216         1       271        7.84     266      -57.2
   04/23/2017 05:40      55.2      54.9       76     47.5      0.00     18.24      72.5     0.39      1010.0     1       124         1       147        7.84     266      -58.2
   04/23/2017 05:30      55.5      55.0       73     47.0      0.00     18.24      72.4     0.39      1010.0     1       132         1       127        7.84     266      -59.1
   04/23/2017 05:20      56.0      55.5       72     47.0      0.00     18.24      72.4     0.39      1010.0     1       170         2       172        7.85     266      -58.2
   04/23/2017 05:10      56.8      56.3       70     46.9      0.00     18.24      72.5     0.39      1010.0     1       171         2       127        7.85     266      -57.4
   04/23/2017 05:00      56.8      56.5       70     47.0      0.00     18.24      72.6     0.39      1010.0     1       209         1       204        7.85     266      -56.3
   04/23/2017 04:50      57.7      56.9       69     47.4      0.00     18.24      72.5     0.39      1010.0     1       149         2       139        7.85     266      -55.8
   04/23/2017 04:40      58.0      57.8       69     47.6      0.00     18.24      72.6     0.39      1010.0     1       139         2       144        7.85     266      -54.2
   04/23/2017 04:30      58.0      57.6       68     47.4      0.00     18.24      72.8     0.39      1010.0     2       125         2       146        7.85     266      -53.1
   04/23/2017 04:20      57.9      57.1       68     47.1      0.00     18.24      72.8     0.39      1010.0     2        90         3        70        7.85     266      -52.7
   04/23/2017 04:10      58.2      57.6       66     46.6      0.00     18.24      72.7     0.39      1010.0     1        82         3        78        7.85     266      -52.6
   04/23/2017 04:00      58.4      57.9       65     46.5      0.00     18.24      72.6     0.39      1010.0     0        61         1         2        7.85     266      -52.3
   04/23/2017 03:50      58.0      57.7       65     46.1      0.00     18.24      72.7     0.39      1010.0     2        96         2        85        7.86     266      -51.3
   04/23/2017 03:40      58.2      57.6       64     45.9      0.00     18.24      72.8     0.39      1010.0     1       119         1        80        7.86     266      -53.4
   04/23/2017 03:30      58.6      58.0       63     45.7      0.00     18.24      72.8     0.39      1010.0     1        87         1       100        7.86     266      -54.3
   04/23/2017 03:20      58.5      58.1       64     46.1      0.00     18.24      72.7     0.39      1010.0     1         7         1       354        7.86     265      -53.2
   04/23/2017 03:10      58.7      58.3       63     46.0      0.00     18.24      72.9     0.39      1010.0     1       124         2       136        7.86     266      -52.3
   04/23/2017 03:00      59.0      58.5       62     45.7      0.00     18.24      73.0     0.39      1010.0     1       154         2       146        7.86     266      -52.1
   04/23/2017 02:50      59.1      58.5       62     45.5      0.00     18.24      73.0     0.39      1010.0     1       145         2       146        7.86     265      -54.1
   04/23/2017 02:40      59.7      58.8       60     45.4      0.00     18.24      72.9     0.39      1010.0     2       138         3       140        7.86     265      -56.2
   04/23/2017 02:30      60.5      59.9       57     45.2      0.00     18.24      73.0     0.39      1010.0     1       167         2       133        7.86     265      -56.8
   04/23/2017 02:20      60.6      59.9       56     44.7      0.00     18.24      73.1     0.39      1010.0     1       187         2       140        7.86     265      -57.4
   04/23/2017 02:10      60.8      60.0       56     44.3      0.00     18.24      73.0     0.39      1010.0     1       181         2       215        7.86     265      -58.0
   04/23/2017 02:00      61.5      60.8       53     43.9      0.00     18.24      73.1     0.39      1010.0     1       204         2       220        7.86     265      -55.1
   04/23/2017 01:50      61.1      61.0       53     43.8      0.00     18.24      73.2     0.39      1010.0     1        93         1       247        7.86     265      -55.8
   04/23/2017 01:40      61.2      60.9       53     43.7      0.00     18.24      73.2     0.39      1010.0     1       183         1       144        7.86     265      -53.9
   04/23/2017 01:30      61.9      61.2       51     43.4      0.00     18.24      73.2     0.39      1010.0     1       124         2       116        7.87     265      -52.3
   04/23/2017 01:20      62.2      61.9       50     43.0      0.00     18.24      73.2     0.39      1011.0     2       140         3       132        7.87     265      -51.2
   04/23/2017 01:10      62.5      61.9       49     43.0      0.00     18.24      73.2     0.39      1011.0     1       169         1       129        7.87     265      -52.6
   04/23/2017 01:00      62.8      62.6       48     42.5      0.00     18.24      73.2     0.39      1011.0     1       186         1       192        7.87     265      -54.9
   04/23/2017 00:50      63.4      63.0       45     41.7      0.00     18.24      73.1     0.39      1011.0     1       166         2       151        7.87     265      -54.2
   04/23/2017 00:40      63.6      63.3       44     41.3      0.00     18.24      73.3     0.39      1011.0     1       151         1       139        7.87     265      -54.5
   04/23/2017 00:30      63.3      62.5       45     41.3      0.00     18.24      73.3     0.39      1011.0     1       131         2        75        7.87     265      -56.4
   04/23/2017 00:20      63.4      63.0       44     40.8      0.00     18.24      73.5     0.39      1011.0     1       324         2       264        7.87     265      -57.2
   04/23/2017 00:10      65.0      63.6       41     40.1      0.00     18.24      73.3     0.39      1011.0     1       219         2       244        7.87     265      -56.6
   04/23/2017 00:00      66.2      64.9       39     40.1      0.00     18.24      73.6     0.39      1011.0     1       185         2       154        7.87     265      -57.0
   04/22/2017 23:50      66.5      64.8       38     39.7      0.00     18.24      73.4     0.39      1011.0     1       238         2       252        7.88     264      -57.4
   04/22/2017 23:40      64.5      63.5       42     40.7      0.00     18.24      73.4     0.39      1010.0     2       123         3        89        7.88     265      -60.4
   04/22/2017 23:30      65.0      63.9       42     41.0      0.00     18.24      73.3     0.39      1010.0     1        94         3       107        7.88     264      -59.5
   04/22/2017 23:20      65.0      64.5       41     40.7      0.00     18.24      73.4     0.39      1011.0     2       157         2       135        7.88     264      -57.0
   04/22/2017 23:10      66.2      64.9       40     40.6      0.00     18.24      73.5     0.39      1011.0     1        68         2       136        7.88     264      -54.7
   04/22/2017 23:00      66.1      65.1       39     39.8      0.00     18.24      73.4     0.39      1010.0     1       245         2       261        7.88     264      -53.7
   04/22/2017 22:50      65.8      65.2       39     40.0      0.00     18.24      73.5     0.39      1010.0     1        48         1        39        7.88     264      -54.4
   04/22/2017 22:40      66.5      66.0       38     40.0      0.00     18.24      73.4     0.39      1010.0     1        69         2       126        7.88     264      -55.6
   04/22/2017 22:30      66.5      65.4       37     39.2      0.00     18.24      73.5     0.39      1011.0     2       144         3       147        7.88     264      -54.7
   04/22/2017 22:20      66.6      65.7       37     39.1      0.00     18.24      73.5     0.39      1011.0     2       145         3       150        7.88     264      -57.0
   04/22/2017 22:10      66.4      65.9       37     38.9      0.00     18.24      73.4     0.39      1011.0     2       186         2       183        7.88     264      -62.4
   04/22/2017 22:00      66.4      65.9       36     38.8      0.00     18.24      73.4     0.39      1011.0     2       157         3       197        7.88     264      -64.9
   04/22/2017 21:50      68.5      65.8       36     38.9      0.00     18.24      73.4     0.39      1011.0     2       228         2       222        7.89     264      -63.2
   04/22/2017 21:40      68.6      68.1       34     38.6      0.00     18.24      73.4     0.39      1011.0     1       255         2       254        7.91     264      -64.0
   04/22/2017 21:30      69.2      68.4       33     38.9      0.00     18.24      73.4     0.39      1010.0     1        75         2        80        7.91     264      -66.2
   04/22/2017 21:20      70.2      69.0       32     38.3      0.00     18.24      73.3     0.39      1010.0     1        62         2        74        7.92     264      -69.4
   04/22/2017 21:10      70.3      67.8       32     37.8      0.00     18.24      73.4     0.39      1010.0     3       166         4       150        7.92     264      -65.4
   04/22/2017 21:00      69.7      68.1       35     39.6      0.00     18.24      73.3     0.39      1011.0     3       152         4       156        7.92     263      -67.7
   04/22/2017 20:50      70.4      70.1       30     37.6      0.00     18.24      73.3     0.39      1011.0     1       171         2       190        7.92     263      -68.9
   04/22/2017 20:40      71.3      70.3       30     38.2      0.00     18.24      73.3     0.39      1011.0     1       144         2       143        7.93     263      -73.5
   04/22/2017 20:30      72.5      71.4       28     37.3      0.00     18.24      73.2     0.39      1010.0     1       209         2       201        7.93     263      -75.0
   04/22/2017 20:20      72.8      72.6       28     37.6      0.00     18.24      73.2     0.39      1010.0     1       144         1       125        7.93     262      -77.1
   04/22/2017 20:10      74.8      72.7       27     37.3      0.00     18.24      73.2     0.39      1010.0     1       132         2       128        7.93     262      -78.8
   04/22/2017 20:00      76.7      75.6       23     35.7      0.00     18.24      73.2     0.39      1010.0     1       249         2       281        7.93     262      -78.2
   04/22/2017 19:50      77.8      76.9       23     36.4      0.00     18.24      73.1     0.39      1010.0     1       264         2       279        7.94     262      -81.4
   04/22/2017 19:40      79.3      77.9       22     36.3      0.00     18.24      73.0     0.39      1010.0     2       245         4       240        7.94     262      -85.6
   04/22/2017 19:30      80.0      79.3       21     36.0      0.00     18.24      73.1     0.39      1010.0     3       241         4       247        7.94     262      -87.2
   04/22/2017 19:20      81.2      80.3       20     36.2      0.00     18.24      73.0     0.39      1010.0     3       242         3       237        7.95     262      -83.4
   04/22/2017 19:10      81.9      81.2       19     35.5      0.00     18.24      72.9     0.39      1010.0     4       234         6       215        7.95     262      -80.0
   04/22/2017 19:00      83.0      82.1       18     35.3      0.00     18.24      73.0     0.39      1010.0     3       259         7       297        7.95     262      -75.8
   04/22/2017 18:50      84.4      83.5       18     36.0      0.00     18.24      72.8     0.39      1010.0     3       260         5       293        7.96     262      -69.2
   04/22/2017 18:40      85.3      84.7       17     35.3      0.00     18.24      72.8     0.39      1010.0     4       275         5       272        7.96     262      -45.3
   04/22/2017 18:30      85.5      85.0       16     34.2      0.00     18.24      72.8     0.39      1010.0     4       256         8       251        7.96     262       10.5
   04/22/2017 18:20      86.1      85.4       16     34.9      0.00     18.24      72.7     0.39      1010.0     4       237         9       230        7.97     262       24.7
   04/22/2017 18:10      86.2      85.3       17     35.7      0.00     18.24      72.6     0.39      1010.0     4       225         6       200        7.97     262       38.6
   04/22/2017 18:00      86.5      86.1       16     35.2      0.00     18.24      72.6     0.39      1010.0     5       236         7       233        7.98     261       64.2
   04/22/2017 17:50      87.7      86.6       16     35.0      0.00     18.24      72.6     0.39      1010.0     4       238         6       250        7.99     261       90.5
   04/22/2017 17:40      87.7      87.4       15     35.0      0.00     18.24      72.5     0.39      1010.0     5       240         8       264        7.99     261      130.9
   04/22/2017 17:30      88.4      87.8       15     34.9      0.00     18.24      72.4     0.39      1010.0     7       255        10       250        8.00     261      163.2
   04/22/2017 17:20      88.5      88.1       15     34.8      0.00     18.24      72.2     0.39      1010.0     6       255        11       253        8.00     262      190.1
   04/22/2017 17:10      88.7      88.4       15     34.3      0.00     18.24      72.2     0.39      1010.0     8       267        11       259        8.01     262      197.0
   04/22/2017 17:00      89.1      88.7       14     34.3      0.00     18.24      72.2     0.39      1010.0     7       273         9       254        8.02     261      235.9
   04/22/2017 16:50      89.3      88.7       15     35.8      0.00     18.24      72.1     0.38      1010.0     7       259        10       267        8.02     262      260.8
   04/22/2017 16:40      89.2      88.4       16     36.6      0.00     18.24      71.9     0.38      1010.0     7       235        11       258        8.02     262      287.8
   04/22/2017 16:30      89.4      88.3       18     39.4      0.00     18.24      71.8     0.38      1010.0     7       229        10       255        8.03     263      304.6
   04/22/2017 16:20      89.9      89.1       18     41.0      0.00     18.24      71.8     0.38      1010.0     7       243        10       255        8.03     263      321.2
   04/22/2017 16:10      89.7      88.8       19     41.8      0.00     18.24      71.7     0.38      1010.0     6       222         9       246        8.04     262      351.1
   04/22/2017 16:00      90.7      89.9       19     41.8      0.00     18.24      71.8     0.38      1010.0     6       215        10       215        8.04     262      367.3
   04/22/2017 15:50      90.6      90.0       18     41.2      0.00     18.24      71.7     0.38      1010.0     6       243         7       249        8.04     262      379.1
   04/22/2017 15:40      90.5      89.7       19     42.3      0.00     18.24      71.5     0.38      1010.0     6       218        10       203        8.05     263      341.3
   04/22/2017 15:30      90.5      89.8       19     42.3      0.00     18.24      71.4     0.38      1010.0     7       226        10       183        8.06     263      368.9
   04/22/2017 15:20      90.9      90.3       19     42.3      0.00     18.24      71.4     0.38      1010.0     6       212         7       201        8.06     263      360.1
   04/22/2017 15:10      91.1      90.7       18     40.8      0.00     18.24      71.2     0.38      1010.0     5       167         8       212        8.07     263      426.5
   04/22/2017 15:00      91.3      90.8       17     40.6      0.00     18.24      71.1     0.38      1010.0     7       149        11       158        8.07     262      460.4
   04/22/2017 14:50      92.6      90.6       18     41.5      0.00     18.24      71.1     0.38      1010.0     7       184         9       168        8.08     263      446.2
   04/22/2017 14:40      92.9      90.9       18     42.0      0.00     18.24      71.2     0.38      1010.0     3       219         5       207        8.08     263      470.5
   04/22/2017 14:30      91.5      90.9       18     41.8      0.00     18.24      70.9     0.38      1010.0     4       203         7       164        8.09     263      444.3
   04/22/2017 14:20      92.1      90.9       18     41.6      0.00     18.24      70.8     0.38      1010.0     4       173         6       219        8.09     263      492.2
   04/22/2017 14:10      92.7      91.1       16     39.9      0.00     18.24      70.8     0.38      1010.0     2       159         6       149        8.09     263      510.5
   04/22/2017 14:00      93.1      92.5       16     39.3      0.00     18.24      70.8     0.38      1010.0     2        39         3        45        8.09     263      495.2
   04/22/2017 13:50      93.2      92.5       16     39.5      0.00     18.24      70.7     0.38      1010.0     4        44         7        74        8.09     263      529.1
   04/22/2017 13:40      93.3      92.5       16     40.2      0.00     18.24      70.6     0.38      1010.0     4        10         6       331        8.09     263      540.1
   04/22/2017 13:30      92.5      91.7       16     39.5      0.00     18.24      70.5     0.38      1011.0     4        46         7         1        8.10     263      545.3
   04/22/2017 13:20      93.1      91.8       15     38.2      0.00     18.24      70.5     0.38      1011.0     3        52         4        20        8.10     263      549.7
   04/22/2017 13:10      92.3      91.2       16     38.8      0.00     18.24      70.5     0.38      1011.0     4        70         7       111        8.10     263      554.9
   04/22/2017 13:00      92.0      91.1       16     38.6      0.00     18.24      70.4     0.38      1011.0     4        64         5        70        8.10     263      555.6
   04/22/2017 12:50      91.7      90.6       17     39.4      0.00     18.24      70.4     0.38      1011.0     4        34         5        28        8.10     263      551.3
   04/22/2017 12:40      91.0      90.2       18     40.9      0.00     18.24      70.3     0.38      1011.0     3       349         5       344        8.10     263      553.8
   04/22/2017 12:30      90.8      90.0       17     40.1      0.00     18.24      70.3     0.38      1011.0     3         9         6         9        8.10     264      551.1
   04/22/2017 12:20      90.0      89.6       17     39.8      0.00     18.24      70.1     0.38      1011.0     2       358         3       356        8.11     264      550.2
   04/22/2017 12:10      90.1      88.4       17     38.9      0.00     18.24      70.1     0.38      1011.0     3        37         5        75        8.11     264      547.6
   04/22/2017 12:00      89.6      88.5       17     38.0      0.00     18.24      70.2     0.38      1012.0     3         1         4       327        8.11     264      544.3
   04/22/2017 11:50      89.1      87.6       16     37.3      0.00     18.24      70.3     0.38      1012.0     4        50         5        71        8.11     264      538.4
   04/22/2017 11:40      87.9      87.4       16     36.5      0.00     18.24      70.2     0.38      1012.0     3        23         5         8        8.11     264      532.7
   04/22/2017 11:30      87.7      86.9       16     35.7      0.00     18.24      70.2     0.38      1012.0     4        27         6        70        8.11     264      526.6
   04/22/2017 11:20      87.1      86.6       17     36.6      0.00     18.24      70.1     0.38      1012.0     3        50         4        58        8.11     264      518.3
   04/22/2017 11:10      87.1      86.5       18     37.7      0.00     18.24      70.2     0.38      1012.0     4        59         7       100        8.11     264      503.9
   04/22/2017 11:00      86.2      84.7       18     37.4      0.00     18.24      70.2     0.38      1012.0     2        69         4        93        8.11     264      496.4
   04/22/2017 10:50      84.8      83.8       19     38.0      0.00     18.24      70.2     0.38      1012.0     3        16         5        31        8.11     264      486.1
   04/22/2017 10:40      83.6      82.7       21     38.6      0.00     18.24      70.2     0.38      1012.0     2        15         3         0        8.11     264      475.0
   04/22/2017 10:30      83.3      81.8       21     39.3      0.00     18.24      70.3     0.38      1013.0     3        55         4        26        8.11     265      458.0
   04/22/2017 10:20      81.8      81.2       22     39.4      0.00     18.24      70.4     0.38      1012.0     3        20         4       356        8.11     265      447.9
   04/22/2017 10:10      81.0      80.2       24     40.8      0.00     18.24      70.3     0.38      1013.0     2        27         4        24        8.11     265      426.4
   04/22/2017 10:00      80.2      79.9       25     41.4      0.00     18.24      70.4     0.38      1013.0     2        17         3        49        8.11     266      414.2
   04/22/2017 09:50      79.7      78.3       26     41.2      0.00     18.24      70.3     0.38      1013.0     2        47         3        41        8.11     266      391.8
   04/22/2017 09:40      78.3      77.5       30     43.8      0.00     18.24      70.3     0.38      1013.0     2        17         3        16        8.11     266      366.4
   04/22/2017 09:30      77.6      76.7       31     44.2      0.00     18.24      70.4     0.38      1013.0     2        23         3       343        8.11     266      325.3
   04/22/2017 09:20      76.4      74.4       33     43.8      0.00     18.24      70.5     0.38      1013.0     2        29         3        50        8.11     267      320.4
   04/22/2017 09:10      74.3      73.4       33     43.1      0.00     18.24      70.5     0.38      1013.0     2       345         2         9        8.11     267      337.9
   04/22/2017 09:00      73.4      72.4       33     42.5      0.00     18.24      70.6     0.38      1013.0     1       339         2        36        8.11     267      304.4
   04/22/2017 08:50      72.3      70.8       34     41.8      0.00     18.24      70.7     0.38      1013.0     1       313         1       324        8.11     267      271.5
   04/22/2017 08:40      70.5      69.2       36     41.9      0.00     18.24      70.7     0.38      1013.0     1       334         1       359        8.11     267      206.1
   04/22/2017 08:30      69.0      67.3       38     41.4      0.00     18.24      70.6     0.39      1013.0     1       272         2       248        8.11     266      202.6
   04/22/2017 08:20      67.3      66.3       40     41.8      0.00     18.24      70.8     0.39      1013.0     2       291         3       327        8.11     267      212.4
   04/22/2017 08:10      66.5      65.5       41     41.5      0.00     18.24      70.7     0.39      1013.0     1         4         2        18        8.11     267      140.9
   04/22/2017 08:00      65.5      64.7       43     41.9      0.00     18.24      70.6     0.39      1013.0     1       356         1        20        8.11     267      116.0
   04/22/2017 07:50      64.7      63.1       46     42.8      0.00     18.24      70.9     0.39      1013.0     0       325         1        55        8.12     267       68.4
   04/22/2017 07:40      62.9      60.9       46     41.1      0.00     18.24      70.8     0.39      1013.0     1       280         2       261        8.12     266        4.6
   04/22/2017 07:30      60.9      58.3       51     41.6      0.00     18.24      70.8     0.39      1013.0     1       327         3       280        8.11     267       33.2
   04/22/2017 07:20      58.1      56.7       56     41.8      0.00     18.24      70.8     0.39      1012.0     1       356         1       336        8.12     267       -2.3
   04/22/2017 07:10      56.7      55.6       57     41.0      0.00     18.24      71.0     0.39      1012.0     1       338         1       338        8.12     267      -22.7
   04/22/2017 07:00      55.6      54.9       58     40.6      0.00     18.24      70.7     0.39      1012.0     0       331         1       295        8.12     266      -31.0
   04/22/2017 06:50      54.9      54.4       60     40.9      0.00     18.24      71.1     0.39      1012.0     1       316         1       353        8.12     266      -37.5
   04/22/2017 06:40      54.4      54.0       60     40.8      0.00     18.24      71.2     0.39      1012.0     1       163         3       135        8.12     266      -44.0
   04/22/2017 06:30      54.2      53.6       61     40.8      0.00     18.24      71.0     0.39      1012.0     1       147         2       135        8.12     266      -49.6
   04/22/2017 06:20      54.4      53.5       61     40.7      0.00     18.24      71.0     0.39      1012.0     2       150         3       138        8.12     266      -53.1
   04/22/2017 06:10      54.7      54.4       58     40.1      0.00     18.24      71.1     0.39      1012.0     1       162         2       129        8.12     266      -55.2
   04/22/2017 06:00      54.8      54.4       57     39.9      0.00     18.24      71.1     0.39      1012.0     1       184         1       165        8.12     266      -56.7
   04/22/2017 05:50      54.5      54.1       58     39.9      0.00     18.24      71.2     0.39      1012.0     1       169         2       158        8.12     266      -57.1
   04/22/2017 05:40      54.5      54.2       58     39.8      0.00     18.24      71.1     0.39      1012.0     1       155         2       143        8.12     266      -56.5
   04/22/2017 05:30      55.0      54.4       56     39.5      0.00     18.24      71.3     0.39      1012.0     1        95         1       144        8.12     266      -56.9
   04/22/2017 05:20      55.4      55.0       56     39.8      0.00     18.24      71.2     0.39      1012.0     1       132         1       162        8.12     265      -56.8
   04/22/2017 05:10      56.0      55.2       55     39.6      0.00     18.24      71.4     0.39      1012.0     1       135         2       150        8.12     265      -56.7
   04/22/2017 05:00      56.5      56.0       52     38.6      0.00     18.24      71.5     0.39      1012.0     1       162         1       181        8.12     265      -56.1
   04/22/2017 04:50      56.6      56.5       51     38.7      0.00     18.24      71.3     0.39      1012.0     1       157         2       149        8.12     265      -56.3
   04/22/2017 04:40      56.6      56.4       50     38.4      0.00     18.24      71.5     0.39      1012.0     0       147         1       170        8.12     265      -56.8
   04/22/2017 04:30      56.7      56.0       51     38.3      0.00     18.24      71.4     0.39      1012.0     1       127         2       144        8.12     265      -57.0
   04/22/2017 04:20      57.1      56.5       49     37.8      0.00     18.24      71.4     0.39      1012.0     1       327         1       313        8.12     265      -57.8
   04/22/2017 04:10      57.5      57.1       48     37.9      0.00     18.24      71.5     0.39      1012.0     0       318         1       337        8.12     265      -56.8
   04/22/2017 04:00      57.4      56.8       49     38.0      0.00     18.24      71.6     0.39      1012.0     1       159         1       146        8.12     265      -57.2
   04/22/2017 03:50      57.6      57.1       50     38.8      0.00     18.24      71.6     0.39      1012.0     1       128         2       138        8.12     265      -57.8
   04/22/2017 03:40      57.9      57.7       48     38.2      0.00     18.24      71.6     0.39      1012.0     1       141         1       186        8.12     265      -57.5
   04/22/2017 03:30      58.2      57.9       47     38.1      0.00     18.24      71.7     0.39      1012.0     1       131         1       149        8.12     265      -58.2
   04/22/2017 03:20      58.6      57.9       48     39.0      0.00     18.24      71.8     0.39      1012.0     1       138         2       134        8.12     265      -58.0
   04/22/2017 03:10      58.9      58.3       45     37.5      0.00     18.24      71.6     0.39      1012.0     1       185         1       156        8.12     265      -58.1
   04/22/2017 03:00      59.2      58.4       48     38.9      0.00     18.24      71.7     0.39      1012.0     1       147         2       140        8.12     265      -59.5
   04/22/2017 02:50      59.3      58.5       45     37.7      0.00     18.24      71.7     0.39      1012.0     1       168         1       129        8.12     265      -59.4
   04/22/2017 02:40      59.4      59.0       45     38.0      0.00     18.24      71.7     0.39      1011.0     1       179         2       185        8.12     265      -59.4
   04/22/2017 02:30      59.7      59.3       46     38.5      0.00     18.24      71.9     0.39      1012.0     1       160         2       181        8.12     265      -59.5
   04/22/2017 02:20      60.6      59.8       45     38.6      0.00     18.24      71.8     0.39      1012.0     1       112         2       126        8.12     265      -59.9
   04/22/2017 02:10      60.9      60.6       43     38.0      0.00     18.24      71.8     0.39      1012.0     1       165         2       140        8.12     264      -59.1
   04/22/2017 02:00      61.6      60.7       41     37.1      0.00     18.24      72.0     0.39      1012.0     1       163         2       172        8.12     265      -59.6
   04/22/2017 01:50      61.4      60.8       41     37.0      0.00     18.24      72.0     0.39      1012.0     1       230         2       219        8.12     265      -59.7
   04/22/2017 01:40      61.3      61.0       41     37.0      0.00     18.24      72.0     0.39      1012.0     1       144         1       152        8.12     264      -60.2
   04/22/2017 01:30      61.1      60.8       41     37.1      0.00     18.24      72.0     0.39      1012.0     1       119         2       141        8.13     264      -60.5
   04/22/2017 01:20      62.1      61.1       40     37.3      0.00     18.24      72.1     0.39      1012.0     2       109         2       123        8.13     264      -60.6
   04/22/2017 01:10      61.7      61.5       40     36.9      0.00     18.24      72.0     0.39      1012.0     1         8         2       359        8.13     264      -61.0
   04/22/2017 01:00      62.0      61.4       40     37.0      0.00     18.24      72.1     0.39      1012.0     1        98         1        62        8.13     264      -61.5
   04/22/2017 00:50      62.5      62.0       38     36.6      0.00     18.24      72.0     0.39      1012.0     1        27         1        33        8.13     264      -61.0
   04/22/2017 00:40      63.3      62.2       37     36.5      0.00     18.24      72.0     0.39      1012.0     1       113         2       125        8.13     264      -60.8
   04/22/2017 00:30      63.6      62.8       35     35.0      0.00     18.24      72.2     0.39      1012.0     1       192         1       358        8.15     264      -60.6
   04/22/2017 00:20      62.9      62.6       37     36.2      0.00     18.24      72.2     0.39      1012.0     1        77         1        57        8.17     264      -61.4
   04/22/2017 00:10      63.0      62.6       37     36.1      0.00     18.24      72.1     0.39      1012.0     1       105         1       137        8.17     264      -62.0
   04/22/2017 00:00      63.3      62.8       35     35.2      0.00     18.24      72.1     0.39      1012.0     1        77         1        75        8.17     264      -62.7
   04/21/2017 23:50      63.5      63.1       34     34.7      0.00     18.24      72.2     0.39      1012.0     1       124         2       140        8.18     264      -62.8
   04/21/2017 23:40      63.8      63.5       33     34.3      0.00     18.24      72.0     0.39      1012.0     1       160         1       147        8.18     264      -64.1
   04/21/2017 23:30      64.3      63.9       33     34.7      0.00     18.24      72.1     0.39      1012.0     1        87         2       112        8.18     263      -65.0
   04/21/2017 23:20      65.7      64.5       31     33.8      0.00     18.24      72.1     0.39      1012.0     1       145         2       129        8.18     263      -65.7
   04/21/2017 23:10      66.4      65.7       28     32.1      0.00     18.24      72.2     0.39      1012.0     1       186         1       176        8.18     263      -65.8
   04/21/2017 23:00      66.5      66.1       27     31.5      0.00     18.24      72.1     0.39      1012.0     1       171         2       148        8.19     264      -66.2
   04/21/2017 22:50      67.3      66.8       26     31.3      0.00     18.24      72.0     0.39      1012.0     1       175         1       189        8.19     263      -67.4
   04/21/2017 22:40      68.7      67.3       26     31.8      0.00     18.24      72.2     0.39      1012.0     1        93         1        84        8.19     263      -70.0
   04/21/2017 22:30      69.0      68.7       25     31.5      0.00     18.24      72.2     0.39      1012.0     1         2         1       340        8.20     263      -70.8
   04/21/2017 22:20      71.0      68.7       24     31.7      0.00     18.24      72.2     0.39      1012.0     1        54         2        43        8.20     263      -74.3
   04/21/2017 22:10      72.8      71.4       21     30.1      0.00     18.24      72.0     0.39      1012.0     2        39         3        37        8.20     263      -77.0
   04/21/2017 22:00      72.8      72.5       20     28.8      0.00     18.24      72.2     0.39      1012.0     4       209         5       231        8.21     263      -76.4
   04/21/2017 21:50      72.8      71.6       20     28.9      0.00     18.24      72.1     0.39      1012.0     4       198         5       204        8.22     263      -75.3
   04/21/2017 21:40      72.5      71.5       21     30.1      0.00     18.24      72.3     0.39      1012.0     2       185         5       192        8.22     263      -74.5
   04/21/2017 21:30      72.9      72.8       20     29.0      0.00     18.24      72.0     0.39      1012.0     2       192         4       213        8.22     263      -75.1
   04/21/2017 21:20      73.0      72.8       20     29.3      0.00     18.24      72.1     0.39      1012.0     3       201         5       206        8.22     263      -74.6
   04/21/2017 21:10      73.8      73.1       20     29.6      0.00     18.24      72.1     0.39      1012.0     2       217         4       225        8.23     263      -75.0
   04/21/2017 21:00      73.9      73.6       19     29.4      0.00     18.24      72.1     0.39      1012.0     2       222         3       235        8.23     263      -75.9
   04/21/2017 20:50      74.1      73.7       19     29.6      0.00     18.24      72.0     0.39      1011.0     2       221         4       205        8.23     263      -77.2
   04/21/2017 20:40      74.4      74.1       20     30.6      0.00     18.24      71.9     0.39      1011.0     2       206         3       204        8.23     262      -75.9
   04/21/2017 20:30      75.0      74.2       21     32.5      0.00     18.24      71.9     0.39      1011.0     1       242         2       261        8.24     263      -77.8
   04/21/2017 20:20      75.9      75.3       21     32.6      0.00     18.24      71.9     0.39      1011.0     1       237         2       254        8.24     262      -80.2
   04/21/2017 20:10      76.5      76.0       21     33.1      0.00     18.24      71.9     0.39      1011.0     2       213         3       209        8.24     262      -82.2
   04/21/2017 20:00      77.3      76.5       22     35.2      0.00     18.24      71.9     0.39      1011.0     2       243         2       223        8.24     262      -83.6
   04/21/2017 19:50      78.7      77.5       23     37.4      0.00     18.24      71.8     0.39      1011.0     2       276         3       287        8.25     262      -88.2
   04/21/2017 19:40      79.4      79.1       22     37.5      0.00     18.24      71.8     0.39      1011.0     2       278         3       310        8.25     262      -91.7
   04/21/2017 19:30      80.4      79.4       22     37.9      0.00     18.24      71.7     0.39      1011.0     4       230         5       221        8.25     261      -89.8
   04/21/2017 19:20      81.4      80.4       22     38.4      0.00     18.24      71.6     0.39      1010.0     5       235         8       233        8.25     262      -86.1
   04/21/2017 19:10      82.5      81.5       21     38.2      0.00     18.24      71.6     0.39      1010.0     5       234         7       233        8.26     261      -80.3
   04/21/2017 19:00      83.8      82.7       20     38.4      0.00     18.24      71.5     0.39      1010.0     4       238         7       238        8.26     261      -62.6
   04/21/2017 18:50      85.5      84.1       18     37.1      0.00     18.24      71.5     0.39      1010.0     6       245         7       230        8.27     262      -44.7
   04/21/2017 18:40      85.7      85.2       15     32.2      0.00     18.24      71.7     0.39      1010.0     5       226        10       244        8.28     261      -23.7
   04/21/2017 18:30      85.8      85.6       15     33.2      0.00     18.24      71.5     0.39      1010.0     6       218        10       253        8.28     262        0.7
   04/21/2017 18:20      86.2      85.7       16     34.0      0.00     18.24      71.2     0.39      1010.0     6       210         9       212        8.29     261       25.9
   04/21/2017 18:10      86.7      86.5       16     34.5      0.00     18.24      71.3     0.39      1010.0     4       200         8       211        8.29     262       50.1
   04/21/2017 18:00      86.5      86.2       12     28.7      0.00     18.24      71.3     0.39      1010.0     5       175         8       165        8.29     261       74.4
   04/21/2017 17:50      86.6      86.0       13     29.2      0.00     18.24      71.1     0.39      1010.0     7       169        11       171        8.30     261      100.9
   04/21/2017 17:40      86.8      86.6       14     31.2      0.00     18.24      71.0     0.39      1010.0     6       191         9       192        8.30     261      125.3
   04/21/2017 17:30      87.5      86.7       13     31.0      0.00     18.24      70.9     0.39      1010.0     7       189         9       215        8.30     261      150.5
   04/21/2017 17:20      87.8      87.6       13     31.0      0.00     18.24      70.9     0.39      1010.0     6       162         9       142        8.31     261      175.1
   04/21/2017 17:10      88.1      87.7       14     32.3      0.00     18.24      70.8     0.39      1010.0     7       171         9       186        8.31     261      200.6
   04/21/2017 17:00      89.2      88.3       14     32.7      0.00     18.24      70.7     0.39      1010.0     5       167        10       185        8.31     261      219.8
   04/21/2017 16:50      89.8      89.1       14     33.1      0.00     18.24      70.6     0.39      1010.0     4       158         6       155        8.32     261      242.2
   04/21/2017 16:40      92.0      89.8       14     34.1      0.00     18.24      70.7     0.39      1010.0     4       148         6       138        8.32     262      264.2
   04/21/2017 16:30      92.4      91.8       10     28.1      0.00     18.24      70.5     0.39      1010.0     2        61         4       103        8.32     262      282.9
   04/21/2017 16:20      91.9      91.4       10     28.3      0.00     18.24      70.5     0.38      1010.0     3       288         5       312        8.34     262      304.7
   04/21/2017 16:10      91.9      90.2       11     28.6      0.00     18.24      70.5     0.39      1011.0     4       317         8       275        8.34     261      330.1
   04/21/2017 16:00      92.5      90.8       11     30.5      0.00     18.24      70.4     0.38      1011.0     6       249         8       249        8.35     262      347.8
   04/21/2017 15:50      92.8      92.3       10     29.0      0.00     18.24      70.1     0.38      1011.0     2       346         3       295        8.36     262      363.6
   04/21/2017 15:40      92.5      91.9       11     29.3      0.00     18.24      70.1     0.38      1011.0     5         3         8        11        8.36     262      382.0
   04/21/2017 15:30      91.9      89.9       10     27.6      0.00     18.24      70.2     0.38      1011.0     3        78         5        63        8.37     262      401.9
   04/21/2017 15:20      92.0      90.8       10     28.2      0.00     18.24      70.0     0.38      1011.0     3       131         4       144        8.37     262      416.7
   04/21/2017 15:10      92.5      92.2       10     27.7      0.00     18.24      70.0     0.38      1011.0     3         3         5       353        8.37     262      432.0
   04/21/2017 15:00      92.4      89.8       10     27.4      0.00     18.24      69.8     0.38      1011.0     4        11         7         3        8.37     262      450.5
   04/21/2017 14:50      90.2      89.7       11     27.7      0.00     18.24      69.9     0.38      1012.0     5       287        10       306        8.38     262      467.8
   04/21/2017 14:40      91.3      89.6       11     29.1      0.00     18.24      69.8     0.38      1012.0     4       259        10       225        8.38     262      479.4
   04/21/2017 14:30      90.7      90.1       11     28.1      0.00     18.24      69.7     0.38      1012.0     5       315         6       318        8.38     262      489.6
   04/21/2017 14:20      90.9      89.7       11     28.2      0.00     18.24      69.7     0.38      1012.0     3       305         5       328        8.39     262      500.3
   04/21/2017 14:10      91.7      89.6       11     27.8      0.00     18.24      69.6     0.38      1012.0     5       317         9       309        8.39     263      509.7
   04/21/2017 14:00      91.8      90.1       11     29.6      0.00     18.24      69.6     0.38      1012.0     4        12         9       340        8.39     263      519.9
   04/21/2017 13:50      90.4      89.5       12     29.6      0.00     18.24      69.4     0.38      1012.0     7         1        10       359        8.40     263      528.8
   04/21/2017 13:40      90.6      89.5       12     30.6      0.00     18.24      69.5     0.38      1012.0     5        28         9       357        8.41     263      535.1
   04/21/2017 13:30      89.9      89.0       12     31.3      0.00     18.24      69.3     0.38      1013.0     6        19        10         0        8.41     263      542.0
   04/21/2017 13:20      89.0      88.2       13     31.1      0.00     18.24      69.3     0.38      1013.0     7       355        10         1        8.42     263      550.6
   04/21/2017 13:10      89.1      88.5       14     32.8      0.00     18.24      69.2     0.38      1013.0     7       360        14       344        8.42     263      552.9
   04/21/2017 13:00      88.2      87.5       14     32.3      0.00     18.24      69.2     0.38      1013.0     7         4        11        17        8.42     263      559.6
   04/21/2017 12:50      87.9      87.1       15     33.4      0.00     18.24      69.2     0.38      1013.0     7         2        11       354        8.43     264      562.4
   04/21/2017 12:40      87.1      86.1       15     33.3      0.00     18.24      69.1     0.38      1013.0     6        24         9         9        8.43     263      564.3
   04/21/2017 12:30      86.6      86.3       15     34.1      0.00     18.24      69.2     0.38      1013.0     8       353        11       354        8.43     263      561.9
   04/21/2017 12:20      86.4      85.1       16     35.1      0.00     18.24      69.1     0.38      1013.0     7       357         9       346        8.43     263      561.9
   04/21/2017 12:10      85.0      84.4       17     34.8      0.00     18.24      69.0     0.38      1013.0    10         6        15       344        8.44     263      561.0
   04/21/2017 12:00      85.2      84.3       17     34.6      0.00     18.24      69.1     0.38      1013.0     9       351        15       354        8.44     263      554.2
   04/21/2017 11:50      85.0      83.9       17     34.2      0.00     18.24      69.2     0.38      1013.0     7       357        13       353        8.44     263      547.9
   04/21/2017 11:40      84.3      83.6       17     34.1      0.00     18.24      69.0     0.38      1013.0     9       358        14       350        8.44     263      540.5
   04/21/2017 11:30      83.6      83.0       17     33.7      0.00     18.24      68.9     0.38      1014.0     9       354        13       350        8.44     263      532.4
   04/21/2017 11:20      83.0      82.3       17     33.2      0.00     18.24      69.0     0.38      1014.0     9       357        17         5        8.44     264      525.3
   04/21/2017 11:10      83.0      82.1       17     33.3      0.00     18.24      68.9     0.38      1014.0     9       357        16        14        8.44     264      513.5
   04/21/2017 11:00      82.7      81.4       17     32.9      0.00     18.24      68.9     0.38      1014.0     7         3        12        15        8.44     264      502.5
   04/21/2017 10:50      82.0      81.5       17     32.8      0.00     18.24      69.0     0.38      1014.0     8         1        12       352        8.45     264      489.4
   04/21/2017 10:40      82.3      81.7       18     33.8      0.00     18.24      69.0     0.38      1014.0     7       347        11       346        8.45     264      474.2
   04/21/2017 10:30      81.5      80.3       18     33.8      0.00     18.24      69.2     0.38      1014.0     7       347        10       316        8.45     264      462.2
   04/21/2017 10:20      80.5      79.6       19     34.0      0.00     18.24      69.0     0.38      1014.0     7       345        11       342        8.45     264      446.6
   04/21/2017 10:10      79.6      78.8       20     34.7      0.00     18.24      69.2     0.38      1014.0     8       339        12       349        8.45     264      429.7
   04/21/2017 10:00      78.9      78.3       21     35.1      0.00     18.24      69.1     0.38      1014.0     7       355        15         3        8.45     264      412.2
   04/21/2017 09:50      78.4      77.3       22     35.7      0.00     18.24      69.1     0.38      1014.0     7       354        11         6        8.45     264      394.9
   04/21/2017 09:40      77.4      76.3       23     36.0      0.00     18.24      69.1     0.38      1014.0     5       359        10         3        8.45     264      377.1
   04/21/2017 09:30      76.5      75.8       23     36.1      0.00     18.24      69.2     0.38      1014.0     7         1         8       337        8.45     264      358.5
   04/21/2017 09:20      75.6      74.8       24     36.2      0.00     18.24      69.1     0.38      1014.0     6         7        10       338        8.45     264      338.1
   04/21/2017 09:10      75.0      74.2       25     36.4      0.00     18.24      69.2     0.38      1014.0     6       355        12        10        8.45     264      318.3
   04/21/2017 09:00      74.3      73.5       26     36.5      0.00     18.24      69.3     0.38      1014.0     6       351        13        10        8.45     264      296.2
   04/21/2017 08:50      73.6      72.8       26     36.4      0.00     18.24      69.3     0.38      1014.0     6         4         9       337        8.45     265      274.6
   04/21/2017 08:40      72.9      72.2       27     36.9      0.00     18.24      69.3     0.39      1014.0     5       343         8       317        8.45     265      249.4
   04/21/2017 08:30      72.3      71.3       28     36.6      0.00     18.24      69.4     0.39      1014.0     5       345         8         4        8.45     265      228.8
   04/21/2017 08:20      71.4      70.7       28     36.6      0.00     18.24      69.2     0.39      1014.0     6       357        11        15        8.45     265      208.5
   04/21/2017 08:10      71.0      70.7       29     36.7      0.00     18.24      69.3     0.39      1014.0     6       346        11        13        8.45     265      175.2
   04/21/2017 08:00      70.9      69.8       30     37.5      0.00     18.24      69.2     0.39      1014.0     1       152         3       141        8.45     265      151.9
   04/21/2017 07:50      69.8      68.7       30     36.3      0.00     18.24      69.4     0.39      1014.0     4       346         7       341        8.46     265       64.0
   04/21/2017 07:40      68.7      67.2       31     36.4      0.00     18.24      69.6     0.39      1014.0     5         9         9         0        8.46     265      -29.8
   04/21/2017 07:30      67.3      65.3       34     36.8      0.00     18.24      69.4     0.39      1014.0     4         7         7        14        8.46     265        4.1
   04/21/2017 07:20      65.4      63.7       37     37.5      0.00     18.24      69.5     0.39      1014.0     3        28         9         3        8.46     265      -27.2
   04/21/2017 07:10      63.9      62.6       38     37.0      0.00     18.24      69.7     0.39      1014.0     1       112         2       196        8.46     265      -38.7
   04/21/2017 07:00      62.6      62.0       39     36.9      0.00     18.24      69.3     0.39      1014.0     2       126         3       104        8.46     265      -42.5
   04/21/2017 06:50      62.5      62.2       37     36.1      0.00     18.24      69.7     0.39      1014.0     2       133         3       142        8.46     265      -45.9
   04/21/2017 06:40      63.0      62.5       36     35.7      0.00     18.24      69.7     0.39      1014.0     1        95         3       126        8.46     265      -50.8
   04/21/2017 06:30      64.0      63.1       35     35.2      0.00     18.24      69.6     0.39      1014.0     2        93         3       138        8.46     265      -57.5
   04/21/2017 06:20      64.8      63.8       33     34.8      0.00     18.24      69.6     0.39      1014.0     3        37         5       357        8.46     265      -61.9
   04/21/2017 06:10      64.8      63.4       33     34.5      0.00     18.24      69.6     0.39      1014.0     3       347         5       314        8.46     265      -62.9
   04/21/2017 06:00      63.3      61.5       35     34.3      0.00     18.24      69.7     0.39      1014.0     2       309         3       309        8.46     265      -62.9
   04/21/2017 05:50      64.2      61.9       34     34.4      0.00     18.24      69.8     0.39      1014.0     2       153         3       158        8.46     265      -64.7
   04/21/2017 05:40      65.8      64.3       31     33.9      0.00     18.24      69.8     0.39      1013.0     2       192         3       341        8.46     265      -67.0
   04/21/2017 05:30      66.2      65.8       30     33.8      0.00     18.24      69.8     0.39      1013.0     2       325         3       343        8.46     265      -69.8
   04/21/2017 05:20      66.7      66.2       29     33.5      0.00     18.24      69.8     0.39      1014.0     4       347         6       300        8.47     264      -73.0
   04/21/2017 05:10      67.1      66.6       28     33.1      0.00     18.24      69.7     0.39      1013.0     4       354         6       339        8.47     264      -73.9
   04/21/2017 05:00      67.3      66.6       28     32.6      0.00     18.24      69.9     0.39      1013.0     7       332        11       314        8.47     264      -74.1
   04/21/2017 04:50      67.4      67.0       27     32.6      0.00     18.24      70.0     0.39      1013.0     8       336        11        16        8.47     264      -73.2
   04/21/2017 04:40      67.5      65.8       28     32.4      0.00     18.24      69.9     0.39      1013.0     7       344        11       342        8.47     265      -70.9
   04/21/2017 04:30      66.0      65.5       28     31.9      0.00     18.24      70.2     0.39      1014.0     4       317         8       325        8.47     265      -68.3
   04/21/2017 04:20      66.5      65.5       27     31.2      0.00     18.24      70.0     0.39      1014.0     2       234         4       356        8.47     264      -67.7
   04/21/2017 04:10      66.5      66.1       27     31.6      0.00     18.24      70.1     0.39      1014.0     3       324         6         6        8.47     265      -68.8
   04/21/2017 04:00      66.2      63.8       29     32.0      0.00     18.24      70.1     0.39      1014.0     6       347        11       337        8.48     265      -67.9
   04/21/2017 03:50      63.7      60.8       34     33.2      0.00     18.24      70.1     0.39      1014.0     4       343         8        12        8.48     265      -65.2
   04/21/2017 03:40      60.6      58.6       39     34.6      0.00     18.24      69.9     0.39      1014.0     3       133         4       123        8.48     265      -66.2
   04/21/2017 03:30      60.2      58.9       39     34.6      0.00     18.24      70.1     0.39      1014.0     4       191         6       139        8.48     265      -66.7
   04/21/2017 03:20      58.8      57.7       41     34.9      0.00     18.24      70.0     0.39      1014.0     3       234         5       255        8.48     265      -66.6
   04/21/2017 03:10      58.4      57.6       43     35.8      0.00     18.24      70.2     0.39      1014.0     3       164         4       144        8.48     265      -67.9
   04/21/2017 03:00      59.7      58.4       41     35.4      0.00     18.24      70.0     0.39      1014.0     3       159         5       145        8.48     265      -68.6
   04/21/2017 02:50      62.2      59.9       38     34.9      0.00     18.24      70.1     0.39      1015.0     2       137         3       124        8.48     265      -68.8
   04/21/2017 02:40      64.8      62.5       34     34.4      0.00     18.24      70.2     0.39      1015.0     1       190         2       129        8.48     264      -70.9
   04/21/2017 02:30      66.2      65.3       30     33.6      0.00     18.24      70.3     0.39      1015.0     2       330         4       321        8.48     265      -74.6
   04/21/2017 02:20      66.3      66.1       30     33.6      0.00     18.24      70.1     0.39      1015.0     4       315         7       313        8.48     264      -75.0
   04/21/2017 02:10      66.2      66.0       30     34.1      0.00     18.24      70.3     0.39      1015.0     5       329        10       342        8.48     265      -75.5
   04/21/2017 02:00      66.0      65.8       31     34.9      0.00     18.24      70.4     0.39      1015.0     5       313         9       303        8.48     265      -74.6
   04/21/2017 01:50      66.4      65.9       31     34.7      0.00     18.24      70.4     0.39      1015.0     5       314         9       316        8.49     265      -72.7
   04/21/2017 01:40      65.9      64.8       32     34.7      0.00     18.24      70.3     0.39      1015.0     4       336         6       283        8.49     265      -70.0
   04/21/2017 01:30      64.5      61.2       37     35.9      0.00     18.24      70.3     0.39      1015.0     4       359         7        21        8.49     265      -67.4
   04/21/2017 01:20      60.9      60.2       42     37.1      0.00     18.24      70.3     0.39      1016.0     1       356         3        29        8.49     265      -66.3
   04/21/2017 01:10      60.8      59.6       43     37.7      0.00     18.24      70.1     0.39      1016.0     1       119         2        40        8.49     265      -67.3
   04/21/2017 01:00      61.4      60.3       43     37.8      0.00     18.24      70.1     0.39      1016.0     1       125         2       132        8.49     265      -67.5
   04/21/2017 00:50      61.1      60.5       42     37.6      0.00     18.24      70.1     0.39      1016.0     1       314         2        44        8.49     265      -67.9
   04/21/2017 00:40      64.2      60.9       41     38.3      0.00     18.24      70.4     0.39      1016.0     2       150         3       135        8.49     265      -68.9
   04/21/2017 00:30      64.9      62.3       36     36.9      0.00     18.24      70.3     0.39      1016.0     2       261         4       276        8.49     264      -69.0
   04/21/2017 00:20      62.3      61.3       41     37.5      0.00     18.24      70.6     0.39      1016.0     3       239         3       262        8.49     264      -68.5
   04/21/2017 00:10      63.5      61.7       39     37.8      0.00     18.24      70.4     0.39      1016.0     1       151         3       225        8.50     264      -70.2
   04/21/2017 00:00      64.2      62.3       38     37.0      0.00     18.24      70.5     0.39      1016.0     2       211         3       192        8.50     264      -70.2
   04/20/2017 23:50      63.7      62.2       38     37.3      0.00     18.24      70.3     0.39      1016.0     1       177         2       140        8.50     264      -71.6
   04/20/2017 23:40      64.2      63.8       37     37.1      0.00     18.24      70.5     0.39      1016.0     1       231         3       288        8.50     264      -73.3
   04/20/2017 23:30      64.3      63.3       37     36.7      0.00     18.24      70.5     0.39      1016.0     2       155         4       153        8.50     264      -73.6
   04/20/2017 23:20      65.8      64.3       35     36.5      0.00     18.24      70.6     0.39      1016.0     2       170         3       199        8.50     264      -73.8
   04/20/2017 23:10      67.4      65.8       32     36.2      0.00     18.24      70.2     0.39      1016.0     2       146         3       104        8.50     264      -76.8
   04/20/2017 23:00      68.8      67.7       30     35.9      0.00     18.24      70.5     0.39      1015.0     3        76         5        74        8.50     263      -81.8
   04/20/2017 22:50      68.8      68.4       30     35.6      0.00     18.24      70.5     0.39      1015.0     4       277         8       271        8.51     264      -83.4
   04/20/2017 22:40      69.6      68.7       28     34.9      0.00     18.24      70.5     0.39      1016.0     4       253         7       251        8.51     263      -82.3
   04/20/2017 22:30      69.9      69.7       27     33.9      0.00     18.24      70.5     0.39      1016.0     3       265         6       297        8.51     264      -83.3
   04/20/2017 22:20      69.8      69.6       27     34.2      0.00     18.24      70.4     0.39      1016.0     4       332         6       325        8.51     263      -85.8
   04/20/2017 22:10      69.6      68.9       27     34.1      0.00     18.24      70.5     0.39      1016.0     6       291         9       299        8.51     263      -85.5
   04/20/2017 22:00      69.4      69.0       28     34.8      0.00     18.24      70.4     0.39      1016.0     3       331         5       304        8.51     263      -86.3
   04/20/2017 21:50      69.4      69.4       28     34.6      0.00     18.24      70.5     0.39      1016.0     4       291         6       296        8.51     263      -89.5
   04/20/2017 21:40      69.7      69.6       28     34.7      0.00     18.24      70.5     0.39      1016.0     6       297         9       308        8.51     263      -89.1
   04/20/2017 21:30      69.8      69.5       28     34.9      0.00     18.24      70.5     0.39      1016.0     6       301        12       297        8.51     263      -87.9
   04/20/2017 21:20      69.5      68.4       29     35.3      0.00     18.24      70.4     0.39      1016.0     4       343         9       331        8.52     263      -88.5
   04/20/2017 21:10      69.0      68.6       30     36.2      0.00     18.24      70.4     0.39      1016.0     4       250         6       239        8.52     263      -88.8
   04/20/2017 21:00      69.4      69.0       30     36.8      0.00     18.24      70.5     0.39      1016.0     4       289         7       308        8.52     263      -88.4
   04/20/2017 20:50      69.3      69.2       31     37.0      0.00     18.24      70.3     0.39      1016.0     7       315        12       333        8.52     263      -89.4
   04/20/2017 20:40      69.4      69.2       31     37.3      0.00     18.24      70.4     0.39      1016.0     7       332        11       309        8.52     263      -90.2
   04/20/2017 20:30      69.7      69.3       31     37.7      0.00     18.24      70.4     0.39      1016.0     6       321        14       310        8.52     263      -90.2
   04/20/2017 20:20      70.0      69.7       31     37.5      0.00     18.24      70.2     0.39      1016.0     6       337         8       320        8.52     263      -90.8
   04/20/2017 20:10      70.3      70.1       30     37.5      0.00     18.24      70.2     0.39      1015.0     4       322         8       333        8.52     263      -91.9
   04/20/2017 20:00      70.5      70.3       30     37.5      0.00     18.24      70.4     0.39      1015.0     6       316         9       331        8.52     263      -93.4
   04/20/2017 19:50      71.3      70.8       29     37.4      0.00     18.24      70.3     0.39      1015.0     7       330         9       348        8.52     263      -93.7
   04/20/2017 19:40      72.0      71.3       28     37.0      0.00     18.24      70.2     0.39      1015.0     7       345        11         6        8.53     262      -93.5
   04/20/2017 19:30      72.5      72.1       27     36.6      0.00     18.24      70.1     0.39      1015.0     6       339         9       337        8.54     262      -90.7
   04/20/2017 19:20      72.9      72.5       27     36.4      0.00     18.24      70.2     0.39      1015.0     7       342         9       318        8.54     262      -87.7
   04/20/2017 19:10      73.8      73.0       26     36.8      0.00     18.24      70.1     0.39      1015.0     7       346        12       347        8.54     262      -80.6
   04/20/2017 19:00      74.3      73.8       26     36.7      0.00     18.24      70.0     0.39      1015.0     6       358        11       343        8.55     262      -62.0
   04/20/2017 18:50      75.4      74.3       25     36.5      0.00     18.24      69.9     0.39      1015.0     9       349        13       345        8.55     262      -43.3
   04/20/2017 18:40      75.8      75.3       25     37.0      0.00     18.24      69.9     0.39      1015.0     8       343         9       358        8.56     262      -22.1
   04/20/2017 18:30      76.3      76.1       24     37.2      0.00     18.24      70.0     0.39      1015.0     6       347        10       340        8.56     262        1.5
   04/20/2017 18:20      77.3      76.6       24     37.3      0.00     18.24      69.9     0.39      1015.0     7       355        12       358        8.56     262       27.4
   04/20/2017 18:10      78.0      77.3       23     36.9      0.00     18.24      69.8     0.39      1015.0     7       353        10       342        8.57     263       52.7
   04/20/2017 18:00      79.5      78.4       22     37.4      0.00     18.24      69.9     0.39      1015.0     8       339        14       339        8.57     262       78.3
   04/20/2017 17:50      79.6      79.2       23     38.1      0.00     18.24      69.7     0.39      1015.0     5       336         6       348        8.58     263      105.2
   04/20/2017 17:40      79.7      79.4       23     38.0      0.00     18.24      69.8     0.39      1015.0     6       336         9       318        8.58     263      132.5
   04/20/2017 17:30      80.5      79.3       21     36.8      0.00     18.24      69.7     0.39      1015.0     7       326        10       353        8.58     263      155.0
   04/20/2017 17:20      81.0      80.2       20     36.1      0.00     18.24      69.7     0.39      1015.0     6       330        10       302        8.58     263      180.4
   04/20/2017 17:10      80.8      80.2       20     36.1      0.00     18.24      69.5     0.39      1015.0     8       332        13       329        8.59     262      205.3
   04/20/2017 17:00      80.9      80.2       22     37.9      0.00     18.24      69.4     0.39      1015.0     6       313         8       324        8.59     263      231.0
   04/20/2017 16:50      81.3      80.6       20     36.1      0.00     18.24      69.5     0.39      1015.0     6       337         9       325        8.60     263      250.7
   04/20/2017 16:40      81.7      81.0       18     34.4      0.00     18.24      69.4     0.39      1015.0     7       356        11       350        8.60     263      274.7
   04/20/2017 16:30      81.7      81.2       18     33.7      0.00     18.24      69.3     0.39      1015.0     7       342        11       331        8.60     263      299.5
   04/20/2017 16:20      81.4      80.8       17     32.3      0.00     18.24      69.2     0.39      1015.0     5       354         7        17        8.61     263      321.9
   04/20/2017 16:10      81.8      80.4       17     31.8      0.00     18.24      69.2     0.39      1015.0     7       347        10       325        8.62     263      343.3
   04/20/2017 16:00      81.7      80.9       17     31.7      0.00     18.24      69.3     0.39      1015.0     6       345         9         6        8.63     263      364.6
   04/20/2017 15:50      81.6      81.0       17     32.4      0.00     18.24      69.2     0.39      1015.0     8       353        11        20        8.64     263      387.5
   04/20/2017 15:40      81.0      80.0       17     31.9      0.00     18.24      69.0     0.39      1015.0     6       350         8         1        8.64     264      405.2
   04/20/2017 15:30      81.1      80.2       17     32.2      0.00     18.24      69.0     0.39      1016.0     6       355         8       352        8.65     263      422.7
   04/20/2017 15:20      80.8      80.2       17     32.1      0.00     18.24      68.9     0.38      1016.0     8       341        12       350        8.65     263      440.2
   04/20/2017 15:10      80.9      80.2       17     32.0      0.00     18.24      68.9     0.38      1016.0     6       337         9       315        8.65     263      455.8
   04/20/2017 15:00      80.5      79.9       17     31.8      0.00     18.24      68.8     0.38      1016.0     5       320        10       349        8.65     263      470.7
   04/20/2017 14:50      80.8      79.7       17     31.2      0.00     18.24      68.6     0.38      1016.0     6       355         9       307        8.65     263      485.9
   04/20/2017 14:40      80.0      79.2       18     31.9      0.00     18.24      68.6     0.38      1016.0     5       341         8       316        8.65     264      502.5
   04/20/2017 14:30      80.3      79.0       18     32.0      0.00     18.24      68.7     0.38      1016.0     7       338         8         0        8.66     264      516.1
   04/20/2017 14:20      79.9      78.8       19     32.9      0.00     18.24      68.6     0.38      1017.0     8       351        13       350        8.66     264      526.3
   04/20/2017 14:10      79.4      78.5       20     34.1      0.00     18.24      68.6     0.38      1017.0     6       356         9       358        8.66     264      540.3
   04/20/2017 14:00      78.5      78.0       20     34.2      0.00     18.24      68.4     0.38      1017.0     8       338        13       358        8.66     264      548.3
   04/20/2017 13:50      78.5      77.8       20     34.3      0.00     18.24      68.6     0.38      1017.0     7       317        10       341        8.66     264      558.8
   04/20/2017 13:40      78.3      76.8       21     35.2      0.00     18.24      68.4     0.38      1017.0     8       324        13       351        8.66     264      565.8
   04/20/2017 13:30      77.5      76.9       22     35.3      0.00     18.24      68.1     0.38      1017.0     9       328        16       303        8.66     264      573.0
   04/20/2017 13:20      77.5      75.7       23     36.3      0.00     18.24      68.4     0.38      1017.0     9       351        11       350        8.66     264      581.3
   04/20/2017 13:10      75.8      74.6       25     37.0      0.00     18.24      68.2     0.38      1017.0     9       360        14         2        8.66     264      585.9
   04/20/2017 13:00      75.2      74.6       23     34.5      0.00     18.24      68.2     0.38      1018.0     9       354        11       307        8.66     264      590.2
   04/20/2017 12:50      75.1      74.6       23     34.3      0.00     18.24      68.1     0.38      1018.0    10       351        15       326        8.67     264      592.3
   04/20/2017 12:40      75.8      74.3       23     35.1      0.00     18.24      68.1     0.38      1018.0    10       348        20         1        8.67     264      590.2
   04/20/2017 12:30      74.6      73.8       24     34.8      0.00     18.24      68.3     0.38      1018.0    11       336        17       313        8.67     264      591.0
   04/20/2017 12:20      75.0      73.9       24     35.3      0.00     18.24      68.1     0.38      1018.0    12       328        15       314        8.67     264      585.9
   04/20/2017 12:10      75.0      74.4       24     35.6      0.00     18.24      68.2     0.38      1019.0     9       337        14       355        8.67     264      579.1
   04/20/2017 12:00      75.0      74.3       25     36.2      0.00     18.24      68.1     0.38      1019.0    10       347        17         8        8.67     264      573.9
   04/20/2017 11:50      75.5      74.3       25     36.3      0.00     18.24      68.2     0.38      1019.0    11       347        15       354        8.67     265      563.7
   04/20/2017 11:40      75.9      74.7       25     36.8      0.00     18.24      68.3     0.38      1019.0     6       330        12       320        8.67     265      551.4
   04/20/2017 11:30      75.7      74.8       25     36.9      0.00     18.24      68.5     0.38      1019.0     4        17         9        30        8.67     265      540.7
   04/20/2017 11:20      74.9      74.2       26     37.6      0.00     18.24      68.2     0.38      1019.0     4       337         8       339        8.67     265      530.6
   04/20/2017 11:10      73.9      73.1       27     37.0      0.00     18.24      68.2     0.38      1019.0     6       339        12         0        8.67     265      524.8
   04/20/2017 11:00      74.4      73.8       27     38.4      0.00     18.24      68.2     0.38      1019.0     8        11        13       352        8.67     265      510.0
   04/20/2017 10:50      74.0      73.5       28     38.5      0.00     18.24      68.3     0.38      1019.0     6        21         8       352        8.67     265      495.1
   04/20/2017 10:40      73.4      73.0       28     37.9      0.00     18.24      68.2     0.38      1019.0     3        32         5        23        8.67     265      481.9
   04/20/2017 10:30      73.0      71.6       29     38.1      0.00     18.24      68.2     0.38      1019.0     4         5         7         8        8.67     266      467.1
   04/20/2017 10:20      71.5      71.1       29     37.5      0.00     18.24      68.5     0.38      1019.0     5       342         9         3        8.67     266      454.2
   04/20/2017 10:10      71.2      70.6       30     37.8      0.00     18.24      68.1     0.38      1019.0     5        13         8       319        8.67     266      437.9
   04/20/2017 10:00      71.1      70.3       30     37.5      0.00     18.24      68.5     0.38      1019.0     6         5        11         0        8.67     266      418.8
   04/20/2017 09:50      70.9      70.2       29     37.0      0.00     18.24      68.4     0.38      1019.0     5       348         8       350        8.67     267      399.0
   04/20/2017 09:40      70.7      69.8       30     37.3      0.00     18.24      68.7     0.38      1019.0     4        23         6         6        8.67     267      381.1
   04/20/2017 09:30      70.1      69.3       31     37.4      0.00     18.24      68.5     0.38      1019.0     4        27         6        19        8.67     267      363.4
   04/20/2017 09:20      69.7      68.6       32     37.8      0.00     18.24      68.5     0.38      1019.0     4        16         6       359        8.68     267      344.0
   04/20/2017 09:10      68.4      67.6       33     37.7      0.00     18.24      68.1     0.38      1019.0     4       342         5        16        8.68     267      324.0
   04/20/2017 09:00      67.6      66.6       35     38.3      0.00     18.24      68.3     0.39      1019.0     5       343         7       353        8.68     267      301.9
   04/20/2017 08:50      66.5      65.6       37     39.3      0.00     18.24      68.8     0.39      1019.0     5       328         7       318        8.68     267      280.6
   04/20/2017 08:40      65.8      64.8       39     39.8      0.00     18.24      68.7     0.39      1019.0     5       311         7       309        8.68     268      259.0
   04/20/2017 08:30      65.0      64.0       40     39.6      0.00     18.24      68.7     0.39      1019.0     6       331        10       308        8.68     267      235.5
   04/20/2017 08:20      64.1      63.6       41     39.6      0.00     18.24      68.7     0.39      1019.0     6       325        10       324        8.68     268      210.5
   04/20/2017 08:10      63.3      62.3       42     39.8      0.00     18.24      68.8     0.39      1019.0     5       345         7       289        8.68     268      185.2
   04/20/2017 08:00      62.4      61.5       45     40.4      0.00     18.24      68.9     0.39      1019.0     3       332         6       341        8.68     269      162.4
   04/20/2017 07:50      61.5      60.9       47     40.6      0.00     18.24      68.9     0.39      1019.0     2       305         3       314        8.68     269       87.7
   04/20/2017 07:40      61.0      60.5       47     40.4      0.00     18.24      68.9     0.39      1019.0     3       314         4       322        8.68     269      -35.8
   04/20/2017 07:30      60.5      59.8       48     40.2      0.00     18.24      68.6     0.39      1019.0     3       308         4       302        8.68     269       -8.1
   04/20/2017 07:20      60.0      59.3       48     39.9      0.00     18.24      68.9     0.39      1019.0     4       315         7       313        8.68     269      -20.4
   04/20/2017 07:10      59.4      58.5       49     39.8      0.00     18.24      69.1     0.39      1019.0     4       301         7       305        8.68     269      -39.7
   04/20/2017 07:00      58.5      56.0       53     40.2      0.00     18.24      69.0     0.39      1019.0     2       286         4       295        8.68     269      -42.6
   04/20/2017 06:50      56.1      53.6       59     40.9      0.00     18.24      69.1     0.39      1019.0     2       272         4       271        8.69     269      -48.5
   04/20/2017 06:40      53.3      51.3       69     42.1      0.00     18.24      69.2     0.39      1018.0     2       257         4       261        8.68     269      -50.4
   04/20/2017 06:30      51.2      49.1       75     42.5      0.00     18.24      69.2     0.39      1018.0     1       239         4       278        8.69     269      -49.1
   04/20/2017 06:20      49.4      49.0       80     43.4      0.00     18.24      69.2     0.39      1018.0     2       158         2       136        8.68     269      -48.1
   04/20/2017 06:10      49.3      47.9       84     43.7      0.00     18.24      69.1     0.39      1018.0     2       151         3       155        8.69     269      -49.4
   04/20/2017 06:00      48.8      48.2       84     44.0      0.00     18.24      69.5     0.39      1018.0     2       119         2       121        8.69     269      -50.3
   04/20/2017 05:50      49.1      48.8       83     44.0      0.00     18.24      69.5     0.39      1018.0     2       128         3       148        8.69     269      -51.8
   04/20/2017 05:40      49.1      48.7       82     43.8      0.00     18.24      69.4     0.39      1018.0     1       182         2       201        8.69     269      -53.1
   04/20/2017 05:30      49.3      48.8       82     44.0      0.00     18.24      69.3     0.39      1018.0     2       193         3       141        8.68     269      -51.9
   04/20/2017 05:20      49.8      49.3       82     44.2      0.00     18.24      69.3     0.39      1018.0     1       201         2       220        8.69     268      -50.8
   04/20/2017 05:10      49.4      49.1       83     44.4      0.00     18.24      69.4     0.39      1018.0     1       194         1       105        8.69     268      -51.5
   04/20/2017 05:00      49.6      49.0       84     44.4      0.00     18.24      69.4     0.39      1018.0     1       293         1       119        8.69     268      -51.6
   04/20/2017 04:50      49.6      49.3       83     44.5      0.00     18.24      69.7     0.39      1018.0     1       159         3       140        8.69     268      -51.8
   04/20/2017 04:40      50.0      49.4       82     44.5      0.00     18.24      69.5     0.39      1019.0     2       119         3       129        8.69     268      -54.2
   04/20/2017 04:30      50.0      49.4       83     44.8      0.00     18.24      69.7     0.39      1018.0     1       235         2       248        8.69     268      -54.9
   04/20/2017 04:20      49.7      49.4       83     44.8      0.00     18.24      69.6     0.39      1018.0     1       100         3       143        8.69     268      -55.7
   04/20/2017 04:10      50.2      49.8       82     44.8      0.00     18.24      69.3     0.39      1018.0     2       138         3       139        8.69     268      -56.8
   04/20/2017 04:00      50.4      50.2       82     45.0      0.00     18.24      69.5     0.39      1018.0     1       154         2       151        8.69     268      -58.1
   04/20/2017 03:50      50.7      50.2       81     45.0      0.00     18.24      69.6     0.39      1018.0     1       150         2       148        8.69     268      -59.9
   04/20/2017 03:40      50.4      50.1       81     44.6      0.00     18.24      69.8     0.39      1018.0     1       204         2       143        8.69     268      -61.5
   04/20/2017 03:30      51.0      50.3       80     44.7      0.00     18.24      69.5     0.39      1018.0     2       146         2       129        8.69     268      -61.6
   04/20/2017 03:20      51.2      50.8       79     44.8      0.00     18.24      69.7     0.39      1018.0     1       140         2        94        8.69     268      -61.4
   04/20/2017 03:10      51.8      51.3       78     45.0      0.00     18.24      69.8     0.39      1018.0     1       124         2       124        8.69     268      -62.6
   04/20/2017 03:00      52.1      51.7       78     45.0      0.00     18.24      70.1     0.39      1018.0     1       142         2       144        8.69     268      -63.3
   04/20/2017 02:50      51.9      51.6       78     45.1      0.00     18.24      70.0     0.39      1018.0     1       247         1       251        8.69     268      -63.7
   04/20/2017 02:40      53.0      51.9       75     45.0      0.00     18.24      69.9     0.39      1018.0     1       151         2       132        8.69     268      -64.2
   04/20/2017 02:30      52.8      52.5       76     45.2      0.00     18.24      70.1     0.39      1018.0     1       199         1       174        8.69     268      -64.1
   04/20/2017 02:20      53.0      52.5       74     44.8      0.00     18.24      70.2     0.39      1018.0     1       143         1       139        8.69     268      -64.3
   04/20/2017 02:10      52.9      52.6       74     44.6      0.00     18.24      70.0     0.39      1018.0     1       225         1       178        8.69     268      -64.5
   04/20/2017 02:00      53.3      53.0       74     45.0      0.00     18.24      70.1     0.39      1018.0     1       158         1       125        8.69     268      -64.5
   04/20/2017 01:50      53.6      53.4       72     44.7      0.00     18.24      70.3     0.39      1018.0     1       170         1       126        8.69     268      -64.5
   04/20/2017 01:40      53.8      53.5       72     44.9      0.00     18.24      70.3     0.39      1018.0     1       174         2       183        8.69     268      -64.7
   04/20/2017 01:30      54.0      53.6       72     45.1      0.00     18.24      70.2     0.39      1018.0     0       356         1       259        8.69     268      -65.5
   04/20/2017 01:20      54.5      53.6       71     44.9      0.00     18.24      70.2     0.39      1018.0     2       148         3       141        8.69     268      -66.2
   04/20/2017 01:10      55.1      54.3       69     44.5      0.00     18.24      70.4     0.39      1018.0     1       166         2       165        8.69     268      -66.4
   04/20/2017 01:00      55.3      54.3       69     44.6      0.00     18.24      70.3     0.39      1018.0     1       138         2       185        8.69     268      -66.9
   04/20/2017 00:50      56.0      54.5       66     44.1      0.00     18.24      70.2     0.39      1018.0     2       172         3       154        8.69     267      -66.8
   04/20/2017 00:40      56.5      56.0       63     44.1      0.00     18.24      70.1     0.39      1019.0     1       191         2       311        8.69     267      -67.0
   04/20/2017 00:30      57.2      56.6       63     44.4      0.00     18.24      70.3     0.39      1019.0     1       232         1       323        8.69     267      -66.6
   04/20/2017 00:20      57.6      57.0       63     44.7      0.00     18.24      70.5     0.39      1019.0     1       225         2       351        8.69     267      -68.3
   04/20/2017 00:10      58.1      57.5       64     45.9      0.00     18.24      70.3     0.39      1019.0     1       217         2       186        8.69     267      -69.0
   04/20/2017 00:00      59.0      58.4       65     46.8      0.00     18.24      70.3     0.39      1019.0     1       267         1       155        8.69     267      -69.1
   04/19/2017 23:50      58.8      58.2       65     46.8      0.00     18.24      70.3     0.39      1019.0     2       197         2       176        8.69     267      -69.5
   04/19/2017 23:40      59.6      58.4       68     48.4      0.00     18.24      70.3     0.39      1019.0     3       164         3       172        8.69     267      -70.1
   04/19/2017 23:30      60.0      58.6       67     48.4      0.00     18.24      70.5     0.39      1019.0     3       179         4       172        8.70     267      -69.0
   04/19/2017 23:20      58.7      57.9       72     49.3      0.00     18.24      70.5     0.39      1019.0     3       183         3       184        8.70     267      -69.6
   04/19/2017 23:10      58.6      58.0       72     49.2      0.00     18.24      70.5     0.39      1019.0     3       183         4       187        8.70     267      -69.1
   04/19/2017 23:00      58.8      58.4       72     49.5      0.00     18.24      70.5     0.39      1019.0     3       182         4       182        8.70     267      -68.2
   04/19/2017 22:50      59.6      58.7       70     49.3      0.00     18.24      70.2     0.39      1019.0     2       179         4       169        8.70     267      -67.9
   04/19/2017 22:40      60.2      59.7       68     49.4      0.00     18.24      70.3     0.39      1019.0     1       179         2       193        8.70     267      -66.8
   04/19/2017 22:30      60.6      60.0       68     49.5      0.00     18.24      70.4     0.39      1019.0     1       112         1       143        8.70     267      -66.9
   04/19/2017 22:20      60.9      60.3       67     49.5      0.00     18.24      70.4     0.39      1019.0     1       120         1       143        8.70     267      -66.8
   04/19/2017 22:10      62.5      60.2       64     49.1      0.00     18.24      70.3     0.39      1019.0     2       123         2       127        8.70     267      -67.7
   04/19/2017 22:00      63.0      62.4       61     49.0      0.00     18.24      70.6     0.39      1019.0     2       194         3       201        8.70     267      -66.6
   04/19/2017 21:50      63.1      62.4       61     49.1      0.00     18.24      70.5     0.39      1019.0     1       224         2       194        8.70     267      -67.8
   04/19/2017 21:40      63.8      62.8       60     49.1      0.00     18.24      70.4     0.39      1019.0     1        43         1       114        8.70     267      -69.0
   04/19/2017 21:30      64.5      63.7       58     49.1      0.00     18.24      70.6     0.39      1018.0     1       187         2       200        8.70     267      -69.1
   04/19/2017 21:20      65.1      64.6       56     49.0      0.00     18.24      70.4     0.39      1018.0     1       176         2       202        8.70     266      -70.7
   04/19/2017 21:10      65.4      65.1       55     49.0      0.00     18.24      70.7     0.39      1018.0     1       216         2       206        8.70     266      -73.1
   04/19/2017 21:00      66.0      65.4       55     48.9      0.00     18.24      70.3     0.39      1018.0     2       209         3       178        8.70     266      -73.5
   04/19/2017 20:50      66.2      65.9       54     49.1      0.00     18.24      70.4     0.39      1018.0     2       219         2       231        8.71     266      -74.8
   04/19/2017 20:40      66.8      66.4       53     49.0      0.00     18.24      70.3     0.39      1018.0     3       217         4       228        8.71     266      -76.2
   04/19/2017 20:30      67.3      66.8       52     49.0      0.00     18.24      70.6     0.39      1018.0     2       222         4       241        8.71     266      -77.2
   04/19/2017 20:20      67.6      67.5       51     49.0      0.00     18.24      70.4     0.39      1018.0     3       223         5       249        8.71     266      -77.9
   04/19/2017 20:10      68.3      67.7       51     49.0      0.00     18.24      70.3     0.39      1017.0     2       221         3       223        8.71     265      -78.3
   04/19/2017 20:00      68.8      68.1       50     49.1      0.00     18.24      70.4     0.39      1017.0     2       214         4       243        8.71     265      -80.7
   04/19/2017 19:50      69.3      68.7       49     49.0      0.00     18.24      70.2     0.39      1017.0     3       238         5       234        8.71     265      -83.6
   04/19/2017 19:40      69.9      69.3       48     49.0      0.00     18.24      70.1     0.39      1017.0     3       239         5       245        8.71     265      -83.8
   04/19/2017 19:30      70.5      70.0       47     49.1      0.00     18.24      70.5     0.39      1017.0     4       241         8       260        8.71     265      -81.1
   04/19/2017 19:20      71.6      70.5       45     48.9      0.00     18.24      70.3     0.39      1017.0     4       236         6       242        8.71     265      -75.6
   04/19/2017 19:10      72.6      71.7       43     48.4      0.00     18.24      70.2     0.39      1017.0     5       244         7       269        8.71     264      -67.9
   04/19/2017 19:00      73.3      72.7       41     48.3      0.00     18.24      70.1     0.39      1017.0     5       252         7       253        8.71     264      -52.8
   04/19/2017 18:50      73.7      73.2       41     48.2      0.00     18.24      70.3     0.39      1017.0     4       277         7       265        8.71     264      -35.4
   04/19/2017 18:40      73.9      73.2       41     48.5      0.00     18.24      70.1     0.39      1017.0     3       271         5       246        8.72     264      -14.0
   04/19/2017 18:30      73.1      72.6       42     48.5      0.00     18.24      70.1     0.39      1017.0     5       244         8       221        8.72     264       10.1
   04/19/2017 18:20      72.9      72.5       43     48.7      0.00     18.24      70.1     0.39      1017.0     7       243        11       265        8.72     264       35.6
   04/19/2017 18:10      73.2      72.7       43     48.9      0.00     18.24      69.9     0.39      1017.0     6       237        10       248        8.72     264       60.4
   04/19/2017 18:00      73.8      73.1       41     48.2      0.00     18.24      69.8     0.39      1017.0     7       246        10       216        8.72     264       85.7
   04/19/2017 17:50      74.1      73.4       39     47.3      0.00     18.24      69.8     0.39      1017.0     6       236         9       246        8.72     264      109.7
   04/19/2017 17:40      74.4      73.8       37     46.3      0.00     18.24      69.8     0.39      1017.0     7       236        11       245        8.72     264      134.4
   04/19/2017 17:30      75.7      74.6       34     44.9      0.00     18.24      69.6     0.39      1017.0     6       238         9       260        8.72     264      158.7
   04/19/2017 17:20      76.6      76.0       31     43.4      0.00     18.24      69.6     0.39      1017.0     8       265         9       266        8.72     264      183.4
   04/19/2017 17:10      76.7      76.2       30     43.0      0.00     18.24      69.5     0.39      1017.0     7       259        10       258        8.72     264      210.4
   04/19/2017 17:00      76.9      76.4       30     42.7      0.00     18.24      69.5     0.39      1017.0     9       259        12       245        8.73     264      235.1
   04/19/2017 16:50      77.8      77.3       27     40.8      0.00     18.24      69.5     0.39      1017.0     7       253        10       249        8.73     264      259.0
   04/19/2017 16:40      77.5      76.8       28     41.2      0.00     18.24      69.3     0.39      1017.0     7       255         8       253        8.73     264      281.8
   04/19/2017 16:30      77.7      77.3       31     44.1      0.00     18.24      69.2     0.39      1017.0     6       261         9       248        8.73     264      304.2
   04/19/2017 16:20      78.3      77.2       33     46.6      0.00     18.24      69.1     0.39      1017.0     5       273         7       275        8.73     265      326.2
   04/19/2017 16:10      78.0      77.0       32     45.3      0.00     18.24      68.9     0.39      1017.0     5       280        11       300        8.73     264      346.4
   04/19/2017 16:00      77.3      76.9       32     45.0      0.00     18.24      69.0     0.39      1017.0     6       293        10       299        8.73     264      369.0
   04/19/2017 15:50      77.8      77.2       32     45.1      0.00     18.24      69.2     0.39      1017.0     7       313        13       309        8.74     264      388.1
   04/19/2017 15:40      77.5      76.9       32     45.2      0.00     18.24      68.9     0.39      1017.0     6       292         9       305        8.74     265      408.3
   04/19/2017 15:30      77.3      76.8       32     44.9      0.00     18.24      68.8     0.39      1018.0     6       305         8       307        8.74     265      426.8
   04/19/2017 15:20      77.5      76.5       33     45.7      0.00     18.24      68.7     0.39      1018.0     7       304         8       299        8.74     265      444.6
   04/19/2017 15:10      77.8      76.9       34     46.6      0.00     18.24      68.7     0.39      1018.0     6       306         9       300        8.74     265      461.0
   04/19/2017 15:00      77.8      76.7       35     47.1      0.00     18.24      68.7     0.39      1018.0     7       276        11       253        8.74     265      475.6
   04/19/2017 14:50      78.3      77.5       35     48.0      0.00     18.24      68.5     0.38      1018.0     5       262         8       220        8.75     265      489.9
   04/19/2017 14:40      78.1      76.9       36     48.3      0.00     18.24      68.5     0.38      1018.0     7       279        10       268        8.75     265      505.3
   04/19/2017 14:30      78.0      76.9       37     48.9      0.00     18.24      68.4     0.38      1018.0     7       297        13       330        8.75     265      516.8
   04/19/2017 14:20      76.9      76.3       38     49.2      0.00     18.24      68.2     0.38      1018.0     7       272        11       260        8.75     266      527.0
   04/19/2017 14:10      77.0      76.0       42     51.6      0.00     18.24      68.5     0.38      1018.0     5       249         8       256        8.75     266      539.8
   04/19/2017 14:00      76.3      75.4       42     51.4      0.00     18.24      68.1     0.38      1018.0     7       258        12       260        8.75     266      552.8
   04/19/2017 13:50      76.2      75.5       43     51.9      0.00     18.24      68.1     0.38      1018.0     7       225        11       252        8.75     266      561.0
   04/19/2017 13:40      76.0      75.1       44     51.9      0.00     18.24      68.1     0.38      1018.0     8       213        11       208        8.75     266      566.7
   04/19/2017 13:30      76.4      75.7       40     49.9      0.00     18.24      67.9     0.38      1018.0     7       235         9       249        8.75     266      571.5
   04/19/2017 13:20      77.2      76.1       37     48.8      0.00     18.24      67.9     0.38      1018.0     6       225         8       199        8.75     266      575.2
   04/19/2017 13:10      78.2      76.8       31     44.0      0.00     18.24      68.2     0.38      1018.0     6       231         8       230        8.75     266      570.0
   04/19/2017 13:00      78.0      76.5       26     39.7      0.00     18.24      67.8     0.38      1018.0     4       280         9       277        8.76     266      573.1
   04/19/2017 12:50      77.1      76.7       27     40.2      0.00     18.24      67.9     0.38      1018.0     4       212         6       217        8.75     266      577.6
   04/19/2017 12:40      77.0      76.3       27     40.3      0.00     18.24      67.8     0.38      1018.0     4       222         7       243        8.76     266      576.9
   04/19/2017 12:30      76.2      75.3       29     40.8      0.00     18.24      68.0     0.38      1019.0     4       184         7       207        8.76     266      577.4
   04/19/2017 12:20      75.4      74.5       30     41.3      0.00     18.24      68.0     0.38      1019.0     5       223         7       174        8.75     266      576.3
   04/19/2017 12:10      75.9      74.5       29     40.7      0.00     18.24      67.7     0.38      1019.0     5       235         8       234        8.76     266      568.6
   04/19/2017 12:00      76.0      75.2       28     40.3      0.00     18.24      68.1     0.38      1019.0     4       256         7       254        8.76     266      561.1
   04/19/2017 11:50      75.3      74.6       28     39.3      0.00     18.24      68.1     0.38      1019.0     4       289         8       236        8.76     266      556.0
   04/19/2017 11:40      75.4      73.7       29     40.5      0.00     18.24      68.0     0.38      1019.0     4       173         8       249        8.76     267      548.3
   04/19/2017 11:30      73.7      73.3       31     40.6      0.00     18.24      67.9     0.38      1019.0     3       180         4       207        8.76     267      540.2
   04/19/2017 11:20      74.9      73.2       30     40.8      0.00     18.24      67.6     0.38      1019.0     4       218         6       252        8.76     267      531.0
   04/19/2017 11:10      75.2      73.9       30     40.9      0.00     18.24      67.9     0.38      1019.0     2        60         5        73        8.76     267      518.7
   04/19/2017 11:00      73.4      71.3       34     41.9      0.00     18.24      67.5     0.38      1019.0     2       175         6       196        8.76     268      509.6
   04/19/2017 10:50      72.0      71.4       34     41.6      0.00     18.24      67.6     0.38      1019.0     4       258         6       270        8.76     268      498.0
   04/19/2017 10:40      72.8      71.8       32     41.0      0.00     18.24      67.8     0.38      1019.0     3       290         5       311        8.76     268      483.2
   04/19/2017 10:30      72.8      71.3       33     41.0      0.00     18.24      67.6     0.38      1019.0     2       321         4       317        8.76     269      469.2
   04/19/2017 10:20      71.6      70.2       33     40.6      0.00     18.24      68.3     0.39      1020.0     3         3         5         5        8.76     268      453.9
   04/19/2017 10:10      70.5      70.0       39     43.7      0.00     18.24      67.7     0.38      1020.0     3       302         5       324        8.76     269      436.4
   04/19/2017 10:00      70.3      69.8       42     46.1      0.00     18.24      67.6     0.38      1020.0     3       265         5       261        8.76     271      418.0
   04/19/2017 09:50      70.5      68.1       45     46.8      0.00     18.24      67.8     0.39      1020.0     2        21         2        67        8.76     271      400.5
   04/19/2017 09:40      68.2      67.1       47     46.8      0.00     18.24      68.1     0.39      1020.0     3       263         6       289        8.76     271      380.6
   04/19/2017 09:30      67.3      66.7       49     47.1      0.00     18.24      67.8     0.38      1020.0     3       338         3       245        8.76     271      360.8
   04/19/2017 09:20      66.7      65.4       51     47.6      0.00     18.24      68.2     0.39      1020.0     2       344         4       248        8.76     271      341.8
   04/19/2017 09:10      65.5      65.0       52     47.2      0.00     18.24      67.7     0.39      1020.0     3       286         5       317        8.76     271      320.5
   04/19/2017 09:00      65.0      64.6       54     47.9      0.00     18.24      68.3     0.39      1020.0     2       294         4       235        8.76     271      298.0
   04/19/2017 08:50      65.0      63.2       62     50.6      0.00     18.24      68.0     0.39      1020.0     3       136         5       123        8.76     272      274.3
   04/19/2017 08:40      63.1      62.3       68     51.9      0.00     18.24      68.3     0.39      1020.0     3       127         4       150        8.76     272      245.3
   04/19/2017 08:30      62.2      61.1       71     52.0      0.00     18.24      68.0     0.39      1020.0     2       255         3       262        8.76     272      216.8
   04/19/2017 08:20      61.0      59.9       75     52.6      0.00     18.24      68.1     0.39      1020.0     2       222         3       235        8.76     272      209.2
   04/19/2017 08:10      59.7      58.2       81     53.2      0.00     18.24      68.6     0.39      1020.0     2       204         3       217        8.76     273      198.2
   04/19/2017 08:00      58.1      57.3       85     53.1      0.00     18.24      68.3     0.39      1020.0     2       286         3       230        8.76     273      179.3
   04/19/2017 07:50      57.1      56.3       88     53.2      0.00     18.24      68.2     0.39      1020.0     2       234         3       223        8.75     273      141.2
   04/19/2017 07:40      56.3      55.6       91     53.2      0.00     18.24      68.1     0.39      1020.0     2       243         5       232        8.76     273       22.1
   04/19/2017 07:30      55.6      54.5       92     52.8      0.00     18.24      68.2     0.39      1020.0     2       207         3       186        8.76     272       34.6
   04/19/2017 07:20      54.6      53.8       93     52.2      0.00     18.24      68.3     0.39      1020.0     2       248         2       312        8.76     272       31.2
   04/19/2017 07:10      53.9      53.2       93     51.7      0.00     18.24      68.3     0.39      1020.0     3       225         4       216        8.76     272       11.5
   04/19/2017 07:00      53.3      52.8       94     51.3      0.00     18.24      68.4     0.39      1020.0     1       221         3       239        8.76     272        5.7
   04/19/2017 06:50      52.9      51.8       94     50.8      0.00     18.24      68.3     0.39      1019.0     2       267         2       223        8.76     272        0.3
   04/19/2017 06:40      52.1      51.8       94     50.3      0.00     18.24      68.5     0.39      1019.0     1        72         1        66        8.76     273       -6.8
   04/19/2017 06:30      52.4      52.0       94     50.5      0.00     18.24      68.4     0.39      1019.0     1       186         1       212        8.76     272      -14.0
   04/19/2017 06:20      52.2      51.5       94     50.0      0.00     18.24      68.4     0.39      1019.0     2       180         2       172        8.76     272      -19.7
   04/19/2017 06:10      51.8      51.6       94     49.9      0.00     18.24      68.6     0.39      1019.0     2       169         2       168        8.76     272      -22.8
   04/19/2017 06:00      52.4      51.7       94     50.3      0.00     18.24      68.6     0.39      1019.0     2       183         3       160        8.76     272      -23.5
   04/19/2017 05:50      52.3      51.5       93     49.9      0.00     18.24      68.4     0.39      1019.0     2       182         3       181        8.76     272      -24.1
   04/19/2017 05:40      52.4      52.2       93     50.4      0.00     18.24      68.8     0.39      1019.0     2       195         3       159        8.76     272      -22.0
   04/19/2017 05:30      52.8      52.1       93     50.6      0.00     18.24      69.0     0.39      1019.0     1       221         2       213        8.76     272      -15.3
   04/19/2017 05:20      52.9      52.2       94     50.7      0.00     18.24      68.9     0.39      1019.0     1       204         2       221        8.76     272      -21.5
   04/19/2017 05:10      52.4      51.8       93     50.2      0.00     18.24      68.4     0.39      1019.0     1       132         2       221        8.76     272      -22.4
   04/19/2017 05:00      52.6      52.3       93     50.5      0.00     18.24      68.8     0.39      1019.0     1       189         2       141        8.76     272      -19.4
   04/19/2017 04:50      52.9      52.4       93     50.6      0.00     18.24      68.6     0.39      1019.0     1       203         1       176        8.75     272      -19.5
   04/19/2017 04:40      52.9      52.6       93     50.6      0.00     18.24      68.6     0.39      1019.0     1       137         1        83        8.75     272      -29.2
   04/19/2017 04:30      53.8      53.1       92     51.3      0.00     18.24      68.8     0.39      1019.0     0        63         1        75        8.76     272      -32.0
   04/19/2017 04:20      54.2      53.8       92     51.7      0.00     18.24      68.9     0.39      1019.0     0       117         1       144        8.76     272      -35.1
   04/19/2017 04:10      54.6      54.0       92     51.9      0.00     18.24      69.1     0.39      1019.0     0        58         1        77        8.76     272      -39.4
   04/19/2017 04:00      55.1      54.5       91     52.3      0.00     18.24      68.5     0.39      1019.0     1        75         2       132        8.76     272      -43.7
   04/19/2017 03:50      55.3      55.1       92     52.8      0.00     18.24      68.7     0.39      1019.0     2       160         2       161        8.76     271      -46.5
   04/19/2017 03:40      55.4      55.1       92     52.9      0.00     18.24      68.4     0.39      1019.0     3       176         6       197        8.76     270      -50.2
   04/19/2017 03:30      55.6      55.4       92     53.1      0.00     18.24      68.8     0.39      1019.0     3       210         5       222        8.76     271      -54.0
   04/19/2017 03:20      55.7      55.4       92     53.2      0.00     18.24      68.7     0.39      1019.0     4       216         6       201        8.76     271      -56.1
   04/19/2017 03:10      56.0      55.7       92     53.4      0.00     18.24      69.3     0.39      1019.0     3       255         6       232        8.76     271      -52.6
   04/19/2017 03:00      56.4      56.0       91     53.5      0.00     18.24      69.4     0.39      1019.0     4       244         6       247        8.76     271      -43.6
   04/19/2017 02:50      56.6      56.3       90     53.5      0.00     18.24      69.0     0.39      1019.0     4       240         6       237        8.76     271      -37.2
   04/19/2017 02:40      56.5      56.3       90     53.4      0.00     18.24      69.1     0.39      1019.0     3       252         5       226        8.76     271      -45.5
   04/19/2017 02:30      56.5      56.2       90     53.3      0.00     18.24      69.3     0.39      1019.0     3       239         5       239        8.76     271      -49.9
   04/19/2017 02:20      56.5      56.1       89     53.3      0.00     18.24      69.2     0.39      1019.0     3       224         5       234        8.76     271      -49.5
   04/19/2017 02:10      56.5      56.1       89     53.1      0.00     18.24      69.0     0.39      1019.0     4       203         5       203        8.76     271      -58.6
   04/19/2017 02:00      56.7      56.4       89     53.2      0.00     18.24      69.0     0.39      1019.0     4       208         6       202        8.76     271      -64.9
   04/19/2017 01:50      57.0      56.7       88     53.3      0.00     18.24      68.9     0.39      1019.0     4       196         5       197        8.76     271      -57.4
   04/19/2017 01:40      57.3      57.0       87     53.4      0.00     18.24      69.5     0.39      1019.0     2       221         3       238        8.76     271      -49.2
   04/19/2017 01:30      57.5      57.4       87     53.6      0.00     18.24      69.4     0.39      1019.0     2       250         4       232        8.76     271      -34.7
   04/19/2017 01:20      57.7      57.4       87     53.8      0.00     18.24      69.1     0.39      1019.0     2       269         4       237        8.76     271      -29.1
   04/19/2017 01:10      57.5      57.2       88     53.9      0.00     18.24      69.2     0.39      1019.0     2       237         3       253        8.76     271      -42.0
   04/19/2017 01:00      57.7      57.5       88     54.0      0.00     18.24      69.5     0.39      1019.0     3       220         4       241        8.76     271      -40.1
   04/19/2017 00:50      57.7      57.5       88     54.1      0.00     18.24      69.4     0.39      1019.0     3       228         6       220        8.76     271      -25.5
   04/19/2017 00:40      57.7      57.6       88     54.0      0.00     18.24      69.7     0.39      1019.0     2       219         3       224        8.76     271      -40.4
   04/19/2017 00:30      58.0      57.7       87     54.2      0.00     18.24      69.2     0.39      1020.0     3       207         4       180        8.76     270      -57.9
   04/19/2017 00:20      58.2      58.0       87     54.2      0.00     18.24      69.6     0.39      1020.0     2       209         3       212        8.76     271      -36.0
   04/19/2017 00:10      58.5      58.3       87     54.4      0.00     18.24      69.3     0.39      1020.0     4       212         5       251        8.76     271      -45.8
   04/19/2017 00:00      58.6      58.3       86     54.4      0.00     18.24      69.6     0.39      1020.0     2       223         4       215        8.76     271      -21.5
   04/18/2017 23:50      58.6      58.3       86     54.3      0.00     18.24      69.4     0.39      1020.0     3       235         4       223        8.76     271      -41.5
   04/18/2017 23:40      58.6      58.2       87     54.4      0.00     18.24      69.4     0.39      1020.0     3       230         4       253        8.76     270      -44.7
   04/18/2017 23:30      58.4      58.0       87     54.2      0.00     18.24      69.2     0.39      1020.0     2       204         5       226        8.76     270      -50.5
   04/18/2017 23:20      58.5      58.3       87     54.5      0.00     18.24      69.6     0.39      1020.0     2       216         3       215        8.76     270      -51.0
   04/18/2017 23:10      58.5      58.2       87     54.5      0.00     18.24      69.3     0.39      1020.0     2       210         3       247        8.76     270      -39.7
   04/18/2017 23:00      58.3      58.0       87     54.3      0.00     18.24      69.7     0.39      1020.0     1       205         3       202        8.76     270      -35.7
   04/18/2017 22:50      58.0      57.8       87     54.2      0.00     18.24      69.5     0.39      1020.0     2       232         4       237        8.76     270      -49.1
   04/18/2017 22:40      58.5      58.0       86     54.1      0.00     18.24      69.8     0.39      1020.0     3       214         4       199        8.76     270      -65.4
   04/18/2017 22:30      58.6      58.4       86     54.3      0.00     18.24      69.4     0.39      1020.0     3       240         5       239        8.76     270      -65.6
   04/18/2017 22:20      58.6      58.5       85     54.2      0.00     18.24      69.5     0.39      1020.0     3       215         5       195        8.76     270      -66.4
   04/18/2017 22:10      59.3      58.7       85     54.4      0.00     18.24      69.3     0.39      1020.0     3       215         4       201        8.76     270      -66.7
   04/18/2017 22:00      60.0      59.4       84     55.0      0.00     18.24      69.3     0.39      1020.0     3       240         5       259        8.76     269      -66.9
   04/18/2017 21:50      60.5      60.1       83     55.1      0.00     18.24      69.4     0.39      1020.0     3       292         4       306        8.76     270      -67.4
   04/18/2017 21:40      61.2      60.6       81     55.0      0.00     18.24      69.9     0.39      1020.0     4       287         6       308        8.76     269      -67.4
   04/18/2017 21:30      61.6      61.4       78     54.6      0.00     18.24      69.7     0.39      1019.0     3       279         7       286        8.76     269      -66.5
   04/18/2017 21:20      62.1      61.7       73     53.1      0.00     18.24      69.7     0.39      1019.0     1       303         2       307        8.76     269      -65.9
   04/18/2017 21:10      62.3      62.1       72     53.1      0.00     18.24      69.8     0.39      1019.0     2       234         5       232        8.76     269      -67.5
   04/18/2017 21:00      62.4      62.1       71     53.0      0.00     18.24      69.7     0.39      1019.0     3       235         4       231        8.76     269      -67.4
   04/18/2017 20:50      62.3      62.2       72     53.2      0.00     18.24      69.5     0.39      1019.0     2       230         4       219        8.76     269      -68.5
   04/18/2017 20:40      62.7      62.4       71     53.2      0.00     18.24      69.8     0.39      1018.0     2       215         4       194        8.76     269      -69.9
   04/18/2017 20:30      62.7      62.5       71     53.1      0.00     18.24      69.8     0.39      1018.0     3       221         5       225        8.76     268      -70.5
   04/18/2017 20:20      63.3      62.9       70     53.2      0.00     18.24      69.7     0.39      1018.0     3       200         5       187        8.76     268      -71.4
   04/18/2017 20:10      63.8      63.2       69     53.1      0.00     18.24      69.4     0.39      1018.0     3       175         6       200        8.76     268      -71.9
   04/18/2017 20:00      64.3      63.8       67     53.1      0.00     18.24      69.6     0.39      1018.0     3       173         5       199        8.76     268      -72.6
   04/18/2017 19:50      64.8      64.3       66     52.9      0.00     18.24      69.4     0.39      1017.0     4       172         6       186        8.76     268      -73.3
   04/18/2017 19:40      65.7      65.1       63     52.5      0.00     18.24      69.9     0.39      1017.0     4       160         7       178        8.76     268      -72.8
   04/18/2017 19:30      66.3      65.8       60     51.8      0.00     18.24      69.6     0.39      1017.0     3       174         6       169        8.76     267      -70.6
   04/18/2017 19:20      67.1      66.4       59     51.9      0.00     18.24      69.7     0.39      1017.0     3       165         5       150        8.76     267      -66.8
   04/18/2017 19:10      68.0      67.3       57     51.9      0.00     18.24      69.7     0.39      1017.0     3       193         5       219        8.76     267      -61.3
   04/18/2017 19:00      68.8      68.1       55     51.8      0.00     18.24      69.4     0.39      1017.0     3       200         5       207        8.76     266      -46.6
   04/18/2017 18:50      69.5      69.1       53     51.6      0.00     18.24      69.3     0.39      1017.0     3       238         4       205        8.76     266      -31.0
   04/18/2017 18:40      69.9      69.5       52     51.4      0.00     18.24      69.3     0.39      1017.0     3       221         5       214        8.76     266       -6.7
   04/18/2017 18:30      70.2      69.7       53     52.1      0.00     18.24      69.4     0.39      1017.0     3       229         5       239        8.76     266       18.0
   04/18/2017 18:20      69.9      69.5       53     52.0      0.00     18.24      69.0     0.39      1017.0     3       238         6       235        8.76     266       44.3
   04/18/2017 18:10      70.0      69.4       53     52.1      0.00     18.24      69.5     0.39      1017.0     5       247         7       236        8.76     267       72.6
   04/18/2017 18:00      69.5      69.1       55     52.4      0.00     18.24      69.2     0.39      1017.0     5       237         6       250        8.76     267      103.3
   04/18/2017 17:50      69.2      68.5       59     53.7      0.00     18.24      69.1     0.39      1018.0     5       204         8       197        8.76     267      102.6
   04/18/2017 17:40      69.4      68.8       58     53.9      0.00     18.24      69.5     0.39      1018.0     5       241         7       268        8.76     267       66.6
   04/18/2017 17:30      69.9      69.3       57     53.9      0.00     18.24      69.1     0.39      1018.0     6       226         8       226        8.76     267      130.5
   04/18/2017 17:20      70.3      69.8       56     53.6      0.00     18.24      69.1     0.39      1017.0     7       242        10       235        8.76     267      230.3
   04/18/2017 17:10      70.2      69.5       56     53.7      0.00     18.24      69.5     0.39      1017.0     7       235        11       238        8.76     267      195.3
   04/18/2017 17:00      70.5      70.0       56     54.1      0.00     18.24      69.1     0.39      1017.0     6       250         9       255        8.76     267      271.0
   04/18/2017 16:50      70.3      69.9       57     54.2      0.00     18.24      68.8     0.39      1017.0     7       239         9       223        8.76     268      300.8
   04/18/2017 16:40      70.3      69.9       57     54.3      0.00     18.24      69.0     0.39      1018.0     7       231        12       205        8.76     268      328.7
   04/18/2017 16:30      71.3      70.5       57     54.7      0.00     18.24      69.0     0.39      1018.0     6       222         9       230        8.76     268      361.9
   04/18/2017 16:20      70.6      69.1       57     54.3      0.00     18.24      69.1     0.39      1017.0     6       244        11       272        8.76     268      368.4
   04/18/2017 16:10      69.1      67.8       61     54.5      0.00     18.24      68.8     0.39      1018.0     6       212        11       187        8.76     269      157.2
   04/18/2017 16:00      69.0      68.3       61     54.8      0.00     18.24      68.7     0.39      1018.0     7       222        10       233        8.76     268      128.8
   04/18/2017 15:50      69.2      68.7       61     55.1      0.00     18.24      68.7     0.39      1018.0     6       212        10       184        8.76     268      283.4
   04/18/2017 15:40      69.1      68.5       61     55.0      0.00     18.24      68.9     0.39      1018.0     6       217        10       205        8.76     269      136.9
   04/18/2017 15:30      69.4      68.3       61     54.7      0.00     18.24      68.9     0.39      1018.0     7       224        10       201        8.76     268      177.6
   04/18/2017 15:20      69.3      68.6       59     53.8      0.00     18.24      68.9     0.39      1018.0     7       200        11       215        8.76     269      197.4
   04/18/2017 15:10      70.1      69.4       56     53.5      0.00     18.24      69.0     0.39      1017.0     7       204        11       183        8.76     268      103.8
   04/18/2017 15:00      70.5      70.1       54     53.0      0.00     18.24      68.8     0.39      1017.0     8       196        14       205        8.76     268      216.3
   04/18/2017 14:50      70.5      70.2       53     52.5      0.00     18.24      68.6     0.39      1017.0     8       200        11       204        8.76     268      123.5
   04/18/2017 14:40      72.0      70.5       51     52.5      0.00     18.24      68.5     0.39      1017.0     8       208        11       212        8.76     268       83.9
   04/18/2017 14:30      73.8      72.1       53     54.7      0.00     18.24      68.6     0.39      1017.0     5       189         6       208        8.76     268      119.7
   04/18/2017 14:20      74.4      72.7       54     55.8      0.00     18.24      68.2     0.39      1017.0     4       182         6       189        8.76     269      505.4
   04/18/2017 14:10      73.3      72.2       55     55.9      0.00     18.24      68.5     0.39      1017.0     4       165         7       192        8.76     269      289.3
   04/18/2017 14:00      73.6      72.2       55     55.7      0.00     18.24      68.6     0.38      1017.0     3       278         6       179        8.76     270      372.4
   04/18/2017 13:50      72.6      71.7       56     55.3      0.00     18.24      68.6     0.39      1017.0     2       210         4       252        8.76     270      533.3
   04/18/2017 13:40      72.0      71.0       56     55.1      0.00     18.24      68.4     0.38      1017.0     3       235         7       158        8.76     271      406.4
   04/18/2017 13:30      71.6      70.0       58     55.5      0.00     18.24      68.2     0.38      1018.0     3       290         6       218        8.76     271      492.6
   04/18/2017 13:20      69.8      68.9       62     55.9      0.00     18.24      68.3     0.38      1018.0     4       235         7       238        8.76     273      549.1
   04/18/2017 13:10      69.2      68.3       63     55.9      0.00     18.24      67.9     0.38      1018.0     3       232         6       262        8.76     273      424.5
   04/18/2017 13:00      69.3      67.7       65     55.8      0.00     18.24      68.2     0.39      1018.0     4       260         7       247        8.76     276      605.5
   04/18/2017 12:50      68.1      66.8       65     55.5      0.00     18.24      68.2     0.39      1018.0     4       271         6       257        8.76     279      507.0
   04/18/2017 12:40      67.5      66.6       67     55.9      0.00     18.24      68.4     0.39      1019.0     5       201         7       212        8.76     284      461.4
   04/18/2017 12:30      67.5      67.0       66     55.7      0.00     18.24      68.3     0.39      1019.0     4       230         7       232        8.76     292      458.6
   04/18/2017 12:20      66.9      65.5       70     56.1      0.00     18.24      68.1     0.39      1019.0     7       209        11       207        8.76     302      439.2
   04/18/2017 12:10      66.3      65.5       71     56.4      0.00     18.24      68.2     0.39      1019.0     7       231        10       232        8.76     311      245.9
   04/18/2017 12:00      67.8      66.3       70     56.7      0.00     18.24      68.0     0.39      1019.0     7       213        12       212        8.76     325      163.9
   04/18/2017 11:50      68.7      68.1       61     54.5      0.00     18.24      68.5     0.39      1019.0     5       210        10       210        8.76     341      110.5
   04/18/2017 11:40      69.8      68.5       58     53.6      0.00     18.24      68.1     0.39      1019.0     4       247         6       254        8.76     358       30.7
   04/18/2017 11:30      70.1      69.7       56     53.7      0.00     18.24      68.0     0.39      1019.0     4       294         6       264        8.76     374       71.1
   04/18/2017 11:20      71.2      69.9       57     54.4      0.00     18.24      67.9     0.39      1019.0     5       239         8       228        8.76     390      224.2
   04/18/2017 11:10      71.3      70.7       56     54.5      0.00     18.24      68.1     0.38      1019.0     4       256         7       260        8.76     411      365.8
   04/18/2017 11:00      71.0      69.3       57     54.2      0.00     18.24      67.8     0.38      1019.0     4       233         7       288        8.76     438      385.7
   04/18/2017 10:50      70.4      69.3       56     53.5      0.00     18.24      67.6     0.38      1019.0     4       219         5       232        8.76     463      248.7
   04/18/2017 10:40      70.4      68.9       55     53.0      0.00     18.24      68.0     0.38      1019.0     2       202         3       221        8.76     494      430.4
   04/18/2017 10:30      69.4      68.8       54     52.0      0.00     18.24      67.9     0.38      1019.0     4       238         8       187        8.76     513      376.1
   04/18/2017 10:20      69.7      68.4       55     52.1      0.00     18.24      68.0     0.38      1019.0     3       239         5       280        8.76     536      436.2
   04/18/2017 10:10      68.7      67.1       56     51.5      0.00     18.24      68.0     0.38      1019.0     3       199         6       314        8.76     557      345.0
   04/18/2017 10:00      67.5      67.2       54     50.2      0.00     18.24      68.2     0.39      1019.0     3       293         5       301        8.76     566      246.4
   04/18/2017 09:50      68.3      67.5       53     50.1      0.00     18.24      68.1     0.38      1019.0     3       306         5       275        8.76     579      368.2
   04/18/2017 09:40      68.8      67.0       54     51.0      0.00     18.24      68.3     0.38      1019.0     2       145         4       197        8.76     592      410.9
   04/18/2017 09:30      66.8      65.6       58     51.3      0.00     18.24      68.1     0.38      1019.0     3       161         5       174        8.76     597      432.4
   04/18/2017 09:20      66.7      65.9       59     51.5      0.00     18.24      67.8     0.38      1019.0     2       292         4       336        8.51     586      405.7
   04/18/2017 09:10      66.3      65.2       61     52.2      0.00     18.24      68.5     0.37      1019.0     1       349         3         5        3.61     269      353.5
   04/18/2017 09:00      65.3      64.8       65     53.1      0.00     18.24      68.5     0.37      1019.0     2       312         3       261        3.61     269      303.5
   04/18/2017 08:50      65.5      65.0       66     53.8      0.00     18.24      68.3     0.37      1019.0     2       290         4       307        3.61     269      256.1
   04/18/2017 08:40      65.2      64.4       68     54.1      0.00     18.24      68.1     0.37      1019.0     1        60         2        55        3.61     269      201.6
   04/18/2017 08:30      64.4      63.1       71     54.1      0.00     18.24      68.0     0.37      1019.0     2        32         3        45        3.61     269      180.8
   04/18/2017 08:20      64.2      63.1       71     54.1      0.00     18.24      68.5     0.37      1019.0     3         9         3        32        3.61     269      175.9
   04/18/2017 08:10      64.4      62.5       72     54.4      0.00     18.24      68.0     0.37      1019.0     2        12         3        17        3.61     270      241.4
   04/18/2017 08:00      62.6      61.0       76     54.2      0.00     18.24      68.7     0.37      1019.0     2       325         2       334        3.61     270      254.5
   04/18/2017 07:50      61.1      60.7       79     54.3      0.00     18.24      68.5     0.38      1018.0     1       302         2       349        3.61     269       82.0
   04/18/2017 07:40      60.9      59.7       81     54.5      0.00     18.24      68.1     0.38      1018.0     1       328         2       343        3.61     270       -8.7
   04/18/2017 07:30      59.7      58.5       85     54.5      0.00     18.24      68.3     0.38      1018.0     1       182         2       176        3.61     270       -4.9
   04/18/2017 07:20      58.6      57.8       87     54.1      0.00     18.24      68.6     0.38      1018.0     1       186         1       142        3.61     270      -13.3
   04/18/2017 07:10      57.9      57.5       87     53.8      0.00     18.24      68.6     0.38      1018.0     1       136         1       120        3.61     270      -15.6
   04/18/2017 07:00      57.6      56.9       89     54.0      0.00     18.24      68.3     0.38      1018.0     1       192         2       202        3.61     270       -8.5
   04/18/2017 06:50      57.0      56.3       90     53.8      0.00     18.24      68.5     0.38      1018.0     2       152         2       149        3.61     270       -6.8
   04/18/2017 06:40      56.4      55.5       91     53.5      0.00     18.24      68.6     0.38      1018.0     2       141         2       145        3.61     270       -2.1
   04/18/2017 06:30      55.5      55.0       92     52.9      0.00     18.24      68.4     0.38      1018.0     2       157         2       144        3.61     270       -4.5
   04/18/2017 06:20      55.1      54.7       91     52.4      0.00     18.24      68.7     0.38      1018.0     2       171         2       159        3.61     270       -5.6
   04/18/2017 06:10      55.2      54.9       91     52.6      0.00     18.24      68.7     0.38      1018.0     2       166         2       184        3.61     270      -20.2
   04/18/2017 06:00      55.3      54.8       91     52.5      0.00     18.24      68.2     0.38      1017.0     1       155         2       154        3.61     269      -34.8
   04/18/2017 05:50      55.2      54.7       90     52.1      0.00     18.24      68.7     0.38      1017.0     1       140         2       144        3.61     269      -40.2
   04/18/2017 05:40      55.7      55.1       90     52.4      0.00     18.24      68.8     0.38      1018.0     2       149         3       151        3.61     269      -44.5
   04/18/2017 05:30      55.9      55.5       88     52.3      0.00     18.24      68.3     0.38      1018.0     1       171         2       145        3.61     269      -49.8
   04/18/2017 05:20      57.0      56.0       87     52.8      0.00     18.24      68.6     0.38      1018.0     1       197         1       179        3.61     269      -50.2
   04/18/2017 05:10      57.6      56.9       86     53.1      0.00     18.24      68.7     0.38      1018.0     1       142         1       121        3.61     269      -51.7
   04/18/2017 05:00      58.0      57.5       86     53.5      0.00     18.24      68.8     0.38      1018.0     0       133         1       166        3.61     269      -53.0
   04/18/2017 04:50      58.0      57.9       86     53.6      0.00     18.24      68.8     0.38      1018.0     0       134         1       144        3.61     269      -39.5
   04/18/2017 04:40      58.1      57.9       85     53.6      0.00     18.24      68.9     0.38      1018.0     1       113         1       108        3.61     269      -29.4
   04/18/2017 04:30      58.2      58.0       85     53.6      0.00     18.24      68.7     0.38      1018.0     1        69         1        91        3.61     269      -33.2
   04/18/2017 04:20      58.1      57.9       85     53.6      0.00     18.24      68.5     0.38      1018.0     1       122         1       113        3.61     269      -24.2
   04/18/2017 04:10      58.5      58.0       84     53.4      0.00     18.24      68.8     0.38      1018.0     1       135         1       111        3.61     269      -19.1
   04/18/2017 04:00      58.9      58.5       83     53.6      0.00     18.24      68.7     0.38      1018.0     0       121         1       113        3.61     269      -26.1
   04/18/2017 03:50      59.3      58.9       82     53.6      0.00     18.24      68.6     0.38      1018.0     1       106         1        81        3.61     269      -45.6
   04/18/2017 03:40      59.5      59.2       82     53.9      0.00     18.24      69.1     0.38      1018.0     1       320         1       309        3.61     269      -20.7
   04/18/2017 03:30      59.3      58.9       83     53.8      0.00     18.24      68.8     0.38      1018.0     0       353         1        36        3.61     269      -15.3
   04/18/2017 03:20      59.1      58.9       83     53.8      0.00     18.24      68.9     0.38      1018.0     1       120         1       158        3.61     269      -22.0
   04/18/2017 03:10      58.9      58.8       83     53.8      0.00     18.24      68.9     0.38      1018.0     1       146         1       163        3.61     269      -13.0
   04/18/2017 03:00      59.0      58.6       83     53.8      0.00     18.24      68.9     0.38      1018.0     1       162         1       178        3.61     269      -10.5
   04/18/2017 02:50      58.7      58.5       84     53.7      0.00     18.24      68.8     0.38      1018.0     2       170         2       180        3.61     269      -12.2
   04/18/2017 02:40      58.5      58.0       84     53.7      0.00     18.24      69.0     0.38      1018.0     2       155         2       140        3.61     269       -8.6
   04/18/2017 02:30      58.2      57.8       86     53.7      0.00     18.24      69.0     0.38      1018.0     1       168         1       172        3.61     269       -8.0
   04/18/2017 02:20      57.9      57.3       87     53.6      0.00     18.24      69.0     0.38      1018.0     2       162         2       148        3.61     269       -6.8
   04/18/2017 02:10      57.3      56.4       88     53.4      0.00     18.24      68.7     0.38      1018.0     2       169         2       164        3.61     269       -4.9
   04/18/2017 02:00      56.6      56.3       87     52.9      0.00     18.24      69.0     0.38      1018.0     1       136         2       126        3.61     269      -14.9
   04/18/2017 01:50      56.8      56.5       87     52.9      0.00     18.24      69.1     0.38      1018.0     2       137         2       155        3.61     269      -43.4
   04/18/2017 01:40      57.5      56.9       87     53.3      0.00     18.24      68.9     0.38      1018.0     1       148         2       106        3.61     268      -38.8
   04/18/2017 01:30      57.5      57.0       86     53.2      0.00     18.24      69.2     0.38      1018.0     1       144         2       145        3.61     268      -39.3
   04/18/2017 01:20      58.0      57.4       85     53.2      0.00     18.24      69.0     0.38      1018.0     2       141         2       141        3.61     268      -37.2
   04/18/2017 01:10      58.3      57.9       85     53.5      0.00     18.24      68.9     0.38      1018.0     1       175         2       211        3.61     268      -46.7
   04/18/2017 01:00      58.5      58.3       84     53.5      0.00     18.24      69.0     0.38      1018.0     1       192         1       185        3.61     268      -52.1
   04/18/2017 00:50      58.7      58.5       83     53.6      0.00     18.24      69.2     0.38      1018.0     2       193         3       191        3.61     268      -53.4
   04/18/2017 00:40      59.0      58.7       83     53.6      0.00     18.24      69.0     0.38      1018.0     2       180         3       198        3.61     268      -53.5
   04/18/2017 00:30      58.9      58.6       83     53.6      0.00     18.24      69.1     0.38      1018.0     2       185         3       180        3.61     268      -54.1
   04/18/2017 00:20      58.8      58.4       84     53.6      0.00     18.24      69.1     0.38      1018.0     3       189         3       213        3.61     268      -52.2
   04/18/2017 00:10      59.2      58.8       82     53.7      0.00     18.24      69.0     0.38      1018.0     2       172         3       163        3.61     268      -53.9
   04/18/2017 00:00      59.5      59.2       82     53.8      0.00     18.24      69.2     0.38      1018.0     2       194         2       210        3.61     268      -53.7
   04/17/2017 23:50      59.5      59.4       81     53.8      0.00     18.24      69.3     0.38      1018.0     2       202         2       206        3.61     268      -54.1
   04/17/2017 23:40      59.6      59.4       81     53.8      0.00     18.24      68.8     0.38      1018.0     2       211         4       205        3.61     268      -56.4
   04/17/2017 23:30      59.8      59.4       81     53.8      0.00     18.24      69.3     0.38      1018.0     2       196         3       185        3.61     268      -56.8
   04/17/2017 23:20      60.1      59.8       81     54.0      0.00     18.24      69.0     0.38      1018.0     2       197         4       205        3.61     268      -57.7
   04/17/2017 23:10      60.5      60.2       81     54.4      0.00     18.24      69.2     0.38      1018.0     4       234         4       240        3.61     268      -47.2
   04/17/2017 23:00      60.9      60.6       79     54.2      0.00     18.24      69.2     0.38      1018.0     4       245         5       258        3.61     268      -45.9
   04/17/2017 22:50      61.0      60.7       78     54.1      0.00     18.24      69.0     0.38      1018.0     4       253         8       225        3.61     268      -45.8
   04/17/2017 22:40      61.3      60.9       77     54.0      0.00     18.24      69.2     0.38      1018.0     6       257         8       261        3.61     268      -46.6
   04/17/2017 22:30      61.9      61.3       76     54.1      0.00     18.24      69.2     0.38      1018.0     5       253         8       262        3.61     268      -42.6
   04/17/2017 22:20      61.8      61.5       78     54.8      0.00     18.24      69.1     0.38      1018.0     4       266         6       279        3.61     268      -26.2
   04/17/2017 22:10      62.1      61.5       78     54.9      0.00     18.24      69.1     0.38      1018.0     4       242         6       258        3.61     268      -15.0
   04/17/2017 22:00      62.3      62.0       78     55.1      0.00     18.24      69.1     0.38      1018.0     4       270         6       260        3.61     268      -16.6
   04/17/2017 21:50      62.3      62.0       78     55.1      0.00     18.24      69.4     0.38      1018.0     4       267         7       255        3.61     268      -16.3
   04/17/2017 21:40      62.4      62.1       77     55.2      0.00     18.24      68.7     0.38      1018.0     4       249         6       257        3.61     268      -17.4
   04/17/2017 21:30      62.6      62.3       76     55.0      0.00     18.24      69.1     0.38      1018.0     3       260         5       254        3.61     268      -16.6
   04/17/2017 21:20      62.7      62.4       76     55.0      0.00     18.24      69.3     0.38      1018.0     3       272         5       258        3.61     268      -16.3
   04/17/2017 21:10      62.7      62.4       76     55.0      0.00     18.24      69.1     0.38      1018.0     3       283         5       256        3.61     268      -15.4
   04/17/2017 21:00      62.5      62.4       77     55.0      0.00     18.24      69.3     0.38      1018.0     4       240         6       270        3.61     268      -15.0
   04/17/2017 20:50      62.7      62.4       77     55.2      0.00     18.24      68.9     0.38      1018.0     4       262         5       262        3.61     268      -14.3
   04/17/2017 20:40      62.7      62.5       77     55.2      0.00     18.24      69.0     0.38      1018.0     4       252         7       254        3.61     268      -14.4
   04/17/2017 20:30      63.0      62.8       76     55.2      0.00     18.24      68.9     0.38      1018.0     5       241         7       243        3.61     267      -14.4
   04/17/2017 20:20      63.5      63.3       75     55.3      0.00     18.24      69.0     0.38      1018.0     3       247         5       209        3.61     267      -14.1
   04/17/2017 20:10      63.6      63.3       75     55.5      0.00     18.24      69.0     0.38      1017.0     4       290         5       311        3.61     267      -14.2
   04/17/2017 20:00      63.9      63.3       75     55.4      0.00     18.24      68.9     0.38      1017.0     5       283         7       283        3.61     267      -20.6
   04/17/2017 19:50      64.8      64.0       73     55.6      0.00     18.24      69.0     0.38      1017.0     5       287         7       286        3.61     267      -35.9
   04/17/2017 19:40      65.8      65.0       71     55.5      0.00     18.24      69.0     0.38      1017.0     3       283         6       307        3.61     267      -58.3
   04/17/2017 19:30      66.2      65.8       69     55.5      0.00     18.24      69.0     0.38      1017.0     4       266         7       284        3.61     267      -64.6
   04/17/2017 19:20      67.0      66.2       68     55.7      0.00     18.24      68.7     0.38      1017.0     5       273         8       256        3.61     267      -63.4
   04/17/2017 19:10      67.9      66.9       67     56.0      0.00     18.24      68.8     0.38      1016.0     3       252         6       271        3.61     266      -58.5
   04/17/2017 19:00      68.5      67.8       65     56.0      0.00     18.24      69.0     0.38      1016.0     4       257         8       260        3.61     266      -41.3
   04/17/2017 18:50      69.2      68.7       64     56.1      0.00     18.24      68.8     0.38      1016.0     5       271         7       261        3.61     266      -21.9
   04/17/2017 18:40      69.7      69.3       63     56.3      0.00     18.24      68.9     0.38      1016.0     6       269         9       267        3.61     266        1.1
   04/17/2017 18:30      70.4      69.7       62     56.5      0.00     18.24      68.6     0.38      1016.0     6       238        11       259        3.61     266       20.7
   04/17/2017 18:20      70.5      70.0       62     56.6      0.00     18.24      68.7     0.38      1016.0     5       234         9       256        3.61     266       48.9
   04/17/2017 18:10      70.6      70.1       62     56.6      0.00     18.24      68.6     0.37      1016.0     6       217         9       231        3.61     266       60.4
   04/17/2017 18:00      70.9      70.6       61     56.7      0.00     18.24      68.2     0.38      1016.0     4       220         6       250        3.61     266       53.9
   04/17/2017 17:50      71.3      70.9       60     56.7      0.00     18.24      68.4     0.37      1016.0     5       222         7       246        3.61     266       54.8
   04/17/2017 17:40      72.2      71.5       59     56.8      0.00     18.24      68.7     0.37      1016.0     4       218         8       229        3.61     266       26.0
   04/17/2017 17:30      72.3      71.4       59     56.7      0.00     18.24      68.6     0.37      1016.0     3       161         5       153        3.61     266      173.4
   04/17/2017 17:20      72.0      71.4       59     56.5      0.00     18.24      68.2     0.37      1016.0     5       154         7       161        3.61     266       82.6
   04/17/2017 17:10      72.1      71.4       58     56.3      0.00     18.24      68.3     0.37      1016.0     3       191         7       184        3.61     266       98.9
   04/17/2017 17:00      72.2      71.7       57     55.8      0.00     18.24      68.3     0.37      1016.0     3       167         6       163        3.61     266      114.8
   04/17/2017 16:50      72.8      71.9       56     55.8      0.00     18.24      68.3     0.37      1016.0     4       196         7       223        3.61     266       77.7
   04/17/2017 16:40      73.2      72.9       55     55.9      0.00     18.24      68.2     0.37      1016.0     2       230         4       186        3.61     266       92.9
   04/17/2017 16:30      73.2      72.7       54     55.5      0.00     18.24      68.1     0.37      1016.0     2       331         5       306        3.61     266      102.7
   04/17/2017 16:20      73.2      72.7       54     55.5      0.00     18.24      68.1     0.37      1016.0     3       309         6       275        3.61     266      153.2
   04/17/2017 16:10      73.4      72.8       54     55.5      0.00     18.24      68.1     0.37      1016.0     2       296         4       304        3.61     266      106.3
   04/17/2017 16:00      73.5      72.2       55     55.8      0.00     18.24      68.1     0.37      1016.0     3       285         4       311        3.61     266      283.5
   04/17/2017 15:50      72.7      71.4       57     56.0      0.00     18.24      68.0     0.37      1016.0     3       234         5       224        3.61     266      348.3
   04/17/2017 15:40      71.5      71.0       59     56.4      0.00     18.24      68.1     0.37      1017.0     4       228         7       201        3.61     266      318.8
   04/17/2017 15:30      71.1      70.3       60     56.1      0.00     18.24      68.0     0.37      1017.0     3       227         6       236        3.61     266      243.0
   04/17/2017 15:20      71.1      70.7       61     56.6      0.00     18.24      68.1     0.37      1017.0     4       224         6       258        3.61     266      179.2
   04/17/2017 15:10      71.3      70.0       61     56.7      0.00     18.24      67.9     0.37      1017.0     4       169         7       127        3.61     266      284.7
   04/17/2017 15:00      70.7      69.6       62     56.4      0.00     18.24      68.1     0.37      1017.0     4       213         7       211        3.61     266      185.9
   04/17/2017 14:50      70.5      69.6       62     56.6      0.00     18.24      67.7     0.37      1017.0     4       224         7       243        3.61     266      310.9
   04/17/2017 14:40      69.6      69.0       63     56.3      0.00     18.24      67.7     0.37      1017.0     5       259         6       249        3.61     266      306.9
   04/17/2017 14:30      69.7      68.9       64     56.4      0.00     18.24      67.8     0.37      1017.0     5       256         8       238        3.61     266      180.6
   04/17/2017 14:20      69.8      69.1       63     56.4      0.00     18.24      67.7     0.37      1018.0     6       252        10       279        3.61     266      112.4
   04/17/2017 14:10      70.1      69.7       61     55.7      0.00     18.24      67.7     0.37      1017.0     5       264         7       272        3.61     266      142.8
   04/17/2017 14:00      70.9      69.8       56     53.8      0.00     18.24      67.8     0.37      1017.0     4       278         5       239        3.61     266       57.0
   04/17/2017 13:50      71.1      70.3       51     51.4      0.00     18.24      67.6     0.37      1017.0     2       345         3       304        3.61     266       54.6
   04/17/2017 13:40      71.6      70.4       50     51.4      0.00     18.24      67.6     0.37      1017.0     2       107         3       134        3.61     265       43.9
   04/17/2017 13:30      71.5      71.0       50     51.5      0.00     18.24      67.8     0.37      1017.0     2       339         4       266        3.61     265       48.2
   04/17/2017 13:20      71.8      71.5       49     51.5      0.00     18.24      67.5     0.37      1017.0     3       310         4       300        3.61     265      164.9
   04/17/2017 13:10      72.4      72.0       49     51.8      0.00     18.24      67.6     0.37      1017.0     2       319         5       307        3.61     265      246.4
   04/17/2017 13:00      73.0      71.8       48     51.6      0.00     18.24      67.7     0.37      1017.0     3       294         5       268        3.61     265      253.6
   04/17/2017 12:50      73.2      71.2       49     51.5      0.00     18.24      67.5     0.37      1017.0     3       319         4       323        3.61     266      455.6
   04/17/2017 12:40      71.1      70.4       50     51.0      0.00     18.24      67.5     0.37      1018.0     3       297         4       282        3.61     266      343.8
   04/17/2017 12:30      71.2      70.5       49     50.8      0.00     18.24      67.5     0.37      1018.0     2       350         4       332        3.61     266      298.2
   04/17/2017 12:20      71.7      70.7       49     50.9      0.00     18.24      67.6     0.37      1018.0     2        27         4        21        3.61     266      323.4
   04/17/2017 12:10      71.1      70.3       50     50.9      0.00     18.24      67.6     0.37      1018.0     2       274         4       274        3.61     265      346.8
   04/17/2017 12:00      71.5      70.0       49     50.5      0.00     18.24      67.6     0.37      1018.0     2       347         4       328        3.61     266      391.1
   04/17/2017 11:50      70.6      69.8       49     49.8      0.00     18.24      67.5     0.37      1018.0     3        48         4       359        3.61     266      507.0
   04/17/2017 11:40      70.3      68.5       50     49.6      0.00     18.24      67.5     0.37      1018.0     3       287         4       341        3.61     266      562.0
   04/17/2017 11:30      69.2      68.5       49     49.0      0.00     18.24      67.5     0.37      1019.0     3       299         4       304        3.61     266      591.5
   04/17/2017 11:20      69.1      67.4       51     49.3      0.00     18.24      67.5     0.37      1019.0     2        95         3        95        3.61     266      335.5
   04/17/2017 11:10      67.6      66.9       52     48.8      0.00     18.24      67.3     0.37      1019.0     2       299         3       273        3.61     266      441.3
   04/17/2017 11:00      67.8      67.4       51     48.9      0.00     18.24      67.6     0.37      1019.0     3        31         4        11        3.61     266      352.7
   04/17/2017 10:50      67.3      65.5       53     48.9      0.00     18.24      67.7     0.37      1019.0     1       329         3        16        3.61     266      306.8
   04/17/2017 10:40      65.6      65.0       54     48.2      0.00     18.24      67.6     0.37      1019.0     2       354         5       340        3.61     266      284.9
   04/17/2017 10:30      65.1      64.8       54     47.8      0.00     18.24      67.4     0.37      1019.0     3        15         5       359        3.61     266      264.3
   04/17/2017 10:20      65.4      64.5       53     47.4      0.00     18.24      67.7     0.37      1019.0     2       319         4        11        3.61     266      210.1
   04/17/2017 10:10      65.4      63.6       54     47.7      0.00     18.24      67.7     0.37      1019.0     2        40         3        20        3.61     266      283.3
   04/17/2017 10:00      65.7      63.9       53     47.3      0.00     18.24      67.5     0.37      1019.0     2       230         3       232        3.61     266      286.8
   04/17/2017 09:50      65.0      63.3       46     43.0      0.00     18.24      67.6     0.37      1019.0     1       330         2       354        3.61     266      244.6
   04/17/2017 09:40      63.4      62.5       43     40.4      0.00     18.24      67.7     0.37      1019.0     2       338         3       313        3.61     266      251.0
   04/17/2017 09:30      62.3      61.5       44     39.6      0.00     18.24      67.5     0.37      1019.0     1       354         2       320        3.61     266      228.7
   04/17/2017 09:20      61.4      60.4       46     39.7      0.00     18.24      67.7     0.37      1019.0     1       191         2       169        3.61     266      211.7
   04/17/2017 09:10      60.5      59.8       46     39.4      0.00     18.24      67.8     0.37      1019.0     1       289         2       233        3.61     266      189.5
   04/17/2017 09:00      59.9      59.4       46     39.1      0.00     18.24      67.7     0.37      1019.0     2       356         3        10        3.61     266      195.5
   04/17/2017 08:50      59.4      58.1       47     38.3      0.00     18.24      67.9     0.38      1019.0     1        44         2        77        3.61     266      178.2
   04/17/2017 08:40      58.2      57.5       48     38.2      0.00     18.24      67.9     0.38      1019.0     1        86         2       105        3.61     266      102.6
   04/17/2017 08:30      57.6      57.0       48     37.8      0.00     18.24      67.8     0.38      1019.0     1       324         2       294        3.61     266       94.5
   04/17/2017 08:20      57.1      56.3       49     37.6      0.00     18.24      67.9     0.38      1019.0     1       302         2       313        3.61     267      123.4
   04/17/2017 08:10      56.2      55.6       50     37.5      0.00     18.24      68.0     0.38      1019.0     1       326         2       341        3.61     267       90.8
   04/17/2017 08:00      55.6      55.1       53     38.5      0.00     18.24      68.0     0.38      1019.0     1       336         2       324        3.61     267       60.4
   04/17/2017 07:50      55.0      53.9       52     37.2      0.00     18.24      68.0     0.38      1019.0     1       325         2       305        3.61     267       55.0
   04/17/2017 07:40      54.1      52.7       56     38.0      0.00     18.24      68.0     0.38      1019.0     1       328         2       328        3.61     267        8.5
   04/17/2017 07:30      52.5      51.5       61     39.0      0.00     18.24      68.2     0.38      1019.0     0       211         1       292        3.61     267       -5.7
   04/17/2017 07:20      51.3      50.8       66     39.9      0.00     18.24      68.4     0.38      1018.0     1       143         2       141        3.61     267      -12.9
   04/17/2017 07:10      51.0      50.3       65     39.1      0.00     18.24      68.1     0.38      1019.0     0       149         1       130        3.61     267      -26.5
   04/17/2017 07:00      50.2      49.9       66     39.2      0.00     18.24      68.3     0.38      1018.0     1       147         2       145        3.61     266      -30.5
   04/17/2017 06:50      50.2      49.9       64     38.5      0.00     18.24      68.3     0.38      1018.0     1       139         1       146        3.61     267      -31.4
   04/17/2017 06:40      50.0      49.8       62     37.6      0.00     18.24      68.5     0.38      1018.0     1       155         1       138        3.61     266      -26.0
   04/17/2017 06:30      50.1      49.7       62     37.1      0.00     18.24      68.4     0.38      1018.0     1       157         1       141        3.61     266      -31.0
   04/17/2017 06:20      49.9      49.4       61     36.9      0.00     18.24      68.3     0.38      1018.0     1       212         2       212        3.61     266      -34.5
   04/17/2017 06:10      49.6      49.0       63     37.1      0.00     18.24      68.4     0.38      1018.0     1       182         1       209        3.61     266      -44.4
   04/17/2017 06:00      49.1      48.6       64     37.4      0.00     18.24      68.5     0.38      1018.0     1       228         2       259        3.61     266      -41.1
   04/17/2017 05:50      49.3      48.7       64     37.4      0.00     18.24      68.4     0.38      1018.0     1       150         1       122        3.61     266      -48.6
   04/17/2017 05:40      49.1      48.6       64     37.3      0.00     18.24      68.6     0.38      1018.0     1       116         1       128        3.61     266      -34.4
   04/17/2017 05:30      49.4      48.5       63     36.8      0.00     18.24      68.6     0.38      1018.0     1       189         2       160        3.61     266      -43.7
   04/17/2017 05:20      49.1      48.8       63     36.8      0.00     18.24      68.6     0.38      1018.0     1       121         2       134        3.61     266      -43.0
   04/17/2017 05:10      49.5      49.2       60     35.9      0.00     18.24      68.5     0.38      1018.0     1        35         1       332        3.61     266      -41.3
   04/17/2017 05:00      49.3      48.1       60     35.6      0.00     18.24      68.8     0.38      1018.0     1       247         1       231        3.61     266      -39.2
   04/17/2017 04:50      48.4      47.9       65     36.8      0.00     18.24      68.6     0.38      1018.0     2       161         2       150        3.61     266      -47.2
   04/17/2017 04:40      48.4      48.3       63     36.4      0.00     18.24      68.6     0.38      1018.0     2       136         2       140        3.61     266      -47.7
   04/17/2017 04:30      49.3      48.4       62     36.1      0.00     18.24      68.8     0.38      1018.0     2       171         3       162        3.61     266      -49.9
   04/17/2017 04:20      49.5      49.1       59     35.6      0.00     18.24      68.9     0.38      1018.0     1       149         2       131        3.61     266      -52.4
   04/17/2017 04:10      49.6      49.1       59     35.7      0.00     18.24      68.6     0.38      1018.0     1       135         2       129        3.61     266      -53.0
   04/17/2017 04:00      49.6      49.1       58     35.3      0.00     18.24      68.6     0.38      1018.0     0       271         1       230        3.61     266      -52.9
   04/17/2017 03:50      49.3      48.8       59     35.3      0.00     18.24      68.8     0.38      1018.0     0       184         1       157        3.61     266      -54.1
   04/17/2017 03:40      49.0      48.5       59     35.4      0.00     18.24      69.0     0.38      1018.0     1       173         2       138        3.61     266      -56.2
   04/17/2017 03:30      49.8      48.8       59     35.6      0.00     18.24      68.8     0.38      1018.0     2       146         3       131        3.61     266      -57.8
   04/17/2017 03:20      50.2      49.7       56     35.1      0.00     18.24      68.8     0.38      1018.0     1       170         1       152        3.61     265      -57.4
   04/17/2017 03:10      50.5      49.9       54     34.5      0.00     18.24      69.0     0.38      1017.0     1       228         1       249        3.61     266      -55.7
   04/17/2017 03:00      50.6      50.2       57     35.7      0.00     18.24      69.2     0.38      1017.0     1       151         1       137        3.61     265      -56.7
   04/17/2017 02:50      50.8      50.5       56     35.7      0.00     18.24      69.0     0.38      1017.0     1       155         1       150        3.61     265      -58.0
   04/17/2017 02:40      50.6      50.3       58     36.1      0.00     18.24      69.1     0.38      1017.0     1       186         2       157        3.61     266      -57.1
   04/17/2017 02:30      51.3      50.6       56     35.9      0.00     18.24      69.1     0.38      1017.0     2       146         2       141        3.61     265      -55.2
   04/17/2017 02:20      51.8      51.4       52     34.4      0.00     18.24      69.1     0.38      1018.0     1       157         1       142        3.61     265      -55.3
   04/17/2017 02:10      51.8      51.6       51     34.3      0.00     18.24      69.2     0.38      1018.0     1       141         1       157        3.61     265      -55.6
   04/17/2017 02:00      51.9      51.5       52     34.4      0.00     18.24      69.3     0.38      1018.0     1        96         1        63        3.61     265      -56.6
   04/17/2017 01:50      53.5      52.0       49     34.2      0.00     18.24      69.3     0.38      1018.0     1       130         2       216        3.61     265      -57.6
   04/17/2017 01:40      53.8      53.5       46     33.4      0.00     18.24      69.3     0.38      1018.0     2       230         2       204        3.61     265      -57.4
   04/17/2017 01:30      54.1      53.7       45     33.1      0.00     18.24      69.3     0.38      1018.0     2       241         3       235        3.61     265      -57.8
   04/17/2017 01:20      53.9      53.5       45     32.6      0.00     18.24      69.0     0.38      1018.0     2       203         3       211        3.61     265      -57.7
   04/17/2017 01:10      53.7      53.4       45     32.8      0.00     18.24      69.3     0.38      1018.0     1       198         2       186        3.61     265      -57.2
   04/17/2017 01:00      54.2      53.9       44     32.6      0.00     18.24      69.3     0.38      1018.0     2       203         3       208        3.61     265      -58.0
   04/17/2017 00:50      54.8      54.2       42     31.9      0.00     18.24      69.3     0.38      1018.0     2       232         4       248        3.61     265      -60.8
   04/17/2017 00:40      54.1      53.4       46     33.4      0.00     18.24      69.4     0.38      1018.0     2       258         3       239        3.61     264      -61.1
   04/17/2017 00:30      54.0      53.6       47     33.8      0.00     18.24      69.3     0.38      1017.0     2       240         4       245        3.61     264      -62.4
   04/17/2017 00:20      53.9      53.4       47     34.2      0.00     18.24      69.4     0.38      1017.0     1       237         2       231        3.61     264      -63.6
   04/17/2017 00:10      54.2      53.2       48     34.4      0.00     18.24      69.5     0.38      1017.0     1       107         1        36        3.61     264      -65.2
   04/17/2017 00:00      55.5      54.0       46     34.4      0.00     18.24      69.4     0.38      1017.0     1        27         1        38        3.61     264      -67.1
   04/16/2017 23:50      56.4      55.9       43     34.2      0.00     18.24      69.4     0.38      1017.0     1       357         2       342        3.61     264      -68.8
   04/16/2017 23:40      56.5      56.1       42     33.7      0.00     18.24      69.6     0.38      1017.0     2       123         4       182        3.61     264      -71.1
   04/16/2017 23:30      56.8      56.3       42     33.6      0.00     18.24      69.4     0.38      1017.0     4       187         6       207        3.61     264      -71.7
   04/16/2017 23:20      57.1      56.9       41     33.6      0.00     18.24      69.6     0.38      1017.0     2       243         3       228        3.61     264      -73.0
   04/16/2017 23:10      57.4      57.0       40     33.4      0.00     18.24      69.5     0.38      1017.0     2       207         4       211        3.61     264      -74.7
   04/16/2017 23:00      57.6      57.2       40     33.5      0.00     18.24      69.6     0.38      1017.0     3       196         5       206        3.61     264      -74.3
   04/16/2017 22:50      57.4      56.9       42     34.1      0.00     18.24      69.5     0.38      1017.0     3       201         7       195        3.61     264      -74.0
   04/16/2017 22:40      57.5      57.1       42     34.5      0.00     18.24      69.4     0.38      1017.0     3       208         5       202        3.61     264      -75.0
   04/16/2017 22:30      58.0      57.5       42     34.7      0.00     18.24      69.6     0.38      1017.0     2       227         4       231        3.61     264      -74.9
   04/16/2017 22:20      58.5      58.0       42     35.5      0.00     18.24      69.7     0.38      1017.0     2       275         4       236        3.61     264      -75.6
   04/16/2017 22:10      59.1      58.5       42     35.6      0.00     18.24      69.7     0.38      1017.0     2       263         3       251        3.61     264      -75.3
   04/16/2017 22:00      59.1      58.9       42     35.7      0.00     18.24      69.7     0.38      1017.0     3       240         4       226        3.61     264      -73.4
   04/16/2017 21:50      59.3      59.0       42     36.2      0.00     18.24      69.7     0.38      1017.0     2       243         4       234        3.61     264      -72.0
   04/16/2017 21:40      59.5      59.2       44     37.3      0.00     18.24      69.3     0.38      1017.0     2       235         4       242        3.61     264      -73.2
   04/16/2017 21:30      59.7      59.5       46     38.7      0.00     18.24      69.5     0.38      1017.0     2       209         3       187        3.61     264      -71.8
   04/16/2017 21:20      60.0      59.7       46     39.2      0.00     18.24      69.4     0.38      1017.0     3       205         4       200        3.61     264      -74.3
   04/16/2017 21:10      60.4      59.9       45     39.0      0.00     18.24      69.3     0.38      1017.0     3       200         5       204        3.61     264      -72.7
   04/16/2017 21:00      60.7      60.4       44     38.6      0.00     18.24      69.5     0.38      1017.0     3       219         5       237        3.61     264      -69.8
   04/16/2017 20:50      61.1      60.6       44     38.8      0.00     18.24      69.4     0.38      1016.0     3       221         5       213        3.61     264      -71.8
   04/16/2017 20:40      61.5      61.0       44     39.1      0.00     18.24      69.3     0.38      1016.0     4       195         5       195        3.61     264      -73.5
   04/16/2017 20:30      62.1      61.7       43     38.9      0.00     18.24      69.4     0.38      1016.0     3       168         4       181        3.61     264      -75.5
   04/16/2017 20:20      62.9      62.2       40     38.2      0.00     18.24      69.4     0.38      1016.0     3       224         5       214        3.61     264      -77.2
   04/16/2017 20:10      63.3      62.9       39     37.9      0.00     18.24      69.5     0.38      1016.0     4       236         7       229        3.61     263      -78.5
   04/16/2017 20:00      64.4      63.4       38     37.4      0.00     18.24      69.4     0.38      1016.0     3       245         4       252        3.61     264      -78.7
   04/16/2017 19:50      64.8      64.4       36     37.1      0.00     18.24      69.2     0.38      1016.0     2       285         3       255        3.61     263      -72.0
   04/16/2017 19:40      65.5      65.0       36     37.5      0.00     18.24      69.3     0.38      1016.0     3       290         4       249        3.61     263      -67.3
   04/16/2017 19:30      66.0      65.5       35     37.6      0.00     18.24      69.3     0.38      1016.0     3       269         5       282        3.61     263      -75.1
   04/16/2017 19:20      66.7      66.2       35     37.9      0.00     18.24      69.2     0.38      1016.0     3       301         5       295        3.61     263      -74.2
   04/16/2017 19:10      67.4      66.8       35     38.6      0.00     18.24      69.1     0.38      1016.0     4       286         6       272        3.61     263      -77.2
   04/16/2017 19:00      68.3      67.7       35     39.2      0.00     18.24      69.1     0.38      1015.0     4       307         6       347        3.61     263      -73.3
   04/16/2017 18:50      68.9      68.3       33     38.4      0.00     18.24      69.0     0.38      1015.0     4       303         7       314        3.61     263      -68.4
   04/16/2017 18:40      69.6      68.8       32     38.0      0.00     18.24      69.0     0.38      1015.0     5       309         8       322        3.61     262      -53.1
   04/16/2017 18:30      70.1      69.8       31     38.3      0.00     18.24      68.8     0.38      1015.0     5       288         7       303        3.61     262      -28.7
   04/16/2017 18:20      71.5      70.0       31     38.5      0.00     18.24      69.0     0.38      1015.0     6       308        11       314        3.61     262       -1.4
   04/16/2017 18:10      72.4      71.7       31     39.7      0.00     18.24      68.8     0.38      1015.0     5       292         8       299        3.61     262       21.6
   04/16/2017 18:00      74.1      72.4       30     39.6      0.00     18.24      68.7     0.38      1015.0     5       289         6       314        3.61     263       35.4
   04/16/2017 17:50      75.0      74.2       26     37.8      0.00     18.24      68.8     0.38      1015.0     5       274         7       306        3.61     262       67.6
   04/16/2017 17:40      75.8      74.9       25     37.6      0.00     18.24      68.6     0.38      1015.0     6       258         9       249        3.61     262      145.1
   04/16/2017 17:30      75.7      74.9       27     39.0      0.00     18.24      68.5     0.38      1015.0     4       256         5       234        3.61     263       93.1
   04/16/2017 17:20      75.6      75.1       27     39.2      0.00     18.24      68.5     0.38      1015.0     5       250         7       246        3.61     263       89.6
   04/16/2017 17:10      76.6      75.6       27     39.5      0.00     18.24      68.4     0.38      1015.0     5       231         6       241        3.61     262      147.8
   04/16/2017 17:00      76.4      75.3       27     39.1      0.00     18.24      68.3     0.38      1015.0     5       234         7       240        3.61     263      244.5
   04/16/2017 16:50      76.9      75.5       27     39.6      0.00     18.24      68.3     0.38      1015.0     5       229         8       234        3.61     263      205.7
   04/16/2017 16:40      76.9      76.2       27     40.3      0.00     18.24      68.2     0.38      1014.0     5       190         6       155        3.61     264      261.3
   04/16/2017 16:30      77.3      76.1       27     40.6      0.00     18.24      68.1     0.38      1014.0     4       196         7       196        3.61     263      269.4
   04/16/2017 16:20      77.3      76.4       28     40.9      0.00     18.24      68.1     0.37      1015.0     5       202         9       223        3.61     263      377.3
   04/16/2017 16:10      77.8      76.3       27     40.5      0.00     18.24      67.8     0.37      1014.0     6       223        10       185        3.61     263      234.5
   04/16/2017 16:00      77.9      77.4       26     40.5      0.00     18.24      67.8     0.37      1014.0     5       180         7       203        3.61     263      376.0
   04/16/2017 15:50      77.3      76.8       24     37.0      0.00     18.24      67.8     0.37      1014.0     6       164         9       169        3.61     263      402.0
   04/16/2017 15:40      77.9      77.2       21     35.0      0.00     18.24      67.8     0.37      1014.0     6       156         8       137        3.61     263      276.2
   04/16/2017 15:30      78.0      77.6       21     35.0      0.00     18.24      67.6     0.37      1015.0     6       189        10       169        3.61     263      386.3
   04/16/2017 15:20      78.8      78.1       21     35.8      0.00     18.24      67.4     0.37      1015.0     7       185        10       223        3.61     264      422.6
   04/16/2017 15:10      79.7      78.8       21     36.2      0.00     18.24      67.4     0.37      1014.0     5       179         7       159        3.61     264      446.1
   04/16/2017 15:00      79.9      78.6       18     32.7      0.00     18.24      67.4     0.37      1015.0     5       144         7       127        3.61     263      441.7
   04/16/2017 14:50      79.0      78.5       20     34.3      0.00     18.24      67.3     0.37      1015.0     5       185         7       219        3.61     264      476.8
   04/16/2017 14:40      79.3      78.5       22     37.0      0.00     18.24      67.3     0.37      1015.0     5       176         7       207        3.61     264      491.8
   04/16/2017 14:30      78.8      78.4       24     38.9      0.00     18.24      67.4     0.37      1015.0     5       179        11       169        3.61     264      504.1
   04/16/2017 14:20      80.4      78.6       25     40.3      0.00     18.24      67.1     0.37      1015.0     4       146         7       162        3.61     264      511.8
   04/16/2017 14:10      81.4      80.2       22     38.6      0.00     18.24      67.1     0.37      1015.0     4       113         6       126        3.61     264      519.0
   04/16/2017 14:00      81.3      80.4       22     37.9      0.00     18.24      67.0     0.37      1015.0     3        59         5        49        3.61     264      525.7
   04/16/2017 13:50      80.6      79.7       22     38.1      0.00     18.24      66.9     0.37      1015.0     4        43         8        72        3.61     264      529.5
   04/16/2017 13:40      80.2      78.9       22     37.8      0.00     18.24      66.9     0.37      1015.0     3        42         6         4        3.61     264      529.1
   04/16/2017 13:30      80.9      79.9       22     38.2      0.00     18.24      66.8     0.37      1015.0     5        75         9        67        3.61     264      556.7
   04/16/2017 13:20      79.9      79.5       22     37.8      0.00     18.24      66.9     0.37      1015.0     3        65         5        80        3.61     264      551.3
   04/16/2017 13:10      79.9      79.2       23     38.0      0.00     18.24      66.8     0.37      1015.0     4        62         5       356        3.61     264      465.6
   04/16/2017 13:00      80.4      77.9       22     37.4      0.00     18.24      66.7     0.37      1015.0     3        10         4         8        3.61     264      564.8
   04/16/2017 12:50      78.4      77.7       22     36.4      0.00     18.24      66.7     0.37      1015.0     2       350         4        76        3.61     264      555.4
   04/16/2017 12:40      77.6      77.0       23     36.4      0.00     18.24      66.7     0.37      1015.0     3       298         5       286        3.61     264      543.3
   04/16/2017 12:30      77.5      76.4       22     35.4      0.00     18.24      66.6     0.37      1015.0     3        90         5       113        3.61     264      553.0
   04/16/2017 12:20      77.5      76.6       22     35.2      0.00     18.24      66.8     0.37      1015.0     2       291         4         6        3.61     264      552.7
   04/16/2017 12:10      77.5      75.2       24     36.6      0.00     18.24      66.5     0.37      1016.0     3       352         5       351        3.61     264      549.9
   04/16/2017 12:00      76.4      75.6       23     36.0      0.00     18.24      66.7     0.37      1016.0     2       162         3       190        3.61     264      544.7
   04/16/2017 11:50      76.0      75.1       24     36.6      0.00     18.24      66.5     0.37      1016.0     3       325         5         7        3.61     264      538.3
   04/16/2017 11:40      74.9      74.6       25     36.6      0.00     18.24      66.6     0.37      1016.0     2         7         4         2        3.61     264      532.3
   04/16/2017 11:30      74.8      73.4       26     36.8      0.00     18.24      66.7     0.37      1016.0     3        23         4        16        3.61     264      525.9
   04/16/2017 11:20      74.3      73.7       25     36.1      0.00     18.24      66.5     0.37      1016.0     3        48         7        69        3.61     264      516.6
   04/16/2017 11:10      74.0      73.3       25     36.0      0.00     18.24      66.5     0.37      1016.0     3        40         4        35        3.61     265      507.3
   04/16/2017 11:00      73.3      72.0       26     35.7      0.00     18.24      66.5     0.37      1016.0     2        72         3        39        3.61     264      496.9
   04/16/2017 10:50      71.8      70.1       27     35.9      0.00     18.24      66.6     0.37      1016.0     3        41         4       350        3.61     265      484.6
   04/16/2017 10:40      70.4      69.4       29     35.7      0.00     18.24      66.7     0.37      1016.0     3        10         5       338        3.61     264      471.3
   04/16/2017 10:30      69.6      68.5       29     35.3      0.00     18.24      66.7     0.37      1016.0     2       246         4       254        3.61     265      455.2
   04/16/2017 10:20      68.8      68.1       30     35.7      0.00     18.24      66.7     0.37      1016.0     3       295         4       240        3.61     266      440.3
   04/16/2017 10:10      67.9      67.3       31     35.5      0.00     18.24      66.6     0.37      1016.0     2       360         4       331        3.61     267      424.6
   04/16/2017 10:00      67.6      66.1       33     36.6      0.00     18.24      66.5     0.37      1016.0     2       331         3       348        3.61     267      407.7
   04/16/2017 09:50      66.0      65.3       34     36.6      0.00     18.24      66.9     0.37      1016.0     2       344         3       346        3.61     267      391.5
   04/16/2017 09:40      65.9      64.7       38     39.1      0.00     18.24      67.0     0.37      1016.0     2       286         3       273        3.61     267      373.1
   04/16/2017 09:30      64.5      63.2       42     40.0      0.00     18.24      66.7     0.37      1016.0     2       296         3       314        3.61     267      356.1
   04/16/2017 09:20      63.3      62.2       43     40.2      0.00     18.24      66.8     0.37      1016.0     2       314         3       323        3.61     267      336.5
   04/16/2017 09:10      62.6      61.9       45     40.5      0.00     18.24      67.0     0.37      1015.0     2         4         3       353        3.61     267      316.6
   04/16/2017 09:00      62.2      60.2       47     40.5      0.00     18.24      67.0     0.37      1016.0     1       291         2       236        3.61     267      264.2
   04/16/2017 08:50      59.9      58.9       50     40.5      0.00     18.24      67.0     0.38      1015.0     1       235         1       216        3.61     267      172.3
   04/16/2017 08:40      59.1      58.3       51     40.5      0.00     18.24      66.9     0.38      1015.0     1       319         1       264        3.61     268       66.2
   04/16/2017 08:30      59.2      58.6       52     41.5      0.00     18.24      67.0     0.38      1015.0     1       356         1       291        3.61     268      103.0
   04/16/2017 08:20      58.6      56.8       57     42.4      0.00     18.24      67.1     0.38      1015.0     1        48         1        62        3.61     268       97.3
   04/16/2017 08:10      56.7      55.0       60     42.2      0.00     18.24      67.3     0.38      1015.0     1        50         1        86        3.61     268       68.0
   04/16/2017 08:00      55.0      53.0       63     41.9      0.00     18.24      66.9     0.38      1015.0     1        85         2        84        3.61     268       83.3
   04/16/2017 07:50      52.8      50.6       67     40.9      0.00     18.24      67.0     0.38      1016.0     1        69         2        87        3.61     268       74.6
   04/16/2017 07:40      50.5      49.3       73     41.5      0.00     18.24      67.4     0.38      1016.0     1       206         1       134        3.61     268       22.6
   04/16/2017 07:30      49.5      48.3       73     40.7      0.00     18.24      67.1     0.38      1015.0     1       154         1       126        3.61     267       -8.1
   04/16/2017 07:20      48.4      47.8       76     41.0      0.00     18.24      67.1     0.38      1015.0     1       141         1       129        3.61     267      -20.4
   04/16/2017 07:10      47.9      47.7       76     40.6      0.00     18.24      67.3     0.38      1015.0     0        85         0        82        3.61     267      -25.1
   04/16/2017 07:00      47.8      47.3       76     40.2      0.00     18.24      67.7     0.38      1015.0     0       211         1       119        3.61     267      -36.3
   04/16/2017 06:50      47.4      47.2       77     40.4      0.00     18.24      67.5     0.38      1015.0     1       160         1       134        3.61     267      -45.0
   04/16/2017 06:40      47.6      47.2       76     40.3      0.00     18.24      67.3     0.38      1015.0     1       145         2       124        3.61     267      -50.7
   04/16/2017 06:30      47.7      47.4       76     40.3      0.00     18.24      67.4     0.38      1015.0     1       172         1       170        3.61     267      -51.2
   04/16/2017 06:20      47.4      47.2       76     40.2      0.00     18.24      67.6     0.38      1015.0     1       149         2       133        3.61     267      -52.9
   04/16/2017 06:10      48.0      47.6       75     40.2      0.00     18.24      67.5     0.38      1015.0     1       150         2       142        3.61     267      -54.9
   04/16/2017 06:00      48.5      48.1       72     39.8      0.00     18.24      67.6     0.38      1015.0     1       167         2       146        3.61     267      -55.5
   04/16/2017 05:50      48.0      47.9       74     39.9      0.00     18.24      67.8     0.38      1015.0     1       216         2       148        3.61     266      -56.5
   04/16/2017 05:40      48.5      48.0       75     40.5      0.00     18.24      67.7     0.38      1015.0     1       141         2       136        3.61     267      -58.0
   04/16/2017 05:30      49.4      48.6       71     40.0      0.00     18.24      67.8     0.38      1015.0     1       158         2       136        3.61     267      -56.7
   04/16/2017 05:20      49.3      48.8       71     40.2      0.00     18.24      67.8     0.38      1014.0     1       178         1       147        3.61     267      -54.3
   04/16/2017 05:10      49.0      48.6       73     40.4      0.00     18.24      67.6     0.38      1014.0     1       135         1       144        3.61     266      -53.9
   04/16/2017 05:00      49.9      49.0       70     40.0      0.00     18.24      67.9     0.38      1015.0     1       130         2       131        3.61     267      -52.7
   04/16/2017 04:50      50.4      50.0       66     39.3      0.00     18.24      67.7     0.38      1015.0     1       226         2       236        3.61     267      -47.9
   04/16/2017 04:40      50.2      49.3       68     39.6      0.00     18.24      68.0     0.38      1015.0     1       248         2       244        3.61     266      -44.5
   04/16/2017 04:30      49.7      49.4       70     40.1      0.00     18.24      67.9     0.38      1015.0     0        91         1        96        3.61     266      -46.4
   04/16/2017 04:20      49.9      49.6       69     40.1      0.00     18.24      67.8     0.38      1015.0     1       112         1       140        3.61     266      -47.5
   04/16/2017 04:10      49.9      49.4       70     40.2      0.00     18.24      68.0     0.38      1015.0     1       135         2       135        3.61     266      -48.1
   04/16/2017 04:00      49.9      49.4       70     40.0      0.00     18.24      68.0     0.38      1015.0     1       144         2       151        3.61     266      -48.9
   04/16/2017 03:50      49.9      49.6       68     39.8      0.00     18.24      67.9     0.38      1015.0     1       109         2       136        3.61     266      -50.1
   04/16/2017 03:40      50.5      50.0       69     40.2      0.00     18.24      68.2     0.38      1015.0     1       121         2       141        3.61     266      -52.2
   04/16/2017 03:30      50.8      50.4       66     39.8      0.00     18.24      68.2     0.38      1015.0     1       160         2       142        3.61     266      -51.0
   04/16/2017 03:20      50.9      50.3       65     39.4      0.00     18.24      68.0     0.38      1015.0     1       167         1       198        3.61     266      -48.8
   04/16/2017 03:10      50.5      50.2       66     39.5      0.00     18.24      68.2     0.38      1015.0     1       143         2       134        3.61     266      -48.3
   04/16/2017 03:00      50.5      50.2       65     39.2      0.00     18.24      68.2     0.38      1015.0     1       142         1       126        3.61     266      -45.5
   04/16/2017 02:50      50.8      50.4       65     39.1      0.00     18.24      68.0     0.38      1015.0     1       134         1        97        3.61     266      -46.2
   04/16/2017 02:40      50.5      50.2       65     39.0      0.00     18.24      68.1     0.38      1015.0     1       140         2       173        3.61     266      -51.9
   04/16/2017 02:30      51.1      50.6       64     39.0      0.00     18.24      68.3     0.38      1015.0     1       156         2       130        3.61     266      -52.7
   04/16/2017 02:20      51.3      50.8       63     38.8      0.00     18.24      68.3     0.38      1015.0     1       177         2       123        3.61     266      -53.1
   04/16/2017 02:10      51.6      51.1       62     38.7      0.00     18.24      68.4     0.38      1015.0     1       163         2       146        3.61     266      -54.6
   04/16/2017 02:00      51.7      51.3       58     37.4      0.00     18.24      68.5     0.38      1015.0     1       197         2       192        3.61     266      -55.9
   04/16/2017 01:50      51.2      50.8       61     38.2      0.00     18.24      68.4     0.38      1015.0     1       173         2       143        3.61     266      -56.5
   04/16/2017 01:40      51.4      51.2       60     38.0      0.00     18.24      68.5     0.38      1015.0     1       157         1       130        3.61     266      -57.8
   04/16/2017 01:30      51.4      51.2       60     38.1      0.00     18.24      68.4     0.38      1015.0     1       162         1       127        3.61     266      -60.2
   04/16/2017 01:20      52.2      51.6       60     38.5      0.00     18.24      68.6     0.38      1015.0     1       160         2       136        3.61     266      -60.8
   04/16/2017 01:10      52.6      52.1       58     38.0      0.00     18.24      68.4     0.38      1015.0     1       178         1       196        3.61     266      -60.8
   04/16/2017 01:00      52.9      52.6       58     38.2      0.00     18.24      68.3     0.38      1015.0     1       187         1       189        3.61     266      -62.2
   04/16/2017 00:50      53.0      52.5       57     38.1      0.00     18.24      68.5     0.38      1015.0     1       175         2       147        3.61     266      -62.8
   04/16/2017 00:40      53.1      53.0       57     38.3      0.00     18.24      68.7     0.38      1015.0     1       138         2       139        3.61     266      -62.5
   04/16/2017 00:30      53.6      53.1       57     38.4      0.00     18.24      68.6     0.38      1015.0     1       109         2       129        3.61     265      -64.1
   04/16/2017 00:20      54.1      53.7       55     38.3      0.00     18.24      68.7     0.38      1015.0     1       120         4       144        3.61     265      -63.5
   04/16/2017 00:10      55.6      54.4       52     37.8      0.00     18.24      68.7     0.38      1015.0     1       159         1       221        3.61     265      -63.7
   04/16/2017 00:00      56.1      55.6       51     37.9      0.00     18.24      68.5     0.38      1015.0     1       192         2       239        3.61     266      -64.4
   04/15/2017 23:50      56.4      55.1       50     37.6      0.00     18.24      68.6     0.38      1015.0     2       221         2       226        3.61     265      -64.6
   04/15/2017 23:40      55.3      54.5       51     37.5      0.00     18.24      68.4     0.38      1015.0     1       225         2       254        3.61     265      -65.4
   04/15/2017 23:30      54.6      54.4       55     38.6      0.00     18.24      68.7     0.38      1015.0     1       151         2       146        3.61     265      -67.5
   04/15/2017 23:20      55.0      54.3       54     38.3      0.00     18.24      68.7     0.38      1015.0     1       163         2       133        3.61     265      -67.1
   04/15/2017 23:10      55.5      54.9       53     38.2      0.00     18.24      68.6     0.38      1015.0     2       171         2       143        3.61     265      -66.7
   04/15/2017 23:00      56.3      55.5       50     37.3      0.00     18.24      68.6     0.38      1015.0     1       193         2       214        3.61     265      -67.2
   04/15/2017 22:50      56.1      55.5       51     38.0      0.00     18.24      68.6     0.38      1015.0     1       138         2       128        3.61     265      -68.4
   04/15/2017 22:40      56.5      56.0       50     38.1      0.00     18.24      68.4     0.38      1015.0     1       144         2       125        3.61     265      -68.9
   04/15/2017 22:30      57.4      56.7       49     37.9      0.00     18.24      68.7     0.38      1015.0     1       141         2       134        3.61     265      -69.5
   04/15/2017 22:20      57.5      57.1       48     37.5      0.00     18.24      68.5     0.38      1015.0     1       161         3       147        3.61     264      -68.9
   04/15/2017 22:10      58.0      57.4       45     36.7      0.00     18.24      68.7     0.38      1015.0     2       195         2       198        3.61     265      -66.5
   04/15/2017 22:00      59.0      57.7       44     36.7      0.00     18.24      68.5     0.38      1015.0     2       138         3       141        3.61     265      -68.2
   04/15/2017 21:50      59.9      59.3       40     35.5      0.00     18.24      68.5     0.38      1015.0     1       153         2       136        3.61     264      -68.9
   04/15/2017 21:40      59.4      58.8       42     36.0      0.00     18.24      68.5     0.38      1015.0     1       108         1        52        3.61     264      -70.6
   04/15/2017 21:30      59.9      59.4       41     36.1      0.00     18.24      68.6     0.38      1015.0     1        60         1        66        3.61     264      -70.9
   04/15/2017 21:20      61.1      59.9       40     35.9      0.00     18.24      68.4     0.38      1015.0     1        84         1       139        3.61     264      -68.7
   04/15/2017 21:10      62.3      61.1       38     35.5      0.00     18.24      68.5     0.38      1015.0     1        32         1       342        3.61     264      -68.7
   04/15/2017 21:00      63.5      62.6       35     34.8      0.00     18.24      68.5     0.38      1014.0     1       178         3       208        3.61     264      -70.8
   04/15/2017 20:50      64.0      63.8       34     35.0      0.00     18.24      68.5     0.38      1014.0     2       209         4       194        3.61     264      -74.2
   04/15/2017 20:40      64.1      63.5       35     35.5      0.00     18.24      68.5     0.38      1014.0     3       216         5       223        3.61     264      -74.3
   04/15/2017 20:30      64.9      64.0       35     36.1      0.00     18.24      68.3     0.38      1014.0     1       190         2       173        3.61     264      -74.9
   04/15/2017 20:20      65.2      64.9       34     36.2      0.00     18.24      68.5     0.38      1014.0     2       227         3       229        3.61     264      -77.1
   04/15/2017 20:10      65.7      65.3       34     36.1      0.00     18.24      68.3     0.38      1014.0     2       224         3       202        3.61     264      -81.1
   04/15/2017 20:00      65.8      65.3       33     36.1      0.00     18.24      68.4     0.38      1014.0     3       222         4       233        3.61     263      -84.9
   04/15/2017 19:50      66.5      65.7       32     35.7      0.00     18.24      68.2     0.38      1014.0     2       226         4       215        3.61     263      -88.3
   04/15/2017 19:40      67.1      66.8       31     35.1      0.00     18.24      68.2     0.38      1014.0     4       234         6       233        3.61     263      -89.8
   04/15/2017 19:30      68.0      67.1       30     35.2      0.00     18.24      68.3     0.38      1014.0     3       221         4       249        3.61     262      -88.9
   04/15/2017 19:20      69.3      68.1       29     35.1      0.00     18.24      68.2     0.38      1013.0     3       223         4       228        3.61     262      -85.9
   04/15/2017 19:10      70.9      69.5       27     34.7      0.00     18.24      68.1     0.38      1013.0     2       257         3       234        3.61     262      -83.4
   04/15/2017 19:00      71.4      71.0       26     34.5      0.00     18.24      68.3     0.38      1013.0     3       291         5       311        3.61     262      -82.0
   04/15/2017 18:50      72.2      71.6       25     34.6      0.00     18.24      68.2     0.38      1013.0     3       289         6       311        3.61     262      -66.4
   04/15/2017 18:40      73.1      72.3       25     34.8      0.00     18.24      68.0     0.38      1013.0     4       301         8       307        3.61     262      -40.4
   04/15/2017 18:30      74.1      73.3       24     35.0      0.00     18.24      68.0     0.38      1013.0     5       283         8       270        3.61     262       -8.2
   04/15/2017 18:20      74.6      74.0       25     36.0      0.00     18.24      67.8     0.38      1013.0     4       294         6       315        3.61     262       19.4
   04/15/2017 18:10      74.8      74.4       25     36.9      0.00     18.24      67.8     0.38      1013.0     4       278         6       316        3.61     263       44.0
   04/15/2017 18:00      75.2      74.3       26     37.2      0.00     18.24      67.9     0.38      1013.0     4       296         7       250        3.61     263       29.8
   04/15/2017 17:50      76.5      75.2       25     37.7      0.00     18.24      67.8     0.38      1013.0     5       300         7       293        3.61     262       79.5
   04/15/2017 17:40      76.7      76.2       25     38.3      0.00     18.24      67.8     0.38      1013.0     4       307         7       307        3.61     263      115.0
   04/15/2017 17:30      77.3      76.6       25     38.7      0.00     18.24      67.5     0.38      1013.0     5       314         7       306        3.61     263      145.2
   04/15/2017 17:20      78.0      77.3       25     39.0      0.00     18.24      67.6     0.38      1013.0     5       309         6       323        3.61     263      173.4
   04/15/2017 17:10      77.8      77.3       25     39.3      0.00     18.24      67.6     0.38      1013.0     5       281         9       314        3.61     263      201.1
   04/15/2017 17:00      77.6      76.9       26     40.1      0.00     18.24      67.4     0.38      1013.0     5       230         8       214        3.61     263      224.7
   04/15/2017 16:50      77.6      76.9       27     40.5      0.00     18.24      67.2     0.38      1013.0     4       192         6       196        3.61     263      249.0
   04/15/2017 16:40      78.0      77.5       26     39.9      0.00     18.24      67.2     0.38      1013.0     4       203         7       214        3.61     263      270.1
   04/15/2017 16:30      78.4      77.8       22     36.5      0.00     18.24      67.1     0.38      1013.0     5       173         6       183        3.61     263      293.1
   04/15/2017 16:20      78.7      77.8       22     35.7      0.00     18.24      67.0     0.38      1013.0     4       198         7       208        3.61     263      316.9
   04/15/2017 16:10      79.5      78.5       21     35.4      0.00     18.24      67.0     0.38      1013.0     4       165         8       163        3.61     263      336.9
   04/15/2017 16:00      80.4      79.5       20     35.0      0.00     18.24      66.9     0.38      1013.0     3       154         6       195        3.61     263      355.5
   04/15/2017 15:50      79.8      78.8       19     33.5      0.00     18.24      66.8     0.38      1013.0     4       110         6       105        3.61     263      378.1
   04/15/2017 15:40      80.2      79.6       19     33.4      0.00     18.24      66.8     0.38      1013.0     5        84         7        58        3.61     263      392.9
   04/15/2017 15:30      80.5      79.9       18     32.2      0.00     18.24      66.7     0.37      1013.0     4        94         8        88        3.61     264      413.0
   04/15/2017 15:20      80.5      79.5       17     31.9      0.00     18.24      66.6     0.37      1013.0     5       101         8       139        3.61     264      429.4
   04/15/2017 15:10      81.0      79.5       17     32.0      0.00     18.24      66.4     0.37      1013.0     5       115         8       138        3.61     264      446.3
   04/15/2017 15:00      80.9      79.7       17     31.1      0.00     18.24      66.5     0.37      1013.0     6        96        10       101        3.61     264      462.9
   04/15/2017 14:50      81.9      81.3       18     33.6      0.00     18.24      66.4     0.37      1013.0     6        98         9        62        3.61     264      475.9
   04/15/2017 14:40      81.8      80.5       17     32.8      0.00     18.24      66.3     0.37      1013.0     5        68         7        80        3.61     264      487.7
   04/15/2017 14:30      81.4      80.5       18     33.9      0.00     18.24      66.2     0.37      1013.0     6        94        10        81        3.61     264      497.2
   04/15/2017 14:20      82.4      81.0       19     34.9      0.00     18.24      66.3     0.37      1013.0     4        56         7        62        3.61     264      502.6
   04/15/2017 14:10      81.6      80.3       20     35.7      0.00     18.24      66.1     0.37      1013.0     4        64         6        61        3.61     264      513.3
   04/15/2017 14:00      81.1      80.1       22     38.4      0.00     18.24      66.0     0.37      1013.0     2       118         5       132        3.61     264      522.3
   04/15/2017 13:50      81.9      80.2       22     38.2      0.00     18.24      66.0     0.37      1013.0     3        98         5       126        3.61     264      528.6
   04/15/2017 13:40      80.9      79.6       22     37.5      0.00     18.24      65.9     0.37      1013.0     2        57         4       110        3.61     264      540.0
   04/15/2017 13:30      79.9      78.7       23     38.6      0.00     18.24      66.0     0.37      1013.0     3        36         5        76        3.61     264      544.6
   04/15/2017 13:20      79.3      78.1       23     38.1      0.00     18.24      65.9     0.37      1013.0     2       338         4       305        3.61     264      549.0
   04/15/2017 13:10      78.1      77.3       24     37.7      0.00     18.24      65.8     0.37      1014.0     3       308         4       307        3.61     265      554.6
   04/15/2017 13:00      78.3      77.0       24     37.7      0.00     18.24      65.8     0.37      1014.0     4       302         6       291        3.61     265      553.1
   04/15/2017 12:50      77.8      76.7       23     37.1      0.00     18.24      65.9     0.37      1014.0     3       342         6       333        3.61     264      555.5
   04/15/2017 12:40      77.3      75.8       24     36.8      0.00     18.24      65.7     0.37      1014.0     3       325         4       351        3.61     265      556.7
   04/15/2017 12:30      77.3      75.3       24     36.8      0.00     18.24      65.5     0.37      1014.0     3       304         5       296        3.61     265      553.8
   04/15/2017 12:20      76.7      75.3       24     36.4      0.00     18.24      65.7     0.37      1014.0     3       320         5       312        3.61     264      554.4
   04/15/2017 12:10      76.5      75.7       23     36.0      0.00     18.24      65.7     0.37      1014.0     3       331         4       322        3.61     265      552.0
   04/15/2017 12:00      76.3      74.1       25     36.5      0.00     18.24      65.7     0.37      1014.0     1       348         3       339        3.61     265      550.4
   04/15/2017 11:50      75.5      73.7       25     36.9      0.00     18.24      65.7     0.37      1014.0     2        77         3       186        3.61     265      543.9
   04/15/2017 11:40      73.4      72.3       26     35.8      0.00     18.24      65.4     0.37      1014.0     2       307         3       138        3.61     265      533.3
   04/15/2017 11:30      73.1      72.3       26     35.8      0.00     18.24      65.7     0.37      1015.0     2        53         4       339        3.61     265      529.7
   04/15/2017 11:20      72.3      70.3       26     35.1      0.00     18.24      65.7     0.37      1015.0     1        21         2         4        3.61     265      520.8
   04/15/2017 11:10      71.2      70.5       27     34.8      0.00     18.24      65.8     0.37      1015.0     2       284         4       293        3.61     265      510.6
   04/15/2017 11:00      71.3      70.6       27     35.3      0.00     18.24      65.8     0.37      1015.0     3        14         4        44        3.61     265      498.8
   04/15/2017 10:50      70.4      69.0       27     34.4      0.00     18.24      65.8     0.37      1015.0     1       337         3        38        3.61     265      485.7
   04/15/2017 10:40      69.6      68.3       29     35.2      0.00     18.24      65.7     0.37      1015.0     2       328         4         8        3.61     265      471.4
   04/15/2017 10:30      68.9      67.6       29     35.1      0.00     18.24      65.8     0.37      1015.0     2        15         4       325        3.61     266      457.8
   04/15/2017 10:20      67.8      66.4       32     36.0      0.00     18.24      65.8     0.37      1015.0     2       282         4       359        3.61     266      442.9
   04/15/2017 10:10      66.6      66.0       32     35.9      0.00     18.24      66.0     0.37      1015.0     3       333         5       344        3.61     266      425.1
   04/15/2017 10:00      66.8      66.0       33     36.6      0.00     18.24      65.8     0.37      1015.0     2         6         4         3        3.61     267      407.2
   04/15/2017 09:50      66.3      64.4       36     37.9      0.00     18.24      65.9     0.37      1015.0     2       285         2       193        3.61     267      390.6
   04/15/2017 09:40      65.3      64.1       36     37.3      0.00     18.24      66.0     0.37      1015.0     2       307         2       311        3.61     267      371.5
   04/15/2017 09:30      65.3      62.1       38     37.6      0.00     18.24      66.1     0.37      1015.0     1       355         2       353        3.61     267      351.2
   04/15/2017 09:20      62.3      61.8       38     36.1      0.00     18.24      66.2     0.37      1015.0     2       338         3       304        3.61     267      333.3
   04/15/2017 09:10      61.8      60.8       39     36.1      0.00     18.24      66.0     0.38      1015.0     1       229         3       211        3.61     267      310.6
   04/15/2017 09:00      61.0      59.9       38     34.9      0.00     18.24      66.1     0.38      1015.0     1         8         2        45        3.61     267      290.6
   04/15/2017 08:50      59.6      58.3       40     34.8      0.00     18.24      66.4     0.38      1015.0     1       352         2        84        3.61     267      266.2
   04/15/2017 08:40      58.2      57.3       42     35.0      0.00     18.24      66.3     0.38      1015.0     1       335         2       304        3.61     267      243.3
   04/15/2017 08:30      57.6      56.9       43     34.9      0.00     18.24      66.3     0.38      1015.0     1       325         2       324        3.61     267      218.7
   04/15/2017 08:20      57.0      56.3       44     34.8      0.00     18.24      66.5     0.38      1015.0     1       349         2         5        3.61     267      192.4
   04/15/2017 08:10      56.6      54.4       46     35.1      0.00     18.24      66.3     0.38      1015.0     1        48         2       345        3.61     267      165.7
   04/15/2017 08:00      54.0      52.0       50     34.8      0.00     18.24      66.4     0.38      1015.0     1         1         2       344        3.61     267      143.2
   04/15/2017 07:50      51.7      49.9       54     34.6      0.00     18.24      66.5     0.38      1015.0     1       353         2         2        3.61     268       79.5
   04/15/2017 07:40      49.9      48.0       58     34.9      0.00     18.24      66.8     0.38      1015.0     1       350         1       356        3.61     267       26.6
   04/15/2017 07:30      48.0      46.3       64     35.4      0.00     18.24      66.4     0.38      1015.0     1        43         2        21        3.61     267       16.1
   04/15/2017 07:20      46.1      44.7       66     34.7      0.00     18.24      66.7     0.38      1015.0     1       124         1        69        3.61     267      -21.4
   04/15/2017 07:10      44.6      43.2       68     34.0      0.00     18.24      66.7     0.38      1015.0     1       248         1       235        3.61     267      -38.4
   04/15/2017 07:00      43.1      42.1       71     33.9      0.00     18.24      66.8     0.38      1015.0     1       174         1       216        3.61     267      -40.9
   04/15/2017 06:50      42.6      41.9       71     33.7      0.00     18.24      66.6     0.38      1015.0     2       126         3       134        3.61     267      -46.6
   04/15/2017 06:40      42.6      42.3       70     33.3      0.00     18.24      66.9     0.38      1014.0     2       150         3       135        3.61     267      -52.4
   04/15/2017 06:30      42.7      42.5       68     32.6      0.00     18.24      67.0     0.38      1014.0     2       193         3       193        3.61     267      -57.3
   04/15/2017 06:20      42.3      41.9       69     32.9      0.00     18.24      66.9     0.38      1014.0     1       214         2       231        3.61     267      -60.8
   04/15/2017 06:10      42.3      41.7       69     32.7      0.00     18.24      66.5     0.38      1014.0     1       157         1       242        3.61     267      -62.6
   04/15/2017 06:00      42.5      42.2       68     32.5      0.00     18.24      66.7     0.38      1014.0     1       154         2        71        3.61     267      -62.7
   04/15/2017 05:50      43.1      42.5       66     32.3      0.00     18.24      67.0     0.38      1014.0     1       220         2       243        3.61     267      -62.1
   04/15/2017 05:40      42.9      42.0       68     32.5      0.00     18.24      67.1     0.38      1014.0     1       127         2        56        3.61     267      -63.3
   04/15/2017 05:30      43.6      43.2       63     31.6      0.00     18.24      66.8     0.38      1014.0     1       205         1       139        3.61     267      -62.0
   04/15/2017 05:20      43.4      42.5       66     32.2      0.00     18.24      67.2     0.38      1014.0     1       140         1       157        3.61     267      -62.5
   04/15/2017 05:10      43.9      43.6       63     32.0      0.00     18.24      67.3     0.38      1014.0     1        70         1        79        3.61     267      -63.4
   04/15/2017 05:00      43.9      43.1       64     32.2      0.00     18.24      66.9     0.38      1014.0     2       221         3       221        3.61     267      -63.0
   04/15/2017 04:50      43.4      42.9       65     32.4      0.00     18.24      67.2     0.38      1014.0     1       237         3       232        3.61     267      -64.3
   04/15/2017 04:40      43.1      42.4       68     32.9      0.00     18.24      67.0     0.38      1014.0     1        21         2       231        3.61     266      -64.3
   04/15/2017 04:30      43.6      43.2       67     33.0      0.00     18.24      67.2     0.38      1014.0     1       110         3        71        3.61     266      -63.9
   04/15/2017 04:20      44.9      43.7       64     32.8      0.00     18.24      67.2     0.38      1014.0     2       130         3       128        3.61     266      -63.0
   04/15/2017 04:10      45.1      44.5       62     32.5      0.00     18.24      67.6     0.38      1014.0     1       195         2       192        3.61     266      -62.8
   04/15/2017 04:00      44.5      43.9       65     33.0      0.00     18.24      67.7     0.38      1014.0     1       159         1       102        3.61     266      -63.8
   04/15/2017 03:50      45.5      44.4       61     32.4      0.00     18.24      67.5     0.38      1014.0     1        30         1       120        3.61     266      -64.2
   04/15/2017 03:40      45.6      44.8       61     32.7      0.00     18.24      67.4     0.38      1014.0     1       265         2       246        3.61     266      -64.4
   04/15/2017 03:30      45.3      44.5       65     33.8      0.00     18.24      67.3     0.38      1014.0     1       127         2        76        3.61     266      -64.7
   04/15/2017 03:20      46.1      45.5       63     33.7      0.00     18.24      67.6     0.38      1014.0     1       105         2       153        3.61     266      -65.7
   04/15/2017 03:10      46.5      45.0       62     33.6      0.00     18.24      67.7     0.38      1014.0     2       208         2       205        3.61     266      -64.3
   04/15/2017 03:00      46.0      44.9       64     34.0      0.00     18.24      67.8     0.38      1014.0     1        79         2        61        3.61     266      -66.3
   04/15/2017 02:50      46.8      46.0       60     33.6      0.00     18.24      67.8     0.38      1014.0     1       104         2       154        3.61     266      -66.2
   04/15/2017 02:40      46.8      46.3       60     33.4      0.00     18.24      67.6     0.38      1014.0     2       222         3       247        3.61     266      -65.3
   04/15/2017 02:30      46.5      46.1       63     34.6      0.00     18.24      67.7     0.38      1014.0     1       133         1       195        3.61     266      -66.1
   04/15/2017 02:20      46.8      46.4       64     35.1      0.00     18.24      67.9     0.38      1014.0     1       130         2       133        3.61     266      -66.2
   04/15/2017 02:10      46.6      46.0       66     35.5      0.00     18.24      67.8     0.38      1014.0     1       170         2       151        3.61     266      -66.8
   04/15/2017 02:00      47.0      46.5       67     36.2      0.00     18.24      67.8     0.38      1015.0     2       134         3       128        3.61     266      -66.9
   04/15/2017 01:50      47.6      46.6       67     36.4      0.00     18.24      67.6     0.38      1015.0     1       111         2       133        3.61     266      -68.5
   04/15/2017 01:40      48.4      47.8       64     36.3      0.00     18.24      67.8     0.38      1015.0     2       122         3       126        3.61     266      -67.6
   04/15/2017 01:30      48.6      48.2       62     35.9      0.00     18.24      67.8     0.38      1015.0     1       177         2       176        3.61     266      -65.7
   04/15/2017 01:20      48.3      47.6       63     35.8      0.00     18.24      68.0     0.38      1015.0     2       225         3       185        3.61     266      -66.1
   04/15/2017 01:10      48.3      47.7       62     35.6      0.00     18.24      68.0     0.38      1015.0     2       187         3       216        3.61     266      -65.8
   04/15/2017 01:00      48.2      47.6       64     36.2      0.00     18.24      67.7     0.38      1015.0     1       147         2       151        3.61     266      -66.5
   04/15/2017 00:50      48.8      47.9       60     35.4      0.00     18.24      68.0     0.38      1015.0     1       165         2       126        3.61     266      -66.4
   04/15/2017 00:40      48.4      48.0       62     35.8      0.00     18.24      68.0     0.38      1015.0     1       165         2       217        3.61     266      -66.8
   04/15/2017 00:30      48.5      48.3       62     36.0      0.00     18.24      68.0     0.38      1015.0     1       125         3       151        3.61     266      -68.1
   04/15/2017 00:20      49.3      48.6       59     35.2      0.00     18.24      68.3     0.38      1015.0     2       185         3       244        3.61     266      -68.5
   04/15/2017 00:10      49.4      48.8       61     36.2      0.00     18.24      68.3     0.38      1015.0     2       137         3       223        3.61     266      -69.0
   04/15/2017 00:00      50.4      49.8       59     36.2      0.00     18.24      68.3     0.38      1015.0     1        92         2       109        3.61     266      -70.2
   04/14/2017 23:50      50.8      49.7       58     35.8      0.00     18.24      68.2     0.38      1015.0     1       168         1       208        3.61     266      -69.3
   04/14/2017 23:40      50.8      50.1       57     35.6      0.00     18.24      68.2     0.38      1015.0     2       211         4       223        3.61     266      -69.3
   04/14/2017 23:30      50.9      50.3       58     36.4      0.00     18.24      68.0     0.38      1015.0     2       157         2       167        3.61     266      -70.0
   04/14/2017 23:20      51.3      50.8       57     36.2      0.00     18.24      68.2     0.38      1015.0     2       180         2       216        3.61     266      -69.8
   04/14/2017 23:10      51.8      50.3       57     36.4      0.00     18.24      68.0     0.38      1015.0     2       128         3       111        3.61     266      -70.3
   04/14/2017 23:00      52.3      51.4       55     36.2      0.00     18.24      68.2     0.38      1015.0     1       219         2        96        3.61     266      -70.1
   04/14/2017 22:50      53.6      51.8       55     36.6      0.00     18.24      68.5     0.38      1015.0     1       144         2       104        3.61     266      -71.4
   04/14/2017 22:40      54.0      52.5       51     35.6      0.00     18.24      68.2     0.38      1015.0     2       188         3       196        3.61     266      -70.1
   04/14/2017 22:30      53.0      52.5       54     36.7      0.00     18.24      68.3     0.38      1015.0     1       127         2       161        3.61     266      -71.1
   04/14/2017 22:20      53.7      53.1       51     36.0      0.00     18.24      68.3     0.38      1015.0     1       162         2       140        3.61     265      -72.0
   04/14/2017 22:10      55.0      54.1       48     35.5      0.00     18.24      68.3     0.38      1015.0     2       197         2       195        3.61     265      -70.6
   04/14/2017 22:00      54.6      53.6       52     36.5      0.00     18.24      68.3     0.38      1015.0     1       220         2       239        3.61     265      -70.7
   04/14/2017 21:50      54.7      53.7       52     37.1      0.00     18.24      68.2     0.38      1015.0     1       120         1       113        3.61     265      -71.8
   04/14/2017 21:40      55.2      55.1       49     36.4      0.00     18.24      68.3     0.38      1015.0     1       209         1       247        3.61     265      -72.0
   04/14/2017 21:30      55.5      54.8       50     36.8      0.00     18.24      68.1     0.38      1014.0     1       159         2       129        3.61     265      -72.4
   04/14/2017 21:20      55.7      55.4       49     36.9      0.00     18.24      68.1     0.38      1014.0     1       135         1       144        3.61     265      -72.4
   04/14/2017 21:10      57.7      56.1       47     36.5      0.00     18.24      68.1     0.38      1014.0     2       129         2       140        3.61     265      -73.3
   04/14/2017 21:00      58.6      57.9       42     35.3      0.00     18.24      68.3     0.38      1014.0     1       203         2       197        3.61     265      -73.5
   04/14/2017 20:50      59.5      58.9       40     35.0      0.00     18.24      68.1     0.38      1014.0     1       211         3       214        3.61     264      -75.4
   04/14/2017 20:40      60.0      59.5       40     35.1      0.00     18.24      68.0     0.38      1014.0     2       221         2       225        3.61     264      -77.8
   04/14/2017 20:30      60.4      60.0       39     35.4      0.00     18.24      68.1     0.38      1014.0     2       203         2       200        3.61     264      -79.6
   04/14/2017 20:20      60.9      60.4       39     35.5      0.00     18.24      68.0     0.38      1014.0     2       206         3       204        3.61     264      -80.9
   04/14/2017 20:10      61.0      60.7       39     35.9      0.00     18.24      68.3     0.38      1014.0     2       217         3       222        3.61     264      -82.4
   04/14/2017 20:00      61.5      61.3       38     35.6      0.00     18.24      68.1     0.38      1014.0     2       223         3       218        3.61     264      -85.1
   04/14/2017 19:50      62.2      61.5       37     35.4      0.00     18.24      68.0     0.38      1014.0     3       226         5       232        3.61     264      -87.1
   04/14/2017 19:40      62.7      62.4       36     35.4      0.00     18.24      68.0     0.38      1013.0     4       228         5       231        3.61     264      -88.0
   04/14/2017 19:30      63.7      62.9       35     35.2      0.00     18.24      67.8     0.38      1013.0     4       234         5       230        3.61     264      -87.9
   04/14/2017 19:20      65.0      63.7       35     35.6      0.00     18.24      68.0     0.38      1013.0     4       240         6       231        3.61     263      -85.1
   04/14/2017 19:10      65.4      65.0       33     35.4      0.00     18.24      67.9     0.38      1013.0     4       262         7       221        3.61     263      -78.2
   04/14/2017 19:00      66.7      65.7       33     36.0      0.00     18.24      67.7     0.38      1013.0     5       276         8       270        3.61     264      -65.7
   04/14/2017 18:50      66.7      66.4       33     36.3      0.00     18.24      67.8     0.38      1013.0     5       286         7       292        3.61     264      -48.9
   04/14/2017 18:40      66.5      66.0       35     37.5      0.00     18.24      67.8     0.38      1013.0     4       247         7       247        3.61     263      -27.3
   04/14/2017 18:30      66.6      66.0       35     38.1      0.00     18.24      67.8     0.38      1013.0     4       234         5       223        3.61     263       -3.6
   04/14/2017 18:20      66.5      66.2       35     38.2      0.00     18.24      67.7     0.38      1013.0     5       220        11       200        3.61     263       21.8
   04/14/2017 18:10      66.8      66.1       37     39.0      0.00     18.24      67.7     0.38      1013.0     6       203        10       196        3.61     263       48.3
   04/14/2017 18:00      67.6      67.0       36     39.1      0.00     18.24      67.5     0.38      1013.0     6       217         8       198        3.61     263       72.4
   04/14/2017 17:50      69.3      67.8       33     38.4      0.00     18.24      67.5     0.38      1013.0     6       238        10       234        3.61     263       97.6
   04/14/2017 17:40      71.1      70.0       29     36.8      0.00     18.24      67.5     0.38      1013.0     4       260         8       343        3.61     263      122.0
   04/14/2017 17:30      70.5      70.1       28     36.0      0.00     18.24      67.4     0.38      1013.0     5       275         6       292        3.61     263      151.6
   04/14/2017 17:20      71.7      70.3       27     35.3      0.00     18.24      67.3     0.38      1013.0     5       282         9       274        3.61     264      174.0
   04/14/2017 17:10      71.7      70.3       27     35.5      0.00     18.24      67.4     0.38      1013.0     4       322         6       287        3.61     263      196.5
   04/14/2017 17:00      70.5      69.2       30     37.1      0.00     18.24      67.3     0.38      1013.0     6       207        10       167        3.61     264      224.9
   04/14/2017 16:50      70.0      69.7       31     37.5      0.00     18.24      67.2     0.38      1013.0     5       195         7       153        3.61     263      251.5
   04/14/2017 16:40      70.4      69.7       30     37.2      0.00     18.24      67.1     0.38      1013.0     3       226         6       203        3.61     264      274.1
   04/14/2017 16:30      69.8      69.5       31     37.6      0.00     18.24      67.2     0.38      1013.0     6       224         8       231        3.61     264      302.1
   04/14/2017 16:20      69.7      69.0       32     38.1      0.00     18.24      67.1     0.38      1013.0     6       222         8       259        3.61     264      324.0
   04/14/2017 16:10      69.8      69.3       33     38.9      0.00     18.24      67.0     0.38      1013.0     5       212         9       249        3.61     264      344.6
   04/14/2017 16:00      69.9      69.4       33     39.5      0.00     18.24      66.8     0.38      1013.0     6       156         8       158        3.61     264      367.0
   04/14/2017 15:50      69.6      68.6       34     39.5      0.00     18.24      66.9     0.38      1013.0     5       155         8       141        3.61     264      391.6
   04/14/2017 15:40      68.6      68.1       35     39.8      0.00     18.24      66.8     0.38      1013.0     6       161        10       127        3.61     264      411.5
   04/14/2017 15:30      69.1      68.3       35     39.6      0.00     18.24      66.5     0.38      1013.0     7       151        11       151        3.61     264      428.3
   04/14/2017 15:20      68.9      67.8       34     39.2      0.00     18.24      66.5     0.38      1013.0     7       149         9       133        3.61     264      449.4
   04/14/2017 15:10      68.0      67.2       35     38.9      0.00     18.24      66.3     0.38      1013.0     8       145        12       158        3.61     264      467.2
   04/14/2017 15:00      68.1      67.3       35     39.0      0.00     18.24      66.4     0.38      1013.0     8       136         9       127        3.61     264      483.8
   04/14/2017 14:50      68.2      67.4       35     39.3      0.00     18.24      66.3     0.38      1013.0     8       135        11       129        3.61     264      499.1
   04/14/2017 14:40      68.2      67.7       36     40.2      0.00     18.24      66.4     0.38      1013.0     9       156        12       156        3.61     264      511.2
   04/14/2017 14:30      68.9      67.9       36     40.3      0.00     18.24      66.3     0.37      1013.0     9       150        11       167        3.61     264      523.1
   04/14/2017 14:20      69.9      68.9       36     41.1      0.00     18.24      66.4     0.37      1013.0     9       152        14       169        3.61     264      527.8
   04/14/2017 14:10      73.7      69.5       31     39.0      0.00     18.24      66.2     0.37      1013.0     7       137        11       161        3.61     264      529.7
   04/14/2017 14:00      73.2      72.8       22     32.0      0.00     18.24      65.9     0.37      1014.0     4       294         6       312        3.61     264      532.6
   04/14/2017 13:50      73.2      71.9       23     32.2      0.00     18.24      66.1     0.37      1014.0     5       334         7       308        3.61     264      541.9
   04/14/2017 13:40      73.8      72.2       23     33.2      0.00     18.24      66.1     0.37      1014.0     2       308         6        17        3.61     264      547.2
   04/14/2017 13:30      72.9      70.8       24     32.8      0.00     18.24      65.8     0.37      1014.0     3        13         6       359        3.61     264      554.9
   04/14/2017 13:20      71.5      70.7       24     32.6      0.00     18.24      66.0     0.37      1014.0     2       321         4       323        3.61     264      560.1
   04/14/2017 13:10      70.9      69.6       26     33.4      0.00     18.24      66.0     0.37      1014.0     3       281         7       272        3.61     264      566.3
   04/14/2017 13:00      70.0      69.3       26     33.3      0.00     18.24      65.9     0.37      1014.0     4       256         8       327        3.61     264      567.5
   04/14/2017 12:50      69.8      69.1       27     34.1      0.00     18.24      65.6     0.37      1014.0     4       292         8       342        3.61     264      568.6
   04/14/2017 12:40      70.5      69.3       26     33.8      0.00     18.24      65.7     0.37      1014.0     4       329         9       337        3.61     264      567.5
   04/14/2017 12:30      70.2      69.1       27     34.3      0.00     18.24      65.9     0.37      1015.0     3       279         5       246        3.61     264      567.2
   04/14/2017 12:20      69.9      68.0       28     34.3      0.00     18.24      65.9     0.37      1015.0     2       355         3       351        3.61     264      564.0
   04/14/2017 12:10      67.8      66.8       29     33.9      0.00     18.24      66.0     0.37      1015.0     3       270         8       340        3.61     264      561.6
   04/14/2017 12:00      68.2      67.0       28     33.5      0.00     18.24      65.9     0.37      1015.0     3       315         5       305        3.61     264      556.4
   04/14/2017 11:50      68.4      66.6       28     33.4      0.00     18.24      65.8     0.37      1015.0     4       334         7       322        3.61     264      550.8
   04/14/2017 11:40      67.2      66.4       30     34.3      0.00     18.24      65.8     0.37      1015.0     4       202         7       226        3.61     264      544.2
   04/14/2017 11:30      66.6      65.9       28     32.6      0.00     18.24      65.8     0.37      1015.0     4       327         6       304        3.61     264      535.9
   04/14/2017 11:20      67.7      66.8       28     33.1      0.00     18.24      66.0     0.37      1015.0     4       290         9       286        3.61     264      525.9
   04/14/2017 11:10      66.6      65.5       28     32.2      0.00     18.24      66.0     0.37      1015.0     4       324         6       312        3.61     265      517.0
   04/14/2017 11:00      65.3      63.8       29     31.9      0.00     18.24      65.9     0.37      1015.0     3       306         7       277        3.61     265      504.6
   04/14/2017 10:50      63.9      63.2       30     31.9      0.00     18.24      65.8     0.37      1015.0     3       298         7       343        3.61     264      491.6
   04/14/2017 10:40      63.7      63.2       30     31.2      0.00     18.24      66.0     0.37      1015.0     5       330         7       354        3.61     265      476.7
   04/14/2017 10:30      63.4      62.3       32     32.6      0.00     18.24      66.1     0.37      1016.0     5       324         8       296        3.61     265      460.6
   04/14/2017 10:20      62.3      62.0       33     32.7      0.00     18.24      66.1     0.38      1016.0     4       302         8       319        3.61     266      443.9
   04/14/2017 10:10      62.8      62.0       34     33.4      0.00     18.24      66.3     0.38      1015.0     3         1         7       323        3.61     266      426.4
   04/14/2017 10:00      62.0      61.3       34     32.6      0.00     18.24      66.0     0.38      1015.0     5         8         7         2        3.61     266      409.5
   04/14/2017 09:50      61.8      60.8       34     33.1      0.00     18.24      66.2     0.38      1016.0     5         5         7       347        3.61     266      391.0
   04/14/2017 09:40      61.8      60.1       36     33.9      0.00     18.24      66.4     0.38      1016.0     3        22         4       260        3.61     266      371.2
   04/14/2017 09:30      60.2      59.6       36     33.2      0.00     18.24      66.3     0.38      1016.0     3       347         5       317        3.61     266      351.0
   04/14/2017 09:20      59.6      58.5       38     33.5      0.00     18.24      66.3     0.38      1016.0     4       332         6       324        3.61     266      332.0
   04/14/2017 09:10      58.7      57.7       40     33.7      0.00     18.24      66.1     0.38      1016.0     4       353         6         7        3.62     266      310.9
   04/14/2017 09:00      58.4      57.4       40     33.8      0.00     18.24      66.1     0.38      1016.0     4       355         8       332        3.62     266      288.5
   04/14/2017 08:50      57.5      56.5       42     33.9      0.00     18.24      66.4     0.38      1016.0     5       334         9       324        3.62     266      266.6
   04/14/2017 08:40      56.9      55.7       43     34.3      0.00     18.24      66.4     0.38      1016.0     5       358         8       357        3.62     266      242.7
   04/14/2017 08:30      55.7      55.3       44     34.1      0.00     18.24      66.3     0.38      1016.0     8       329        12       319        3.62     266      218.1
   04/14/2017 08:20      55.3      54.8       45     34.4      0.00     18.24      66.5     0.38      1016.0     6       308        11       326        3.62     266      191.8
   04/14/2017 08:10      55.6      55.1       45     34.6      0.00     18.24      66.3     0.38      1016.0     6       330        11       318        3.62     267      165.6
   04/14/2017 08:00      55.2      54.1       46     34.7      0.00     18.24      66.4     0.38      1016.0     3       353         6       332        3.62     267      140.5
   04/14/2017 07:50      54.2      53.6       50     35.5      0.00     18.24      66.5     0.38      1016.0     2       340         4       347        3.62     267      107.5
   04/14/2017 07:40      53.6      53.1       50     35.3      0.00     18.24      66.5     0.38      1016.0     2         8         4        23        3.62     267       54.0
   04/14/2017 07:30      53.3      52.6       52     35.8      0.00     18.24      66.3     0.38      1016.0     4         5         6       344        3.62     267       17.2
   04/14/2017 07:20      52.8      52.4       54     36.2      0.00     18.24      66.8     0.38      1016.0     1       252         4       348        3.62     267      -41.2
   04/14/2017 07:10      52.4      51.8       53     35.7      0.00     18.24      66.8     0.38      1016.0     4       323         7       295        3.62     267      -49.8
   04/14/2017 07:00      51.7      50.7       56     36.1      0.00     18.24      67.1     0.38      1015.0     3       316         8       308        3.62     267      -50.7
   04/14/2017 06:50      51.4      50.0       57     36.3      0.00     18.24      66.6     0.38      1015.0     2        82         3       303        3.62     267      -55.9
   04/14/2017 06:40      50.8      50.0       59     36.5      0.00     18.24      67.0     0.38      1015.0     2       186         4       193        3.62     268      -60.6
   04/14/2017 06:30      51.4      50.7       57     36.2      0.00     18.24      66.8     0.38      1015.0     2       168         4       208        3.62     267      -66.0
   04/14/2017 06:20      51.7      50.9       56     36.2      0.00     18.24      67.0     0.38      1015.0     3       355         5        72        3.62     268      -68.8
   04/14/2017 06:10      51.9      50.9       55     36.0      0.00     18.24      67.1     0.38      1015.0     2       225         4       182        3.62     267      -69.1
   04/14/2017 06:00      51.8      50.8       56     36.1      0.00     18.24      67.3     0.38      1015.0     3       336         5        24        3.62     267      -69.9
   04/14/2017 05:50      51.9      50.7       56     36.2      0.00     18.24      66.9     0.38      1015.0     1       201         3       160        3.62     267      -68.8
   04/14/2017 05:40      52.5      51.8       55     36.4      0.00     18.24      67.2     0.38      1015.0     2       219         3       196        3.62     267      -70.0
   04/14/2017 05:30      52.5      51.8       54     36.2      0.00     18.24      66.9     0.38      1015.0     4       342         9       307        3.62     267      -69.1
   04/14/2017 05:20      52.2      50.7       56     36.2      0.00     18.24      67.2     0.38      1015.0     3       313         5         3        3.62     268      -68.0
   04/14/2017 05:10      51.9      51.2       55     36.0      0.00     18.24      67.0     0.38      1015.0     2       288         6       300        3.62     267      -67.6
   04/14/2017 05:00      51.6      50.9       56     35.9      0.00     18.24      67.2     0.38      1015.0     2        39         7       320        3.62     267      -66.7
   04/14/2017 04:50      52.6      51.5       54     35.8      0.00     18.24      67.4     0.38      1015.0     1       305         2       339        3.62     267      -66.3
   04/14/2017 04:40      52.7      52.1       52     35.5      0.00     18.24      67.2     0.38      1015.0     2       293         6       317        3.62     268      -66.7
   04/14/2017 04:30      52.1      51.7       54     35.5      0.00     18.24      67.2     0.38      1015.0     2       296         4       320        3.62     268      -68.0
   04/14/2017 04:20      51.8      50.4       56     36.0      0.00     18.24      67.2     0.38      1015.0     3       334         5       345        3.62     268      -70.6
   04/14/2017 04:10      50.2      48.3       63     37.0      0.00     18.24      67.1     0.38      1015.0     2       296         8       306        3.62     268      -69.6
   04/14/2017 04:00      49.6      48.4       66     38.0      0.00     18.24      67.4     0.38      1015.0     2       166         2       152        3.62     268      -65.7
   04/14/2017 03:50      49.4      46.2       70     38.9      0.00     18.24      67.3     0.38      1015.0     2       333         3       260        3.62     268      -56.0
   04/14/2017 03:40      46.5      46.0       80     40.4      0.00     18.24      67.6     0.38      1015.0     2       138         3       142        3.62     268      -45.0
   04/14/2017 03:30      47.3      46.6       80     41.0      0.00     18.24      67.4     0.38      1015.0     2       144         3       162        3.62     268      -42.0
   04/14/2017 03:20      47.6      46.8       80     41.3      0.00     18.24      67.7     0.38      1015.0     1       148         2       190        3.62     268      -40.8
   04/14/2017 03:10      46.7      46.3       86     42.3      0.00     18.24      67.9     0.38      1015.0     2       166         4       139        3.62     268      -38.0
   04/14/2017 03:00      46.5      45.5       87     42.3      0.00     18.24      67.8     0.38      1015.0     2       161         3       133        3.62     268      -39.2
   04/14/2017 02:50      46.6      45.9       86     42.2      0.00     18.24      67.5     0.38      1015.0     3       150         4       132        3.62     268      -40.4
   04/14/2017 02:40      46.2      45.6       88     42.4      0.00     18.24      67.9     0.38      1015.0     2       158         4       162        3.62     268      -41.2
   04/14/2017 02:30      46.2      45.5       88     42.5      0.00     18.24      67.7     0.38      1015.0     3       149         4       147        3.62     267      -43.5
   04/14/2017 02:20      45.9      45.5       88     42.3      0.00     18.24      67.9     0.38      1015.0     2       163         4       163        3.62     267      -44.8
   04/14/2017 02:10      46.3      45.4       87     42.3      0.00     18.24      67.7     0.38      1015.0     2       180         3       171        3.62     267      -46.3
   04/14/2017 02:00      46.6      46.3       86     42.6      0.00     18.24      67.7     0.38      1015.0     1       172         2       192        3.62     267      -47.7
   04/14/2017 01:50      47.1      46.5       85     42.7      0.00     18.24      67.9     0.38      1015.0     1       152         2       132        3.62     267      -51.0
   04/14/2017 01:40      47.1      46.8       85     42.7      0.00     18.24      67.8     0.38      1015.0     1       188         2       144        3.62     267      -53.4
   04/14/2017 01:30      47.7      47.1       84     42.9      0.00     18.24      68.2     0.38      1015.0     1       149         2       129        3.62     267      -55.0
   04/14/2017 01:20      47.9      47.4       84     43.0      0.00     18.24      67.9     0.38      1015.0     1       211         1       195        3.62     267      -56.8
   04/14/2017 01:10      47.9      47.5       84     43.0      0.00     18.24      68.1     0.38      1016.0     1       121         1       212        3.62     267      -58.4
   04/14/2017 01:00      47.9      47.7       83     42.8      0.00     18.24      67.9     0.38      1016.0     1       116         2       127        3.62     267      -60.6
   04/14/2017 00:50      48.0      47.8       83     42.9      0.00     18.24      68.2     0.38      1016.0     0       329         1        45        3.62     267      -61.6
   04/14/2017 00:40      48.5      48.2       82     42.9      0.00     18.24      68.0     0.38      1016.0     1        64         1        52        3.62     267      -62.5
   04/14/2017 00:30      49.3      48.3       80     42.8      0.00     18.24      68.3     0.38      1016.0     1        85         1       100        3.62     267      -64.1
   04/14/2017 00:20      50.3      49.3       77     42.8      0.00     18.24      68.2     0.39      1016.0     1       137         1       143        3.62     267      -64.4
   04/14/2017 00:10      50.6      49.2       78     43.3      0.00     18.24      67.9     0.38      1016.0     1       203         2       220        3.62     267      -64.5
   04/14/2017 00:00      49.5      49.1       78     42.8      0.00     18.24      68.0     0.38      1016.0     1        70         1       240        3.62     267      -65.7
   04/13/2017 23:50      50.0      49.4       76     42.5      0.00     18.24      68.3     0.38      1016.0     1        69         1        61        3.62     267      -67.1
   04/13/2017 23:40      50.7      50.3       75     42.9      0.00     18.24      68.1     0.38      1016.0     1       145         1       155        3.62     267      -67.8
   04/13/2017 23:30      51.1      50.8       74     42.9      0.00     18.24      68.3     0.38      1016.0     1       166         1       182        3.62     267      -67.8
   04/13/2017 23:20      51.7      51.2       73     42.9      0.00     18.24      68.3     0.38      1016.0     1       163         3       202        3.62     267      -67.8
   04/13/2017 23:10      52.3      51.7       71     42.8      0.00     18.24      68.2     0.38      1016.0     1       164         1       206        3.62     267      -68.7
   04/13/2017 23:00      52.6      52.2       70     42.9      0.00     18.24      68.2     0.38      1016.0     2       203         3       244        3.62     267      -68.6
   04/13/2017 22:50      52.9      52.6       69     42.9      0.00     18.24      68.2     0.38      1016.0     2       218         5       198        3.62     267      -68.8
   04/13/2017 22:40      52.8      52.6       69     42.8      0.00     18.24      68.3     0.39      1016.0     3       198         5       201        3.62     267      -68.4
   04/13/2017 22:30      53.0      52.6       68     42.5      0.00     18.24      68.3     0.38      1016.0     3       203         4       221        3.62     267      -67.8
   04/13/2017 22:20      53.2      53.0       67     42.5      0.00     18.24      68.6     0.39      1016.0     2       209         3       238        3.62     266      -68.1
   04/13/2017 22:10      53.5      53.0       67     42.4      0.00     18.24      68.5     0.39      1016.0     2       210         3       188        3.62     266      -68.5
   04/13/2017 22:00      53.8      53.5       66     42.5      0.00     18.24      68.3     0.39      1016.0     2       219         3       207        3.62     266      -70.0
   04/13/2017 21:50      53.7      53.5       66     42.5      0.00     18.24      68.4     0.39      1016.0     3       219         5       203        3.62     266      -70.8
   04/13/2017 21:40      54.1      53.7       65     42.4      0.00     18.24      68.6     0.38      1016.0     3       213         4       227        3.62     266      -70.9
   04/13/2017 21:30      54.3      54.1       64     42.4      0.00     18.24      68.5     0.39      1016.0     3       224         4       218        3.62     266      -71.0
   04/13/2017 21:20      54.6      54.1       64     42.3      0.00     18.24      68.4     0.39      1016.0     3       221         4       248        3.62     266      -71.6
   04/13/2017 21:10      54.8      54.4       63     42.1      0.00     18.24      68.5     0.39      1016.0     3       214         4       212        3.62     266      -72.6
   04/13/2017 21:00      55.1      54.8       61     41.8      0.00     18.24      68.2     0.38      1016.0     4       223         6       224        3.62     266      -73.2
   04/13/2017 20:50      55.4      55.0       60     41.6      0.00     18.24      68.4     0.39      1016.0     4       221         8       228        3.62     265      -74.0
   04/13/2017 20:40      55.7      55.4       59     41.4      0.00     18.24      68.4     0.38      1016.0     4       225         8       196        3.62     266      -74.3
   04/13/2017 20:30      56.0      55.5       59     41.4      0.00     18.24      68.4     0.38      1016.0     3       203         6       186        3.62     265      -75.0
   04/13/2017 20:20      56.4      56.0       58     41.5      0.00     18.24      68.3     0.39      1016.0     4       230         7       230        3.62     265      -76.0
   04/13/2017 20:10      56.9      56.5       57     41.7      0.00     18.24      68.1     0.39      1016.0     4       232         7       230        3.62     265      -76.4
   04/13/2017 20:00      57.4      57.0       56     41.8      0.00     18.24      68.5     0.39      1015.0     4       242         7       264        3.62     265      -76.9
   04/13/2017 19:50      57.6      57.2       56     42.0      0.00     18.24      68.2     0.38      1015.0     6       246         9       206        3.62     265      -77.4
   04/13/2017 19:40      58.4      57.7       56     42.5      0.00     18.24      68.7     0.38      1015.0     5       237         6       211        3.62     265      -77.4
   04/13/2017 19:30      58.5      58.3       55     42.4      0.00     18.24      68.4     0.38      1015.0     7       249        11       244        3.62     265      -75.4
   04/13/2017 19:20      58.9      58.5       56     43.1      0.00     18.24      68.4     0.38      1015.0     6       234         9       252        3.62     265      -70.8
   04/13/2017 19:10      59.9      59.0       56     43.6      0.00     18.24      68.3     0.38      1015.0     5       222         8       252        3.62     265      -62.9
   04/13/2017 19:00      60.2      59.9       54     43.5      0.00     18.24      68.1     0.38      1015.0     5       239         9       238        3.62     265      -51.1
   04/13/2017 18:50      60.5      59.9       53     43.1      0.00     18.24      68.1     0.38      1015.0     8       242        11       243        3.62     265      -36.3
   04/13/2017 18:40      61.1      60.6       52     43.0      0.00     18.24      68.2     0.38      1015.0     6       237        11       247        3.62     265      -18.1
   04/13/2017 18:30      61.1      60.9       51     42.9      0.00     18.24      68.3     0.38      1015.0     6       215         8       223        3.62     265        2.8
   04/13/2017 18:20      62.2      61.2       50     42.9      0.00     18.24      67.9     0.38      1015.0     8       235        11       212        3.62     265       27.4
   04/13/2017 18:10      62.9      62.1       49     43.2      0.00     18.24      68.0     0.38      1015.0     8       253        12       265        3.62     265       52.5
   04/13/2017 18:00      63.1      62.5       52     44.8      0.00     18.24      67.9     0.38      1015.0     8       255        12       266        3.62     265       77.8
   04/13/2017 17:50      63.7      63.2       51     44.8      0.00     18.24      68.0     0.38      1015.0     8       250        12       220        3.62     265      104.0
   04/13/2017 17:40      64.3      63.7       50     45.0      0.00     18.24      68.0     0.38      1015.0     6       258         9       254        3.62     265      131.6
   04/13/2017 17:30      64.9      64.2       49     44.9      0.00     18.24      68.1     0.38      1015.0     7       248         9       240        3.62     265      159.8
   04/13/2017 17:20      65.2      64.8       48     44.8      0.00     18.24      67.9     0.38      1015.0     7       250        12       261        3.62     265      188.0
   04/13/2017 17:10      65.9      65.3       46     44.1      0.00     18.24      67.8     0.38      1015.0     8       248        12       241        3.62     265      214.2
   04/13/2017 17:00      65.7      65.2       45     43.8      0.00     18.24      68.1     0.38      1015.0     7       257        10       252        3.62     265      241.1
   04/13/2017 16:50      65.8      65.0       45     43.5      0.00     18.24      67.9     0.38      1015.0     7       251        10       229        3.62     265      268.5
   04/13/2017 16:40      66.5      65.1       48     45.6      0.00     18.24      67.7     0.38      1015.0     7       229         9       226        3.62     265      304.1
   04/13/2017 16:30      66.2      65.0       52     47.3      0.00     18.24      67.7     0.38      1015.0     6       217        11       190        3.62     266      334.2
   04/13/2017 16:20      65.5      64.8       55     48.7      0.00     18.24      67.5     0.38      1015.0     7       224        12       236        3.62     266      261.9
   04/13/2017 16:10      65.1      64.7       56     48.8      0.00     18.24      67.6     0.38      1015.0     7       215        10       193        3.62     266      377.6
   04/13/2017 16:00      65.1      64.2       56     48.8      0.00     18.24      67.7     0.38      1015.0     7       225        16       244        3.62     265      402.6
   04/13/2017 15:50      65.3      64.4       56     49.0      0.00     18.24      67.4     0.38      1015.0     8       231        13       224        3.62     266      439.8
   04/13/2017 15:40      65.5      64.4       57     49.3      0.00     18.24      67.4     0.38      1015.0     8       248        10       227        3.62     266      302.0
   04/13/2017 15:30      65.8      64.4       57     49.4      0.00     18.24      67.6     0.38      1015.0     7       249        12       250        3.62     266      533.0
   04/13/2017 15:20      64.6      63.7       58     49.2      0.00     18.24      67.2     0.38      1016.0     8       245        13       241        3.62     266      302.2
   04/13/2017 15:10      64.7      63.8       59     49.7      0.00     18.24      67.3     0.38      1016.0     7       208        13       184        3.62     266      416.4
   04/13/2017 15:00      65.0      64.0       60     50.1      0.00     18.24      67.4     0.38      1016.0     7       222         9       214        3.62     266      213.9
   04/13/2017 14:50      65.6      64.6       58     50.1      0.00     18.24      67.6     0.38      1016.0     6       225        12       250        3.62     267      457.5
   04/13/2017 14:40      64.6      64.2       59     49.8      0.00     18.24      67.2     0.38      1016.0     4       206         8       233        3.62     266      115.4
   04/13/2017 14:30      65.1      64.7       57     49.2      0.00     18.24      67.2     0.38      1016.0     4       214         7       244        3.62     266      121.7
   04/13/2017 14:20      65.9      65.0       55     49.1      0.00     18.24      67.0     0.38      1016.0     4       206        10       201        3.62     266      133.2
   04/13/2017 14:10      66.0      65.5       55     49.0      0.00     18.24      67.1     0.38      1016.0     6       221         9       215        3.62     266      282.3
   04/13/2017 14:00      65.8      64.9       54     48.4      0.00     18.24      67.3     0.38      1016.0     5       214         7       251        3.62     266      347.8
   04/13/2017 13:50      65.3      64.5       56     49.0      0.00     18.24      67.1     0.38      1016.0     4       217         7       218        3.62     266      181.2
   04/13/2017 13:40      65.5      65.0       55     48.7      0.00     18.24      66.9     0.38      1016.0     5       202         6       182        3.62     266      268.2
   04/13/2017 13:30      66.4      65.8       53     48.7      0.00     18.24      66.9     0.38      1016.0     5       204         8       156        3.62     265      400.0
   04/13/2017 13:20      65.8      64.7       55     48.6      0.00     18.24      66.7     0.38      1016.0     5       178         8       197        3.62     266      390.5
   04/13/2017 13:10      65.9      65.0       55     49.0      0.00     18.24      67.0     0.38      1016.0     5       179         8       147        3.62     266      210.2
   04/13/2017 13:00      67.0      65.8       53     48.9      0.00     18.24      67.0     0.38      1016.0     5       182         9       189        3.62     266      290.0
   04/13/2017 12:50      66.6      65.7       54     48.8      0.00     18.24      67.0     0.38      1016.0     5       159         7       197        3.62     266      282.1
   04/13/2017 12:40      67.4      66.6       50     47.6      0.00     18.24      66.9     0.38      1016.0     6       222         8       234        3.62     266      424.6
   04/13/2017 12:30      67.3      66.0       51     47.9      0.00     18.24      66.6     0.38      1016.0     5       226         9       218        3.62     266      672.3
   04/13/2017 12:20      67.0      66.3       51     48.1      0.00     18.24      66.8     0.38      1016.0     6       207        10       203        3.62     266      621.6
   04/13/2017 12:10      67.2      65.5       51     47.8      0.00     18.24      66.7     0.38      1016.0     5       253         7       250        3.62     266      650.7
   04/13/2017 12:00      65.4      64.7       53     47.7      0.00     18.24      66.7     0.38      1017.0     5       245         8       233        3.62     266      333.1
   04/13/2017 11:50      66.5      65.4       53     48.5      0.00     18.24      66.6     0.38      1017.0     6       205        11       206        3.62     267      589.7
   04/13/2017 11:40      65.4      64.2       55     48.0      0.00     18.24      66.5     0.38      1017.0     5       230        11       244        3.62     267      615.8
   04/13/2017 11:30      65.0      62.9       57     48.4      0.00     18.24      67.0     0.38      1017.0     4       213         6       194        3.62     267      611.9
   04/13/2017 11:20      64.3      62.9       56     47.6      0.00     18.24      66.8     0.38      1017.0     5       252         8       272        3.62     267      226.5
   04/13/2017 11:10      64.5      63.4       55     47.5      0.00     18.24      66.8     0.38      1017.0     3       281         6       250        3.62     267      433.3
   04/13/2017 11:00      63.4      62.7       58     48.2      0.00     18.24      66.8     0.38      1017.0     4       175         5       170        3.62     267      506.8
   04/13/2017 10:50      63.0      61.3       59     47.6      0.00     18.24      66.8     0.38      1017.0     4       203         9       247        3.62     267      523.0
   04/13/2017 10:40      61.5      61.1       59     47.0      0.00     18.24      67.0     0.38      1017.0     5       206         7       244        3.62     267      224.9
   04/13/2017 10:30      62.2      61.5       58     46.6      0.00     18.24      67.2     0.38      1017.0     4       232         6       253        3.62     267      247.7
   04/13/2017 10:20      62.0      61.2       59     47.1      0.00     18.24      67.0     0.38      1017.0     4       203         8       208        3.62     267      281.2
   04/13/2017 10:10      62.1      61.5       59     47.3      0.00     18.24      67.2     0.38      1017.0     4       181         7       196        3.62     268      386.2
   04/13/2017 10:00      62.4      60.6       59     47.1      0.00     18.24      66.7     0.38      1017.0     3       152         5       158        3.62     267      454.7
   04/13/2017 09:50      61.1      59.5       62     47.0      0.00     18.24      67.1     0.38      1017.0     3       216         6       205        3.62     268      407.7
   04/13/2017 09:40      60.3      59.6       64     47.7      0.00     18.24      67.2     0.38      1017.0     2       204         4       214        3.62     268      227.3
   04/13/2017 09:30      59.7      59.0       66     47.9      0.00     18.24      67.1     0.38      1017.0     3       247         6       231        3.62     268      214.4
   04/13/2017 09:20      59.1      58.3       68     47.9      0.00     18.24      67.0     0.38      1017.0     2       236         3       235        3.62     268      217.9
   04/13/2017 09:10      58.2      57.5       69     47.9      0.00     18.24      67.4     0.38      1017.0     3       283         5       246        3.62     268      165.0
   04/13/2017 09:00      57.7      57.2       70     47.8      0.00     18.24      67.3     0.38      1017.0     3       278         4       263        3.62     268      151.5
   04/13/2017 08:50      57.6      57.1       70     47.7      0.00     18.24      67.5     0.38      1017.0     2       282         3       282        3.62     269      125.5
   04/13/2017 08:40      57.5      56.9       70     47.8      0.00     18.24      66.9     0.38      1017.0     1       229         4       250        3.62     269      114.9
   04/13/2017 08:30      57.1      56.6       71     47.6      0.00     18.24      67.2     0.38      1017.0     1       278         3       246        6.70     269      129.0
   04/13/2017 08:20      56.8      56.5       72     47.6      0.00     18.24      67.5     0.38      1017.0     1       334         2       344        9.06     269      102.8
   04/13/2017 08:10      56.6      55.5       74     47.8      0.00     18.24      67.5     0.38      1017.0     1       276         3       290        9.06     270      126.6
   04/13/2017 08:00      55.6      54.2       77     47.9      0.00     18.24      67.5     0.38      1017.0     1       321         2       298        9.06     270      152.0
   04/13/2017 07:50      54.1      52.6       82     48.0      0.00     18.24      67.0     0.38      1017.0     1       228         1       244        9.06     271      150.2
   04/13/2017 07:40      52.7      51.5       87     48.1      0.00     18.24      67.2     0.38      1017.0     1       254         1       254        9.06     271      144.6
   04/13/2017 07:30      51.4      50.4       89     47.6      0.00     18.24      67.2     0.39      1017.0     0       162         1       169        9.06     271       71.5
   04/13/2017 07:20      50.4      49.5       90     47.2      0.00     18.24      67.5     0.39      1017.0     1       201         1       200        9.06     271       12.8
   04/13/2017 07:10      49.6      48.9       91     46.8      0.00     18.24      67.6     0.39      1017.0     1       154         1       114        9.06     271        8.0
   04/13/2017 07:00      49.2      48.4       92     46.7      0.00     18.24      67.5     0.39      1016.0     0       218         1       192        9.07     270        3.0
   04/13/2017 06:50      48.4      47.8       93     46.1      0.00     18.24      67.7     0.39      1016.0     0       310         0       359        9.07     270       -4.9
   04/13/2017 06:40      47.9      47.6       92     45.6      0.00     18.24      67.5     0.39      1016.0     1        75         1       126        9.07     270      -13.3
   04/13/2017 06:30      47.9      47.8       92     45.7      0.00     18.24      67.5     0.39      1016.0     2       136         2       142        9.06     270      -15.7
   04/13/2017 06:20      48.0      47.6       92     45.7      0.00     18.24      67.5     0.39      1016.0     1       109         1       126        9.06     270      -21.5
   04/13/2017 06:10      48.4      47.6       92     45.7      0.00     18.24      67.6     0.39      1016.0     1       131         2       141        9.06     270      -22.5
   04/13/2017 06:00      48.5      48.2       92     46.1      0.00     18.24      67.6     0.39      1016.0     1       163         1       161        9.06     270      -26.4
   04/13/2017 05:50      48.4      47.8       91     45.7      0.00     18.24      67.6     0.39      1016.0     2       156         2       140        9.06     270      -28.7
   04/13/2017 05:40      48.5      48.3       92     46.0      0.00     18.24      67.8     0.39      1016.0     1       170         2       142        9.06     270      -31.3
   04/13/2017 05:30      48.9      48.3       91     46.1      0.00     18.24      67.8     0.39      1016.0     2       157         2       149        9.06     270      -33.7
   04/13/2017 05:20      49.2      48.8       91     46.4      0.00     18.24      67.8     0.39      1016.0     2       160         2       152        9.06     269      -36.1
   04/13/2017 05:10      49.2      49.0       90     46.3      0.00     18.24      67.7     0.39      1016.0     2       159         2       148        9.07     269      -40.1
   04/13/2017 05:00      49.9      49.4       89     46.5      0.00     18.24      67.7     0.39      1016.0     2       156         2       146        9.07     269      -44.3
   04/13/2017 04:50      50.5      50.1       89     47.0      0.00     18.24      68.1     0.39      1016.0     2       179         2       154        9.07     269      -48.2
   04/13/2017 04:40      50.9      50.2       88     47.0      0.00     18.24      67.8     0.39      1016.0     2       182         3       168        9.07     269      -54.0
   04/13/2017 04:30      51.0      50.6       88     47.4      0.00     18.24      68.0     0.39      1016.0     3       170         3       167        9.07     269      -59.0
   04/13/2017 04:20      51.8      50.9       86     47.3      0.00     18.24      67.9     0.39      1016.0     2       175         3       164        9.07     269      -62.2
   04/13/2017 04:10      51.9      51.6       86     47.5      0.00     18.24      68.2     0.39      1016.0     2       188         3       185        9.07     268      -65.3
   04/13/2017 04:00      52.2      51.8       85     47.5      0.00     18.24      68.2     0.39      1016.0     2       174         3       167        9.07     268      -66.9
   04/13/2017 03:50      53.5      52.6       82     47.6      0.00     18.24      68.2     0.39      1016.0     2       170         3       170        9.07     268      -69.5
   04/13/2017 03:40      54.1      53.6       79     47.6      0.00     18.24      68.0     0.39      1016.0     2       187         2       169        9.07     268      -70.5
   04/13/2017 03:30      54.3      54.0       78     47.4      0.00     18.24      68.1     0.39      1016.0     2       226         3       202        9.07     268      -65.5
   04/13/2017 03:20      54.8      54.5       76     47.4      0.00     18.24      68.0     0.39      1016.0     2       213         3       217        9.07     268      -50.9
   04/13/2017 03:10      55.3      54.8       76     47.5      0.00     18.24      68.0     0.39      1016.0     2       221         3       214        9.07     268      -47.1
   04/13/2017 03:00      55.3      55.1       76     47.7      0.00     18.24      68.1     0.39      1016.0     3       235         6       230        9.07     268      -31.8
   04/13/2017 02:50      55.5      55.3       75     47.7      0.00     18.24      68.3     0.39      1017.0     2       230         4       233        9.07     268      -19.7
   04/13/2017 02:40      55.5      55.3       75     47.8      0.00     18.24      68.3     0.39      1017.0     3       249         5       247        9.07     268      -23.2
   04/13/2017 02:30      55.6      55.4       75     47.8      0.00     18.24      68.4     0.39      1017.0     3       238         5       236        9.07     268      -23.3
   04/13/2017 02:20      55.5      55.4       76     47.9      0.00     18.24      68.3     0.39      1017.0     3       235         5       229        9.07     268      -15.8
   04/13/2017 02:10      55.5      55.0       77     48.0      0.00     18.24      68.4     0.39      1017.0     3       219         5       228        9.07     268      -12.1
   04/13/2017 02:00      55.1      54.8       79     48.4      0.00     18.24      68.3     0.39      1017.0     2       215         3       230        9.07     268      -20.8
   04/13/2017 01:50      55.0      54.7       79     48.4      0.00     18.24      68.5     0.39      1017.0     3       211         5       209        9.07     268      -27.3
   04/13/2017 01:40      55.0      54.6       79     48.5      0.00     18.24      68.5     0.39      1017.0     2       216         4       236        9.07     268      -30.3
   04/13/2017 01:30      54.8      54.2       80     48.5      0.00     18.24      68.5     0.39      1017.0     2       220         3       246        9.07     269      -25.0
   04/13/2017 01:20      54.2      53.5       83     48.6      0.00     18.24      68.2     0.39      1017.0     2       210         3       220        9.07     269      -21.4
   04/13/2017 01:10      53.5      53.2       84     48.8      0.00     18.24      68.8     0.39      1017.0     1       196         3       207        9.07     269      -36.2
   04/13/2017 01:00      53.7      53.5       84     48.8      0.00     18.24      68.5     0.39      1017.0     1       207         2       215        9.07     268      -56.5
   04/13/2017 00:50      54.0      53.7       83     48.9      0.00     18.24      68.5     0.39      1017.0     1       207         2       219        9.07     268      -61.3
   04/13/2017 00:40      54.1      53.4       84     48.8      0.00     18.24      68.5     0.39      1017.0     2       201         3       236        9.07     268      -63.7
   04/13/2017 00:30      54.6      54.2       82     49.0      0.00     18.24      68.5     0.39      1017.0     2       189         2       204        9.07     268      -65.8
   04/13/2017 00:20      54.6      54.5       82     49.0      0.00     18.24      68.6     0.39      1017.0     2       207         3       193        9.07     268      -67.5
   04/13/2017 00:10      55.1      54.7       81     49.1      0.00     18.24      68.9     0.39      1017.0     2       189         2       208        9.07     268      -65.7
   04/13/2017 00:00      55.5      55.2       80     49.2      0.00     18.24      68.6     0.39      1017.0     2       203         3       205        9.07     268      -66.0
   04/12/2017 23:50      55.4      55.1       80     49.2      0.00     18.24      68.9     0.39      1017.0     2       217         4       239        9.07     268      -41.5
   04/12/2017 23:40      55.7      55.1       79     49.0      0.00     18.24      68.7     0.39      1017.0     3       225         4       233        9.07     268      -57.4
   04/12/2017 23:30      55.9      55.6       77     48.7      0.00     18.24      68.6     0.39      1017.0     2       236         4       243        9.07     267      -68.5
   04/12/2017 23:20      56.1      55.8       77     48.8      0.00     18.24      68.5     0.39      1017.0     3       228         4       226        9.08     268      -68.9
   04/12/2017 23:10      56.1      55.9       76     48.8      0.00     18.24      68.7     0.39      1017.0     2       222         4       231        9.08     268      -69.0
   04/12/2017 23:00      56.8      56.3       75     48.8      0.00     18.24      68.6     0.39      1017.0     2       216         3       230        9.08     267      -69.2
   04/12/2017 22:50      57.0      56.6       74     48.8      0.00     18.24      68.6     0.39      1017.0     3       236         4       230        9.08     267      -69.7
   04/12/2017 22:40      57.1      56.9       74     48.7      0.00     18.24      68.7     0.39      1017.0     3       238         4       255        9.08     267      -69.7
   04/12/2017 22:30      57.7      57.1       73     48.8      0.00     18.24      68.8     0.39      1017.0     2       230         4       242        9.08     267      -69.4
   04/12/2017 22:20      58.0      57.7       72     48.9      0.00     18.24      68.7     0.39      1017.0     3       245         3       251        9.08     267      -70.0
   04/12/2017 22:10      58.0      57.8       71     48.8      0.00     18.24      68.8     0.39      1017.0     2       236         4       226        9.08     267      -70.9
   04/12/2017 22:00      58.6      58.1       71     48.8      0.00     18.24      68.8     0.39      1017.0     2       218         4       221        9.08     267      -71.0
   04/12/2017 21:50      59.1      58.6       69     48.8      0.00     18.24      69.1     0.39      1017.0     4       233         5       247        9.08     267      -71.6
   04/12/2017 21:40      59.2      58.9       69     48.9      0.00     18.24      68.7     0.39      1017.0     4       226         4       217        9.08     267      -71.7
   04/12/2017 21:30      59.5      59.4       68     49.1      0.00     18.24      68.7     0.39      1017.0     3       226         7       234        9.08     267      -71.8
   04/12/2017 21:20      59.9      59.5       68     49.1      0.00     18.24      68.7     0.39      1017.0     3       223         5       242        9.09     267      -72.5
   04/12/2017 21:10      60.1      59.9       68     49.2      0.00     18.24      68.5     0.39      1017.0     3       224         5       224        9.08     267      -72.9
   04/12/2017 21:00      60.4      60.0       68     49.5      0.00     18.24      68.7     0.39      1017.0     3       221         6       216        9.09     267      -73.2
   04/12/2017 20:50      60.6      60.4       67     49.6      0.00     18.24      68.3     0.39      1017.0     4       219         6       239        9.09     267      -73.7
   04/12/2017 20:40      61.0      60.6       67     49.8      0.00     18.24      68.5     0.39      1017.0     4       232         6       221        9.09     267      -74.0
   04/12/2017 20:30      61.0      60.8       67     49.9      0.00     18.24      68.8     0.39      1017.0     5       231         8       234        9.09     267      -74.4
   04/12/2017 20:20      61.3      61.0       67     50.0      0.00     18.24      68.5     0.39      1016.0     4       228         7       221        9.10     267      -74.7
   04/12/2017 20:10      61.3      61.1       67     50.0      0.00     18.24      68.5     0.39      1016.0     6       227         9       226        9.10     267      -75.2
   04/12/2017 20:00      61.5      61.3       66     49.9      0.00     18.24      68.5     0.39      1016.0     4       236         7       232        9.10     266      -76.0
   04/12/2017 19:50      61.9      61.6       65     49.8      0.00     18.24      68.6     0.39      1016.0     6       234         7       239        9.10     266      -76.6
   04/12/2017 19:40      62.1      61.8       64     49.6      0.00     18.24      68.5     0.39      1016.0     7       238         9       247        9.11     266      -76.8
   04/12/2017 19:30      62.3      62.2       63     49.5      0.00     18.24      68.5     0.39      1016.0     8       235        12       234        9.11     266      -75.0
   04/12/2017 19:20      62.5      62.2       62     49.3      0.00     18.24      68.5     0.39      1016.0     7       242         9       240        9.11     266      -71.1
   04/12/2017 19:10      62.8      62.5       62     49.3      0.00     18.24      68.4     0.39      1016.0     9       234        12       245        9.11     266      -64.2
   04/12/2017 19:00      63.1      62.9       61     49.3      0.00     18.24      68.6     0.39      1016.0     7       234        10       220        9.12     266      -52.3
   04/12/2017 18:50      63.7      63.1       61     49.6      0.00     18.24      68.4     0.39      1016.0     8       235        12       219        9.12     266      -35.7
   04/12/2017 18:40      63.9      63.6       61     50.1      0.00     18.24      68.2     0.38      1016.0     7       228        11       234        9.12     266      -18.7
   04/12/2017 18:30      64.9      64.0       60     50.4      0.00     18.24      68.2     0.38      1016.0     8       247        11       244        9.12     266        2.4
   04/12/2017 18:20      65.5      64.9       61     51.3      0.00     18.24      68.3     0.38      1016.0     9       233        13       222        9.12     266       29.0
   04/12/2017 18:10      65.9      65.4       61     52.0      0.00     18.24      68.1     0.38      1016.0     8       256        11       253        9.13     265       55.0
   04/12/2017 18:00      65.5      65.1       64     52.8      0.00     18.24      68.2     0.38      1016.0     6       225         9       222        9.13     266       85.2
   04/12/2017 17:50      65.2      64.9       64     52.5      0.00     18.24      68.0     0.38      1016.0    10       236        14       258        9.13     265      119.0
   04/12/2017 17:40      65.9      65.3       61     51.9      0.00     18.24      67.7     0.38      1016.0    11       238        15       239        9.13     265      113.7
   04/12/2017 17:30      67.5      66.3       58     51.6      0.00     18.24      68.0     0.38      1016.0    10       228        14       233        9.13     265      147.3
   04/12/2017 17:20      68.0      67.4       56     51.7      0.00     18.24      67.5     0.38      1016.0     8       236        16       233        9.13     265      162.0
   04/12/2017 17:10      68.9      68.1       55     51.7      0.00     18.24      67.8     0.38      1015.0     8       235        11       239        9.13     265      204.9
   04/12/2017 17:00      69.2      68.6       53     50.9      0.00     18.24      67.8     0.38      1016.0     8       233        16       236        9.13     265      238.4
   04/12/2017 16:50      70.1      69.7       52     51.3      0.00     18.24      67.7     0.38      1015.0     8       249        12       255        9.13     265      262.1
   04/12/2017 16:40      70.4      69.7       50     50.4      0.00     18.24      67.6     0.38      1015.0     8       231        13       252        9.13     265      286.8
   04/12/2017 16:30      71.2      69.9       50     51.3      0.00     18.24      67.6     0.38      1015.0     8       230        13       216        9.13     265      309.1
   04/12/2017 16:20      72.0      71.5       49     51.7      0.00     18.24      67.5     0.38      1015.0     9       239        11       239        9.13     265      328.6
   04/12/2017 16:10      72.7      72.2       48     51.8      0.00     18.24      67.3     0.38      1015.0     8       252        16       247        9.13     265      349.5
   04/12/2017 16:00      72.9      72.0       47     51.3      0.00     18.24      67.2     0.38      1015.0     6       224         9       237        9.13     265      367.7
   04/12/2017 15:50      73.2      72.3       46     50.7      0.00     18.24      67.1     0.38      1015.0     7       241        10       248        9.13     265      387.1
   04/12/2017 15:40      73.8      72.9       44     50.3      0.00     18.24      67.0     0.38      1015.0     7       227         8       204        9.13     265      404.5
   04/12/2017 15:30      74.2      73.3       42     49.3      0.00     18.24      67.1     0.38      1015.0     7       219        11       251        9.13     265      421.9
   04/12/2017 15:20      74.7      74.2       39     48.1      0.00     18.24      67.0     0.38      1015.0     7       242         9       241        9.13     266      432.4
   04/12/2017 15:10      74.8      74.5       38     47.7      0.00     18.24      66.8     0.38      1015.0     6       258         9       255        9.13     266      447.6
   04/12/2017 15:00      75.6      74.2       39     48.0      0.00     18.24      67.0     0.38      1015.0     6       258        10       238        9.13     266      461.0
   04/12/2017 14:50      75.9      75.1       39     49.2      0.00     18.24      66.8     0.38      1015.0     4       249         7       262        9.13     266      475.8
   04/12/2017 14:40      75.5      75.0       39     48.9      0.00     18.24      66.7     0.38      1015.0     6       252         8       259        9.13     266      495.0
   04/12/2017 14:30      75.5      74.8       40     49.1      0.00     18.24      66.7     0.38      1015.0     5       231        10       218        9.13     266      505.7
   04/12/2017 14:20      75.6      74.3       41     49.5      0.00     18.24      66.6     0.38      1015.0     6       174         8       155        9.13     266      518.7
   04/12/2017 14:10      76.5      75.3       39     49.4      0.00     18.24      66.6     0.38      1015.0     6       120         8        91        9.13     266      531.5
   04/12/2017 14:00      78.4      75.7       37     48.6      0.00     18.24      66.4     0.38      1016.0     4        78         6        36        9.13     266      537.6
   04/12/2017 13:50      77.9      76.3       35     47.5      0.00     18.24      66.5     0.38      1016.0     2        65         4       100        9.13     266      544.0
   04/12/2017 13:40      76.2      74.7       37     47.6      0.00     18.24      66.3     0.38      1016.0     3       151         5       141        9.13     266      548.1
   04/12/2017 13:30      75.5      74.0       38     47.8      0.00     18.24      66.5     0.38      1016.0     4       170         6       158        9.13     267      495.3
   04/12/2017 13:20      74.6      74.0       37     46.8      0.00     18.24      66.3     0.38      1016.0     4       114         9       101        9.12     267      559.8
   04/12/2017 13:10      75.1      74.4       37     46.5      0.00     18.24      66.3     0.38      1016.0     4        35         6        70        9.11     268      556.5
   04/12/2017 13:00      74.9      74.2       37     46.6      0.00     18.24      66.7     0.38      1016.0     3        48         7        73        9.11     275      573.0
   04/12/2017 12:50      75.0      72.8       38     46.5      0.00     18.24      66.2     0.38      1016.0     2        33         5        58        9.11     280      562.3
   04/12/2017 12:40      74.0      72.7       38     46.1      0.00     18.24      66.3     0.38      1016.0     2       265         4       238        9.11     281      555.4
   04/12/2017 12:30      74.8      73.4       37     46.3      0.00     18.24      66.1     0.38      1016.0     3        29         6       351        9.10     282      557.1
   04/12/2017 12:20      73.2      71.9       39     45.9      0.00     18.24      66.2     0.38      1016.0     3        60         4        99        9.10     283      551.6
   04/12/2017 12:10      73.3      72.6       38     45.9      0.00     18.24      66.0     0.38      1016.0     3         5         6         8        9.10     284      549.6
   04/12/2017 12:00      72.4      70.5       40     45.9      0.00     18.24      66.3     0.38      1016.0     2       320         4       178        9.10     286      545.8
   04/12/2017 11:50      71.7      70.4       40     45.4      0.00     18.24      66.4     0.38      1017.0     3        10         4       342        9.10     287      539.7
   04/12/2017 11:40      70.5      69.5       41     45.3      0.00     18.24      66.2     0.38      1017.0     2       279         4         6        9.10     289      533.6
   04/12/2017 11:30      71.1      69.4       40     44.8      0.00     18.24      66.4     0.38      1017.0     3       340         5       316        9.10     291      525.0
   04/12/2017 11:20      70.1      69.0       41     45.0      0.00     18.24      66.2     0.38      1017.0     2        17         3         1        9.10     292      516.6
   04/12/2017 11:10      69.5      67.8       42     44.7      0.00     18.24      66.2     0.38      1017.0     3        24         4        10        9.09     297      506.3
   04/12/2017 11:00      67.7      66.7       44     44.2      0.00     18.24      66.0     0.38      1017.0     3       325         4       331        9.09     300      497.2
   04/12/2017 10:50      66.8      65.8       45     44.1      0.00     18.24      66.3     0.38      1017.0     4       346         5        14        9.09     301      486.7
   04/12/2017 10:40      65.8      65.5       45     43.8      0.00     18.24      66.0     0.38      1017.0     3       261         5       255        9.08     300      473.6
   04/12/2017 10:30      66.1      65.8       44     43.6      0.00     18.24      66.3     0.38      1017.0     2       310         4       271        9.07     303      457.8
   04/12/2017 10:20      66.3      65.3       45     43.7      0.00     18.24      66.2     0.38      1017.0     3        42         5        59        9.06     302      442.7
   04/12/2017 10:10      65.4      63.7       46     43.6      0.00     18.24      66.2     0.38      1017.0     2        42         3        28        9.05     304      426.5
   04/12/2017 10:00      63.8      63.3       47     43.1      0.00     18.24      66.7     0.38      1017.0     3        13         4       359        9.01     306      410.2
   04/12/2017 09:50      64.0      63.4       47     43.3      0.00     18.24      66.2     0.38      1017.0     3        54         4        33        8.99     307      392.5
   04/12/2017 09:40      63.5      62.5       49     43.5      0.00     18.24      66.1     0.38      1017.0     3        40         4        25        8.96     308      372.1
   04/12/2017 09:30      62.5      61.8       51     43.9      0.00     18.24      66.3     0.38      1017.0     3        22         3        14        8.91     307      352.1
   04/12/2017 09:20      61.9      61.4       53     44.3      0.00     18.24      66.3     0.38      1017.0     2        43         3        36        8.85     311      331.1
   04/12/2017 09:10      61.5      60.4       55     44.7      0.00     18.24      66.5     0.38      1017.0     3        28         4        71        8.78     310      307.8
   04/12/2017 09:00      60.4      59.9       56     44.4      0.00     18.24      66.9     0.38      1017.0     2        63         3       352        8.69     311      284.9
   04/12/2017 08:50      59.9      58.9       58     44.5      0.00     18.24      66.6     0.38      1017.0     2        23         3        13        8.58     308      261.2
   04/12/2017 08:40      58.8      57.6       61     44.6      0.00     18.24      66.9     0.38      1017.0     2       349         2       343        8.49     309      233.9
   04/12/2017 08:30      59.0      57.6       59     44.2      0.00     18.24      66.5     0.38      1017.0     2       343         2       347        8.54     272      204.8
   04/12/2017 08:20      59.0      57.0       61     44.7      0.00     18.24      66.7     0.38      1017.0     1        23         2        30        8.54     272      175.3
   04/12/2017 08:10      57.1      54.9       65     44.8      0.00     18.24      67.1     0.38      1017.0     1       202         1       167        8.54     273      149.0
   04/12/2017 08:00      54.8      52.7       72     44.8      0.00     18.24      67.0     0.38      1017.0     1       273         1       326        8.54     274      126.0
   04/12/2017 07:50      52.7      51.3       76     44.8      0.00     18.24      67.0     0.38      1017.0     1       225         1       221        8.54     274      118.3
   04/12/2017 07:40      51.3      50.1       79     44.4      0.00     18.24      66.8     0.38      1017.0     1        72         1       327        8.54     274       81.2
   04/12/2017 07:30      49.9      48.6       83     44.3      0.00     18.24      66.9     0.38      1017.0     0       188         1       148        8.54     275       33.8
   04/12/2017 07:20      48.8      48.0       85     43.9      0.00     18.24      66.9     0.38      1017.0     0        92         0       130        8.54     275       -3.6
   04/12/2017 07:10      48.1      47.4       86     43.6      0.00     18.24      66.9     0.38      1017.0     0        73         0        81        8.54     275       -6.0
   04/12/2017 07:00      47.4      46.5       87     43.4      0.00     18.24      67.0     0.38      1017.0     1       188         1       171        8.54     275      -11.3
   04/12/2017 06:50      46.5      46.3       88     43.0      0.00     18.24      66.9     0.38      1017.0     1       127         1       130        8.54     274      -19.7
   04/12/2017 06:40      46.7      46.4       87     42.8      0.00     18.24      67.2     0.38      1017.0     1       123         1       125        8.54     274      -27.3
   04/12/2017 06:30      46.7      46.5       86     42.6      0.00     18.24      67.1     0.38      1016.0     1       146         2       135        8.54     274      -32.6
   04/12/2017 06:20      46.8      46.5       86     42.8      0.00     18.24      67.3     0.38      1016.0     1       237         1       251        8.54     274      -35.7
   04/12/2017 06:10      47.1      46.8       86     42.9      0.00     18.24      67.2     0.38      1016.0     1       144         2       140        8.54     274      -37.7
   04/12/2017 06:00      47.2      46.8       85     42.8      0.00     18.24      67.3     0.38      1016.0     1       167         1       147        8.54     274      -40.0
   04/12/2017 05:50      47.7      47.0       84     42.7      0.00     18.24      67.2     0.38      1016.0     1       122         1       141        8.54     274      -41.5
   04/12/2017 05:40      47.7      47.6       84     43.0      0.00     18.24      67.3     0.38      1016.0     1       156         1       140        8.54     273      -41.7
   04/12/2017 05:30      47.8      47.3       84     43.1      0.00     18.24      67.5     0.38      1016.0     0       159         1       147        8.54     273      -43.1
   04/12/2017 05:20      47.3      46.8       86     42.9      0.00     18.24      67.5     0.38      1016.0     0       200         1       330        8.54     272      -44.3
   04/12/2017 05:10      47.3      47.0       86     43.1      0.00     18.24      67.2     0.38      1016.0     1       176         2       130        8.54     272      -46.1
   04/12/2017 05:00      47.8      47.3       85     43.2      0.00     18.24      67.5     0.38      1016.0     1       159         2       144        8.54     272      -46.7
   04/12/2017 04:50      47.9      47.7       85     43.5      0.00     18.24      67.5     0.38      1016.0     1       189         1       202        8.54     272      -48.0
   04/12/2017 04:40      47.9      47.2       85     43.3      0.00     18.24      67.7     0.38      1016.0     1       173         2       138        8.54     272      -50.1
   04/12/2017 04:30      48.1      47.6       84     43.1      0.00     18.24      67.4     0.38      1016.0     2       148         2       148        8.54     272      -51.5
   04/12/2017 04:20      48.3      48.2       83     43.2      0.00     18.24      67.4     0.38      1016.0     1       177         2       145        8.54     272      -52.5
   04/12/2017 04:10      48.9      48.5       81     43.2      0.00     18.24      67.5     0.38      1016.0     1       145         1       143        8.54     271      -53.7
   04/12/2017 04:00      48.8      48.4       82     43.3      0.00     18.24      67.7     0.38      1016.0     1       178         1       199        8.54     271      -54.9
   04/12/2017 03:50      48.4      47.9       83     43.2      0.00     18.24      67.7     0.38      1016.0     1       182         2       147        8.54     271      -56.1
   04/12/2017 03:40      48.7      47.9       81     42.8      0.00     18.24      67.7     0.38      1016.0     2       139         2       143        8.54     271      -57.9
   04/12/2017 03:30      49.2      48.6       81     43.2      0.00     18.24      67.7     0.38      1016.0     2       158         2       157        8.54     271      -57.2
   04/12/2017 03:20      49.3      49.0       80     43.2      0.00     18.24      67.7     0.38      1016.0     2       145         2       143        8.54     271      -58.8
   04/12/2017 03:10      49.6      49.4       78     43.0      0.00     18.24      67.8     0.38      1016.0     1       169         2       193        8.54     271      -58.7
   04/12/2017 03:00      49.9      49.6       77     42.8      0.00     18.24      67.8     0.38      1016.0     1       224         1       219        8.54     271      -58.6
   04/12/2017 02:50      50.0      49.6       77     42.9      0.00     18.24      67.8     0.38      1016.0     0       243         1       286        8.54     270      -57.7
   04/12/2017 02:40      50.1      49.7       77     43.1      0.00     18.24      67.7     0.38      1016.0     1       166         2       127        8.55     271      -58.7
   04/12/2017 02:30      50.0      49.9       77     43.1      0.00     18.24      67.8     0.38      1016.0     1       162         2       135        8.55     270      -58.6
   04/12/2017 02:20      50.1      49.9       77     43.0      0.00     18.24      67.7     0.38      1016.0     1       180         1       199        8.55     270      -59.1
   04/12/2017 02:10      50.1      49.9       78     43.3      0.00     18.24      68.1     0.38      1017.0     1       147         2       138        8.54     270      -59.5
   04/12/2017 02:00      50.6      50.1       76     43.2      0.00     18.24      68.0     0.38      1017.0     1       147         2       136        8.54     270      -59.9
   04/12/2017 01:50      50.9      50.5       74     42.8      0.00     18.24      67.9     0.38      1017.0     2       180         3       210        8.54     270      -60.1
   04/12/2017 01:40      51.3      50.8       73     42.9      0.00     18.24      68.2     0.38      1017.0     2       178         2       198        8.54     270      -59.7
   04/12/2017 01:30      51.3      50.7       75     43.4      0.00     18.24      67.8     0.38      1017.0     1       178         1       180        8.55     270      -60.3
   04/12/2017 01:20      51.2      50.7       75     43.4      0.00     18.24      68.1     0.38      1017.0     2       140         3       141        8.55     270      -61.2
   04/12/2017 01:10      50.9      50.6       75     43.1      0.00     18.24      68.1     0.38      1017.0     1       135         2       127        8.55     270      -61.5
   04/12/2017 01:00      51.3      50.9       74     43.1      0.00     18.24      68.0     0.38      1017.0     1       191         2       129        8.55     270      -61.3
   04/12/2017 00:50      52.2      51.4       71     43.0      0.00     18.24      68.0     0.38      1017.0     1       172         2       144        8.55     270      -61.2
   04/12/2017 00:40      52.6      52.1       70     43.0      0.00     18.24      68.2     0.38      1017.0     1       157         1       146        8.55     269      -61.4
   04/12/2017 00:30      52.8      52.6       70     43.0      0.00     18.24      68.2     0.38      1017.0     0       189         1       184        8.55     269      -61.4
   04/12/2017 00:20      53.5      52.8       68     42.9      0.00     18.24      68.0     0.38      1017.0     1       168         2       154        8.55     269      -61.3
   04/12/2017 00:10      54.1      53.5       66     42.9      0.00     18.24      68.1     0.38      1017.0     2       194         2       162        8.55     270      -61.4
   04/12/2017 00:00      54.5      54.1       65     42.6      0.00     18.24      67.9     0.38      1017.0     1       278         1       256        8.55     269      -61.0
   04/11/2017 23:50      54.6      54.0       64     42.6      0.00     18.24      68.3     0.38      1017.0     1       228         1       271        8.55     269      -61.3
   04/11/2017 23:40      54.5      54.0       64     42.4      0.00     18.24      68.5     0.38      1017.0     0       202         1       191        8.55     269      -62.7
   04/11/2017 23:30      55.1      54.6       63     42.4      0.00     18.24      68.2     0.38      1017.0     1       269         2       304        8.55     269      -63.6
   04/11/2017 23:20      54.8      54.5       63     42.1      0.00     18.24      68.5     0.38      1017.0     1       354         2       338        8.55     268      -65.3
   04/11/2017 23:10      56.1      55.3       60     42.0      0.00     18.24      68.2     0.38      1017.0     1        29         1       206        8.55     268      -66.3
   04/11/2017 23:00      56.3      56.0       59     42.2      0.00     18.24      68.0     0.38      1017.0     1       211         3       241        8.55     268      -67.8
   04/11/2017 22:50      56.5      56.1       59     42.2      0.00     18.24      68.3     0.38      1017.0     1       238         3       218        8.55     268      -69.2
   04/11/2017 22:40      57.1      56.5       58     42.3      0.00     18.24      68.0     0.38      1017.0     2       196         3       193        8.56     268      -70.3
   04/11/2017 22:30      57.1      56.8       58     42.3      0.00     18.24      68.3     0.38      1017.0     2       228         4       238        8.56     268      -70.3
   04/11/2017 22:20      57.5      57.1       57     42.2      0.00     18.24      68.0     0.38      1017.0     3       205         5       221        8.56     268      -70.8
   04/11/2017 22:10      57.7      57.5       56     42.0      0.00     18.24      68.2     0.38      1017.0     2       225         4       242        8.56     268      -71.4
   04/11/2017 22:00      58.6      58.0       54     41.8      0.00     18.24      68.3     0.38      1017.0     3       213         6       247        8.56     268      -72.3
   04/11/2017 21:50      58.7      58.5       53     41.5      0.00     18.24      68.3     0.38      1017.0     2       246         3       243        8.56     267      -73.1
   04/11/2017 21:40      59.5      58.6       51     41.1      0.00     18.24      68.1     0.38      1017.0     2       220         5       191        8.56     267      -73.6
   04/11/2017 21:30      59.8      59.4       49     40.4      0.00     18.24      68.1     0.38      1017.0     3       230         6       244        8.57     267      -74.2
   04/11/2017 21:20      60.4      59.5       47     39.9      0.00     18.24      68.1     0.38      1017.0     5       209         7       201        8.57     267      -74.3
   04/11/2017 21:10      61.2      60.5       45     39.4      0.00     18.24      68.3     0.38      1017.0     4       239         6       231        8.57     267      -74.6
   04/11/2017 21:00      61.5      61.3       43     38.6      0.00     18.24      68.2     0.38      1016.0     4       244         6       245        8.57     267      -74.4
   04/11/2017 20:50      61.7      61.5       42     38.2      0.00     18.24      68.2     0.38      1016.0     4       237         6       226        8.58     267      -74.0
   04/11/2017 20:40      62.0      61.7       41     37.9      0.00     18.24      68.2     0.38      1016.0     3       222         5       246        8.58     267      -73.1
   04/11/2017 20:30      62.4      62.0       40     37.9      0.00     18.24      68.1     0.38      1016.0     3       229         4       244        8.59     267      -73.2
   04/11/2017 20:20      62.7      62.3       39     37.5      0.00     18.24      67.9     0.38      1016.0     2       218         3       221        8.60     267      -74.6
   04/11/2017 20:10      62.8      62.4       39     37.4      0.00     18.24      68.1     0.38      1016.0     2       225         4       223        8.61     267      -76.3
   04/11/2017 20:00      63.0      62.9       38     37.3      0.00     18.24      68.0     0.38      1016.0     2       214         5       210        8.62     267      -78.4
   04/11/2017 19:50      63.4      62.9       39     37.6      0.00     18.24      68.0     0.38      1016.0     3       215         5       231        8.62     266      -80.0
   04/11/2017 19:40      64.2      63.4       38     37.5      0.00     18.24      67.8     0.38      1016.0     3       211         5       229        8.63     266      -81.7
   04/11/2017 19:30      65.0      64.3       37     37.5      0.00     18.24      68.0     0.38      1016.0     4       241         6       239        8.63     266      -81.3
   04/11/2017 19:20      65.4      65.0       37     38.2      0.00     18.24      67.9     0.38      1015.0     4       233         8       244        8.65     266      -77.7
   04/11/2017 19:10      66.0      65.5       36     38.4      0.00     18.24      67.7     0.38      1015.0     7       225        11       239        8.66     266      -70.7
   04/11/2017 19:00      67.0      66.2       36     38.7      0.00     18.24      67.7     0.38      1015.0     6       235         9       230        8.68     266      -60.1
   04/11/2017 18:50      68.1      67.1       33     37.8      0.00     18.24      67.7     0.38      1015.0     6       234         9       233        8.71     266      -45.0
   04/11/2017 18:40      69.5      68.4       33     38.6      0.00     18.24      67.6     0.38      1015.0     5       246         8       252        8.74     266      -26.9
   04/11/2017 18:30      71.0      69.9       33     40.3      0.00     18.24      67.7     0.38      1015.0     5       273        10       239        8.76     266       -6.9
   04/11/2017 18:20      70.8      70.4       30     38.0      0.00     18.24      67.7     0.38      1015.0     5       287         9       307        8.79     266       13.2
   04/11/2017 18:10      70.9      70.5       26     33.8      0.00     18.24      67.5     0.38      1015.0     5       242         7       229        8.82     265       36.2
   04/11/2017 18:00      71.5      70.9       27     35.1      0.00     18.24      67.4     0.38      1015.0     5       207         8       215        8.85     265       61.4
   04/11/2017 17:50      71.8      71.3       27     35.4      0.00     18.24      67.5     0.38      1015.0     6       239         9       197        8.87     265       88.2
   04/11/2017 17:40      72.5      71.6       28     37.5      0.00     18.24      67.5     0.38      1014.0     6       235        10       239        8.87     266      114.7
   04/11/2017 17:30      72.5      72.2       30     38.8      0.00     18.24      67.3     0.38      1014.0     5       247         7       219        8.87     266      139.5
   04/11/2017 17:20      72.9      72.1       29     38.4      0.00     18.24      67.3     0.38      1014.0     5       234         9       220        8.88     266      164.0
   04/11/2017 17:10      73.7      72.9       28     38.3      0.00     18.24      67.3     0.38      1014.0     5       255         7       233        8.88     266      187.3
   04/11/2017 17:00      73.2      72.7       29     38.6      0.00     18.24      67.2     0.38      1014.0     6       261        10       260        8.88     266      211.7
   04/11/2017 16:50      74.3      73.5       29     39.5      0.00     18.24      67.0     0.38      1014.0     5       262        11       262        8.88     266      233.5
   04/11/2017 16:40      74.4      73.5       29     39.8      0.00     18.24      67.0     0.38      1014.0     5       253         8       295        8.88     266      258.3
   04/11/2017 16:30      74.8      73.3       30     40.8      0.00     18.24      67.0     0.38      1014.0     5       283        10       264        8.88     266      281.6
   04/11/2017 16:20      73.7      73.3       31     41.2      0.00     18.24      67.0     0.38      1014.0     5       273        10       228        8.88     266      304.0
   04/11/2017 16:10      73.7      72.8       33     42.4      0.00     18.24      67.0     0.38      1014.0     4       243         6       239        8.88     267      326.4
   04/11/2017 16:00      74.3      73.3       34     43.5      0.00     18.24      66.8     0.38      1014.0     4       213         7       190        8.88     266      347.0
   04/11/2017 15:50      73.9      73.3       34     43.2      0.00     18.24      66.7     0.38      1014.0     6       248         9       266        8.88     266      369.1
   04/11/2017 15:40      74.5      73.5       34     43.8      0.00     18.24      66.6     0.38      1014.0     5       254         7       313        8.88     266      387.9
   04/11/2017 15:30      74.1      72.6       35     44.0      0.00     18.24      66.5     0.38      1014.0     5       266         8       244        8.88     267      405.7
   04/11/2017 15:20      73.5      72.9       36     44.5      0.00     18.24      66.5     0.38      1015.0     5       201         8       237        8.88     267      422.0
   04/11/2017 15:10      73.8      72.9       35     44.2      0.00     18.24      66.6     0.38      1015.0     5       219         8       150        8.88     267      439.1
   04/11/2017 15:00      74.2      72.9       32     41.6      0.00     18.24      66.5     0.37      1015.0     5       210         8       224        8.88     267      455.7
   04/11/2017 14:50      74.2      73.5       34     43.5      0.00     18.24      66.3     0.37      1015.0     5       214         7       318        8.88     267      472.3
   04/11/2017 14:40      73.8      73.2       32     42.1      0.00     18.24      66.4     0.37      1015.0     6       255        10       245        8.88     266      480.4
   04/11/2017 14:30      74.1      73.3       31     41.5      0.00     18.24      66.4     0.37      1015.0     6       226         9       243        8.88     266      492.6
   04/11/2017 14:20      74.4      73.7       28     38.7      0.00     18.24      66.2     0.37      1015.0     4       235         8       256        8.88     267      508.7
   04/11/2017 14:10      73.8      72.9       27     37.8      0.00     18.24      66.2     0.37      1015.0     3       181         5       170        8.88     267      513.0
   04/11/2017 14:00      73.8      73.3       27     37.4      0.00     18.24      66.1     0.37      1015.0     3       184         5       210        8.88     267      410.8
   04/11/2017 13:50      73.4      72.0       29     38.8      0.00     18.24      66.1     0.37      1015.0     4       192         8       170        8.88     268      538.9
   04/11/2017 13:40      73.3      72.7       28     37.8      0.00     18.24      66.0     0.37      1015.0     4       164         7       163        8.88     267      555.3
   04/11/2017 13:30      72.7      70.6       30     38.1      0.00     18.24      66.1     0.37      1015.0     6       173         9       192        8.88     267      576.4
   04/11/2017 13:20      71.5      71.0       29     37.4      0.00     18.24      66.0     0.38      1015.0     5       159         9       121        8.88     267      163.9
   04/11/2017 13:10      72.0      71.6       29     37.9      0.00     18.24      65.9     0.37      1015.0     7       159         8       139        8.88     268      423.5
   04/11/2017 13:00      73.7      72.3       27     36.5      0.00     18.24      66.0     0.37      1015.0     5       135         9       151        8.88     268      273.3
   04/11/2017 12:50      74.2      73.4       24     34.5      0.00     18.24      65.9     0.37      1015.0     3       122         5       130        8.89     269      364.0
   04/11/2017 12:40      74.1      73.2       24     34.8      0.00     18.24      65.9     0.37      1015.0     2       309         3       345        8.88     268      336.0
   04/11/2017 12:30      75.5      73.4       24     35.4      0.00     18.24      65.8     0.37      1015.0     3       166         5       164        8.89     268      434.2
   04/11/2017 12:20      75.3      73.5       24     34.6      0.00     18.24      65.9     0.37      1015.0     2         5         6        25        8.88     269      497.3
   04/11/2017 12:10      74.0      73.3       24     34.8      0.00     18.24      65.8     0.37      1015.0     3        58         5        57        8.88     269      228.4
   04/11/2017 12:00      73.4      72.4       25     35.0      0.00     18.24      66.0     0.37      1016.0     3       360         6       359        8.88     269      358.2
   04/11/2017 11:50      73.8      72.3       26     36.0      0.00     18.24      65.8     0.37      1015.0     3       351         5        17        8.88     269      545.4
   04/11/2017 11:40      73.4      72.2       26     36.2      0.00     18.24      65.7     0.37      1016.0     3        26         5        72        8.88     269      555.1
   04/11/2017 11:30      72.6      71.3       28     36.8      0.00     18.24      66.0     0.37      1016.0     3       348         3         8        8.88     269      542.8
   04/11/2017 11:20      71.3      70.4       29     36.7      0.00     18.24      66.1     0.37      1016.0     2       294         4       336        8.88     269      516.5
   04/11/2017 11:10      70.7      69.8       29     36.1      0.00     18.24      66.0     0.37      1016.0     1        82         2       142        8.88     269      486.4
   04/11/2017 11:00      70.3      68.9       29     36.1      0.00     18.24      65.9     0.37      1016.0     2       332         3        29        8.89     269      489.9
   04/11/2017 10:50      69.2      68.0       30     36.1      0.00     18.24      66.0     0.37      1016.0     2        32         3        16        8.89     270      447.4
   04/11/2017 10:40      69.1      68.0       31     36.1      0.00     18.24      66.0     0.37      1016.0     3        17         5         7        8.89     270      396.4
   04/11/2017 10:30      69.1      67.1       32     36.8      0.00     18.24      66.1     0.37      1016.0     2        26         3         6        8.89     269      418.6
   04/11/2017 10:20      67.4      66.7       32     36.6      0.00     18.24      66.2     0.38      1016.0     2        42         4         2        8.89     270      412.4
   04/11/2017 10:10      67.0      65.7       34     36.9      0.00     18.24      65.9     0.37      1016.0     2        68         3        88        8.89     270      425.1
   04/11/2017 10:00      65.9      64.5       37     37.7      0.00     18.24      66.1     0.37      1016.0     1       142         3        80        8.89     271      393.0
   04/11/2017 09:50      65.2      64.3       37     37.7      0.00     18.24      66.1     0.37      1016.0     2        89         3        85        8.89     271      344.9
   04/11/2017 09:40      65.0      63.1       38     38.1      0.00     18.24      66.1     0.38      1016.0     2        58         4       120        8.89     271      312.5
   04/11/2017 09:30      63.1      62.4       38     37.1      0.00     18.24      66.2     0.38      1016.0     2        28         4        74        8.89     271      320.9
   04/11/2017 09:20      62.4      61.0       39     36.6      0.00     18.24      66.2     0.38      1017.0     1        26         3        29        8.89     271      265.9
   04/11/2017 09:10      61.3      59.8       40     36.3      0.00     18.24      66.3     0.38      1017.0     1       272         3       301        8.89     272      293.1
   04/11/2017 09:00      61.0      59.7       40     35.9      0.00     18.24      66.2     0.38      1017.0     1       332         2       335        8.89     272      267.2
   04/11/2017 08:50      61.0      59.6       41     36.8      0.00     18.24      66.3     0.38      1016.0     1        70         2        84        8.89     272      243.5
   04/11/2017 08:40      59.4      58.5       42     36.1      0.00     18.24      66.3     0.38      1017.0     2         8         3        74        8.89     273      214.6
   04/11/2017 08:30      59.2      57.8       46     37.6      0.00     18.24      66.5     0.38      1017.0     1        23         2        17        8.89     274      194.6
   04/11/2017 08:20      57.8      55.6       49     37.3      0.00     18.24      66.5     0.38      1017.0     1       342         2       348        8.90     274      168.1
   04/11/2017 08:10      55.9      54.1       51     37.5      0.00     18.24      66.4     0.38      1017.0     1       325         2       322        8.90     276      141.8
   04/11/2017 08:00      53.9      52.2       55     37.3      0.00     18.24      66.5     0.38      1016.0     1       330         1       355        8.90     276       80.2
   04/11/2017 07:50      52.0      51.2       57     37.1      0.00     18.24      66.2     0.38      1016.0     1       322         2       293        8.90     277       44.5
   04/11/2017 07:40      51.1      49.2       60     37.1      0.00     18.24      66.5     0.38      1016.0     1       339         2       311        8.90     278       32.4
   04/11/2017 07:30      48.9      47.4       64     36.5      0.00     18.24      66.6     0.38      1016.0     1       351         1       320        8.90     278        7.8
   04/11/2017 07:20      47.4      46.2       67     36.3      0.00     18.24      66.6     0.38      1016.0     0        94         1        99        8.90     278      -18.5
   04/11/2017 07:10      46.2      45.4       69     36.4      0.00     18.24      66.4     0.38      1016.0     1       172         1       140        8.90     279      -25.5
   04/11/2017 07:00      45.1      44.5       71     36.0      0.00     18.24      66.6     0.38      1016.0     1       134         2       148        8.90     279      -36.0
   04/11/2017 06:50      44.9      44.5       70     35.4      0.00     18.24      66.6     0.38      1016.0     1        97         1       104        8.90     279      -49.3
   04/11/2017 06:40      44.8      44.7       70     35.4      0.00     18.24      66.7     0.38      1016.0     1         3         1       314        8.90     279      -57.3
   04/11/2017 06:30      44.9      44.5       68     34.7      0.00     18.24      66.9     0.38      1015.0     1       188         2       241        8.90     278      -60.2
   04/11/2017 06:20      44.5      44.0       71     35.3      0.00     18.24      67.1     0.38      1015.0     1       164         1       171        8.90     278      -62.5
   04/11/2017 06:10      44.7      44.0       70     35.2      0.00     18.24      67.2     0.38      1015.0     2       128         2       132        8.90     277      -63.3
   04/11/2017 06:00      45.2      44.8       66     34.2      0.00     18.24      67.0     0.38      1015.0     1       170         1       129        8.90     276      -62.7
   04/11/2017 05:50      44.9      44.4       69     35.0      0.00     18.24      67.0     0.38      1015.0     1       171         1       138        8.90     276      -62.6
   04/11/2017 05:40      45.1      44.9       67     34.8      0.00     18.24      67.0     0.38      1015.0     2       136         2       143        8.90     276      -61.8
   04/11/2017 05:30      45.3      45.0       66     34.5      0.00     18.24      67.0     0.38      1015.0     2       137         2       141        8.90     276      -61.5
   04/11/2017 05:20      46.0      45.4       63     34.1      0.00     18.24      67.0     0.38      1015.0     1       146         2       133        8.90     275      -61.1
   04/11/2017 05:10      46.6      46.1       62     33.9      0.00     18.24      66.9     0.38      1015.0     1       229         1       238        8.90     274      -61.5
   04/11/2017 05:00      46.0      45.6       64     34.4      0.00     18.24      67.2     0.38      1015.0     1       272         1       257        8.90     274      -62.0
   04/11/2017 04:50      46.3      46.0       63     34.0      0.00     18.24      67.1     0.38      1015.0     1       106         1       104        8.90     274      -61.7
   04/11/2017 04:40      46.8      46.2       63     34.5      0.00     18.24      67.4     0.38      1015.0     1       116         2       120        8.90     273      -61.5
   04/11/2017 04:30      47.4      47.2       60     34.0      0.00     18.24      67.5     0.38      1015.0     1       166         1       232        8.90     272      -59.8
   04/11/2017 04:20      47.9      47.3       59     34.0      0.00     18.24      67.5     0.38      1015.0     1       161         2       146        8.90     272      -59.9
   04/11/2017 04:10      47.7      46.8       60     34.0      0.00     18.24      67.3     0.38      1015.0     1       160         1       140        8.90     272      -59.7
   04/11/2017 04:00      47.4      46.9       61     34.6      0.00     18.24      67.4     0.38      1015.0     2       142         2       149        8.90     272      -60.7
   04/11/2017 03:50      48.0      47.6       60     34.6      0.00     18.24      67.5     0.38      1015.0     1       124         2       150        8.90     272      -61.2
   04/11/2017 03:40      48.3      47.9       56     33.3      0.00     18.24      67.7     0.38      1015.0     1       174         2       126        8.90     272      -59.8
   04/11/2017 03:30      48.1      47.9       57     33.4      0.00     18.24      67.5     0.38      1015.0     1       188         1       150        8.90     272      -57.6
   04/11/2017 03:20      48.4      48.2       56     33.3      0.00     18.24      67.5     0.38      1015.0     1       176         1       202        8.90     272      -55.7
   04/11/2017 03:10      48.5      47.9       57     33.5      0.00     18.24      67.6     0.38      1015.0     1       170         1       184        8.90     272      -55.0
   04/11/2017 03:00      48.8      48.2       56     33.6      0.00     18.24      67.6     0.38      1015.0     1        52         1       108        8.90     272      -55.2
   04/11/2017 02:50      48.8      48.0       55     33.2      0.00     18.24      67.5     0.38      1015.0     1       252         1       251        8.90     271      -54.4
   04/11/2017 02:40      48.5      48.0       58     34.0      0.00     18.24      67.6     0.38      1015.0     1       155         2       137        8.90     271      -54.8
   04/11/2017 02:30      48.7      48.0       55     33.0      0.00     18.24      67.4     0.38      1015.0     1       176         1       139        8.90     271      -55.4
   04/11/2017 02:20      48.4      47.8       57     33.5      0.00     18.24      67.6     0.38      1015.0     2       147         3       145        8.90     271      -60.8
   04/11/2017 02:10      48.8      48.3       55     33.1      0.00     18.24      67.8     0.38      1015.0     1       147         2       132        8.90     271      -62.7
   04/11/2017 02:00      48.8      48.5       55     33.0      0.00     18.24      67.7     0.38      1016.0     1       171         1       142        8.90     270      -63.9
   04/11/2017 01:50      49.0      48.2       55     33.1      0.00     18.24      67.8     0.38      1016.0     1       170         2       137        8.90     270      -64.5
   04/11/2017 01:40      49.5      49.1       53     33.0      0.00     18.24      68.0     0.38      1016.0     2       140         2       135        8.90     270      -64.9
   04/11/2017 01:30      50.4      49.8       49     31.7      0.00     18.24      67.9     0.38      1016.0     1       160         2       133        8.90     270      -64.4
   04/11/2017 01:20      50.8      50.2       50     32.5      0.00     18.24      67.9     0.38      1016.0     1       132         1       140        8.90     270      -64.7
   04/11/2017 01:10      51.4      50.8       47     31.7      0.00     18.24      68.0     0.38      1016.0     1       138         1       122        8.90     270      -65.3
   04/11/2017 01:00      51.3      51.0       48     32.0      0.00     18.24      67.6     0.38      1016.0     1       171         1       143        8.90     270      -64.8
   04/11/2017 00:50      51.4      51.2       47     31.9      0.00     18.24      67.8     0.38      1016.0     1       141         2       152        8.90     270      -65.1
   04/11/2017 00:40      51.6      51.2       47     31.8      0.00     18.24      67.9     0.38      1016.0     1       166         2       140        8.90     270      -64.9
   04/11/2017 00:30      52.0      51.7       44     30.9      0.00     18.24      68.0     0.38      1016.0     1       188         2       217        8.90     270      -65.4
   04/11/2017 00:20      51.7      50.5       47     31.6      0.00     18.24      68.0     0.38      1016.0     1       231         1       210        8.90     270      -66.2
   04/11/2017 00:10      51.7      50.6       47     32.0      0.00     18.24      68.0     0.38      1016.0     2       156         3       181        8.90     270      -67.3
   04/11/2017 00:00      52.9      51.9       46     31.9      0.00     18.24      68.0     0.38      1016.0     2       148         3       143        8.90     270      -67.4
   04/10/2017 23:50      53.4      52.7       43     30.9      0.00     18.24      67.9     0.38      1016.0     1       169         2       184        8.90     269      -67.8
   04/10/2017 23:40      53.5      53.0       41     30.1      0.00     18.24      67.9     0.38      1016.0     1       180         2       144        8.90     270      -67.9
   04/10/2017 23:30      54.0      53.6       39     29.5      0.00     18.24      68.0     0.38      1016.0     1       159         2       142        8.90     269      -68.0
   04/10/2017 23:20      54.7      53.9       40     30.3      0.00     18.24      68.1     0.38      1016.0     1       106         1       122        8.90     269      -69.1
   04/10/2017 23:10      55.4      54.6       37     29.5      0.00     18.24      68.1     0.38      1016.0     1       205         2       198        8.90     269      -67.9
   04/10/2017 23:00      54.9      54.3       39     30.0      0.00     18.24      68.0     0.38      1016.0     1       152         1       155        8.90     268      -69.1
   04/10/2017 22:50      54.9      54.3       40     30.8      0.00     18.24      67.9     0.38      1016.0     1        28         1        70        8.90     268      -69.7
   04/10/2017 22:40      56.1      55.1       38     30.5      0.00     18.24      67.9     0.38      1016.0     1       124         2       135        8.90     268      -69.8
   04/10/2017 22:30      55.7      55.3       39     31.1      0.00     18.24      68.1     0.38      1016.0     1       122         1        10        8.90     268      -70.1
   04/10/2017 22:20      56.6      55.8       38     31.0      0.00     18.24      68.1     0.38      1016.0     1        84         1       140        8.90     268      -71.4
   04/10/2017 22:10      56.9      56.6       37     30.6      0.00     18.24      67.9     0.38      1016.0     1       249         1       208        8.90     268      -71.4
   04/10/2017 22:00      57.9      57.0       36     30.9      0.00     18.24      68.0     0.38      1016.0     0         0         1       291        8.90     268      -72.0
   04/10/2017 21:50      59.3      58.2       34     30.7      0.00     18.24      67.9     0.38      1016.0     1        84         2       195        8.90     268      -73.3
   04/10/2017 21:40      59.5      59.2       33     30.1      0.00     18.24      68.0     0.38      1016.0     2       172         3       192        8.90     267      -73.4
   04/10/2017 21:30      60.1      59.6       31     29.4      0.00     18.24      68.0     0.38      1015.0     2       183         3       209        8.90     267      -74.4
   04/10/2017 21:20      60.8      60.4       30     29.1      0.00     18.24      67.9     0.38      1015.0     3       194         3       200        8.90     267      -75.1
   04/10/2017 21:10      60.5      60.0       32     30.0      0.00     18.24      68.0     0.38      1015.0     3       198         4       203        8.90     267      -75.7
   04/10/2017 21:00      60.8      60.4       32     30.4      0.00     18.24      68.0     0.38      1015.0     3       185         4       183        8.91     267      -76.3
   04/10/2017 20:50      61.0      60.6       33     31.3      0.00     18.24      67.9     0.38      1015.0     1       195         2       183        8.91     267      -76.8
   04/10/2017 20:40      62.1      61.4       32     31.4      0.00     18.24      67.8     0.38      1015.0     2       172         2       193        8.91     267      -78.1
   04/10/2017 20:30      63.0      62.3       28     29.4      0.00     18.24      67.9     0.38      1015.0     2       209         3       188        8.91     267      -79.3
   04/10/2017 20:20      63.5      63.3       27     28.5      0.00     18.24      68.0     0.38      1015.0     2       202         3       214        8.91     267      -81.3
   04/10/2017 20:10      63.8      63.3       27     28.6      0.00     18.24      67.9     0.38      1015.0     2       201         3       199        8.91     267      -83.1
   04/10/2017 20:00      64.7      64.1       26     28.4      0.00     18.24      67.7     0.38      1015.0     2       221         3       253        8.91     266      -85.9
   04/10/2017 19:50      65.2      64.8       26     29.2      0.00     18.24      67.9     0.38      1015.0     3       226         4       228        8.91     267      -87.3
   04/10/2017 19:40      65.6      65.0       26     29.5      0.00     18.24      67.9     0.38      1015.0     2       236         3       225        8.91     266      -89.2
   04/10/2017 19:30      67.0      65.9       25     29.7      0.00     18.24      67.7     0.38      1015.0     2       259         4       285        8.91     267      -90.8
   04/10/2017 19:20      68.5      67.4       24     29.8      0.00     18.24      67.7     0.38      1015.0     2       274         3       304        8.91     266      -91.4
   04/10/2017 19:10      69.3      68.6       23     29.6      0.00     18.24      67.6     0.38      1015.0     2       295         3       243        8.91     266      -87.1
   04/10/2017 19:00      70.2      69.3       22     28.9      0.00     18.24      67.7     0.38      1015.0     3       313         5       308        8.91     266      -76.6
   04/10/2017 18:50      70.8      70.2       21     28.5      0.00     18.24      67.6     0.38      1015.0     3       291         6       319        8.91     265      -61.4
   04/10/2017 18:40      71.8      70.9       20     28.5      0.00     18.24      67.6     0.38      1015.0     4       285         5       285        8.91     266      -42.5
   04/10/2017 18:30      72.3      71.7       19     27.4      0.00     18.24      67.5     0.38      1015.0     5       304         7       279        8.91     265      -20.6
   04/10/2017 18:20      72.5      71.8       18     26.8      0.00     18.24      67.4     0.38      1015.0     4       292         6       304        8.91     266        4.4
   04/10/2017 18:10      72.9      72.4       19     28.5      0.00     18.24      67.2     0.38      1015.0     5       288         7       275        8.92     265       30.6
   04/10/2017 18:00      73.3      72.9       20     30.1      0.00     18.24      67.3     0.38      1015.0     5       287         9       275        8.92     265       57.4
   04/10/2017 17:50      74.3      73.7       20     30.6      0.00     18.24      67.2     0.38      1014.0     6       270         9       264        8.92     265       84.9
   04/10/2017 17:40      74.5      74.2       20     30.6      0.00     18.24      67.1     0.38      1014.0     4       253         8       267        8.92     265      112.2
   04/10/2017 17:30      74.9      74.5       21     31.9      0.00     18.24      67.1     0.38      1014.0     5       251         8       260        8.92     265      139.3
   04/10/2017 17:20      75.5      74.8       21     32.5      0.00     18.24      67.1     0.38      1014.0     5       253         8       244        8.92     265      165.2
   04/10/2017 17:10      75.1      74.6       23     34.9      0.00     18.24      67.0     0.38      1014.0     6       242         9       225        8.92     266      192.1
   04/10/2017 17:00      75.6      74.9       24     35.9      0.00     18.24      66.8     0.38      1014.0     6       226         9       239        8.92     266      217.5
   04/10/2017 16:50      76.1      75.4       24     36.7      0.00     18.24      66.8     0.38      1014.0     5       220         8       202        8.92     265      240.0
   04/10/2017 16:40      76.9      76.0       24     36.6      0.00     18.24      66.7     0.38      1014.0     5       232         6       230        8.92     266      262.7
   04/10/2017 16:30      77.3      76.4       23     36.4      0.00     18.24      66.5     0.38      1014.0     6       253        10       247        8.92     266      284.0
   04/10/2017 16:20      78.0      77.3       23     36.6      0.00     18.24      66.7     0.38      1014.0     3       194         9       244        8.92     266      304.3
   04/10/2017 16:10      77.3      76.2       23     36.4      0.00     18.24      66.5     0.38      1014.0     4       237         9       215        8.92     266      327.2
   04/10/2017 16:00      77.3      76.6       22     35.3      0.00     18.24      66.5     0.38      1014.0     4       237         8       219        8.92     266      347.5
   04/10/2017 15:50      77.1      76.8       22     35.1      0.00     18.24      66.3     0.38      1014.0     6       180        11       145        8.92     266      368.5
   04/10/2017 15:40      77.9      77.1       21     34.6      0.00     18.24      66.3     0.38      1014.0     5       174         8       188        8.92     266      387.7
   04/10/2017 15:30      77.6      76.9       21     34.4      0.00     18.24      66.2     0.38      1014.0     5       177         7       201        8.92     266      406.7
   04/10/2017 15:20      78.0      77.3       20     33.8      0.00     18.24      66.1     0.38      1014.0     6       178         8       159        8.92     266      423.7
   04/10/2017 15:10      80.5      78.0       17     31.0      0.00     18.24      66.0     0.38      1015.0     6       146         9       115        8.92     268      431.8
   04/10/2017 15:00      81.5      79.6       11     20.4      0.00     18.24      65.9     0.38      1015.0     3        42         6       167        8.92     268      439.8
   04/10/2017 14:50      80.6      79.8       10     19.3      0.00     18.24      65.9     0.38      1015.0     4       340         8       355        8.92     268      455.2
   04/10/2017 14:40      79.9      78.8       10     18.6      0.00     18.24      65.9     0.37      1015.0     3       342         4         7        8.92     267      469.0
   04/10/2017 14:30      80.1      79.0       10     19.2      0.00     18.24      66.0     0.38      1015.0     5       300         6       275        8.92     267      482.6
   04/10/2017 14:20      80.8      80.4       10     19.7      0.00     18.24      65.7     0.37      1015.0     3       351         4        59        8.92     267      495.7
   04/10/2017 14:10      81.0      78.6       11     20.8      0.00     18.24      65.7     0.37      1015.0     3        52         6        74        8.92     267      508.3
   04/10/2017 14:00      78.9      77.9       12     21.9      0.00     18.24      65.7     0.37      1015.0     3       144         7        76        8.92     268      519.3
   04/10/2017 13:50      79.3      78.1       13     23.7      0.00     18.24      65.5     0.37      1016.0     3       231         4       219        8.92     268      527.9
   04/10/2017 13:40      77.8      76.4       12     20.8      0.00     18.24      65.4     0.37      1016.0     4       158         6       139        8.92     268      538.3
   04/10/2017 13:30      78.4      77.3       13     23.3      0.00     18.24      65.6     0.37      1016.0     4       121         6       138        8.92     267      543.4
   04/10/2017 13:20      78.5      77.6       13     22.6      0.00     18.24      65.5     0.37      1016.0     4       122         7       232        8.92     268      547.6
   04/10/2017 13:10      78.5      78.3       12     22.0      0.00     18.24      65.3     0.37      1016.0     4        60         6        73        8.92     269      547.6
   04/10/2017 13:00      78.4      77.5       12     21.8      0.00     18.24      65.6     0.37      1016.0     2       342         4        64        8.92     269      549.7
   04/10/2017 12:50      77.9      75.5       14     24.3      0.00     18.24      65.3     0.37      1016.0     3       123         4       145        8.92     269      553.1
   04/10/2017 12:40      76.9      76.1       14     22.8      0.00     18.24      65.4     0.37      1016.0     2       150         5       135        8.92     269      556.5
   04/10/2017 12:30      76.3      75.1       13     20.8      0.00     18.24      65.2     0.37      1017.0     2       301         3       259        8.92     270      529.2
   04/10/2017 12:20      76.3      75.4       13     21.3      0.00     18.24      65.4     0.37      1017.0     4        10         7         5        8.92     270      546.6
   04/10/2017 12:10      76.2      74.0       13     21.3      0.00     18.24      65.5     0.37      1017.0     3        56         5        88        8.92     269      542.5
   04/10/2017 12:00      74.7      73.7       13     20.8      0.00     18.24      65.3     0.37      1017.0     4       288         5        76        8.92     270      543.6
   04/10/2017 11:50      74.8      73.2       14     21.0      0.00     18.24      65.3     0.37      1017.0     2        62         4        46        8.92     270      525.0
   04/10/2017 11:40      72.9      72.0       15     22.5      0.00     18.24      65.2     0.37      1017.0     2       286         3       279        8.92     269      527.0
   04/10/2017 11:30      72.7      71.6       16     23.1      0.00     18.24      65.4     0.38      1017.0     4       314         5       319        8.92     270      515.3
   04/10/2017 11:20      71.3      71.0       16     22.5      0.00     18.24      65.4     0.38      1017.0     2       351         6       359        8.92     270      506.2
   04/10/2017 11:10      71.4      70.6       16     22.5      0.00     18.24      65.5     0.38      1018.0     3        24         6       355        8.92     270      484.9
   04/10/2017 11:00      70.9      70.4       17     24.0      0.00     18.24      65.3     0.38      1018.0     3       307         5       307        8.92     270      488.0
   04/10/2017 10:50      70.9      69.7       18     24.6      0.00     18.24      65.5     0.38      1018.0     2       358         4       348        8.92     271      458.4
   04/10/2017 10:40      69.7      69.2       19     25.6      0.00     18.24      65.4     0.38      1018.0     2       140         4       122        8.92     270      436.3
   04/10/2017 10:30      69.2      67.6       21     26.3      0.00     18.24      65.4     0.38      1018.0     3       108         5       134        8.92     271      434.6
   04/10/2017 10:20      67.8      66.8       22     27.6      0.00     18.24      65.6     0.38      1018.0     3       101         4        99        8.92     271      396.9
   04/10/2017 10:10      67.5      66.3       23     28.2      0.00     18.24      65.7     0.38      1018.0     3       107         4        55        8.92     271      376.6
   04/10/2017 10:00      66.9      66.5       23     27.4      0.00     18.24      65.7     0.38      1018.0     3        57         4         8        8.92     272      355.9
   04/10/2017 09:50      67.6      66.3       23     28.3      0.00     18.24      65.7     0.38      1018.0     2        77         5       106        8.92     272      382.1
   04/10/2017 09:40      66.5      65.8       24     28.4      0.00     18.24      65.9     0.38      1018.0     2        88         5        63        8.93     274      356.3
   04/10/2017 09:30      66.2      64.9       25     28.4      0.00     18.24      65.7     0.38      1018.0     2        69         4        69        8.92     277      338.1
   04/10/2017 09:20      64.9      63.5       26     28.5      0.00     18.24      66.0     0.38      1018.0     2        62         3        45        8.93     281      315.2
   04/10/2017 09:10      63.9      63.0       28     29.6      0.00     18.24      65.8     0.38      1018.0     2        49         4        99        8.93     281      294.2
   04/10/2017 09:00      62.8      61.6       32     32.0      0.00     18.24      65.9     0.38      1018.0     2       102         3        89        8.93     284      271.3
   04/10/2017 08:50      61.4      59.5       40     36.2      0.00     18.24      65.9     0.38      1018.0     1       121         3       117        8.93     286      247.9
   04/10/2017 08:40      60.1      58.4       40     35.3      0.00     18.24      66.1     0.38      1018.0     1       359         3        52        8.93     288      223.4
   04/10/2017 08:30      58.1      55.6       46     36.1      0.00     18.24      66.0     0.38      1018.0     1       230         2       214        8.93     290      198.1
   04/10/2017 08:20      55.5      53.9       51     36.6      0.00     18.24      66.1     0.38      1018.0     1       255         2         0        8.93     293      172.6
   04/10/2017 08:10      53.8      52.8       54     37.0      0.00     18.24      66.1     0.38      1018.0     2       324         3       335        8.93     294      146.2
   04/10/2017 08:00      52.7      50.4       59     37.3      0.00     18.24      66.0     0.38      1018.0     2        20         2         6        8.93     295      119.7
   04/10/2017 07:50      50.5      47.8       62     36.8      0.00     18.24      66.2     0.38      1018.0     1       119         1       106        8.93     297       88.9
   04/10/2017 07:40      47.8      46.3       65     35.9      0.00     18.24      66.1     0.38      1018.0     1       158         2       176        8.93     297       44.2
   04/10/2017 07:30      46.1      43.1       69     35.1      0.00     18.24      66.1     0.38      1018.0     1       159         2       189        8.94     296       -2.1
   04/10/2017 07:20      43.0      42.2       74     34.7      0.00     18.24      66.3     0.38      1018.0     1       117         2       138        8.93     295      -42.0
   04/10/2017 07:10      42.2      41.7       74     34.2      0.00     18.24      66.6     0.38      1018.0     1       156         2       142        8.93     295      -45.4
   04/10/2017 07:00      41.8      41.3       74     34.0      0.00     18.24      66.3     0.38      1017.0     1       187         2       195        8.94     294      -51.0
   04/10/2017 06:50      41.6      41.1       75     34.0      0.00     18.24      66.3     0.38      1017.0     2       309         3       140        8.94     293      -57.4
   04/10/2017 06:40      41.6      41.0       75     33.9      0.00     18.24      66.4     0.38      1017.0     1       122         3       105        8.94     292      -62.7
   04/10/2017 06:30      41.6      40.6       76     33.8      0.00     18.24      66.7     0.38      1017.0     2       157         4       166        8.94     290      -65.2
   04/10/2017 06:20      41.6      40.8       74     33.5      0.00     18.24      66.7     0.38      1017.0     1       147         2       115        8.94     289      -66.7
   04/10/2017 06:10      41.9      41.4       72     33.3      0.00     18.24      66.5     0.38      1017.0     1       232         1       251        8.94     288      -66.7
   04/10/2017 06:00      41.9      41.2       73     33.6      0.00     18.24      66.6     0.38      1017.0     1       167         2       131        8.94     287      -67.3
   04/10/2017 05:50      42.0      41.6       73     34.0      0.00     18.24      66.2     0.38      1017.0     1       296         1       298        8.94     285      -67.9
   04/10/2017 05:40      42.2      42.1       72     34.0      0.00     18.24      66.9     0.38      1017.0     1       103         2       179        8.94     284      -67.4
   04/10/2017 05:30      42.4      42.0       73     34.2      0.00     18.24      66.5     0.38      1017.0     1       120         2       135        8.94     283      -66.6
   04/10/2017 05:20      42.2      41.6       74     34.5      0.00     18.24      66.8     0.38      1017.0     1       221         2       144        8.94     282      -66.5
   04/10/2017 05:10      42.7      41.7       74     34.5      0.00     18.24      66.8     0.38      1017.0     2       150         3       143        8.94     281      -67.0
   04/10/2017 05:00      43.2      42.2       72     34.0      0.00     18.24      66.9     0.38      1017.0     1       104         1        63        8.94     281      -68.0
   04/10/2017 04:50      43.7      43.4       69     34.0      0.00     18.24      66.9     0.38      1017.0     1         9         2       353        8.94     281      -68.1
   04/10/2017 04:40      43.5      42.2       71     33.9      0.00     18.24      66.7     0.38      1017.0     1       244         2       134        8.94     281      -66.9
   04/10/2017 04:30      43.1      42.2       73     34.5      0.00     18.24      66.9     0.38      1017.0     2       141         3       135        8.94     280      -67.8
   04/10/2017 04:20      43.9      43.3       69     34.0      0.00     18.24      67.1     0.38      1017.0     1       158         2       142        8.94     279      -67.4
   04/10/2017 04:10      44.0      43.6       67     33.7      0.00     18.24      66.7     0.38      1017.0     0       232         1        25        8.94     279      -67.8
   04/10/2017 04:00      44.0      43.5       69     34.2      0.00     18.24      66.9     0.38      1017.0     1       213         2       221        8.94     278      -68.2
   04/10/2017 03:50      44.3      43.8       69     34.5      0.00     18.24      67.2     0.38      1017.0     2       176         2       240        8.94     277      -68.5
   04/10/2017 03:40      44.6      44.0       70     35.1      0.00     18.24      66.8     0.39      1017.0     1       159         2        73        8.94     277      -68.9
   04/10/2017 03:30      44.9      44.5       67     34.5      0.00     18.24      67.1     0.38      1016.0     1       189         2        81        8.94     276      -68.4
   04/10/2017 03:20      44.8      44.5       69     35.0      0.00     18.24      67.2     0.38      1017.0     1       137         2       177        8.94     275      -69.1
   04/10/2017 03:10      45.1      44.8       69     35.3      0.00     18.24      66.8     0.38      1017.0     1         5         1       322        8.94     274      -69.8
   04/10/2017 03:00      45.3      44.9       68     35.3      0.00     18.24      67.3     0.38      1017.0     1       137         2       138        8.94     274      -69.2
   04/10/2017 02:50      46.4      45.4       66     35.3      0.00     18.24      67.2     0.38      1017.0     1       112         2       138        8.94     274      -70.4
   04/10/2017 02:40      46.5      46.0       66     35.3      0.00     18.24      67.6     0.38      1017.0     1       349         2         6        8.94     274      -69.7
   04/10/2017 02:30      46.3      45.4       67     35.5      0.00     18.24      67.2     0.38      1017.0     2       156         3       178        8.94     273      -68.5
   04/10/2017 02:20      46.3      46.0       67     35.9      0.00     18.24      67.5     0.39      1017.0     1       182         2       187        8.94     272      -69.3
   04/10/2017 02:10      46.8      46.2       67     36.1      0.00     18.24      67.2     0.38      1017.0     1        96         2       102        8.94     272      -70.5
   04/10/2017 02:00      47.1      46.8       66     36.2      0.00     18.24      67.7     0.39      1017.0     1       278         2       252        8.94     272      -69.6
   04/10/2017 01:50      47.0      46.4       68     36.5      0.00     18.24      67.3     0.39      1017.0     2       165         3       133        8.94     272      -70.1
   04/10/2017 01:40      47.2      46.5       67     36.5      0.00     18.24      67.6     0.38      1017.0     1       111         3       168        8.94     272      -69.7
   04/10/2017 01:30      47.5      47.2       66     36.5      0.00     18.24      67.5     0.38      1017.0     1       138         2       163        8.94     271      -68.3
   04/10/2017 01:20      47.7      47.3       64     36.0      0.00     18.24      67.7     0.38      1017.0     1       175         2       160        8.94     271      -68.5
   04/10/2017 01:10      47.4      46.9       67     36.7      0.00     18.24      67.2     0.39      1017.0     1       193         2       160        8.94     271      -68.3
   04/10/2017 01:00      47.9      47.6       65     36.5      0.00     18.24      67.4     0.39      1017.0     2       156         2       138        8.94     271      -68.7
   04/10/2017 00:50      48.3      48.0       62     35.9      0.00     18.24      67.7     0.39      1017.0     1       152         1       143        8.94     270      -69.7
   04/10/2017 00:40      48.3      47.5       63     36.1      0.00     18.24      67.6     0.39      1018.0     1       171         1       176        8.94     270      -70.0
   04/10/2017 00:30      48.7      47.6       63     35.9      0.00     18.24      67.4     0.39      1018.0     2       172         3       172        8.94     270      -70.6
   04/10/2017 00:20      49.9      49.0       58     35.3      0.00     18.24      67.6     0.39      1018.0     1       167         2       136        8.94     270      -70.5
   04/10/2017 00:10      49.9      49.2       58     35.1      0.00     18.24      67.7     0.39      1018.0     1       178         1       133        8.94     270      -70.3
   04/10/2017 00:00      49.9      49.3       58     35.3      0.00     18.24      67.6     0.39      1018.0     1        68         2        37        8.94     270      -71.6
   04/09/2017 23:50      50.7      50.1       56     35.1      0.00     18.24      67.5     0.39      1018.0     2       119         2       139        8.94     270      -71.8
   04/09/2017 23:40      50.8      50.6       53     34.3      0.00     18.24      67.8     0.39      1017.0     2       172         2       192        8.95     270      -70.9
   04/09/2017 23:30      51.0      50.5       53     34.1      0.00     18.24      67.6     0.39      1017.0     1       254         2       229        8.95     270      -71.0
   04/09/2017 23:20      50.9      50.1       53     34.0      0.00     18.24      67.5     0.39      1017.0     1        91         3       130        8.95     270      -71.7
   04/09/2017 23:10      51.3      50.7       51     33.4      0.00     18.24      67.8     0.39      1017.0     1        36         2       130        8.95     270      -72.2
   04/09/2017 23:00      51.7      51.4       49     33.0      0.00     18.24      67.9     0.39      1017.0     1        12         1        14        8.95     269      -72.6
   04/09/2017 22:50      52.8      51.8       48     33.0      0.00     18.24      67.7     0.39      1017.0     1        55         2       116        8.95     269      -73.9
   04/09/2017 22:40      53.9      53.4       44     32.3      0.00     18.24      67.9     0.39      1017.0     2       217         2       258        8.95     269      -73.9
   04/09/2017 22:30      53.5      53.0       45     32.2      0.00     18.24      67.7     0.39      1017.0     1       284         2       278        8.95     269      -76.1
   04/09/2017 22:20      54.6      53.4       43     31.9      0.00     18.24      67.7     0.39      1017.0     1        53         2        55        8.95     268      -77.5
   04/09/2017 22:10      55.7      54.9       40     31.3      0.00     18.24      67.6     0.38      1017.0     1       135         3       224        8.95     268      -79.2
   04/09/2017 22:00      55.8      55.4       39     31.0      0.00     18.24      67.8     0.39      1017.0     2       224         5       210        8.95     268      -79.0
   04/09/2017 21:50      55.9      55.2       38     30.6      0.00     18.24      67.8     0.38      1018.0     2       220         3       278        8.95     268      -79.8
   04/09/2017 21:40      56.8      56.0       36     29.7      0.00     18.24      67.7     0.39      1018.0     1       173         2       194        8.95     268      -81.3
   04/09/2017 21:30      57.2      56.9       35     29.3      0.00     18.24      67.7     0.39      1018.0     3       237         4       226        8.95     268      -81.9
   04/09/2017 21:20      57.1      56.9       34     28.7      0.00     18.24      67.7     0.38      1018.0     3       212         5       227        8.96     267      -82.3
   04/09/2017 21:10      57.4      57.0       33     28.7      0.00     18.24      67.7     0.39      1018.0     3       195         4       200        8.95     267      -82.4
   04/09/2017 21:00      57.7      57.5       32     28.2      0.00     18.24      67.7     0.39      1017.0     2       215         4       223        8.96     267      -81.5
   04/09/2017 20:50      58.5      57.7       31     27.9      0.00     18.24      67.7     0.39      1017.0     3       227         5       223        8.96     267      -78.3
   04/09/2017 20:40      58.8      58.4       30     27.3      0.00     18.24      67.7     0.39      1017.0     4       243         6       236        8.96     267      -79.2
   04/09/2017 20:30      58.6      58.2       31     27.8      0.00     18.24      67.8     0.38      1017.0     4       242         5       246        8.96     267      -76.8
   04/09/2017 20:20      58.9      58.4       31     28.4      0.00     18.24      67.8     0.39      1017.0     4       222         6       236        8.96     267      -71.0
   04/09/2017 20:10      59.2      59.0       31     28.6      0.00     18.24      67.6     0.39      1017.0     5       234         8       246        8.96     267      -74.4
   04/09/2017 20:00      59.3      58.9       32     29.1      0.00     18.24      67.6     0.39      1017.0     4       232         6       237        8.96     267      -76.1
   04/09/2017 19:50      59.7      59.3       32     29.4      0.00     18.24      67.6     0.38      1017.0     4       215         8       223        8.96     267      -73.9
   04/09/2017 19:40      60.4      59.9       31     29.5      0.00     18.24      67.6     0.38      1017.0     5       239         7       234        8.96     267      -84.7
   04/09/2017 19:30      60.5      60.2       31     29.5      0.00     18.24      67.8     0.38      1017.0     7       227        10       207        8.97     266      -85.5
   04/09/2017 19:20      61.4      60.5       30     29.4      0.00     18.24      67.3     0.38      1016.0     7       201        10       201        8.97     266      -82.9
   04/09/2017 19:10      63.1      61.6       28     28.8      0.00     18.24      67.3     0.38      1016.0     5       219         6       229        8.97     267      -82.9
   04/09/2017 19:00      63.9      63.2       27     28.7      0.00     18.24      67.5     0.38      1016.0     4       226         6       199        8.97     266      -84.9
   04/09/2017 18:50      65.3      64.0       27     29.5      0.00     18.24      67.5     0.38      1016.0     5       232         8       241        8.97     267      -77.4
   04/09/2017 18:40      66.6      65.4       26     30.4      0.00     18.24      67.5     0.38      1016.0     4       208         6       189        8.98     267      -53.9
   04/09/2017 18:30      67.6      66.5       25     29.8      0.00     18.24      67.4     0.38      1015.0     6       240         9       244        8.98     266      -16.6
   04/09/2017 18:20      68.2      67.7       25     30.6      0.00     18.24      67.2     0.38      1015.0     5       239         7       231        8.98     266        6.8
   04/09/2017 18:10      68.9      68.6       24     31.0      0.00     18.24      67.2     0.38      1015.0     5       251         7       234        8.98     266       31.8
   04/09/2017 18:00      70.5      69.2       23     31.1      0.00     18.24      67.4     0.38      1015.0     5       247         7       233        8.98     266       57.0
   04/09/2017 17:50      71.1      70.4       23     30.6      0.00     18.24      67.3     0.38      1015.0     5       282         8       250        8.98     266       83.6
   04/09/2017 17:40      71.5      70.6       22     30.0      0.00     18.24      67.3     0.38      1015.0     6       298        10       303        8.98     266      110.8
   04/09/2017 17:30      71.6      71.1       22     30.2      0.00     18.24      67.1     0.38      1015.0     5       292         7       310        8.98     266      138.5
   04/09/2017 17:20      71.8      71.0       22     30.4      0.00     18.24      67.2     0.38      1015.0     6       295         8       282        8.98     266      165.3
   04/09/2017 17:10      72.3      71.8       20     29.4      0.00     18.24      67.1     0.38      1015.0     7       269        10       223        8.98     266      190.3
   04/09/2017 17:00      72.5      72.3       20     28.6      0.00     18.24      67.0     0.38      1015.0     6       255         8       276        8.98     267      215.2
   04/09/2017 16:50      73.2      72.7       19     27.8      0.00     18.24      67.0     0.38      1015.0     7       274        10       255        8.99     266      238.7
   04/09/2017 16:40      75.1      74.0       15     22.5      0.00     18.24      67.1     0.38      1015.0     6       298        12       305        8.99     266      257.8
   04/09/2017 16:30      75.2      74.3       12     18.6      0.00     18.24      66.9     0.38      1015.0     4         2         6       355        8.99     266      279.2
   04/09/2017 16:20      74.9      74.2       13     20.0      0.00     18.24      66.9     0.38      1015.0     4       339         7       329        8.99     267      303.0
   04/09/2017 16:10      74.6      73.9       13     19.4      0.00     18.24      66.8     0.38      1015.0     4       315         6       331        8.99     267      325.0
   04/09/2017 16:00      74.3      73.7       13     20.1      0.00     18.24      66.7     0.38      1015.0     5       310        10       314        8.99     267      348.6
   04/09/2017 15:50      73.7      73.1       13     19.1      0.00     18.24      66.7     0.38      1016.0     5       332         9       318        8.99     267      368.0
   04/09/2017 15:40      74.1      73.2       13     19.5      0.00     18.24      66.7     0.38      1016.0     7       299        12       298        8.99     267      390.5
   04/09/2017 15:30      74.3      73.3       13     20.6      0.00     18.24      66.7     0.38      1016.0     5       317        10         6        8.99     268      403.7
   04/09/2017 15:20      74.1      73.3       13     19.4      0.00     18.24      66.6     0.38      1016.0     5       316        11       324        8.99     268      422.8
   04/09/2017 15:10      74.5      73.8       13     20.6      0.00     18.24      66.5     0.38      1016.0     5       330         9       357        8.99     268      438.0
   04/09/2017 15:00      74.1      73.4       13     20.3      0.00     18.24      66.7     0.38      1016.0     5       332         8         1        8.99     268      453.3
   04/09/2017 14:50      73.5      72.4       13     20.1      0.00     18.24      66.7     0.38      1016.0     4       330         6         8        8.99     268      469.8
   04/09/2017 14:40      73.6      72.5       14     21.1      0.00     18.24      66.3     0.38      1016.0     6       323         9       336        8.99     268      485.9
   04/09/2017 14:30      72.6      72.0       15     21.7      0.00     18.24      66.3     0.38      1017.0     5       304         8       353        8.99     268      501.3
   04/09/2017 14:20      72.6      71.7       15     21.2      0.00     18.24      66.2     0.38      1017.0     7       300        12       318        8.99     268      510.9
   04/09/2017 14:10      72.7      71.5       15     22.7      0.00     18.24      66.2     0.38      1017.0     6       335        12       343        8.99     268      519.6
   04/09/2017 14:00      71.8      71.2       16     22.8      0.00     18.24      66.2     0.38      1017.0     5       342         7       290        8.99     268      526.6
   04/09/2017 13:50      72.0      70.8       16     23.2      0.00     18.24      66.3     0.38      1017.0     5       357         8       320        8.99     269      535.6
   04/09/2017 13:40      71.4      69.8       17     23.5      0.00     18.24      66.3     0.38      1017.0     5       359         9       311        8.99     268      544.4
   04/09/2017 13:30      69.9      69.1       17     22.6      0.00     18.24      66.2     0.38      1017.0     6       322        10       318        8.99     269      553.1
   04/09/2017 13:20      70.4      69.7       17     23.2      0.00     18.24      66.2     0.38      1017.0     7       331        11       331        8.99     269      557.8
   04/09/2017 13:10      70.3      69.1       18     23.6      0.00     18.24      66.2     0.38      1017.0     6       348         8         3        8.99     270      556.1
   04/09/2017 13:00      70.1      69.3       18     23.9      0.00     18.24      66.2     0.38      1018.0     5       354         8       347        8.99     270      534.0
   04/09/2017 12:50      69.5      68.8       18     23.5      0.00     18.24      66.2     0.38      1018.0     6       357         9       327        8.99     270      598.5
   04/09/2017 12:40      69.7      68.1       18     24.1      0.00     18.24      66.1     0.38      1018.0     6       360        10       353        8.99     271      594.0
   04/09/2017 12:30      68.1      67.0       18     22.7      0.00     18.24      66.2     0.38      1018.0     8       342        12       316        8.99     271      530.6
   04/09/2017 12:20      67.6      66.8       18     22.9      0.00     18.24      66.6     0.38      1018.0     7       359        10         6        8.99     271      551.5
   04/09/2017 12:10      67.0      66.5       19     23.2      0.00     18.24      66.3     0.38      1018.0     8       360        12       350        8.99     271      493.1
   04/09/2017 12:00      67.4      66.5       20     24.5      0.00     18.24      66.3     0.38      1018.0     7       351        12       356        8.99     271      496.7
   04/09/2017 11:50      66.9      65.2       24     27.9      0.00     18.24      66.4     0.38      1018.0     4        31         6        43        8.99     273      437.9
   04/09/2017 11:40      65.6      65.0       26     29.5      0.00     18.24      66.4     0.38      1019.0     3       318         6        32        8.99     273      242.1
   04/09/2017 11:30      65.3      63.5       28     30.4      0.00     18.24      66.4     0.38      1019.0     1       349         3       226        8.99     274      306.5
   04/09/2017 11:20      63.9      62.8       31     32.0      0.00     18.24      66.2     0.38      1019.0     2       284         4       324        8.99     275      330.9
   04/09/2017 11:10      62.9      62.2       33     32.9      0.00     18.24      66.1     0.38      1019.0     1       108         4       192        8.99     277      375.1
   04/09/2017 11:00      62.5      62.0       33     32.9      0.00     18.24      66.1     0.38      1019.0     2        52         3       120        8.99     280      279.0
   04/09/2017 10:50      62.6      61.8       34     33.1      0.00     18.24      66.5     0.38      1019.0     2       357         4        78        8.99     283      288.0
   04/09/2017 10:40      61.8      61.3       34     32.8      0.00     18.24      66.6     0.38      1019.0     2        77         3        87        8.99     286      250.3
   04/09/2017 10:30      61.8      60.7       34     32.5      0.00     18.24      66.3     0.38      1019.0     2        43         4        70        8.99     288      288.1
   04/09/2017 10:20      61.8      60.4       36     33.7      0.00     18.24      66.4     0.38      1019.0     2        53         3        31        8.99     291      298.2
   04/09/2017 10:10      60.6      59.9       35     32.3      0.00     18.24      66.7     0.38      1019.0     4        17         7       346        8.99     294      276.8
   04/09/2017 10:00      60.5      59.5       35     32.5      0.00     18.24      66.5     0.38      1019.0     4        55         5        78        8.99     298      267.2
   04/09/2017 09:50      59.5      59.1       35     31.7      0.00     18.24      66.8     0.38      1019.0     4        16         6       351        8.99     301      285.9
   04/09/2017 09:40      60.3      59.4       35     32.0      0.00     18.24      66.7     0.38      1019.0     3         9         5       356        8.99     305      326.5
   04/09/2017 09:30      60.3      58.6       36     32.7      0.00     18.24      66.6     0.38      1018.0     2        33         4        71        8.99     307      335.8
   04/09/2017 09:20      58.6      57.0       39     32.6      0.00     18.24      67.1     0.38      1018.0     2       357         3       340        8.99     310      308.6
   04/09/2017 09:10      57.1      55.4       40     32.6      0.00     18.24      66.5     0.38      1018.0     2       139         3       165        8.99     313      274.1
   04/09/2017 09:00      55.4      54.5       41     31.5      0.00     18.24      66.8     0.39      1018.0     2       138         4       144        8.99     315      164.5
   04/09/2017 08:50      54.6      54.3       43     32.5      0.00     18.24      67.1     0.39      1018.0     2       167         4       150        8.99     317      100.0
   04/09/2017 08:40      54.4      52.8       46     33.4      0.00     18.24      66.7     0.39      1018.0     3       166         3       161        8.99     319      185.7
   04/09/2017 08:30      52.9      52.0       51     34.7      0.00     18.24      66.9     0.39      1018.0     2       181         2       167        8.99     321       99.0
   04/09/2017 08:20      52.0      51.7       50     34.0      0.00     18.24      66.8     0.39      1018.0     1       146         2       161        8.99     323       36.8
   04/09/2017 08:10      52.2      51.9       47     32.6      0.00     18.24      67.0     0.39      1018.0     2       118         3        99        8.99     323       19.7
   04/09/2017 08:00      52.4      51.8       45     31.6      0.00     18.24      67.3     0.39      1018.0     2        82         3       107        8.99     324       44.6
   04/09/2017 07:50      51.9      50.7       46     31.4      0.00     18.24      66.8     0.39      1018.0     3        97         6        96        8.99     325       63.5
   04/09/2017 07:40      50.7      49.9       49     31.6      0.00     18.24      67.0     0.39      1018.0     4       130         5       135        8.99     326       71.2
   04/09/2017 07:30      49.9      48.8       49     30.9      0.00     18.24      67.0     0.39      1017.0     4       127         5       128        8.99     327       28.3
   04/09/2017 07:20      48.8      48.2       49     30.2      0.00     18.24      67.0     0.39      1017.0     4       123         6       141        8.99     326      -30.1
   04/09/2017 07:10      48.0      46.8       50     29.9      0.00     18.24      67.1     0.39      1017.0     3       122         4       123        8.99     325      -28.1
   04/09/2017 07:00      46.8      45.9       54     30.4      0.00     18.24      66.9     0.39      1017.0     2       135         3       136        8.99     323      -31.1
   04/09/2017 06:50      46.2      45.6       56     31.1      0.00     18.24      67.4     0.39      1017.0     2       149         2       157        8.99     322      -40.2
   04/09/2017 06:40      47.1      46.4       52     30.1      0.00     18.24      67.5     0.39      1017.0     2       121         3        89        8.99     321      -49.3
   04/09/2017 06:30      47.0      46.3       52     29.8      0.00     18.24      67.1     0.39      1017.0     2       177         3       136        8.99     319      -48.2
   04/09/2017 06:20      47.1      46.8       48     28.2      0.00     18.24      67.3     0.39      1017.0     1       189         2       158        8.99     317      -46.3
   04/09/2017 06:10      47.7      47.2       47     27.9      0.00     18.24      67.5     0.39      1016.0     1       179         2       118        8.99     316      -50.0
   04/09/2017 06:00      48.3      47.1       46     28.1      0.00     18.24      67.5     0.39      1016.0     2       175         2       160        8.99     315      -51.5
   04/09/2017 05:50      48.2      47.7       45     27.6      0.00     18.24      67.6     0.39      1016.0     2       116         3       138        8.99     314      -49.8
   04/09/2017 05:40      47.9      46.3       48     28.4      0.00     18.24      67.7     0.39      1016.0     3       158         4       179        8.99     312      -50.4
   04/09/2017 05:30      48.4      46.8       48     28.7      0.00     18.24      67.9     0.39      1016.0     2       146         3       160        8.99     311      -55.8
   04/09/2017 05:20      48.7      47.0       43     26.8      0.00     18.24      67.7     0.39      1016.0     2       192         5       176        8.99     310      -59.0
   04/09/2017 05:10      48.3      46.7       46     27.7      0.00     18.24      67.6     0.39      1016.0     2        98         4       163        8.99     309      -63.7
   04/09/2017 05:00      47.9      47.5       45     27.3      0.00     18.24      67.8     0.39      1016.0     2       135         2       121        8.99     308      -66.6
   04/09/2017 04:50      48.0      47.4       45     27.3      0.00     18.24      67.9     0.39      1016.0     2        80         3         2        8.99     307      -68.8
   04/09/2017 04:40      47.3      46.8       48     28.2      0.00     18.24      68.0     0.39      1016.0     1       328         2        82        8.99     306      -67.5
   04/09/2017 04:30      47.0      44.9       52     29.1      0.00     18.24      67.8     0.39      1016.0     2       183         3       157        8.99     305      -69.1
   04/09/2017 04:20      46.9      46.0       51     29.4      0.00     18.24      68.2     0.39      1016.0     3       177         4       215        8.99     304      -70.3
   04/09/2017 04:10      47.6      46.7       48     28.8      0.00     18.24      67.7     0.39      1016.0     1       346         2       350        8.99     302      -71.3
   04/09/2017 04:00      47.5      46.8       49     28.8      0.00     18.24      67.8     0.39      1016.0     2       244         3       222        8.99     301      -73.5
   04/09/2017 03:50      49.7      47.5       47     28.9      0.00     18.24      68.1     0.39      1016.0     2       128         3       124        8.99     299      -76.2
   04/09/2017 03:40      51.1      50.2       40     27.4      0.00     18.24      67.9     0.39      1016.0     2        11         3       352        8.99     298      -78.2
   04/09/2017 03:30      51.9      51.2       39     27.3      0.00     18.24      68.3     0.39      1016.0     3        11         8       330        8.99     297      -79.5
   04/09/2017 03:20      51.8      51.5       38     27.1      0.00     18.24      68.2     0.39      1016.0     5         2         9       344        8.99     296      -80.3
   04/09/2017 03:10      51.8      51.5       39     27.3      0.00     18.24      68.4     0.39      1016.0     5         4         8         4        8.99     295      -80.8
   04/09/2017 03:00      51.8      51.5       39     27.6      0.00     18.24      67.9     0.39      1017.0     5         8         7       353        8.99     295      -81.5
   04/09/2017 02:50      51.9      51.5       39     27.6      0.00     18.24      68.0     0.39      1017.0     4        12         6        34        8.99     295      -82.1
   04/09/2017 02:40      51.9      51.7       39     27.4      0.00     18.24      68.2     0.39      1017.0     6       350        10       324        8.99     295      -82.0
   04/09/2017 02:30      52.0      51.7       39     27.4      0.00     18.24      68.6     0.39      1017.0     6       349         8       323        8.99     296      -81.9
   04/09/2017 02:20      52.0      51.7       38     27.3      0.00     18.24      68.7     0.39      1017.0     5       353         9       357        8.99     295      -81.9
   04/09/2017 02:10      52.0      51.8       38     27.4      0.00     18.24      68.6     0.39      1017.0     4       343         6       303        8.99     293      -81.5
   04/09/2017 02:00      52.3      51.9       38     27.3      0.00     18.24      68.5     0.39      1017.0     4       327         7       334        8.99     293      -81.2
   04/09/2017 01:50      52.6      52.4       37     27.0      0.00     18.24      68.6     0.39      1017.0     5       322         6       302        8.99     293      -81.9
   04/09/2017 01:40      52.5      52.2       38     27.2      0.00     18.24      69.0     0.39      1017.0     4       336         9       329        8.99     292      -82.1
   04/09/2017 01:30      52.3      51.9       38     27.5      0.00     18.24      68.7     0.39      1017.0     3       320         7       317        8.99     291      -82.2
   04/09/2017 01:20      52.8      52.4       37     27.3      0.00     18.24      68.9     0.39      1017.0     3       318         5       324        8.99     291      -82.8
   04/09/2017 01:10      53.1      52.8       36     27.0      0.00     18.24      68.9     0.39      1017.0     4       328         8       353        8.99     291      -83.1
   04/09/2017 01:00      53.5      53.1       36     26.9      0.00     18.24      68.7     0.39      1017.0     6       325        10       322        8.99     290      -82.9
   04/09/2017 00:50      53.6      53.4       35     26.4      0.00     18.24      69.1     0.39      1017.0     7       322        11       294        8.99     290      -81.4
   04/09/2017 00:40      53.4      51.6       37     27.0      0.00     18.24      68.8     0.39      1017.0     5       337         8       313        8.99     290      -80.3
   04/09/2017 00:30      51.6      48.8       46     30.4      0.00     18.24      68.7     0.39      1017.0     3        36         6        11        8.99     290      -78.5
   04/09/2017 00:20      50.3      49.7       49     31.7      0.00     18.24      69.1     0.39      1017.0     2       196         4       152        8.99     288      -77.1
   04/09/2017 00:10      49.7      48.7       54     33.1      0.00     18.24      68.7     0.39      1017.0     2       150         4       102        8.99     287      -77.3
   04/09/2017 00:00      52.7      49.7       48     32.0      0.00     18.24      69.0     0.39      1016.0     2       144         3       142        8.99     285      -76.6
   04/08/2017 23:50      52.9      52.6       42     30.4      0.00     18.24      69.2     0.39      1016.0     1        69         3       349        8.99     284      -78.6
   04/08/2017 23:40      53.4      52.9       43     31.0      0.00     18.24      68.8     0.39      1016.0     2        29         4        17        8.99     283      -79.2
   04/08/2017 23:30      53.4      51.9       45     31.6      0.00     18.24      69.1     0.39      1016.0     3       344         8         5        8.99     283      -77.9
   04/08/2017 23:20      52.0      51.2       47     32.4      0.00     18.24      69.0     0.39      1016.0     2        56         3        23        8.99     281      -77.3
   04/08/2017 23:10      52.1      51.1       49     33.2      0.00     18.24      69.6     0.39      1016.0     2       148         2       283        8.99     280      -76.5
   04/08/2017 23:00      52.2      51.8       48     32.8      0.00     18.24      69.2     0.39      1016.0     2       124         2        80        8.99     279      -77.6
   04/08/2017 22:50      52.3      51.5       49     33.3      0.00     18.24      69.3     0.39      1016.0     2       119         3       196        8.99     278      -77.8
   04/08/2017 22:40      51.9      51.4       50     33.8      0.00     18.24      69.2     0.39      1016.0     2       122         2        95        8.99     276      -77.5
   04/08/2017 22:30      52.3      51.9       50     34.0      0.00     18.24      69.2     0.39      1016.0     1       108         2       139        8.99     276      -78.0
   04/08/2017 22:20      52.5      51.7       51     34.3      0.00     18.24      69.2     0.39      1016.0     1       272         3       281        8.99     275      -78.3
   04/08/2017 22:10      53.1      52.4       50     34.6      0.00     18.24      69.4     0.39      1016.0     3       202         3       214        8.99     274      -78.0
   04/08/2017 22:00      54.1      53.1       48     34.7      0.00     18.24      69.3     0.39      1016.0     2       205         2       194        8.99     274      -79.3
   04/08/2017 21:50      54.3      54.0       48     34.9      0.00     18.24      69.3     0.39      1016.0     3       350         5        12        8.99     274      -80.8
   04/08/2017 21:40      54.5      54.1       48     35.2      0.00     18.24      68.9     0.39      1016.0     3       355         4       335        8.99     273      -81.1
   04/08/2017 21:30      54.7      54.5       48     35.4      0.00     18.24      69.3     0.39      1016.0     6       350        10       340        8.99     273      -80.8
   04/08/2017 21:20      55.4      54.9       48     35.9      0.00     18.24      69.5     0.39      1015.0     6       348         9       354        8.99     273      -80.7
   04/08/2017 21:10      55.6      55.4       49     36.5      0.00     18.24      69.6     0.39      1015.0     5         3         7         1        8.99     274      -80.4
   04/08/2017 21:00      55.5      52.9       55     38.6      0.00     18.24      69.2     0.39      1015.0     5       355         7         2        8.99     273      -78.4
   04/08/2017 20:50      53.8      52.9       65     42.0      0.00     18.24      69.3     0.39      1015.0     1        26         3         5        8.99     272      -75.3
   04/08/2017 20:40      55.1      54.2       62     41.8      0.00     18.24      69.3     0.39      1015.0     1       145         2       213        8.99     272      -76.2
   04/08/2017 20:30      55.2      54.9       60     41.6      0.00     18.24      69.3     0.39      1015.0     2       230         3       224        8.99     271      -77.0
   04/08/2017 20:20      55.5      55.3       59     41.4      0.00     18.24      69.7     0.39      1015.0     2       204         3       215        8.99     271      -78.3
   04/08/2017 20:10      55.8      55.5       58     41.2      0.00     18.24      68.9     0.39      1015.0     2       215         3       211        8.99     271      -79.6
   04/08/2017 20:00      56.1      55.6       57     40.9      0.00     18.24      69.2     0.39      1015.0     2       215         3       230        8.99     271      -80.6
   04/08/2017 19:50      57.0      56.3       55     40.5      0.00     18.24      69.4     0.39      1015.0     3       232         4       217        8.99     271      -81.8
   04/08/2017 19:40      57.3      57.0       53     40.2      0.00     18.24      69.0     0.39      1014.0     4       238         5       237        8.99     271      -82.4
   04/08/2017 19:30      57.5      57.3       52     39.8      0.00     18.24      69.2     0.39      1014.0     4       237         5       245        8.99     271      -81.6
   04/08/2017 19:20      57.9      57.4       51     39.6      0.00     18.24      69.0     0.39      1014.0     5       223         6       236        8.99     270      -78.5
   04/08/2017 19:10      58.7      58.0       49     39.2      0.00     18.24      69.2     0.39      1014.0     5       218         8       230        8.99     270      -72.8
   04/08/2017 19:00      59.1      58.7       47     38.9      0.00     18.24      69.3     0.39      1014.0     5       236         7       235        8.99     270      -63.4
   04/08/2017 18:50      59.5      59.3       46     38.9      0.00     18.24      68.9     0.39      1014.0     5       229         7       240        8.99     270      -50.5
   04/08/2017 18:40      60.4      59.6       46     39.4      0.00     18.24      68.8     0.39      1014.0     5       226         7       216        8.99     270      -32.5
   04/08/2017 18:30      60.5      60.1       45     39.1      0.00     18.24      69.3     0.39      1014.0     4       213         8       191        8.99     270      -10.3
   04/08/2017 18:20      60.8      60.3       44     38.7      0.00     18.24      68.9     0.39      1014.0     6       215         8       221        8.99     270       13.9
   04/08/2017 18:10      61.4      61.0       43     38.2      0.00     18.24      68.8     0.39      1014.0     5       224         7       197        8.99     269       39.8
   04/08/2017 18:00      62.4      61.5       41     37.8      0.00     18.24      69.0     0.39      1014.0     6       220        10       193        8.99     269       64.6
   04/08/2017 17:50      62.3      61.7       40     37.6      0.00     18.24      68.7     0.39      1014.0     6       221        10       230        8.99     270       92.7
   04/08/2017 17:40      62.0      61.7       41     37.9      0.00     18.24      68.7     0.39      1014.0     5       217         9       216        8.99     270      119.9
   04/08/2017 17:30      62.6      62.3       39     37.3      0.00     18.24      68.6     0.39      1014.0     6       238         9       258        8.99     269      148.3
   04/08/2017 17:20      62.8      62.3       39     37.2      0.00     18.24      69.0     0.39      1014.0     5       217         8       234        8.99     270      174.9
   04/08/2017 17:10      63.0      62.3       39     37.1      0.00     18.24      69.0     0.39      1015.0     6       229        10       222        8.99     270      203.2
   04/08/2017 17:00      62.8      62.3       40     37.6      0.00     18.24      69.0     0.39      1015.0     7       220        10       232        8.99     270      229.6
   04/08/2017 16:50      62.9      62.1       42     39.0      0.00     18.24      68.4     0.39      1015.0     7       226        10       243        9.00     270      252.6
   04/08/2017 16:40      63.8      62.5       41     39.1      0.00     18.24      68.6     0.39      1015.0     7       204        10       220        9.00     270      277.3
   04/08/2017 16:30      64.8      63.8       42     40.5      0.00     18.24      68.6     0.39      1015.0     6       232        10       195        9.00     271      298.1
   04/08/2017 16:20      65.1      63.9       41     40.5      0.00     18.24      68.8     0.39      1015.0     7       254        11       241        8.99     271      321.8
   04/08/2017 16:10      64.2      63.4       42     40.1      0.00     18.24      68.4     0.39      1015.0     7       258        10       266        9.00     271      342.5
   04/08/2017 16:00      64.8      63.4       42     40.5      0.00     18.24      68.4     0.39      1015.0     7       215        10       191        8.99     271      365.3
   04/08/2017 15:50      65.0      64.0       42     40.9      0.00     18.24      68.7     0.39      1015.0     5       227         8       206        8.99     272      386.3
   04/08/2017 15:40      64.6      63.5       43     41.1      0.00     18.24      68.3     0.39      1015.0     5       227         9       191        8.99     271      407.3
   04/08/2017 15:30      64.7      64.3       43     41.4      0.00     18.24      68.3     0.39      1015.0     6       228         9       175        8.99     271      425.1
   04/08/2017 15:20      64.7      64.2       43     41.6      0.00     18.24      68.4     0.39      1015.0     6       238         7       231        9.00     272      444.3
   04/08/2017 15:10      65.3      64.6       43     41.9      0.00     18.24      68.3     0.39      1015.0     7       243         9       217        8.99     272      462.0
   04/08/2017 15:00      65.3      64.4       42     41.6      0.00     18.24      68.1     0.39      1015.0     6       228        11       254        8.99     272      478.3
   04/08/2017 14:50      66.0      65.0       40     40.8      0.00     18.24      68.3     0.39      1015.0     5       265         8       293        9.00     273      490.9
   04/08/2017 14:40      65.1      64.1       42     40.9      0.00     18.24      68.1     0.39      1015.0     4       226         7       159        8.99     272      509.3
   04/08/2017 14:30      65.4      64.1       43     41.6      0.00     18.24      68.0     0.39      1015.0     6       223         8       207        9.00     272      526.4
   04/08/2017 14:20      65.7      65.1       42     41.6      0.00     18.24      68.2     0.39      1015.0     8       264        12       241        8.99     273      543.9
   04/08/2017 14:10      65.3      64.9       44     42.8      0.00     18.24      68.1     0.39      1015.0     6       241        13       255        9.00     273      537.7
   04/08/2017 14:00      65.3      64.5       45     43.3      0.00     18.24      68.2     0.39      1016.0     7       269        11       239        9.00     273      537.2
   04/08/2017 13:50      65.3      63.4       46     42.8      0.00     18.24      68.0     0.39      1016.0     7       264        13       266        9.00     274      537.2
   04/08/2017 13:40      65.1      64.0       44     42.2      0.00     18.24      67.8     0.39      1016.0     5       231        10       268        9.00     273      111.9
   04/08/2017 13:30      65.8      64.8       42     41.4      0.00     18.24      67.7     0.39      1016.0     5       251        10       263        9.00     273      544.5
   04/08/2017 13:20      65.9      64.8       43     42.0      0.00     18.24      68.0     0.39      1016.0     6       262         8       264        9.00     273      664.8
   04/08/2017 13:10      65.0      63.2       49     44.9      0.00     18.24      67.8     0.39      1016.0     4       231         6       264        9.00     275      578.6
   04/08/2017 13:00      63.9      62.9       49     44.0      0.00     18.24      67.8     0.39      1016.0     5       225        11       198        8.99     274      302.3
   04/08/2017 12:50      63.9      62.8       50     44.6      0.00     18.24      67.8     0.39      1016.0     5       210         7       218        8.99     275      624.9
   04/08/2017 12:40      64.1      63.4       41     39.4      0.00     18.24      68.1     0.39      1016.0     5       256         7       254        8.99     276      258.0
   04/08/2017 12:30      64.0      63.1       41     39.7      0.00     18.24      67.8     0.39      1017.0     7       253        10       234        8.99     277      401.1
   04/08/2017 12:20      64.2      62.9       50     44.6      0.00     18.24      67.6     0.39      1017.0     5       226         9       241        8.99     277      644.8
   04/08/2017 12:10      63.5      62.8       49     43.3      0.00     18.24      68.1     0.39      1017.0     6       208        10       222        8.99     280      584.0
   04/08/2017 12:00      63.0      62.0       51     44.2      0.00     18.24      68.3     0.39      1017.0     6       240        10       239        8.99     287      391.2
   04/08/2017 11:50      63.4      63.0       53     45.7      0.00     18.24      67.5     0.39      1017.0     7       236        10       254        8.99     290      534.3
   04/08/2017 11:40      63.1      62.3       52     44.6      0.00     18.24      67.7     0.39      1017.0     7       209        10       205        8.99     293      625.0
   04/08/2017 11:30      63.0      61.7       55     46.0      0.00     18.24      68.0     0.39      1017.0     6       227         8       252        8.99     295      527.4
   04/08/2017 11:20      62.3      61.3       57     46.5      0.00     18.24      68.1     0.39      1017.0     5       232         9       196        8.99     300      441.1
   04/08/2017 11:10      62.6      61.9       58     47.2      0.00     18.24      68.0     0.39      1017.0     6       183         9       213        8.99     307      630.8
   04/08/2017 11:00      62.8      61.4       59     47.7      0.00     18.24      67.8     0.39      1017.0     5       197         6       192        8.99     314      614.9
   04/08/2017 10:50      61.8      61.4       60     47.4      0.00     18.24      68.1     0.39      1017.0     5       226         8       244        8.99     321      581.0
   04/08/2017 10:40      61.8      60.8       62     48.3      0.00     18.24      67.5     0.39      1018.0     4       228         7       259        8.99     333      586.5
   04/08/2017 10:30      61.3      60.8       63     48.4      0.00     18.24      68.2     0.39      1018.0     5       212         9       219        8.99     339      555.8
   04/08/2017 10:20      62.0      61.0       63     48.8      0.00     18.24      67.8     0.39      1018.0     6       231        11       232        8.99     345      556.0
   04/08/2017 10:10      61.1      60.0       65     48.8      0.00     18.24      67.7     0.39      1017.0     5       227        12       235        8.99     353      482.1
   04/08/2017 10:00      60.6      59.6       67     49.4      0.00     18.24      68.4     0.39      1017.0     4       244         7       270        8.99     356      504.5
   04/08/2017 09:50      59.8      58.9       70     49.6      0.00     18.24      67.5     0.39      1017.0     4       229         6       240        8.99     361      476.9
   04/08/2017 09:40      59.4      58.4       73     50.2      0.00     18.24      68.1     0.39      1017.0     3       221         5       229        8.99     364      457.4
   04/08/2017 09:30      58.4      57.1       77     50.5      0.00     18.24      67.7     0.39      1017.0     2       218         5       199        8.99     364      398.7
   04/08/2017 09:20      57.7      57.0       77     50.3      0.00     18.24      68.1     0.39      1017.0     3       209         5       191        8.99     364      311.1
   04/08/2017 09:10      57.2      56.5       81     51.0      0.00     18.24      68.0     0.39      1017.0     2       209         4       229        8.99     364      259.5
   04/08/2017 09:00      56.6      55.8       84     51.4      0.00     18.24      68.0     0.39      1017.0     1       329         1       289        8.99     365      157.9
   04/08/2017 08:50      56.5      56.0       85     51.8      0.00     18.24      68.0     0.39      1017.0     2       271         2       284        8.99     364      102.9
   04/08/2017 08:40      56.5      55.5       86     52.0      0.00     18.24      68.6     0.39      1017.0     1       171         2       150        8.99     364      153.7
   04/08/2017 08:30      55.5      55.0       88     51.6      0.00     18.24      68.3     0.39      1017.0     2        96         3       103        8.99     365      193.0
   04/08/2017 08:20      55.2      54.5       89     51.7      0.00     18.24      68.0     0.39      1017.0     2       119         3       134        8.99     365      128.7
   04/08/2017 08:10      54.8      54.1       90     51.6      0.00     18.24      68.3     0.39      1017.0     1       275         2       304        8.99     364       99.1
   04/08/2017 08:00      54.1      53.8       91     51.5      0.00     18.24      67.5     0.39      1017.0     1       232         3       251        8.99     364       52.4
   04/08/2017 07:50      54.1      53.4       92     51.5      0.00     18.24      67.8     0.39      1017.0     1       214         2       281        8.99     363       42.1
   04/08/2017 07:40      53.7      53.4       92     51.2      0.00     18.24      68.3     0.39      1017.0     1       207         2       207        8.99     364       38.2
   04/08/2017 07:30      53.6      53.2       92     51.1      0.00     18.24      68.5     0.39      1017.0     1       110         1        76        8.99     364       27.6
   04/08/2017 07:20      53.5      53.2       92     51.1      0.00     18.24      67.8     0.39      1016.0     1         5         2        25        8.99     363       14.7
   04/08/2017 07:10      53.5      53.0       92     51.1      0.00     18.24      68.4     0.39      1016.0     1       115         2       102        8.99     362        8.7
   04/08/2017 07:00      53.5      53.0       93     51.1      0.00     18.24      68.8     0.39      1016.0     1        82         2       120        8.99     361        1.4
   04/08/2017 06:50      53.2      53.0       93     51.0      0.00     18.24      68.3     0.39      1016.0     0        86         1        83        8.99     360       -1.8
   04/08/2017 06:40      53.2      52.7       93     50.8      0.00     18.24      68.8     0.39      1016.0     1        82         1        85        8.99     358       -5.3
   04/08/2017 06:30      53.1      52.9       93     50.9      0.00     18.24      68.7     0.39      1016.0     1       156         1       125        8.99     356       -7.8
   04/08/2017 06:20      53.0      52.7       93     50.8      0.00     18.24      68.4     0.39      1016.0     1        27         1        29        8.99     355       -8.2
   04/08/2017 06:10      52.8      52.6       93     50.7      0.00     18.24      68.9     0.39      1016.0     1        72         1        39        8.99     354       -8.0
   04/08/2017 06:00      52.9      52.7       93     50.7      0.00     18.24      67.9     0.39      1016.0     1       107         2        56        8.99     353       -8.0
   04/08/2017 05:50      52.8      52.4       93     50.6      0.00     18.24      68.8     0.39      1016.0     1        31         2       329        8.99     351       -8.3
   04/08/2017 05:40      52.6      52.3       93     50.5      0.00     18.24      69.1     0.39      1016.0     1        30         1        21        8.99     350       -8.3
   04/08/2017 05:30      52.5      52.3       93     50.4      0.00     18.24      68.7     0.39      1016.0     1        73         2        70        8.99     348       -8.3
   04/08/2017 05:20      52.3      52.1       93     50.2      0.00     18.24      68.5     0.39      1016.0     1        98         2        74        8.99     347       -8.5
   04/08/2017 05:10      52.3      52.1       93     50.2      0.00     18.24      68.7     0.39      1016.0     1         3         2       357        8.99     347       -8.7
   04/08/2017 05:00      52.1      51.8       93     50.0      0.00     18.24      68.4     0.39      1016.0     1        35         2        71        8.99     348       -8.6
   04/08/2017 04:50      52.1      51.8       93     50.0      0.00     18.24      68.6     0.39      1016.0     1        67         3        77        8.99     347       -9.1
   04/08/2017 04:40      52.0      51.7       93     49.9      0.00     18.24      68.7     0.39      1016.0     1        48         2        67        8.99     346       -9.1
   04/08/2017 04:30      52.0      51.7       93     49.8      0.00     18.24      68.1     0.39      1016.0     0        54         2        39        8.99     345       -9.0
   04/08/2017 04:20      52.0      51.7       93     49.8      0.00     18.24      68.8     0.38      1016.0     1         6         1        29        8.99     345       -9.0
   04/08/2017 04:10      51.7      51.4       93     49.7      0.00     18.24      68.9     0.39      1016.0     1        15         2        11        8.99     343       -9.3
   04/08/2017 04:00      51.5      51.2       93     49.5      0.00     18.24      68.7     0.39      1016.0     1         8         2         8        8.99     345       -9.7
   04/08/2017 03:50      51.4      51.2       93     49.4      0.00     18.24      68.5     0.39      1016.0     1        10         1       356        8.99     345      -10.3
   04/08/2017 03:40      51.2      50.9       93     49.2      0.00     18.24      68.8     0.38      1016.0     1        84         1        85        8.99     346      -10.4
   04/08/2017 03:30      51.2      50.8       93     49.2      0.00     18.24      68.2     0.38      1016.0     1        86         1        70        8.99     349      -10.3
   04/08/2017 03:20      50.9      50.8       93     49.0      0.00     18.24      69.0     0.38      1016.0     1       330         2       321        8.99     360      -10.4
   04/08/2017 03:10      50.9      50.7       93     48.9      0.00     18.24      68.7     0.38      1016.0     1         6         2       319        8.99     364      -10.3
   04/08/2017 03:00      50.9      50.6       93     48.9      0.02     18.24      68.7     0.38      1016.0     2       331         3       338        8.99     361      -10.4
   04/08/2017 02:50      50.8      50.6       93     48.9      0.00     18.22      68.8     0.38      1016.0     2       339         2       331        8.99     355      -10.3
   04/08/2017 02:40      50.8      50.7       93     48.9      0.02     18.22      69.0     0.38      1016.0     2       353         3        22        8.99     356      -10.2
   04/08/2017 02:30      50.9      50.7       93     48.9      0.00     18.20      69.4     0.38      1016.0     2       333         3       348        8.99     340      -11.0
   04/08/2017 02:20      51.0      50.6       93     48.8      0.00     18.20      68.7     0.38      1016.0     1       321         2       306        8.99     328      -11.1
   04/08/2017 02:10      50.8      50.4       93     48.6      0.01     18.20      68.7     0.38      1016.0     1         3         2        11        8.99     321      -11.1
   04/08/2017 02:00      50.9      50.4       93     48.5      0.00     18.19      68.8     0.38      1016.0     2         2         3       331        8.99     317      -11.5
   04/08/2017 01:50      50.7      50.2       92     48.3      0.00     18.19      68.9     0.38      1016.0     1        32         2        20        8.99     317      -11.6
   04/08/2017 01:40      50.7      50.3       92     48.2      0.00     18.19      69.0     0.38      1017.0     2        20         2        24        8.99     315      -11.5
   04/08/2017 01:30      51.0      50.7       92     48.5      0.00     18.19      69.5     0.38      1017.0     2        13         4        27        8.99     313      -11.4
   04/08/2017 01:20      51.3      50.8       92     48.7      0.01     18.19      68.8     0.38      1017.0     2        24         3        38        8.99     310      -11.4
   04/08/2017 01:10      51.9      51.3       92     49.3      0.00     18.18      68.9     0.38      1017.0     2        33         3        26        8.99     310      -10.6
   04/08/2017 01:00      52.4      52.0       92     49.9      0.00     18.18      69.2     0.38      1017.0     2        32         4        26        8.99     305      -10.1
   04/08/2017 00:50      52.7      52.4       92     50.2      0.02     18.18      69.1     0.38      1017.0     2        25         4        23        8.99     307      -10.0
   04/08/2017 00:40      52.9      52.6       90     49.9      0.02     18.16      68.8     0.38      1017.0     2        19         5       359        8.99     307      -10.1
   04/08/2017 00:30      53.7      53.1       89     50.1      0.04     18.14      69.3     0.38      1017.0     4       360         5       354        8.99     302      -10.8
   04/08/2017 00:20      54.3      53.8       87     50.2      0.00     18.10      69.5     0.39      1016.0     1        40         2        32        8.99     285      -12.1
   04/08/2017 00:10      54.6      54.0       85     49.8      0.00     18.10      69.2     0.39      1016.0     2       344         3       339        8.99     286      -13.4
   04/08/2017 00:00      54.6      54.4       84     49.6      0.00     18.10      69.0     0.39      1016.0     1       341         2       334        8.99     272      -14.0
   04/07/2017 23:50      54.7      54.5       83     49.5      0.00     18.10      69.3     0.39      1016.0     2       333         3       343        8.99     270      -14.9
   04/07/2017 23:40      54.7      54.4       81     48.9      0.00     18.10      69.1     0.39      1016.0     1       254         2       218        8.99     270      -15.8
   04/07/2017 23:30      55.0      54.7       78     48.3      0.00     18.10      69.5     0.39      1016.0     1       226         3       249        8.99     270      -16.6
   04/07/2017 23:20      55.9      55.3       75     47.8      0.00     18.10      69.4     0.39      1016.0     3       235         6       252        8.99     268      -18.6
   04/07/2017 23:10      58.4      56.2       68     46.6      0.00     18.10      69.2     0.39      1016.0     4       250         5       270        8.99     268      -21.2
   04/07/2017 23:00      58.5      58.2       59     43.9      0.00     18.10      69.3     0.39      1016.0     3       209         5       170        8.99     268      -19.2
   04/07/2017 22:50      58.7      58.5       60     44.6      0.00     18.10      69.3     0.39      1016.0     3       197         4       218        8.99     267      -17.9
   04/07/2017 22:40      58.8      58.5       59     44.2      0.00     18.10      69.2     0.39      1016.0     4       228         6       232        8.99     267      -17.6
   04/07/2017 22:30      58.8      58.6       59     44.5      0.00     18.10      69.1     0.39      1016.0     3       218         5       207        8.99     267      -17.5
   04/07/2017 22:20      59.0      58.8       58     44.2      0.00     18.10      69.3     0.39      1016.0     4       199         5       176        8.99     267      -18.6
   04/07/2017 22:10      59.3      58.9       57     43.8      0.00     18.10      69.3     0.39      1016.0     4       212         6       204        8.99     267      -18.6
   04/07/2017 22:00      59.4      59.0       54     42.7      0.00     18.10      69.1     0.39      1016.0     4       211         6       236        8.99     267      -18.8
   04/07/2017 21:50      59.3      59.1       53     41.9      0.00     18.10      69.3     0.39      1015.0     3       189         4       199        8.99     267      -21.8
   04/07/2017 21:40      59.5      59.4       51     41.3      0.00     18.10      69.1     0.39      1015.0     2       171         3       165        8.99     267      -45.5
   04/07/2017 21:30      59.7      59.5       48     40.0      0.00     18.10      69.3     0.39      1015.0     3       209         4       205        8.99     267      -27.0
   04/07/2017 21:20      60.0      59.8       44     37.8      0.00     18.10      69.1     0.39      1015.0     3       202         4       201        8.99     267      -24.8
   04/07/2017 21:10      60.7      60.1       38     34.4      0.00     18.10      69.3     0.39      1015.0     2       200         3       228        8.99     267      -26.4
   04/07/2017 21:00      61.1      60.7       32     30.9      0.00     18.10      69.4     0.39      1015.0     4       220         6       228        8.99     267      -26.4
   04/07/2017 20:50      61.5      61.2       30     29.9      0.00     18.10      69.1     0.39      1015.0     3       214         5       255        8.99     267      -28.8
   04/07/2017 20:40      61.2      61.0       33     31.9      0.00     18.10      69.3     0.39      1015.0     2       208         4       185        8.99     267      -28.0
   04/07/2017 20:30      61.5      61.0       32     30.8      0.00     18.10      69.1     0.39      1015.0     3       176         4       148        8.99     266      -30.1
   04/07/2017 20:20      61.8      61.3       27     27.0      0.00     18.10      69.1     0.39      1015.0     3       182         5       182        8.99     266      -29.9
   04/07/2017 20:10      62.4      61.8       24     24.5      0.00     18.10      69.1     0.39      1015.0     3       158         5       172        8.99     266      -42.3
   04/07/2017 20:00      63.0      62.4       19     19.9      0.00     18.10      69.1     0.39      1015.0     3       149         4       151        8.99     266      -49.9
   04/07/2017 19:50      63.2      63.0       13     11.7      0.00     18.10      69.1     0.39      1015.0     3       154         5       145        8.99     266      -37.1
   04/07/2017 19:40      63.3      63.1       10      5.6      0.00     18.10      69.1     0.39      1015.0     2       165         4       149        8.99     266      -31.3
   04/07/2017 19:30      63.8      63.3       10      5.5      0.00     18.10      69.0     0.39      1015.0     3       181         5       176        8.99     266      -35.1
   04/07/2017 19:20      63.9      63.6       12      9.5      0.00     18.10      69.0     0.39      1015.0     2       173         3       154        8.99     266      -31.1
   04/07/2017 19:10      63.8      63.3       19     20.0      0.00     18.10      68.9     0.39      1015.0     3       165         5       149        8.99     266      -27.7
   04/07/2017 19:00      63.7      63.3       24     26.3      0.00     18.10      69.1     0.39      1015.0     3       162         5       167        8.99     266      -26.6
   04/07/2017 18:50      63.9      63.6       24     25.7      0.00     18.10      68.9     0.39      1015.0     4       161         5       162        8.99     266      -23.6
   04/07/2017 18:40      63.7      63.4       33     34.2      0.00     18.10      68.8     0.39      1015.0     4       167         6       132        8.99     266      -17.5
   04/07/2017 18:30      64.2      63.6       33     34.0      0.00     18.10      68.8     0.39      1015.0     4       170         7       173        8.99     266      -11.3
   04/07/2017 18:20      64.5      64.2       30     32.5      0.00     18.10      68.8     0.39      1015.0     5       149         6       131        8.99     266       -1.8
   04/07/2017 18:10      65.5      64.7       29     31.9      0.00     18.10      68.6     0.39      1015.0     5       160         7       178        8.99     266       10.5
   04/07/2017 18:00      65.8      65.4       29     32.3      0.00     18.10      68.7     0.39      1015.0     5       142         6       127        8.99     266       21.3
   04/07/2017 17:50      66.0      65.7       29     32.6      0.00     18.10      68.6     0.39      1015.0     5       144         8       130        8.99     266       24.8
   04/07/2017 17:40      67.0      66.3       27     31.8      0.00     18.10      68.7     0.39      1015.0     4       156         9       158        8.99     265       35.7
   04/07/2017 17:30      67.7      66.8       26     30.9      0.00     18.10      68.6     0.39      1015.0     5       123         9       126        8.99     265       65.7
   04/07/2017 17:20      68.2      67.8       27     32.6      0.00     18.10      68.5     0.39      1015.0     5       154         7       146        8.99     265      115.6
   04/07/2017 17:10      68.8      68.3       25     31.4      0.00     18.10      68.6     0.39      1015.0     4       159         7       195        8.99     265      139.6
   04/07/2017 17:00      69.5      69.0       23     29.7      0.00     18.10      68.5     0.39      1015.0     5       139         9       133        8.99     265      176.7
   04/07/2017 16:50      69.5      69.0       20     26.7      0.00     18.10      68.3     0.39      1015.0     6       134         8       130        8.99     265      198.8
   04/07/2017 16:40      70.4      69.8       20     27.0      0.00     18.10      68.3     0.39      1015.0     7       146         9       153        8.99     265      217.3
   04/07/2017 16:30      70.7      70.4       19     26.3      0.00     18.10      68.2     0.39      1015.0     6       118         8       127        8.99     265      230.7
   04/07/2017 16:20      71.5      70.3       18     25.5      0.00     18.10      68.2     0.39      1015.0     6       147        10       153        8.99     265      288.4
   04/07/2017 16:10      70.9      70.4       18     24.8      0.00     18.10      68.3     0.39      1015.0     5       174         8       163        8.99     265      292.7
   04/07/2017 16:00      71.2      70.4       18     24.6      0.00     18.10      68.0     0.39      1015.0     5       168        10       201        8.99     266      332.6
   04/07/2017 15:50      71.5      70.8       16     22.0      0.00     18.10      68.0     0.39      1015.0     5       170         8       147        8.99     266      352.4
   04/07/2017 15:40      71.7      71.3       16     23.0      0.00     18.10      68.1     0.39      1015.0     6       180         7       192        8.99     266      374.8
   04/07/2017 15:30      71.7      71.5       19     26.7      0.00     18.10      67.9     0.39      1015.0     5       158         9       172        8.99     266      393.7
   04/07/2017 15:20      72.4      71.7       20     29.0      0.00     18.10      67.9     0.39      1015.0     5       125         9       139        8.99     267      421.1
   04/07/2017 15:10      72.1      70.4       22     30.3      0.00     18.10      67.8     0.39      1015.0     6       129         9       124        8.99     267      417.4
   04/07/2017 15:00      71.5      71.0       23     31.2      0.00     18.10      67.8     0.38      1016.0     8       144        11       155        8.99     266      434.8
   04/07/2017 14:50      71.8      71.3       22     30.3      0.00     18.10      67.6     0.38      1016.0     6       139         8       142        8.99     266      458.7
   04/07/2017 14:40      71.9      71.2       21     29.0      0.00     18.10      67.7     0.38      1016.0     7       149        11       128        8.99     266      488.5
   04/07/2017 14:30      72.0      71.0       22     30.5      0.00     18.10      67.6     0.38      1016.0     6       186         9       194        8.99     266      525.4
   04/07/2017 14:20      72.4      71.6       18     25.7      0.00     18.10      67.6     0.38      1016.0     7       168         8       132        8.98     266      436.1
   04/07/2017 14:10      72.7      72.0       16     23.9      0.00     18.10      67.2     0.38      1016.0     7       163        11       152        8.98     267      534.7
   04/07/2017 14:00      72.7      71.8       17     24.6      0.00     18.10      67.4     0.38      1016.0     5       176         7       128        8.98     267      550.7
   04/07/2017 13:50      73.1      71.3       20     28.9      0.00     18.10      67.5     0.38      1016.0     5       175         9       188        8.98     267      519.8
   04/07/2017 13:40      72.3      71.7       22     30.8      0.00     18.10      67.5     0.38      1016.0     5       205        10       237        8.97     267      515.3
   04/07/2017 13:30      72.4      71.2       23     32.3      0.00     18.10      67.7     0.38      1016.0     4       209         6       173        8.97     267      528.7
   04/07/2017 13:20      72.1      71.0       23     31.8      0.00     18.10      67.5     0.38      1016.0     6       180         9       159        8.96     268      541.3
   04/07/2017 13:10      73.3      71.6       27     35.8      0.00     18.10      67.3     0.38      1016.0     5       163         8       148        8.96     268      509.0
   04/07/2017 13:00      73.9      72.3       36     44.6      0.00     18.10      67.3     0.38      1016.0     2        96         4        36        8.95     269      519.2
   04/07/2017 12:50      72.6      70.0       39     45.6      0.00     18.10      67.2     0.38      1017.0     2       353         4       100        8.95     269      479.5
   04/07/2017 12:40      71.2      70.2       37     43.6      0.00     18.10      67.1     0.38      1017.0     3       151         6       129        8.94     269      491.7
   04/07/2017 12:30      70.7      69.3       41     45.5      0.00     18.10      67.4     0.38      1017.0     3       161         7       129        8.93     270      488.8
   04/07/2017 12:20      70.4      68.7       45     47.0      0.00     18.10      67.4     0.38      1017.0     2       172         4       223        8.92     270      485.1
   04/07/2017 12:10      69.5      69.0       45     47.0      0.00     18.10      67.6     0.38      1017.0     2       166         5        97        8.91     270      457.6
   04/07/2017 12:00      69.6      68.6       45     47.0      0.00     18.10      67.3     0.38      1017.0     2        32         4        36        8.91     270      464.3
   04/07/2017 11:50      69.5      68.2       47     48.0      0.00     18.10      67.5     0.38      1017.0     3       309         5       317        8.90     271      474.5
   04/07/2017 11:40      69.2      68.3       48     48.6      0.00     18.10      67.3     0.38      1017.0     3       270         5       306        8.89     270      462.3
   04/07/2017 11:30      68.6      67.8       48     47.9      0.00     18.10      67.2     0.38      1018.0     2       250         3       283        8.88     271      460.3
   04/07/2017 11:20      68.4      67.7       49     48.1      0.00     18.10      67.2     0.38      1018.0     2        37         3         1        8.87     271      442.5
   04/07/2017 11:10      68.5      67.9       49     48.4      0.00     18.10      67.3     0.38      1018.0     2        41         5        67        8.87     271      397.9
   04/07/2017 11:00      68.0      66.3       51     48.3      0.00     18.10      67.3     0.38      1018.0     2        63         3        38        8.86     271      414.8
   04/07/2017 10:50      66.5      65.7       53     48.5      0.00     18.10      67.2     0.38      1018.0     3       117         5       138        8.85     270      408.3
   04/07/2017 10:40      65.8      64.8       56     49.0      0.00     18.10      67.2     0.38      1018.0     3         2         4        22        8.85     271      403.7
   04/07/2017 10:30      65.1      64.2       58     49.8      0.00     18.10      67.4     0.39      1018.0     3        59         5         7        8.84     270      397.5
   04/07/2017 10:20      64.5      63.8       59     49.8      0.00     18.10      67.4     0.39      1018.0     2        76         3        11        8.84     271      269.8
   04/07/2017 10:10      63.6      63.2       61     49.7      0.00     18.10      67.6     0.39      1018.0     3        94         6        85        8.84     271      362.6
   04/07/2017 10:00      63.1      62.4       63     50.0      0.00     18.10      67.4     0.39      1018.0     2       122         4        56        8.83     271      289.8
   04/07/2017 09:50      62.5      61.6       63     49.6      0.00     18.10      67.2     0.39      1018.0     2        53         4        76        8.83     271      313.4
   04/07/2017 09:40      61.6      60.7       65     49.5      0.00     18.10      67.5     0.39      1018.0     3        39         4        78        8.82     271      261.2
   04/07/2017 09:30      60.5      59.5       68     49.6      0.00     18.10      67.5     0.39      1018.0     3       121         6       113        8.81     271      267.2
   04/07/2017 09:20      60.6      59.4       69     49.8      0.00     18.10      67.3     0.39      1018.0     3        62         4       108        8.80     271      272.8
   04/07/2017 09:10      59.4      59.0       71     49.9      0.00     18.10      67.7     0.39      1018.0     3       116         6        96        8.79     272      295.9
   04/07/2017 09:00      59.5      58.5       71     49.7      0.00     18.10      67.6     0.39      1018.0     4        87         6        68        8.84     272      263.7
   04/07/2017 08:50      58.6      57.6       74     49.9      0.00     18.10      67.4     0.39      1018.0     4        38         8         3        8.84     272      249.9
   04/07/2017 08:40      57.7      57.3       75     49.6      0.00     18.10      67.5     0.39      1018.0     2        47         3        68        8.84     271       85.3
   04/07/2017 08:30      57.7      56.3       77     49.5      0.00     18.10      67.5     0.39      1018.0     2        57         2        61        8.84     271      149.0
   04/07/2017 08:20      56.2      55.6       78     49.2      0.00     18.10      67.5     0.39      1018.0     1        43         2        23        8.84     271       79.8
   04/07/2017 08:10      55.6      55.2       79     49.0      0.00     18.10      67.9     0.39      1018.0     1        33         2        10        8.84     270       75.4
   04/07/2017 08:00      55.2      54.4       81     49.0      0.00     18.10      67.4     0.39      1018.0     1       279         1       272        8.84     270       69.0
   04/07/2017 07:50      54.2      53.5       84     49.1      0.00     18.10      67.7     0.39      1018.0     1       224         1       284        8.84     270       57.2
   04/07/2017 07:40      53.5      52.6       86     48.9      0.00     18.10      67.9     0.39      1018.0     1       204         2       233        8.84     270       50.9
   04/07/2017 07:30      52.8      52.2       86     48.6      0.00     18.10      67.5     0.39      1018.0     1       207         2       206        8.84     269       33.6
   04/07/2017 07:20      52.3      52.0       87     48.4      0.00     18.10      67.8     0.39      1017.0     0       216         1       220        8.84     268       21.0
   04/07/2017 07:10      52.3      52.2       87     48.4      0.00     18.10      68.1     0.39      1017.0     0       251         1       163        8.84     268        5.0
   04/07/2017 07:00      52.4      52.0       88     48.7      0.00     18.10      67.8     0.39      1017.0     0       266         1       200        8.84     268        0.9
   04/07/2017 06:50      52.0      51.7       89     48.5      0.00     18.10      67.8     0.39      1017.0     1       216         2       189        8.84     269       -0.5
   04/07/2017 06:40      51.7      51.2       90     48.5      0.00     18.10      68.0     0.39      1017.0     2       201         2       197        8.84     269       -5.1
   04/07/2017 06:30      51.2      50.6       91     48.3      0.00     18.10      68.0     0.39      1017.0     1       218         2       217        8.84     269       -4.1
   04/07/2017 06:20      50.8      50.6       92     48.4      0.00     18.10      68.1     0.39      1017.0     0       114         1       204        8.84     269       -6.2
   04/07/2017 06:10      50.5      49.9       93     48.1      0.00     18.10      67.9     0.39      1017.0     1        21         1        12        8.84     269       -4.6
   04/07/2017 06:00      49.9      49.4       93     47.8      0.00     18.10      68.0     0.39      1017.0     2       163         2       181        8.84     269       -5.3
   04/07/2017 05:50      49.5      48.8       94     47.3      0.00     18.10      68.0     0.39      1017.0     1       221         2       207        8.84     269       -2.8
   04/07/2017 05:40      48.8      48.0       94     46.7      0.00     18.10      68.0     0.39      1017.0     1       178         2       167        8.85     269       -2.5
   04/07/2017 05:30      48.0      47.3       94     45.9      0.00     18.10      68.4     0.39      1017.0     1       182         2       149        8.85     269       -2.7
   04/07/2017 05:20      47.4      47.2       93     45.4      0.00     18.10      68.2     0.39      1017.0     1       100         1        94        8.85     270       -9.2
   04/07/2017 05:10      47.8      47.4       93     45.7      0.00     18.10      68.2     0.39      1017.0     1       143         2       143        8.84     269      -16.2
   04/07/2017 05:00      47.8      47.7       93     45.8      0.00     18.10      68.3     0.39      1017.0     1       145         2       139        8.85     269      -19.0
   04/07/2017 04:50      48.3      47.8       93     46.0      0.00     18.10      68.5     0.39      1017.0     2       152         2       136        8.85     269      -18.6
   04/07/2017 04:40      48.6      48.3       93     46.5      0.00     18.10      68.2     0.39      1017.0     1       178         1       139        8.85     268      -19.5
   04/07/2017 04:30      49.2      48.5       93     46.7      0.00     18.10      68.3     0.39      1017.0     1       144         1       124        8.85     268      -21.7
   04/07/2017 04:20      49.3      48.8       93     46.9      0.00     18.10      68.6     0.39      1017.0     1       176         2       147        8.85     268      -22.4
   04/07/2017 04:10      48.9      48.6       92     46.6      0.00     18.10      68.4     0.39      1017.0     2       139         2       136        8.85     268      -24.0
   04/07/2017 04:00      49.9      49.0       92     47.2      0.00     18.10      68.6     0.39      1017.0     2       165         3       147        8.85     268      -22.8
   04/07/2017 03:50      50.0      49.7       92     47.6      0.00     18.10      68.4     0.39      1017.0     1       208         1       241        8.85     268      -23.9
   04/07/2017 03:40      50.4      49.9       92     47.9      0.00     18.10      68.5     0.39      1017.0     1       149         1       143        8.85     267      -25.6
   04/07/2017 03:30      50.3      49.4       91     47.4      0.00     18.10      68.5     0.39      1017.0     1       159         2       139        8.85     267      -27.8
   04/07/2017 03:20      50.8      49.9       91     47.9      0.00     18.10      68.8     0.39      1017.0     1        92         2       136        8.85     267      -31.5
   04/07/2017 03:10      50.7      49.7       91     47.7      0.00     18.10      69.0     0.39      1018.0     1        79         2       116        8.85     267      -33.8
   04/07/2017 03:00      50.8      49.8       90     47.4      0.00     18.10      68.8     0.39      1018.0     1       107         3        77        8.85     268      -36.5
   04/07/2017 02:50      50.9      50.0       89     47.4      0.00     18.10      68.8     0.39      1018.0     1       337         1        30        8.85     268      -40.6
   04/07/2017 02:40      50.0      49.2       87     45.8      0.00     18.10      68.6     0.39      1018.0     1       122         2        87        8.85     268      -48.8
   04/07/2017 02:30      49.8      49.4       84     45.0      0.00     18.10      69.0     0.39      1017.0     1       138         2       131        8.85     268      -53.5
   04/07/2017 02:20      49.8      49.4       82     44.4      0.00     18.10      68.9     0.39      1017.0     1       194         2       155        8.85     267      -57.7
   04/07/2017 02:10      49.9      49.7       81     44.2      0.00     18.10      68.6     0.39      1017.0     1       147         2       144        8.85     267      -60.5
   04/07/2017 02:00      49.9      49.7       80     44.1      0.00     18.10      68.8     0.39      1017.0     1       138         1       135        8.85     267      -62.0
   04/07/2017 01:50      50.7      49.9       79     43.7      0.00     18.10      68.9     0.39      1017.0     1       137         2       146        8.85     268      -63.3
   04/07/2017 01:40      50.8      50.1       80     44.5      0.00     18.10      68.9     0.39      1017.0     1       208         1       215        8.85     268      -62.3
   04/07/2017 01:30      50.1      49.8       81     44.2      0.00     18.10      68.9     0.39      1017.0     1       112         1        62        8.85     268      -63.3
   04/07/2017 01:20      50.6      50.0       80     44.2      0.00     18.10      69.1     0.39      1017.0     1       113         2       132        8.85     268      -63.6
   04/07/2017 01:10      51.1      50.5       79     44.5      0.00     18.10      68.9     0.39      1017.0     1        69         1        86        8.85     268      -63.3
   04/07/2017 01:00      51.5      51.0       77     44.4      0.00     18.10      69.4     0.39      1017.0     1        50         2        86        8.85     268      -64.3
   04/07/2017 00:50      52.4      51.7       75     44.5      0.00     18.10      68.9     0.39      1017.0     1       114         1       154        8.85     268      -64.7
   04/07/2017 00:40      52.6      51.9       76     45.0      0.00     18.10      69.3     0.39      1017.0     2       158         2       156        8.85     268      -65.0
   04/07/2017 00:30      52.9      52.0       75     44.7      0.00     18.10      69.3     0.39      1017.0     2       166         3       152        8.85     268      -65.4
   04/07/2017 00:20      53.3      52.7       73     44.7      0.00     18.10      69.3     0.39      1017.0     1       211         3       230        8.85     268      -65.1
   04/07/2017 00:10      52.6      51.8       75     44.4      0.00     18.10      69.1     0.39      1017.0     2       249         3       248        8.85     268      -65.5
   04/07/2017 00:00      52.6      52.2       75     44.7      0.00     18.10      69.5     0.39      1017.0     2       159         2       149        8.85     268      -66.8
   04/06/2017 23:50      53.5      52.6       72     44.2      0.00     18.10      69.3     0.39      1017.0     2       124         3       122        8.85     269      -67.6
   04/06/2017 23:40      53.6      52.5       73     44.7      0.00     18.10      69.1     0.39      1017.0     2       205         2       276        8.85     269      -66.3
   04/06/2017 23:30      53.0      52.6       73     44.6      0.00     18.10      69.5     0.39      1017.0     1       178         2       227        8.85     269      -67.2
   04/06/2017 23:20      53.9      53.1       72     44.7      0.00     18.10      69.5     0.39      1017.0     2       200         3       218        8.85     269      -66.6
   04/06/2017 23:10      54.2      53.5       73     45.3      0.00     18.10      69.5     0.39      1017.0     1        77         2        69        8.85     269      -68.8
   04/06/2017 23:00      54.3      53.7       73     45.5      0.00     18.10      69.5     0.39      1016.0     2       188         3       159        8.85     269      -68.8
   04/06/2017 22:50      54.7      54.2       73     46.0      0.00     18.10      69.4     0.39      1017.0     1       147         2       131        8.85     269      -68.2
   04/06/2017 22:40      55.5      54.9       71     46.1      0.00     18.10      69.5     0.39      1017.0     2       135         2       136        8.85     269      -69.2
   04/06/2017 22:30      56.5      55.5       68     45.7      0.00     18.10      69.4     0.39      1017.0     2       185         2       183        8.85     269      -67.5
   04/06/2017 22:20      56.6      55.9       69     46.4      0.00     18.10      69.3     0.39      1017.0     1       173         1       211        8.85     268      -66.9
   04/06/2017 22:10      56.5      55.9       72     47.3      0.00     18.10      69.5     0.39      1016.0     1       143         2       127        8.85     268      -67.5
   04/06/2017 22:00      57.0      56.4       71     47.3      0.00     18.10      69.3     0.39      1016.0     2       139         2       130        8.86     269      -68.3
   04/06/2017 21:50      57.5      57.3       68     47.1      0.00     18.10      69.4     0.39      1016.0     1       182         1       197        8.86     268      -68.6
   04/06/2017 21:40      58.0      57.5       68     47.3      0.00     18.10      69.5     0.39      1016.0     1       165         2       145        8.86     268      -70.0
   04/06/2017 21:30      58.4      57.9       67     47.3      0.00     18.10      69.4     0.39      1016.0     0       302         1       202        8.86     268      -69.4
   04/06/2017 21:20      59.5      58.5       66     47.3      0.00     18.10      69.4     0.39      1016.0     1       134         2       128        8.86     268      -70.2
   04/06/2017 21:10      59.6      58.6       65     47.3      0.00     18.10      69.6     0.39      1016.0     2       235         3       230        8.86     268      -69.1
   04/06/2017 21:00      59.2      58.8       65     47.2      0.00     18.10      69.5     0.39      1015.0     1       231         2       270        8.86     268      -71.0
   04/06/2017 20:50      60.1      59.4       66     48.4      0.00     18.10      69.4     0.39      1015.0     1       159         1       181        8.86     268      -72.1
   04/06/2017 20:40      60.9      60.4       66     49.1      0.00     18.10      69.3     0.39      1015.0     1       137         1       151        8.86     268      -71.9
   04/06/2017 20:30      61.5      60.9       65     49.4      0.00     18.10      69.5     0.39      1015.0     1       105         2       136        8.86     268      -72.5
   04/06/2017 20:20      61.7      61.4       62     48.5      0.00     18.10      69.4     0.39      1015.0     1        45         2        73        8.86     268      -73.4
   04/06/2017 20:10      62.5      61.8       59     47.4      0.00     18.10      69.5     0.39      1015.0     2       133         2       120        8.86     267      -74.4
   04/06/2017 20:00      63.4      62.6       54     46.0      0.00     18.10      69.4     0.39      1015.0     1        75         3        59        8.87     267      -74.1
   04/06/2017 19:50      64.4      63.5       50     45.0      0.00     18.10      69.2     0.39      1015.0     1       277         2       225        8.87     267      -76.0
   04/06/2017 19:40      65.6      64.6       49     45.2      0.00     18.10      69.3     0.39      1014.0     1       191         2       193        8.87     267      -78.9
   04/06/2017 19:30      66.4      65.8       47     45.0      0.00     18.10      69.2     0.39      1014.0     2       209         3       219        8.87     267      -80.7
   04/06/2017 19:20      66.7      66.2       44     43.6      0.00     18.10      69.3     0.39      1014.0     2       201         3       191        8.87     267      -80.2
   04/06/2017 19:10      67.3      66.8       42     43.0      0.00     18.10      69.2     0.39      1014.0     2       192         3       176        8.87     267      -77.0
   04/06/2017 19:00      68.3      67.4       41     43.4      0.00     18.10      69.2     0.39      1014.0     2       192         4       256        8.88     266      -74.5
   04/06/2017 18:50      69.4      68.5       36     40.8      0.00     18.10      69.2     0.39      1014.0     3       225         5       231        8.88     266      -63.7
   04/06/2017 18:40      69.8      69.5       36     41.9      0.00     18.10      69.2     0.39      1014.0     3       219         4       244        8.88     266      -46.1
   04/06/2017 18:30      70.3      69.8       38     42.9      0.00     18.10      69.1     0.39      1014.0     4       212         6       208        8.88     266      -24.9
   04/06/2017 18:20      70.7      70.2       38     43.4      0.00     18.10      69.1     0.39      1014.0     3       181         5       176        8.88     266       -0.6
   04/06/2017 18:10      70.6      70.4       36     42.3      0.00     18.10      69.1     0.39      1014.0     4       162         7       146        8.88     266       28.3
   04/06/2017 18:00      71.1      70.5       32     39.1      0.00     18.10      69.2     0.39      1014.0     6       170         8       174        8.89     266       67.9
   04/06/2017 17:50      71.3      70.3       33     39.9      0.00     18.10      68.9     0.39      1014.0     5       164         7       157        8.89     266       84.4
   04/06/2017 17:40      71.2      70.3       32     39.3      0.00     18.10      69.0     0.39      1014.0     6       174         8       180        8.89     265       46.8
   04/06/2017 17:30      72.0      71.3       34     41.5      0.00     18.10      68.9     0.39      1014.0     5       189         7       180        8.89     266      126.9
   04/06/2017 17:20      73.0      72.3       34     42.7      0.00     18.10      68.9     0.39      1014.0     5       205         9       226        8.89     266      183.6
   04/06/2017 17:10      73.4      72.7       33     42.5      0.00     18.10      68.7     0.39      1013.0     6       185         9       190        8.89     266      186.2
   04/06/2017 17:00      74.6      73.6       32     42.4      0.00     18.10      68.8     0.39      1013.0     4       194         6       166        8.89     266      203.6
   04/06/2017 16:50      74.5      74.0       32     42.2      0.00     18.10      68.7     0.39      1013.0     4       185         5       200        8.89     266      296.4
   04/06/2017 16:40      75.4      74.6       29     40.7      0.00     18.10      68.7     0.39      1013.0     4       171         6        96        8.89     266      212.3
   04/06/2017 16:30      75.4      74.6       29     40.2      0.00     18.10      68.5     0.39      1013.0     3       123         4       191        8.90     267      308.0
   04/06/2017 16:20      74.8      73.7       28     38.6      0.00     18.10      68.4     0.39      1013.0     5       124         8       107        8.90     266      212.5
   04/06/2017 16:10      74.3      73.6       27     37.8      0.00     18.10      68.6     0.39      1013.0     4       111        11        71        8.90     266       60.4
   04/06/2017 16:00      73.8      73.3       27     37.9      0.00     18.10      68.6     0.39      1014.0     4       159         7       185        8.90     266       52.7
   04/06/2017 15:50      75.0      73.8       27     38.1      0.00     18.10      68.4     0.39      1014.0     5       171         8       191        8.90     265      107.2
   04/06/2017 15:40      75.8      75.0       26     37.9      0.00     18.10      68.4     0.39      1014.0     5       168         8       170        8.90     266      287.8
   04/06/2017 15:30      75.7      75.1       26     38.3      0.00     18.10      68.4     0.39      1014.0     5       176         7       153        8.90     267      365.9
   04/06/2017 15:20      76.0      75.2       26     38.6      0.00     18.10      68.3     0.39      1014.0     6       165         7       187        8.90     266      319.6
   04/06/2017 15:10      75.5      74.6       26     37.8      0.00     18.10      68.2     0.39      1014.0     6       163        11       176        8.90     266      275.6
   04/06/2017 15:00      75.8      75.2       26     38.3      0.00     18.10      68.2     0.39      1014.0     6       158         8       134        8.90     266      273.4
   04/06/2017 14:50      75.8      75.2       26     38.5      0.00     18.10      68.1     0.39      1014.0     7       162        10       170        8.90     266      341.0
   04/06/2017 14:40      77.4      76.1       26     39.7      0.00     18.10      68.2     0.39      1014.0     6       159         9       147        8.91     266      386.7
   04/06/2017 14:30      77.1      76.3       25     37.9      0.00     18.10      68.0     0.39      1014.0     6       130         8       156        8.90     267      359.1
   04/06/2017 14:20      77.2      75.9       24     37.3      0.00     18.10      68.0     0.39      1015.0     6       132         9       142        8.90     267      380.4
   04/06/2017 14:10      77.4      76.8       24     37.6      0.00     18.10      67.9     0.39      1014.0     5       111         8        65        8.91     267      353.6
   04/06/2017 14:00      77.3      76.9       24     37.8      0.00     18.10      68.0     0.39      1014.0     5       124        10       143        8.91     267      351.2
   04/06/2017 13:50      77.6      76.4       23     36.8      0.00     18.10      68.0     0.39      1015.0     4       102         8        96        8.91     267      294.8
   04/06/2017 13:40      76.9      76.7       24     36.9      0.00     18.10      67.8     0.39      1015.0     6       111         9       150        8.91     267      321.4
   04/06/2017 13:30      77.3      76.9       23     36.5      0.00     18.10      67.9     0.39      1015.0     5       117         8       131        8.91     267      426.9
   04/06/2017 13:20      78.4      77.3       23     37.2      0.00     18.10      67.9     0.39      1015.0     7       112         9        74        8.91     267      476.4
   04/06/2017 13:10      78.7      76.9       23     37.4      0.00     18.10      67.9     0.39      1015.0     4       100        10       115        8.91     268      583.1
   04/06/2017 13:00      77.8      77.2       24     37.8      0.00     18.10      67.8     0.39      1015.0     8       106        14        78        8.91     268      550.1
   04/06/2017 12:50      77.9      76.8       23     37.2      0.00     18.10      67.8     0.39      1015.0     5        73         7        80        8.91     268      408.8
   04/06/2017 12:40      78.2      76.6       24     37.6      0.00     18.10      68.0     0.39      1015.0     5        80         9        84        8.91     268      406.9
   04/06/2017 12:30      77.2      76.5       27     40.0      0.00     18.10      67.8     0.39      1015.0     4       127         8        54        8.91     268      425.2
   04/06/2017 12:20      76.8      75.2       29     41.7      0.00     18.10      67.7     0.39      1015.0     3       113         7       132        8.90     269      366.9
   04/06/2017 12:10      76.3      75.8       32     43.9      0.00     18.10      67.7     0.39      1015.0     4         4         7       350        8.90     269      326.8
   04/06/2017 12:00      76.3      76.0       33     45.0      0.00     18.10      67.7     0.39      1016.0     3        16         4        14        8.91     269      365.3
   04/06/2017 11:50      75.8      74.1       35     45.8      0.00     18.10      67.8     0.39      1016.0     2        67         4        36        8.90     270      408.0
   04/06/2017 11:40      75.4      74.8       35     45.7      0.00     18.10      67.8     0.39      1016.0     3        65         5        75        8.91     269      320.8
   04/06/2017 11:30      75.2      74.3       34     45.0      0.00     18.10      67.8     0.39      1016.0     2        33         4        34        8.90     269      343.1
   04/06/2017 11:20      74.3      73.4       34     43.6      0.00     18.10      67.8     0.39      1016.0     2        10         4         3        8.91     269      326.7
   04/06/2017 11:10      74.1      73.0       35     43.8      0.00     18.10      67.7     0.39      1016.0     2        52         3       104        8.90     270      321.4
   04/06/2017 11:00      73.5      72.9       36     44.3      0.00     18.10      67.9     0.39      1016.0     2        23         3       358        8.90     270      263.4
   04/06/2017 10:50      73.0      72.2       35     43.6      0.00     18.10      67.8     0.39      1016.0     1        38         2        22        8.91     270      246.1
   04/06/2017 10:40      72.6      71.6       36     43.6      0.00     18.10      67.9     0.39      1016.0     2        67         3        88        8.91     270      254.3
   04/06/2017 10:30      72.0      71.3       40     45.9      0.00     18.10      68.1     0.39      1016.0     2       358         3       351        8.91     269      458.1
   04/06/2017 10:20      71.4      69.6       42     46.6      0.00     18.10      67.7     0.39      1016.0     2         5         2        25        8.91     270      428.2
   04/06/2017 10:10      69.3      68.7       45     46.8      0.00     18.10      67.9     0.39      1016.0     2       331         3       343        8.91     270      340.7
   04/06/2017 10:00      68.7      68.2       46     47.0      0.00     18.10      68.0     0.39      1016.0     2        29         4        25        8.91     271      378.5
   04/06/2017 09:50      68.6      66.3       48     46.8      0.00     18.10      68.1     0.39      1016.0     1         6         2       349        8.91     271      367.0
   04/06/2017 09:40      66.6      65.8       49     46.4      0.00     18.10      68.1     0.39      1016.0     1       311         3       292        8.91     271      288.6
   04/06/2017 09:30      65.7      64.8       50     46.0      0.00     18.10      68.1     0.39      1016.0     2       284         2       311        8.91     271      352.4
   04/06/2017 09:20      64.6      63.3       51     45.5      0.00     18.10      68.1     0.39      1016.0     1       309         1       233        8.91     271      149.4
   04/06/2017 09:10      63.2      62.6       53     45.3      0.00     18.10      67.8     0.39      1016.0     2       256         3       270        8.91     271      131.5
   04/06/2017 09:00      63.0      62.1       54     45.9      0.00     18.10      68.3     0.39      1016.0     2       261         3       270        8.91     271      150.2
   04/06/2017 08:50      62.3      60.4       56     45.6      0.00     18.10      68.1     0.39      1016.0     1       239         2       268        8.91     271      258.8
   04/06/2017 08:40      60.4      59.3       60     46.1      0.00     18.10      68.3     0.39      1016.0     1       199         2       205        8.91     271      133.8
   04/06/2017 08:30      59.1      58.5       62     45.6      0.00     18.10      68.3     0.39      1016.0     2       286         3       311        8.91     271      151.9
   04/06/2017 08:20      58.7      57.9       62     45.5      0.00     18.10      68.4     0.39      1016.0     2       289         2       262        8.91     270       30.1
   04/06/2017 08:10      58.0      56.5       64     45.2      0.00     18.10      68.7     0.39      1016.0     2       257         5       255        8.91     270       83.5
   04/06/2017 08:00      56.5      54.9       69     45.6      0.00     18.10      68.5     0.39      1016.0     2       265         4       251        8.91     270       53.9
   04/06/2017 07:50      55.0      54.1       71     45.2      0.00     18.10      68.2     0.39      1016.0     1       235         1       236        8.91     269        9.6
   04/06/2017 07:40      54.2      53.4       72     45.0      0.00     18.10      68.6     0.39      1016.0     1       227         1       211        8.91     268       -5.0
   04/06/2017 07:30      53.3      52.6       74     45.0      0.00     18.10      68.3     0.39      1016.0     1       161         1       224        8.91     268      -26.5
   04/06/2017 07:20      53.4      52.8       74     44.9      0.00     18.10      68.3     0.39      1016.0     1       354         1       339        8.91     268      -31.6
   04/06/2017 07:10      53.0      52.2       75     44.9      0.00     18.10      68.4     0.39      1016.0     1       294         1       323        8.91     268      -29.6
   04/06/2017 07:00      52.2      51.6       77     44.6      0.00     18.10      68.5     0.39      1016.0     2       140         2       140        8.91     268      -31.7
   04/06/2017 06:50      52.0      51.2       76     44.3      0.00     18.10      68.4     0.39      1016.0     1       173         2       130        8.91     268      -44.4
   04/06/2017 06:40      51.3      50.9       77     44.2      0.00     18.10      68.6     0.39      1016.0     1        82         1        71        8.91     267      -48.9
   04/06/2017 06:30      51.4      51.1       76     44.1      0.00     18.10      68.8     0.39      1016.0     1        20         1        25        8.91     267      -45.9
   04/06/2017 06:20      52.0      51.4       74     43.9      0.00     18.10      68.7     0.39      1016.0     2       123         2       133        8.91     267      -51.9
   04/06/2017 06:10      52.3      52.1       73     43.9      0.00     18.10      68.6     0.39      1016.0     1       154         1       156        8.91     267      -53.0
   04/06/2017 06:00      52.2      51.9       74     44.0      0.00     18.10      68.7     0.39      1015.0     0       356         1       337        8.91     267      -54.3
   04/06/2017 05:50      52.4      52.0       74     44.0      0.00     18.10      69.1     0.39      1015.0     0        50         1        90        8.91     268      -54.9
   04/06/2017 05:40      52.9      52.5       71     43.7      0.00     18.10      69.0     0.39      1015.0     2       128         2       138        8.91     268      -53.1
   04/06/2017 05:30      53.1      52.6       71     43.7      0.00     18.10      68.8     0.39      1015.0     1       137         2       142        8.91     268      -55.2
   04/06/2017 05:20      52.7      52.6       73     44.1      0.00     18.10      68.9     0.39      1015.0     0       340         0       286        8.92     267      -55.1
   04/06/2017 05:10      53.3      52.6       71     44.0      0.00     18.10      69.0     0.39      1015.0     1        72         1        77        8.91     268      -45.3
   04/06/2017 05:00      53.4      52.9       71     44.0      0.00     18.10      69.2     0.39      1015.0     1        41         2        75        8.92     268      -44.2
   04/06/2017 04:50      53.1      52.6       72     43.9      0.00     18.10      69.3     0.39      1015.0     1       234         1       263        8.92     268      -47.7
   04/06/2017 04:40      53.5      53.1       70     43.6      0.00     18.10      68.9     0.39      1015.0     2       151         2       152        8.92     268      -53.4
   04/06/2017 04:30      53.1      52.2       73     44.0      0.00     18.10      69.0     0.39      1014.0     2       204         3       245        8.92     268      -51.1
   04/06/2017 04:20      52.5      52.2       74     44.2      0.00     18.10      69.3     0.39      1014.0     2       137         2       128        8.92     268      -44.0
   04/06/2017 04:10      52.7      52.4       73     44.3      0.00     18.10      69.0     0.39      1015.0     2       140         2       125        8.92     268      -45.0
   04/06/2017 04:00      53.1      52.7       72     44.1      0.00     18.10      69.3     0.39      1015.0     1       134         1        96        8.92     268      -49.5
   04/06/2017 03:50      53.4      53.0       71     44.0      0.00     18.10      69.0     0.39      1015.0     1       158         1       157        8.92     268      -53.7
   04/06/2017 03:40      53.3      53.1       70     43.9      0.00     18.10      69.1     0.39      1015.0     1       149         1       126        8.92     268      -56.0
   04/06/2017 03:30      53.6      53.4       69     43.6      0.00     18.10      69.6     0.39      1015.0     1       160         1       144        8.92     268      -57.8
   04/06/2017 03:20      53.6      53.2       69     43.5      0.00     18.10      69.3     0.39      1015.0     1       162         2       142        8.92     268      -60.1
   04/06/2017 03:10      54.0      53.6       67     42.9      0.00     18.10      69.4     0.39      1015.0     1       198         1       143        8.92     268      -61.1
   04/06/2017 03:00      53.8      53.4       68     43.4      0.00     18.10      69.3     0.39      1015.0     1       166         2       137        8.92     268      -61.5
   04/06/2017 02:50      54.1      53.6       68     43.6      0.00     18.10      69.4     0.39      1015.0     2       133         3       131        8.92     268      -60.7
   04/06/2017 02:40      54.2      53.8       67     43.2      0.00     18.10      69.6     0.39      1015.0     1       179         2       229        8.92     268      -57.4
   04/06/2017 02:30      54.5      53.9       69     44.3      0.00     18.10      69.3     0.39      1015.0     2       168         2       130        8.92     268      -58.1
   04/06/2017 02:20      55.1      54.5       67     44.1      0.00     18.10      69.5     0.39      1015.0     1       161         2       147        8.92     269      -59.7
   04/06/2017 02:10      55.1      54.3       70     44.8      0.00     18.10      69.5     0.39      1016.0     1       154         1       126        8.92     268      -60.4
   04/06/2017 02:00      55.0      54.6       69     44.9      0.00     18.10      69.5     0.39      1016.0     1       131         2       125        8.92     268      -60.0
   04/06/2017 01:50      55.0      54.5       71     45.2      0.00     18.10      69.5     0.39      1016.0     1       171         2       139        8.92     268      -58.0
   04/06/2017 01:40      55.4      54.7       68     44.9      0.00     18.10      69.6     0.39      1016.0     2       139         3       141        8.92     269      -56.2
   04/06/2017 01:30      55.9      55.6       65     44.2      0.00     18.10      69.3     0.39      1016.0     1       189         1       134        8.92     268      -55.7
   04/06/2017 01:20      55.8      55.5       67     45.0      0.00     18.10      69.5     0.39      1016.0     1       227         1       254        8.92     268      -55.3
   04/06/2017 01:10      55.9      55.4       69     45.5      0.00     18.10      69.6     0.39      1016.0     2       139         2       138        8.92     268      -57.9
   04/06/2017 01:00      56.6      56.3       65     44.9      0.00     18.10      69.7     0.39      1016.0     1       175         1       130        8.92     268      -61.2
   04/06/2017 00:50      56.6      56.5       65     44.9      0.00     18.10      69.9     0.39      1016.0     1       167         1       140        8.92     268      -62.5
   04/06/2017 00:40      56.6      56.1       66     45.3      0.00     18.10      69.9     0.39      1016.0     1       165         1       144        8.92     268      -63.0
   04/06/2017 00:30      56.8      56.2       67     45.5      0.00     18.10      69.6     0.39      1016.0     1       131         1       111        8.92     268      -63.9
   04/06/2017 00:20      57.3      56.9       65     45.5      0.00     18.10      69.6     0.39      1016.0     1       168         2       169        8.92     268      -62.9
   04/06/2017 00:10      57.2      56.8       64     45.2      0.00     18.10      69.6     0.39      1016.0     1       191         2       185        8.92     268      -63.3
   04/06/2017 00:00      57.9      57.0       63     45.2      0.00     18.10      69.8     0.39      1016.0     1       143         2       139        8.92     269      -64.1
   04/05/2017 23:50      58.0      57.5       61     44.4      0.00     18.10      69.8     0.39      1016.0     1       194         1       227        8.92     268      -64.5
   04/05/2017 23:40      58.5      58.0       60     44.5      0.00     18.10      69.7     0.39      1016.0     1       160         2       142        8.92     268      -64.2
   04/05/2017 23:30      58.5      58.2       60     44.4      0.00     18.10      69.7     0.39      1016.0     1       118         1       142        8.92     268      -65.0
   04/05/2017 23:20      59.1      58.4       59     44.4      0.00     18.10      70.1     0.39      1016.0     2       135         2       141        8.92     268      -65.5
   04/05/2017 23:10      59.2      58.8       60     44.9      0.00     18.10      69.8     0.39      1016.0     1       146         2       138        8.92     268      -65.3
   04/05/2017 23:00      59.1      58.7       59     44.8      0.00     18.10      69.9     0.39      1016.0     1       151         2       175        8.92     268      -66.3
   04/05/2017 22:50      59.4      59.2       58     44.6      0.00     18.10      69.8     0.39      1016.0     1       171         2       173        8.92     267      -66.0
   04/05/2017 22:40      59.5      58.8       58     44.5      0.00     18.10      69.8     0.39      1016.0     1       196         3       139        8.92     267      -66.2
   04/05/2017 22:30      59.8      59.4       56     43.8      0.00     18.10      69.6     0.39      1016.0     2       159         2       149        8.92     267      -66.4
   04/05/2017 22:20      61.1      60.1       52     43.0      0.00     18.10      69.9     0.39      1016.0     1       142         2       130        8.92     267      -67.3
   04/05/2017 22:10      61.1      60.6       50     42.1      0.00     18.10      69.8     0.39      1016.0     0       195         1       213        8.92     267      -67.3
   04/05/2017 22:00      61.1      60.4       50     41.9      0.00     18.10      69.8     0.39      1016.0     1       132         2       132        8.92     267      -68.9
   04/05/2017 21:50      62.3      61.4       48     41.6      0.00     18.10      69.9     0.39      1016.0     2       165         2       183        8.92     267      -69.1
   04/05/2017 21:40      62.5      62.1       45     41.0      0.00     18.10      69.9     0.39      1016.0     2       165         2       184        8.92     267      -68.3
   04/05/2017 21:30      64.2      62.6       43     40.8      0.00     18.10      69.7     0.39      1016.0     1       166         2       202        8.92     267      -70.2
   04/05/2017 21:20      64.5      63.6       43     40.8      0.00     18.10      69.8     0.39      1016.0     1       193         2       229        8.92     267      -69.8
   04/05/2017 21:10      64.2      63.8       49     44.3      0.00     18.10      69.8     0.39      1016.0     1       128         1       124        8.92     267      -72.2
   04/05/2017 21:00      64.3      63.4       50     44.7      0.00     18.10      69.7     0.39      1016.0     1       185         2       183        8.92     267      -73.0
   04/05/2017 20:50      66.4      63.6       51     46.1      0.00     18.10      69.8     0.39      1016.0     2       172         3       166        8.92     267      -73.3
   04/05/2017 20:40      67.4      66.8       45     45.1      0.00     18.10      69.6     0.39      1016.0     2       190         2       207        8.92     266      -73.8
   04/05/2017 20:30      69.0      67.3       42     44.2      0.00     18.10      69.7     0.39      1016.0     2       192         3       175        8.92     266      -75.0
   04/05/2017 20:20      70.1      69.2       38     43.1      0.00     18.10      69.8     0.39      1016.0     2       250         3       227        8.92     266      -79.7
   04/05/2017 20:10      70.2      69.7       39     43.8      0.00     18.10      69.6     0.39      1016.0     3       261         5       269        8.92     267      -82.3
   04/05/2017 20:00      71.3      70.1       42     46.1      0.00     18.10      69.7     0.39      1015.0     3       240         5       240        8.92     266      -82.9
   04/05/2017 19:50      72.0      71.4       41     46.6      0.00     18.10      69.5     0.39      1015.0     3       272         4       263        8.92     266      -84.0
   04/05/2017 19:40      72.0      71.8       41     46.8      0.00     18.10      69.4     0.39      1015.0     3       274         4       268        8.92     266      -85.0
   04/05/2017 19:30      73.0      72.2       40     46.9      0.00     18.10      69.5     0.39      1015.0     2       269         3       277        8.92     265      -84.5
   04/05/2017 19:20      74.3      72.9       31     40.6      0.00     18.10      69.6     0.39      1015.0     2       257         4       273        8.92     265      -80.4
   04/05/2017 19:10      74.6      74.2       24     35.2      0.00     18.10      69.4     0.39      1015.0     2       263         3       282        8.92     264      -78.0
   04/05/2017 19:00      75.2      74.5       20     31.4      0.00     18.10      69.4     0.39      1015.0     3       204         5       205        8.92     264      -72.9
   04/05/2017 18:50      75.8      75.4       20     31.4      0.00     18.10      69.4     0.39      1015.0     4       198         6       197        8.92     264      -65.1
   04/05/2017 18:40      76.2      75.7       20     31.4      0.00     18.10      69.3     0.39      1015.0     5       198         6       205        8.92     264      -51.2
   04/05/2017 18:30      76.5      76.1       20     31.7      0.00     18.10      69.3     0.39      1015.0     3       192         5       191        8.92     264      -49.3
   04/05/2017 18:20      77.3      76.6       19     31.9      0.00     18.10      69.2     0.39      1015.0     4       200         6       196        8.92     264      -30.7
   04/05/2017 18:10      78.8      77.2       19     32.1      0.00     18.10      69.2     0.39      1015.0     5       224         9       237        8.92     264       -8.0
   04/05/2017 18:00      79.5      79.0       19     33.5      0.00     18.10      69.2     0.39      1015.0     5       224         7       251        8.92     264       28.1
   04/05/2017 17:50      79.5      78.8       20     34.6      0.00     18.10      68.9     0.39      1015.0     3       199         5       158        8.92     264       71.0
   04/05/2017 17:40      79.1      78.8       20     34.4      0.00     18.10      69.0     0.39      1015.0     6       156         7       162        8.92     264      100.4
   04/05/2017 17:30      79.3      78.8       20     34.4      0.00     18.10      68.8     0.39      1015.0     7       151        10       166        8.92     264      128.8
   04/05/2017 17:20      79.3      79.0       20     35.2      0.00     18.10      68.9     0.39      1015.0     6       159         7       186        8.92     264      161.1
   04/05/2017 17:10      79.7      79.1       21     35.5      0.00     18.10      68.8     0.39      1015.0     7       163        10       150        8.92     264      188.7
   04/05/2017 17:00      80.4      79.8       21     36.1      0.00     18.10      68.7     0.39      1015.0     8       152        11       139        8.92     264      208.2
   04/05/2017 16:50      80.7      80.2       20     35.3      0.00     18.10      68.5     0.39      1015.0     7       141        10       133        8.92     264      228.8
   04/05/2017 16:40      81.0      80.4       18     33.5      0.00     18.10      68.5     0.39      1015.0     8       164        13       176        8.92     264      248.9
   04/05/2017 16:30      81.9      81.2       17     33.1      0.00     18.10      68.5     0.39      1015.0     8       169        10       189        8.92     265      277.5
   04/05/2017 16:20      82.3      81.8       18     34.9      0.00     18.10      68.4     0.39      1015.0     6       187        10       164        8.92     264      298.7
   04/05/2017 16:10      82.4      81.8       18     33.7      0.00     18.10      68.3     0.39      1015.0     7       154        10       155        8.92     265      325.6
   04/05/2017 16:00      82.2      81.4       18     34.1      0.00     18.10      68.3     0.39      1015.0     7       172        11       166        8.92     265      350.5
   04/05/2017 15:50      83.8      82.2       17     33.1      0.00     18.10      68.1     0.39      1015.0     7       160        12       170        8.92     265      366.0
   04/05/2017 15:40      83.5      83.1       17     33.8      0.00     18.10      68.2     0.39      1015.0     5       151         7       156        8.92     265      382.7
   04/05/2017 15:30      83.6      83.0       16     32.9      0.00     18.10      68.2     0.39      1015.0     6       177         9       137        8.92     265      397.9
   04/05/2017 15:20      83.8      83.4       16     33.2      0.00     18.10      67.9     0.39      1015.0     6       183         7       188        8.92     265      409.7
   04/05/2017 15:10      84.1      83.6       16     33.4      0.00     18.10      68.0     0.39      1015.0     6       160         9       154        8.91     266      421.9
   04/05/2017 15:00      84.0      83.5       16     33.4      0.00     18.10      67.7     0.39      1015.0     6       172         9       157        8.91     266      431.1
   04/05/2017 14:50      84.4      83.5       17     33.9      0.00     18.10      67.8     0.39      1015.0     5       167        11       155        8.91     266      452.0
   04/05/2017 14:40      83.7      83.0       17     33.8      0.00     18.10      67.6     0.39      1015.0     4       167         8       170        8.90     265      471.3
   04/05/2017 14:30      83.7      82.8       17     34.5      0.00     18.10      67.6     0.39      1015.0     6       201        10       184        8.90     266      482.2
   04/05/2017 14:20      84.0      83.5       17     35.0      0.00     18.10      67.7     0.39      1016.0     5       155        10       190        8.90     266      494.4
   04/05/2017 14:10      84.2      82.9       18     35.7      0.00     18.10      67.4     0.39      1016.0     6       188        10       202        8.89     266      486.5
   04/05/2017 14:00      85.3      84.0       19     37.5      0.00     18.10      67.4     0.39      1016.0     5       181         8       210        8.88     267      502.9
   04/05/2017 13:50      85.4      84.5       17     35.4      0.00     18.10      67.5     0.39      1016.0     3       166         7       115        8.87     268      505.0
   04/05/2017 13:40      86.2      85.4       16     33.6      0.00     18.10      67.4     0.39      1016.0     4        49         7        80        8.86     267      498.5
   04/05/2017 13:30      86.2      84.9       16     33.4      0.00     18.10      67.4     0.39      1016.0     2         8         4        87        8.85     267      501.4
   04/05/2017 13:20      85.7      84.8       16     33.3      0.00     18.10      67.4     0.39      1016.0     3        43         6        80        8.84     267      525.7
   04/05/2017 13:10      85.0      84.6       16     33.9      0.00     18.10      67.2     0.39      1016.0     4        52         6        61        8.84     268      523.9
   04/05/2017 13:00      85.2      83.7       16     34.0      0.00     18.10      67.2     0.39      1016.0     2        36         5       107        8.83     268      528.9
   04/05/2017 12:50      85.3      82.9       17     35.0      0.00     18.10      67.3     0.39      1016.0     3        11         5        33        8.80     268      530.7
   04/05/2017 12:40      84.2      82.9       17     34.5      0.00     18.10      67.2     0.39      1016.0     2       296         4       307        8.79     268      531.5
   04/05/2017 12:30      84.4      83.1       17     34.8      0.00     18.10      67.1     0.39      1017.0     3        61         6       123        8.77     269      531.8
   04/05/2017 12:20      84.0      82.7       20     37.7      0.00     18.10      67.1     0.39      1017.0     3        13         4        28        8.75     269      524.5
   04/05/2017 12:10      83.6      82.0       20     37.7      0.00     18.10      67.5     0.39      1017.0     3        39         5        34        8.73     269      511.1
   04/05/2017 12:00      82.5      81.8       22     38.9      0.00     18.10      67.2     0.39      1017.0     2        22         5        32        8.71     270      521.3
   04/05/2017 11:50      82.1      81.4       21     38.4      0.00     18.10      67.1     0.39      1017.0     3        62         6        71        8.68     269      517.0
   04/05/2017 11:40      81.4      80.9       22     38.1      0.00     18.10      67.1     0.39      1017.0     3        29         4        20        8.67     269      509.6
   04/05/2017 11:30      81.2      80.4       21     37.2      0.00     18.10      67.0     0.39      1017.0     4        60         7        65        8.65     269      503.0
   04/05/2017 11:20      80.2      79.0       23     38.2      0.00     18.10      67.0     0.39      1017.0     3        39         5       109        8.63     270      496.0
   04/05/2017 11:10      79.1      78.4       23     37.5      0.00     18.10      67.2     0.39      1017.0     4        65         6        83        8.62     269      482.6
   04/05/2017 11:00      78.7      77.8       24     38.5      0.00     18.10      67.0     0.39      1018.0     2        68         4        61        8.59     270      469.5
   04/05/2017 10:50      77.5      76.2       28     41.5      0.00     18.10      67.1     0.39      1018.0     2        26         5        73        8.56     270      451.3
   04/05/2017 10:40      76.5      75.5       32     43.6      0.00     18.10      67.3     0.39      1018.0     2       327         3         0        8.54     270      436.2
   04/05/2017 10:30      76.1      75.1       32     44.1      0.00     18.10      67.4     0.39      1018.0     2        34         3         3        8.52     270      416.8
   04/05/2017 10:20      75.4      73.9       36     45.6      0.00     18.10      67.3     0.39      1018.0     1       284         2       134        8.47     270      379.0
   04/05/2017 10:10      74.2      72.1       38     46.0      0.00     18.10      67.1     0.39      1018.0     1       293         2       121        8.44     271      349.1
   04/05/2017 10:00      72.7      70.8       40     46.3      0.00     18.10      67.4     0.39      1018.0     1       298         2       159        8.42     272      314.2
   04/05/2017 09:50      71.1      70.2       41     46.1      0.00     18.10      67.0     0.39      1018.0     2       143         2       107        8.38     272      326.8
   04/05/2017 09:40      70.3      69.2       45     47.8      0.00     18.10      67.4     0.39      1018.0     1       114         2       110        8.30     272      298.9
   04/05/2017 09:30      69.3      68.6       50     49.2      0.00     18.10      67.5     0.39      1018.0     1        51         2        84        8.21     272      254.7
   04/05/2017 09:20      68.8      67.2       52     49.6      0.00     18.10      67.3     0.39      1018.0     1       328         2        99        8.13     272      281.0
   04/05/2017 09:10      67.0      65.3       57     50.0      0.00     18.10      67.5     0.39      1018.0     2        30         3         9        8.04     272      259.8
   04/05/2017 09:00      65.9      65.5       58     50.4      0.00     18.10      67.6     0.39      1018.0     2         3         2         0        8.18     272      212.5
   04/05/2017 08:50      66.1      64.9       58     50.6      0.00     18.10      67.3     0.39      1018.0     1         9         2         2        8.18     272      230.1
   04/05/2017 08:40      64.7      62.9       62     50.4      0.00     18.10      67.8     0.39      1018.0     1        45         1        45        8.18     271      188.9
   04/05/2017 08:30      62.9      61.3       65     49.9      0.00     18.10      67.6     0.39      1018.0     1        62         2        79        8.18     272      115.0
   04/05/2017 08:20      61.3      60.4       67     49.7      0.00     18.10      67.7     0.39      1018.0     1        99         2        82        8.18     272      115.0
   04/05/2017 08:10      60.4      59.1       70     49.9      0.00     18.10      67.3     0.39      1018.0     1       131         1       109        8.18     272      118.5
   04/05/2017 08:00      59.0      57.2       73     49.6      0.00     18.10      67.5     0.39      1018.0     1       103         2        72        8.19     272      119.3
   04/05/2017 07:50      57.2      55.3       79     49.7      0.00     18.10      67.5     0.39      1018.0     1        87         2        96        8.19     273      109.0
   04/05/2017 07:40      55.1      53.1       85     49.5      0.00     18.10      67.7     0.39      1018.0     0       127         1        70        8.19     273      112.1
   04/05/2017 07:30      53.1      52.0       89     49.3      0.00     18.10      67.4     0.39      1017.0     0        60         0       104        8.19     273       55.1
   04/05/2017 07:20      52.2      51.3       90     48.7      0.00     18.10      67.5     0.39      1017.0     0       121         1       125        8.19     272       30.4
   04/05/2017 07:10      51.4      50.9       91     48.6      0.00     18.10      67.5     0.39      1017.0     0        54         1        28        8.19     272       15.6
   04/05/2017 07:00      51.2      50.6       91     48.6      0.00     18.10      68.0     0.40      1017.0     1       346         1       275        8.19     272        2.5
   04/05/2017 06:50      50.8      50.6       91     48.2      0.00     18.10      67.8     0.40      1017.0     1       178         1       253        8.19     272       -8.6
   04/05/2017 06:40      51.2      50.8       91     48.5      0.00     18.10      68.2     0.40      1017.0     1       101         1       100        8.19     272      -14.8
   04/05/2017 06:30      51.3      50.9       91     48.5      0.00     18.10      67.8     0.40      1017.0     0       155         1       128        8.19     271      -18.6
   04/05/2017 06:20      51.2      50.9       90     48.2      0.00     18.10      68.0     0.40      1017.0     1       180         1       174        8.19     270      -20.0
   04/05/2017 06:10      51.4      51.2       90     48.3      0.00     18.10      68.0     0.40      1017.0     0       241         1       233        8.19     270      -20.8
   04/05/2017 06:00      51.6      51.3       89     48.5      0.00     18.10      68.1     0.40      1017.0     1       130         1       116        8.19     269      -22.4
   04/05/2017 05:50      51.7      51.2       89     48.3      0.00     18.10      67.8     0.40      1017.0     1       198         1       234        8.19     269      -23.6
   04/05/2017 05:40      51.5      51.0       89     48.2      0.00     18.10      68.0     0.40      1017.0     1       192         2       144        8.19     269      -24.5
   04/05/2017 05:30      51.5      51.0       88     47.8      0.00     18.10      68.3     0.40      1017.0     1       162         2       140        8.19     269      -26.0
   04/05/2017 05:20      51.7      51.3       87     47.8      0.00     18.10      68.1     0.40      1017.0     1       138         3       144        8.19     268      -26.6
   04/05/2017 05:10      52.3      51.8       86     47.8      0.00     18.10      68.4     0.40      1017.0     1       156         2       276        8.19     269      -27.1
   04/05/2017 05:00      52.3      51.8       87     48.3      0.00     18.10      68.5     0.40      1017.0     1       281         2       295        8.19     268      -27.4
   04/05/2017 04:50      52.5      51.7       86     48.0      0.00     18.10      68.4     0.40      1017.0     1       117         2        81        8.19     268      -27.6
   04/05/2017 04:40      52.6      51.9       88     48.8      0.00     18.10      68.4     0.40      1017.0     1       282         3       306        8.19     268      -27.6
   04/05/2017 04:30      52.3      52.2       89     49.0      0.00     18.10      68.3     0.40      1017.0     1       101         1       115        8.19     268      -27.1
   04/05/2017 04:20      52.2      51.5       89     48.6      0.00     18.10      68.4     0.40      1017.0     1       149         2       133        8.19     268      -29.2
   04/05/2017 04:10      51.7      51.4       89     48.3      0.00     18.10      68.7     0.40      1017.0     2       139         3       141        8.19     268      -30.7
   04/05/2017 04:00      51.8      51.4       88     48.2      0.00     18.10      68.4     0.40      1017.0     2       159         3       158        8.20     268      -32.7
   04/05/2017 03:50      52.6      51.9       87     48.5      0.00     18.10      68.4     0.40      1017.0     1       141         3       160        8.20     268      -34.2
   04/05/2017 03:40      52.7      52.2       87     48.7      0.00     18.10      68.7     0.40      1017.0     1       167         1       190        8.20     268      -36.1
   04/05/2017 03:30      52.6      52.2       87     48.5      0.00     18.10      68.5     0.40      1017.0     1       171         2       157        8.20     267      -37.6
   04/05/2017 03:20      52.7      52.3       88     49.1      0.00     18.10      68.4     0.40      1017.0     1       208         1       240        8.20     268      -38.6
   04/05/2017 03:10      52.5      52.2       89     49.1      0.00     18.10      68.6     0.40      1017.0     1       161         2       133        8.20     268      -41.5
   04/05/2017 03:00      52.8      52.5       88     49.3      0.00     18.10      68.2     0.40      1017.0     1       158         2       202        8.20     268      -44.6
   04/05/2017 02:50      53.2      52.6       88     49.4      0.00     18.10      68.3     0.40      1017.0     1       181         2       200        8.20     268      -46.6
   04/05/2017 02:40      53.0      52.8       87     49.1      0.00     18.10      68.2     0.40      1017.0     1       185         2       215        8.20     268      -50.4
   04/05/2017 02:30      53.0      52.6       85     48.5      0.00     18.10      68.6     0.40      1017.0     2       172         2       144        8.20     268      -55.4
   04/05/2017 02:20      53.7      52.9       84     48.8      0.00     18.10      68.6     0.40      1017.0     2       151         2       141        8.21     268      -56.3
   04/05/2017 02:10      54.0      53.7       84     49.0      0.00     18.10      68.6     0.40      1017.0     1       190         2       179        8.21     268      -57.5
   04/05/2017 02:00      54.1      53.6       81     48.1      0.00     18.10      68.6     0.40      1017.0     1       153         2       141        8.21     268      -60.3
   04/05/2017 01:50      54.9      54.2       78     47.9      0.00     18.10      68.6     0.40      1017.0     2       223         2       250        8.22     268      -60.4
   04/05/2017 01:40      55.0      54.2       77     47.5      0.00     18.10      68.5     0.40      1017.0     1       259         2       249        8.22     268      -60.1
   04/05/2017 01:30      54.8      54.5       75     47.1      0.00     18.10      68.7     0.40      1017.0     0       200         1       236        8.22     268      -60.5
   04/05/2017 01:20      54.7      54.4       75     46.9      0.00     18.10      69.0     0.40      1017.0     1       160         1       134        8.22     268      -61.4
   04/05/2017 01:10      54.6      54.4       76     46.9      0.00     18.10      68.8     0.40      1017.0     0       158         1       161        8.23     268      -61.4
   04/05/2017 01:00      55.0      54.6       74     46.7      0.00     18.10      68.8     0.40      1017.0     1       132         1       121        8.23     268      -62.1
   04/05/2017 00:50      55.0      54.2       76     46.9      0.00     18.10      68.8     0.40      1017.0     1       161         2       142        8.23     268      -61.9
   04/05/2017 00:40      54.7      54.3       77     47.4      0.00     18.10      68.7     0.40      1017.0     2       141         2       144        8.23     269      -62.3
   04/05/2017 00:30      55.2      54.9       77     47.8      0.00     18.10      68.8     0.40      1017.0     2       132         2       127        8.24     269      -63.2
   04/05/2017 00:20      55.9      55.2       75     47.6      0.00     18.10      68.8     0.40      1017.0     1       140         2       127        8.25     269      -63.9
   04/05/2017 00:10      56.0      55.5       75     48.0      0.00     18.10      68.6     0.40      1017.0     1       178         1       206        8.25     269      -63.6
   04/05/2017 00:00      56.0      55.7       75     48.2      0.00     18.10      69.0     0.40      1017.0     1       119         2       126        8.26     269      -64.8
   04/04/2017 23:50      56.5      56.3       74     48.4      0.00     18.10      68.7     0.40      1017.0     1       141         2       125        8.26     269      -64.2
   04/04/2017 23:40      57.0      56.5       74     48.4      0.00     18.10      69.1     0.40      1017.0     1       193         2       172        8.27     269      -63.2
   04/04/2017 23:30      57.2      56.6       74     48.6      0.00     18.10      69.0     0.40      1017.0     2       161         3       176        8.27     269      -63.2
   04/04/2017 23:20      58.5      57.1       71     48.5      0.00     18.10      69.1     0.40      1017.0     1       218         2       133        8.27     269      -62.3
   04/04/2017 23:10      58.6      58.0       71     49.0      0.00     18.10      69.1     0.40      1017.0     1       229         1       264        8.27     269      -63.0
   04/04/2017 23:00      58.1      57.8       74     49.6      0.00     18.10      69.1     0.40      1017.0     1       149         2       142        8.27     269      -65.5
   04/04/2017 22:50      58.3      58.0       72     49.2      0.00     18.10      69.0     0.40      1017.0     1       181         1       184        8.28     269      -66.7
   04/04/2017 22:40      58.6      58.3       72     49.5      0.00     18.10      69.2     0.40      1017.0     1       163         2       177        8.28     269      -66.6
   04/04/2017 22:30      59.4      58.5       70     49.2      0.00     18.10      69.3     0.40      1017.0     1       162         2       233        8.28     269      -67.2
   04/04/2017 22:20      59.5      59.0       69     49.2      0.00     18.10      69.0     0.40      1017.0     3       213         3       205        8.28     269      -66.9
   04/04/2017 22:10      59.4      58.7       71     49.6      0.00     18.10      69.0     0.40      1017.0     1       161         3       212        8.28     269      -67.3
   04/04/2017 22:00      59.6      59.1       70     49.5      0.00     18.10      69.1     0.40      1017.0     1        21         2       332        8.28     269      -68.4
   04/04/2017 21:50      60.7      59.9       67     49.4      0.00     18.10      68.8     0.40      1017.0     1        55         1        67        8.28     269      -69.5
   04/04/2017 21:40      61.0      60.8       67     49.7      0.00     18.10      69.1     0.40      1017.0     1       206         2       297        8.28     269      -69.4
   04/04/2017 21:30      62.1      60.9       65     49.4      0.00     18.10      68.9     0.40      1016.0     1       331         2       305        8.28     269      -69.9
   04/04/2017 21:20      62.5      62.3       63     49.8      0.00     18.10      68.9     0.40      1016.0     1       117         1        32        8.28     268      -69.7
   04/04/2017 21:10      62.8      62.3       63     49.9      0.00     18.10      68.8     0.40      1016.0     1       295         1       284        8.28     268      -69.3
   04/04/2017 21:00      63.5      62.8       63     50.1      0.00     18.10      68.9     0.40      1016.0     1       213         1       221        8.28     268      -70.8
   04/04/2017 20:50      64.0      63.5       61     50.2      0.00     18.10      68.7     0.40      1016.0     1       256         1       199        8.28     268      -70.3
   04/04/2017 20:40      65.4      64.3       59     50.3      0.00     18.10      68.8     0.40      1016.0     1       231         2       243        8.28     268      -71.4
   04/04/2017 20:30      65.5      65.3       58     50.3      0.00     18.10      68.8     0.40      1016.0     1       261         2       271        8.29     269      -72.7
   04/04/2017 20:20      65.9      65.6       58     50.4      0.00     18.10      68.7     0.40      1016.0     1       218         2       239        8.29     268      -72.3
   04/04/2017 20:10      66.1      65.8       58     50.5      0.00     18.10      68.8     0.40      1016.0     2       237         4       247        8.29     268      -73.7
   04/04/2017 20:00      66.5      66.2       57     50.7      0.00     18.10      68.7     0.40      1015.0     2       194         3       233        8.29     268      -77.1
   04/04/2017 19:50      67.4      66.7       56     50.9      0.00     18.10      68.6     0.40      1015.0     2       207         4       223        8.29     268      -79.3
   04/04/2017 19:40      67.8      67.4       55     50.8      0.00     18.10      68.8     0.40      1015.0     3       231         5       220        8.29     267      -80.7
   04/04/2017 19:30      68.2      67.5       54     50.6      0.00     18.10      68.6     0.40      1015.0     3       234         5       249        8.29     268      -80.1
   04/04/2017 19:20      69.2      68.4       48     48.3      0.00     18.10      68.9     0.40      1015.0     3       222         4       239        8.29     267      -76.1
   04/04/2017 19:10      70.8      69.2       46     48.3      0.00     18.10      68.6     0.39      1015.0     2       238         3       260        8.29     267      -68.7
   04/04/2017 19:00      71.3      71.0       44     48.1      0.00     18.10      68.4     0.40      1015.0     3       289         5       309        8.29     267      -54.5
   04/04/2017 18:50      72.2      71.5       43     47.9      0.00     18.10      68.5     0.39      1015.0     4       313         5       309        8.29     267      -43.1
   04/04/2017 18:40      72.3      71.7       43     48.4      0.00     18.10      68.3     0.39      1015.0     3       284         4       283        8.29     267      -36.7
   04/04/2017 18:30      72.3      71.7       45     49.6      0.00     18.10      68.5     0.39      1015.0     4       238         5       265        8.30     266      -29.0
   04/04/2017 18:20      72.7      72.2       44     49.7      0.00     18.10      68.4     0.39      1014.0     4       253         7       254        8.30     266      -16.8
   04/04/2017 18:10      73.4      72.9       43     49.3      0.00     18.10      68.3     0.39      1014.0     4       291         6       253        8.30     266       16.8
   04/04/2017 18:00      73.4      73.2       43     49.5      0.00     18.10      68.2     0.39      1014.0     5       304         8       312        8.30     266       93.1
   04/04/2017 17:50      73.7      73.2       44     50.3      0.00     18.10      68.2     0.39      1014.0     5       294        10       286        8.30     266       75.3
   04/04/2017 17:40      73.8      73.3       45     50.6      0.00     18.10      68.0     0.39      1014.0     4       295         7       291        8.30     266       28.3
   04/04/2017 17:30      74.4      73.3       44     50.6      0.00     18.10      68.0     0.39      1014.0     5       264         8       266        8.31     266       40.6
   04/04/2017 17:20      75.6      74.6       42     50.7      0.00     18.10      67.9     0.39      1014.0     4       308         7       256        8.31     266       82.8
   04/04/2017 17:10      77.1      75.8       36     47.0      0.00     18.10      67.9     0.39      1014.0     4       286         7       289        8.31     266       72.6
   04/04/2017 17:00      77.4      77.0       23     36.1      0.00     18.10      67.9     0.39      1014.0     3       160         6       224        8.31     265      118.0
   04/04/2017 16:50      77.8      77.4       21     34.1      0.00     18.10      67.7     0.39      1014.0     4       178         8       226        8.31     265      228.9
   04/04/2017 16:40      77.5      77.0       20     33.5      0.00     18.10      67.7     0.39      1014.0     5       172         8       157        8.31     266      241.4
   04/04/2017 16:30      77.5      77.3       20     33.2      0.00     18.10      67.8     0.39      1014.0     5       168         9       158        8.31     266      274.5
   04/04/2017 16:20      77.8      77.2       20     33.8      0.00     18.10      67.5     0.39      1014.0     6       163         9       176        8.32     266      289.1
   04/04/2017 16:10      77.8      77.0       22     35.1      0.00     18.10      67.5     0.39      1014.0     6       172         9       170        8.32     266      327.2
   04/04/2017 16:00      77.9      77.1       23     36.8      0.00     18.10      67.3     0.39      1014.0     5       150         6       126        8.32     266      334.8
   04/04/2017 15:50      77.3      76.2       24     36.9      0.00     18.10      67.3     0.39      1014.0     5       148         6       140        8.32     266      350.0
   04/04/2017 15:40      78.2      76.3       25     38.6      0.00     18.10      67.2     0.39      1014.0     6       185         8       180        8.32     266      376.7
   04/04/2017 15:30      78.5      77.9       27     41.2      0.00     18.10      67.2     0.39      1014.0     5       140         6       134        8.32     267      393.5
   04/04/2017 15:20      79.5      78.0       25     40.3      0.00     18.10      67.2     0.39      1014.0     5       119         9       140        8.32     268      411.0
   04/04/2017 15:10      79.2      77.5       23     37.4      0.00     18.10      67.0     0.39      1014.0     4        66         7        71        8.32     268      422.7
   04/04/2017 15:00      78.5      76.9       26     40.4      0.00     18.10      67.0     0.39      1014.0     6       149         9       128        8.32     268      437.4
   04/04/2017 14:50      80.7      79.3       24     40.7      0.00     18.10      67.0     0.39      1014.0     4        75         9       136        8.32     268      446.1
   04/04/2017 14:40      81.2      78.7       23     39.1      0.00     18.10      66.8     0.39      1014.0     3        50         4        67        8.32     267      461.8
   04/04/2017 14:30      79.0      77.9       25     39.3      0.00     18.10      66.9     0.39      1014.0     4        73         8       124        8.32     267      481.2
   04/04/2017 14:20      79.9      78.5       24     39.4      0.00     18.10      66.8     0.39      1014.0     5        79         8        79        8.32     268      488.9
   04/04/2017 14:10      78.7      77.3       24     37.9      0.00     18.10      66.9     0.39      1014.0     4        89         6        58        8.32     268      501.2
   04/04/2017 14:00      79.7      78.8       26     41.1      0.00     18.10      66.8     0.39      1015.0     5       113         8       130        8.32     268      510.6
   04/04/2017 13:50      79.9      77.8       27     41.6      0.00     18.10      66.7     0.39      1015.0     4        80         6       110        8.32     269      513.7
   04/04/2017 13:40      78.7      78.2       28     43.0      0.00     18.10      66.6     0.39      1015.0     4        68         8        95        8.32     269      520.4
   04/04/2017 13:30      78.7      77.5       27     41.8      0.00     18.10      66.7     0.39      1015.0     4        79         5        67        8.33     268      526.6
   04/04/2017 13:20      79.3      77.2       29     43.0      0.00     18.10      66.8     0.39      1015.0     2        78         6       137        8.33     269      526.8
   04/04/2017 13:10      77.4      76.8       30     43.2      0.00     18.10      66.8     0.39      1015.0     2        13         4       305        8.33     270      531.6
   04/04/2017 13:00      77.4      75.5       31     43.2      0.00     18.10      66.5     0.39      1015.0     2        13         4        96        8.33     270      538.0
   04/04/2017 12:50      74.9      73.9       33     43.3      0.00     18.10      66.5     0.39      1015.0     2       358         4       332        8.33     270      537.2
   04/04/2017 12:40      75.4      73.9       33     43.8      0.00     18.10      66.3     0.39      1016.0     3       354         5        35        8.33     270      536.2
   04/04/2017 12:30      75.4      72.7       36     44.9      0.00     18.10      66.7     0.39      1016.0     2       354         5       359        8.33     270      536.0
   04/04/2017 12:20      72.6      72.2       38     45.1      0.00     18.10      66.7     0.39      1016.0     3       355         4       354        8.33     270      534.2
   04/04/2017 12:10      71.8      70.9       40     45.6      0.00     18.10      66.2     0.39      1016.0     2        52         4        22        8.33     270      534.3
   04/04/2017 12:00      71.7      69.3       43     46.9      0.00     18.10      66.8     0.39      1016.0     3       359         4         8        8.33     271      527.2
   04/04/2017 11:50      69.9      68.8       44     46.8      0.00     18.10      66.6     0.39      1016.0     3        95         5       126        8.33     271      521.5
   04/04/2017 11:40      68.7      66.3       48     47.1      0.00     18.10      66.6     0.39      1016.0     3         3         5       357        8.33     271      513.4
   04/04/2017 11:30      67.1      66.1       50     47.5      0.00     18.10      66.7     0.39      1016.0     2       252         3       201        8.33     271      503.6
   04/04/2017 11:20      66.8      65.7       51     47.3      0.00     18.10      66.4     0.39      1016.0     1       320         3       266        8.33     271      491.2
   04/04/2017 11:10      66.8      66.0       51     47.5      0.00     18.10      66.5     0.39      1016.0     3       349         4         9        8.33     271      480.5
   04/04/2017 11:00      66.5      65.8       51     47.6      0.00     18.10      66.9     0.39      1016.0     2        57         4        76        8.33     271      469.1
   04/04/2017 10:50      65.7      64.4       54     47.9      0.00     18.10      66.5     0.39      1016.0     2       358         5       355        8.33     271      456.4
   04/04/2017 10:40      65.0      64.0       54     47.6      0.00     18.10      66.5     0.39      1016.0     2       357         3         0        8.33     271      438.6
   04/04/2017 10:30      64.3      63.1       56     47.6      0.00     18.10      66.9     0.39      1017.0     2       288         3       326        8.33     271      422.9
   04/04/2017 10:20      64.2      62.5       58     47.8      0.00     18.10      66.5     0.39      1017.0     1       322         3       349        8.33     271      401.0
   04/04/2017 10:10      62.5      60.9       61     47.8      0.00     18.10      66.8     0.39      1016.0     2        19         3        23        8.33     272      385.4
   04/04/2017 10:00      62.5      61.5       60     48.0      0.00     18.10      66.8     0.39      1016.0     2        45         3        25        8.33     275      364.2
   04/04/2017 09:50      61.4      59.3       64     47.9      0.00     18.10      66.9     0.39      1016.0     2        19         3        25        8.33     274      347.3
   04/04/2017 09:40      59.4      58.7       66     47.8      0.00     18.10      67.0     0.39      1016.0     3       358         6         3        8.33     275      326.0
   04/04/2017 09:30      59.1      58.2       67     47.7      0.00     18.10      66.6     0.39      1016.0     2        12         4       334        8.33     275      301.1
   04/04/2017 09:20      58.8      58.2       67     47.9      0.00     18.10      67.0     0.39      1016.0     2         3         3       320        8.33     276      270.6
   04/04/2017 09:10      58.1      57.5       69     47.8      0.00     18.10      66.8     0.40      1016.0     2        17         4        28        8.33     276      251.0
   04/04/2017 09:00      57.6      56.9       70     47.6      0.00     18.10      67.0     0.40      1016.0     2       347         3       339        8.33     277      229.7
   04/04/2017 08:50      57.9      56.8       71     47.7      0.00     18.10      67.1     0.40      1016.0     1         1         2        42        8.33     277      199.3
   04/04/2017 08:40      57.3      56.3       71     47.4      0.00     18.10      67.2     0.40      1016.0     2         5         3         5        8.34     277      167.4
   04/04/2017 08:30      57.0      56.2       72     47.4      0.00     18.10      66.9     0.40      1016.0     2        29         3        64        8.34     277      137.2
   04/04/2017 08:20      56.4      56.0       72     47.4      0.00     18.10      67.5     0.40      1016.0     2        83         2       113        8.34     278      125.4
   04/04/2017 08:10      56.1      54.0       77     47.8      0.00     18.10      66.8     0.40      1017.0     1       207         2       210        8.34     278      114.9
   04/04/2017 08:00      53.8      52.6       82     47.8      0.00     18.10      67.1     0.40      1017.0     1       147         2       147        8.34     279       89.0
   04/04/2017 07:50      52.6      51.7       86     48.0      0.00     18.10      67.1     0.40      1016.0     2       161         3       151        8.34     279       60.1
   04/04/2017 07:40      51.8      51.0       88     48.1      0.00     18.10      67.2     0.40      1016.0     1       159         2       149        8.34     279       33.0
   04/04/2017 07:30      51.0      50.3       89     47.6      0.00     18.10      66.9     0.40      1016.0     1       143         1       169        8.34     279       28.3
   04/04/2017 07:20      50.3      50.0       89     47.1      0.00     18.10      66.9     0.40      1016.0     1       156         2       155        8.34     279        7.1
   04/04/2017 07:10      50.1      49.2       90     46.7      0.00     18.10      67.1     0.40      1016.0     1       211         2       213        8.34     279        9.6
   04/04/2017 07:00      49.7      49.3       90     46.6      0.00     18.10      67.3     0.40      1016.0     1       186         1       189        8.34     279       -5.7
   04/04/2017 06:50      49.8      49.5       90     46.8      0.00     18.10      67.3     0.40      1015.0     1       155         1       143        8.34     278      -15.9
   04/04/2017 06:40      50.1      49.6       90     47.0      0.00     18.10      67.2     0.40      1015.0     1       132         2       150        8.34     278      -18.8
   04/04/2017 06:30      50.2      49.7       91     47.2      0.00     18.10      67.1     0.40      1015.0     1       315         1       339        8.34     278      -17.3
   04/04/2017 06:20      49.6      49.3       91     46.8      0.00     18.10      67.1     0.40      1015.0     1       181         2       133        8.34     278       -9.9
   04/04/2017 06:10      49.6      49.2       91     46.9      0.00     18.10      67.4     0.40      1015.0     1       209         2       232        8.34     278      -16.6
   04/04/2017 06:00      49.4      49.1       91     46.6      0.00     18.10      67.3     0.40      1015.0     1       131         1       143        8.34     277      -23.9
   04/04/2017 05:50      49.7      49.2       90     46.7      0.00     18.10      67.2     0.40      1015.0     2       148         3       153        8.34     276      -25.9
   04/04/2017 05:40      49.9      49.7       90     47.1      0.00     18.10      67.6     0.40      1015.0     1       157         1       105        8.34     275      -21.3
   04/04/2017 05:30      50.0      49.7       90     47.0      0.00     18.10      67.5     0.40      1015.0     1       128         2        98        8.34     274      -21.5
   04/04/2017 05:20      50.2      49.6       89     46.8      0.00     18.10      67.5     0.40      1015.0     2       146         2       162        8.34     274      -24.5
   04/04/2017 05:10      50.3      50.2       89     47.1      0.00     18.10      67.6     0.40      1015.0     1       148         1       163        8.34     274      -24.9
   04/04/2017 05:00      50.4      50.2       89     47.1      0.00     18.10      67.7     0.40      1015.0     1        76         1        69        8.34     273      -22.8
   04/04/2017 04:50      50.4      50.0       89     47.1      0.00     18.10      67.7     0.40      1015.0     1       146         1       157        8.34     274      -10.7
   04/04/2017 04:40      50.0      49.7       89     46.8      0.00     18.10      67.4     0.40      1014.0     0       133         1       147        8.34     274      -18.8
   04/04/2017 04:30      50.0      49.7       90     47.0      0.00     18.10      67.7     0.40      1014.0     1         3         2       318        8.34     274      -24.7
   04/04/2017 04:20      49.7      49.4       90     46.6      0.00     18.10      67.5     0.40      1014.0     1       178         1       283        8.34     274      -18.1
   04/04/2017 04:10      49.8      49.5       90     46.8      0.00     18.10      67.4     0.40      1014.0     2       140         4       158        8.34     273      -31.4
   04/04/2017 04:00      49.9      49.7       89     46.8      0.00     18.10      67.4     0.40      1014.0     2       149         4       159        8.34     272      -35.9
   04/04/2017 03:50      50.1      49.7       90     47.1      0.00     18.10      67.9     0.40      1014.0     2       138         3       174        8.34     272      -28.8
   04/04/2017 03:40      49.9      49.6       90     46.8      0.00     18.10      68.0     0.40      1014.0     2       159         4       182        8.34     272      -33.1
   04/04/2017 03:30      50.3      50.0       90     47.3      0.00     18.10      67.8     0.40      1014.0     2       131         3       149        8.34     271      -42.4
   04/04/2017 03:20      50.3      50.2       90     47.5      0.00     18.10      67.7     0.40      1014.0     1       255         2       152        8.34     270      -44.6
   04/04/2017 03:10      50.2      50.0       90     47.3      0.00     18.10      67.9     0.40      1014.0     1       146         3       136        8.34     271      -30.7
   04/04/2017 03:00      50.8      49.9       88     47.1      0.00     18.10      67.7     0.40      1014.0     2       152         3       148        8.34     270      -44.1
   04/04/2017 02:50      51.4      50.8       87     47.5      0.00     18.10      67.6     0.40      1015.0     2       177         2       137        8.34     270      -48.4
   04/04/2017 02:40      51.5      51.4       89     48.3      0.00     18.10      68.0     0.40      1015.0     2       192         2       217        8.34     269      -48.0
   04/04/2017 02:30      51.9      51.3       88     48.2      0.00     18.10      67.9     0.40      1015.0     1       132         2       168        8.34     269      -55.8
   04/04/2017 02:20      52.3      52.1       89     48.9      0.00     18.10      67.9     0.40      1015.0     1       213         2       196        8.34     269      -47.2
   04/04/2017 02:10      52.0      51.1       90     48.8      0.00     18.10      68.0     0.40      1015.0     1       195         1       124        8.34     270      -28.0
   04/04/2017 02:00      51.1      50.3       91     48.1      0.00     18.10      68.1     0.40      1015.0     1       147         2       129        8.34     270       -7.9
   04/04/2017 01:50      50.5      49.8       90     47.2      0.00     18.10      68.0     0.40      1015.0     2       193         3       191        8.34     270      -26.1
   04/04/2017 01:40      50.9      50.0       89     47.4      0.00     18.10      68.0     0.40      1015.0     2       166         2       152        8.34     269      -58.2
   04/04/2017 01:30      51.5      50.9       88     47.8      0.00     18.10      68.2     0.40      1015.0     2       170         3       163        8.34     268      -64.7
   04/04/2017 01:20      52.3      51.6       87     48.1      0.00     18.10      68.3     0.40      1015.0     1       135         2       160        8.34     268      -68.0
   04/04/2017 01:10      53.1      52.3       85     48.4      0.00     18.10      68.2     0.40      1015.0     1       131         1       124        8.34     269      -70.9
   04/04/2017 01:00      53.6      53.2       84     48.8      0.00     18.10      68.0     0.40      1014.0     0       182         1       220        8.34     269      -70.0
   04/04/2017 00:50      54.1      53.6       84     49.0      0.00     18.10      68.3     0.40      1014.0     0       153         1       134        8.34     269      -56.5
   04/04/2017 00:40      54.3      54.1       83     49.2      0.00     18.10      67.9     0.40      1014.0     1        77         1        73        8.34     270      -42.0
   04/04/2017 00:30      54.3      54.1       84     49.5      0.00     18.10      68.2     0.40      1014.0     1        65         1        95        8.34     270      -37.9
   04/04/2017 00:20      54.3      54.0       85     49.7      0.00     18.10      68.1     0.40      1014.0     1        73         1        54        8.34     270      -26.4
   04/04/2017 00:10      54.1      53.7       85     49.6      0.00     18.10      68.4     0.40      1014.0     1       191         1       148        8.34     270      -16.1
   04/04/2017 00:00      53.9      53.5       86     49.5      0.00     18.10      68.3     0.40      1014.0     1       226         1       220        8.34     270      -16.4
   04/03/2017 23:50      53.7      53.3       87     49.6      0.00     18.10      68.6     0.40      1014.0     1       139         1        53        8.34     270      -17.7
   04/03/2017 23:40      53.4      53.1       87     49.5      0.00     18.10      68.5     0.40      1014.0     1       123         2       130        8.34     270      -14.1
   04/03/2017 23:30      53.2      52.5       88     49.4      0.00     18.10      68.5     0.40      1014.0     1        77         2        63        8.34     270      -11.2
   04/03/2017 23:20      52.8      51.8       89     49.2      0.00     18.10      68.4     0.40      1014.0     2       102         3       174        8.34     270      -10.7
   04/03/2017 23:10      52.0      51.6       89     48.7      0.00     18.10      68.3     0.40      1014.0     2       156         4       142        8.35     270      -21.6
   04/03/2017 23:00      51.9      51.7       89     48.5      0.00     18.10      68.5     0.40      1014.0     3       150         4       166        8.35     270      -39.9
   04/03/2017 22:50      51.9      51.7       88     48.4      0.00     18.10      68.4     0.40      1014.0     2       141         3       161        8.35     270      -44.9
   04/03/2017 22:40      52.1      51.5       89     48.7      0.00     18.10      68.0     0.40      1014.0     2       168         3       190        8.35     269      -46.0
   04/03/2017 22:30      51.8      51.6       88     48.2      0.00     18.10      68.5     0.40      1014.0     1       130         2       141        8.35     269      -53.5
   04/03/2017 22:20      52.4      51.8       87     48.6      0.00     18.10      68.3     0.40      1014.0     1       116         2        75        8.35     270      -57.2
   04/03/2017 22:10      52.7      52.1       87     48.6      0.00     18.10      68.3     0.40      1014.0     1       158         2       186        8.35     270      -60.0
   04/03/2017 22:00      53.1      52.6       86     48.6      0.00     18.10      68.5     0.40      1014.0     1       180         1       188        8.35     270      -64.2
   04/03/2017 21:50      53.2      52.8       85     48.6      0.00     18.10      68.3     0.40      1013.0     1       188         1       166        8.35     270      -66.8
   04/03/2017 21:40      53.6      53.2       85     49.0      0.00     18.10      68.4     0.40      1013.0     1       105         1       150        8.35     270      -68.3
   04/03/2017 21:30      53.8      53.5       84     48.9      0.00     18.10      68.4     0.40      1013.0     1       147         2       146        8.36     270      -70.7
   04/03/2017 21:20      54.3      54.0       84     49.3      0.00     18.10      68.3     0.40      1013.0     2       143         2       153        8.36     270      -71.9
   04/03/2017 21:10      54.6      54.2       83     49.2      0.00     18.10      68.4     0.40      1013.0     1       149         2       162        8.36     270      -73.2
   04/03/2017 21:00      55.1      54.7       81     49.2      0.00     18.10      68.4     0.40      1013.0     1       139         1       148        8.36     270      -74.7
   04/03/2017 20:50      55.6      55.1       79     49.1      0.00     18.10      68.4     0.40      1013.0     1        93         1       116        8.36     270      -77.7
   04/03/2017 20:40      55.8      55.3       80     49.3      0.00     18.10      68.6     0.40      1013.0     2        72         3        79        8.37     274      -78.3
   04/03/2017 20:30      55.3      55.2       80     49.3      0.00     18.10      68.5     0.40      1013.0     3       170         4       193        8.37     269      -76.1
   04/03/2017 20:20      56.1      55.3       80     49.4      0.00     18.10      68.2     0.40      1013.0     4       148         5       124        8.37     269      -60.2
   04/03/2017 20:10      57.0      56.1       77     49.5      0.00     18.10      68.2     0.40      1013.0     4       114         6        89        8.37     269      -71.0
   04/03/2017 20:00      57.6      57.0       75     49.7      0.00     18.10      68.3     0.40      1012.0     4       120         6       124        8.37     269      -79.8
   04/03/2017 19:50      58.2      57.7       74     49.7      0.00     18.10      68.4     0.40      1012.0     2       100         4       104        8.37     269      -81.4
   04/03/2017 19:40      58.7      58.0       74     49.9      0.00     18.10      68.4     0.40      1012.0     4       149         6       143        8.38     269      -81.6
   04/03/2017 19:30      60.4      58.7       71     50.0      0.00     18.10      68.4     0.40      1012.0     3       144         5       126        8.38     269      -82.4
   04/03/2017 19:20      61.3      60.4       68     50.2      0.00     18.10      68.0     0.40      1012.0     3       168         4       193        8.38     269      -79.8
   04/03/2017 19:10      61.9      61.4       66     50.3      0.00     18.10      68.3     0.40      1012.0     3       215         4       185        8.38     269      -75.1
   04/03/2017 19:00      62.4      61.9       66     50.4      0.00     18.10      68.2     0.40      1011.0     3       229         5       232        8.38     269      -68.5
   04/03/2017 18:50      63.3      62.5       64     50.6      0.00     18.10      68.0     0.40      1011.0     4       218         6       253        8.38     268      -58.4
   04/03/2017 18:40      63.7      63.4       63     50.8      0.00     18.10      67.7     0.40      1011.0     4       227         5       251        8.39     268      -39.4
   04/03/2017 18:30      64.7      64.0       62     51.0      0.00     18.10      68.1     0.40      1011.0     4       221         6       241        8.39     268      -20.1
   04/03/2017 18:20      64.8      64.3       62     51.3      0.00     18.10      68.0     0.40      1011.0     3       221         6       264        8.39     268        2.4
   04/03/2017 18:10      64.8      64.3       62     51.2      0.00     18.10      67.9     0.40      1011.0     4       166         7       182        8.39     268       27.3
   04/03/2017 18:00      65.1      64.7       62     51.4      0.00     18.10      67.9     0.40      1011.0     3       181         5       196        8.40     268       55.3
   04/03/2017 17:50      65.0      64.2       62     51.3      0.00     18.10      67.9     0.40      1011.0     4       173         6       147        8.40     268       78.9
   04/03/2017 17:40      64.5      64.0       62     51.1      0.00     18.10      67.8     0.40      1011.0     4       149         7       146        8.41     268      100.0
   04/03/2017 17:30      64.4      64.2       62     51.0      0.00     18.10      67.8     0.40      1011.0     6       160         8       129        8.42     268      131.7
   04/03/2017 17:20      64.9      64.0       62     51.0      0.00     18.10      67.7     0.40      1011.0     6       144         9       135        8.43     268      165.7
   04/03/2017 17:10      65.3      64.8       60     51.1      0.00     18.10      67.8     0.40      1011.0     5       165         8       113        8.44     268      186.0
   04/03/2017 17:00      65.0      64.6       61     51.0      0.00     18.10      67.5     0.40      1011.0     6       159         9       156        8.44     268      212.4
   04/03/2017 16:50      65.9      64.7       60     50.9      0.00     18.10      67.5     0.40      1011.0     6       153        11       125        8.45     267      232.1
   04/03/2017 16:40      66.9      66.1       58     51.1      0.00     18.10      67.6     0.40      1011.0     6       169         8       158        8.46     268      256.2
   04/03/2017 16:30      67.6      66.4       58     51.3      0.00     18.10      67.4     0.40      1011.0     6       183         8       186        8.46     268      279.3
   04/03/2017 16:20      68.2      67.3       56     51.3      0.00     18.10      67.3     0.40      1010.0     5       153         7       144        8.47     268      286.6
   04/03/2017 16:10      68.4      67.6       55     51.2      0.00     18.10      67.3     0.39      1011.0     5       145         8       168        8.47     268      309.9
   04/03/2017 16:00      69.2      68.3       55     51.7      0.00     18.10      67.3     0.40      1011.0     4       193         7       141        8.49     268      333.4
   04/03/2017 15:50      68.6      68.2       55     51.6      0.00     18.10      67.0     0.39      1011.0     4       197         5       190        8.51     268      356.8
   04/03/2017 15:40      68.3      68.1       54     51.1      0.00     18.10      66.9     0.39      1011.0     5       146         8       168        8.52     268      379.2
   04/03/2017 15:30      68.8      68.3       54     51.5      0.00     18.10      67.2     0.39      1011.0     5       182         8       199        8.52     268      398.4
   04/03/2017 15:20      69.5      68.4       53     51.4      0.00     18.10      66.9     0.39      1011.0     4       171         6       184        8.52     268      412.7
   04/03/2017 15:10      68.8      68.2       53     50.8      0.00     18.10      66.9     0.39      1011.0     4       158         7       129        8.53     269      431.1
   04/03/2017 15:00      70.3      68.6       52     51.1      0.00     18.10      66.9     0.39      1011.0     5       151         7       151        8.53     269      451.0
   04/03/2017 14:50      71.2      69.5       49     50.5      0.00     18.10      66.7     0.39      1011.0     3        43         7       121        8.53     269      459.7
   04/03/2017 14:40      69.8      68.2       52     50.6      0.00     18.10      66.7     0.39      1011.0     4       127         6        74        8.53     268      474.0
   04/03/2017 14:30      69.0      68.2       53     50.7      0.00     18.10      66.8     0.39      1012.0     5       153         8       117        8.53     268      491.6
   04/03/2017 14:20      68.7      67.9       54     51.0      0.00     18.10      66.6     0.39      1012.0     4       183         6       179        8.53     268      499.6
   04/03/2017 14:10      70.5      67.8       51     50.4      0.00     18.10      66.5     0.39      1012.0     4       160         7       150        8.53     269      486.5
   04/03/2017 14:00      70.5      68.3       50     50.0      0.00     18.10      66.5     0.39      1012.0     3        59         5        83        8.53     269      525.4
   04/03/2017 13:50      69.0      68.1       51     49.6      0.00     18.10      66.3     0.39      1012.0     4        54         5        25        8.53     269      513.1
   04/03/2017 13:40      68.9      67.7       52     50.0      0.00     18.10      66.4     0.39      1012.0     4       104         7        87        8.53     269      541.0
   04/03/2017 13:30      69.3      68.5       50     49.7      0.00     18.10      66.3     0.39      1012.0     3        36         6       119        8.54     269      545.4
   04/03/2017 13:20      69.3      68.1       51     49.7      0.00     18.10      66.4     0.39      1012.0     3        24         4       103        8.54     269      545.9
   04/03/2017 13:10      69.8      67.7       52     50.1      0.00     18.10      66.2     0.39      1012.0     4       112         8       137        8.54     269      587.6
   04/03/2017 13:00      69.7      67.8       51     49.9      0.00     18.10      66.4     0.39      1012.0     3        69         6        88        8.54     269      614.2
   04/03/2017 12:50      68.1      67.2       53     49.8      0.00     18.10      66.2     0.39      1012.0     4        58         7        88        8.54     269      503.9
   04/03/2017 12:40      68.6      67.2       52     49.6      0.00     18.10      66.2     0.39      1013.0     3        49         6        74        8.54     270      599.8
   04/03/2017 12:30      67.7      66.7       53     49.8      0.00     18.10      66.5     0.39      1013.0     5        54         6        36        8.54     270      560.7
   04/03/2017 12:20      67.8      67.1       52     49.3      0.00     18.10      66.3     0.39      1013.0     5        47         7        23        8.54     270      518.2
   04/03/2017 12:10      68.2      66.9       52     48.9      0.00     18.10      66.2     0.39      1012.0     4        10         7        14        8.54     271      529.7
   04/03/2017 12:00      67.5      66.2       52     48.8      0.00     18.10      66.2     0.39      1013.0     4        38         6       111        8.54     271      525.7
   04/03/2017 11:50      66.9      66.3       53     48.8      0.00     18.10      66.3     0.39      1013.0     3        36         5         2        8.54     271      519.8
   04/03/2017 11:40      66.7      64.2       55     48.9      0.00     18.10      65.9     0.39      1013.0     3       345         4        23        8.54     271      508.8
   04/03/2017 11:30      64.9      64.6       56     48.5      0.00     18.10      66.1     0.39      1013.0     2       358         4       342        8.54     271      501.9
   04/03/2017 11:20      65.0      64.1       56     48.5      0.00     18.10      66.5     0.39      1013.0     4        18         5        81        8.54     271      490.0
   04/03/2017 11:10      64.3      63.6       57     48.4      0.00     18.10      66.2     0.39      1013.0     3         7         5        56        8.54     271      481.5
   04/03/2017 11:00      63.6      61.8       59     48.1      0.00     18.10      66.3     0.39      1013.0     2       340         3       317        8.54     271      466.6
   04/03/2017 10:50      62.8      61.4       59     48.0      0.00     18.10      66.4     0.39      1013.0     2       351         4        13        8.54     271      455.9
   04/03/2017 10:40      61.6      61.0       61     47.6      0.00     18.10      66.3     0.39      1014.0     2       332         4       317        8.54     271      437.4
   04/03/2017 10:30      61.5      60.8       62     47.9      0.00     18.10      66.3     0.39      1013.0     3        19         5        10        8.55     271      412.0
   04/03/2017 10:20      61.0      59.9       64     47.8      0.00     18.10      66.0     0.39      1013.0     3       346         6       341        8.55     271      406.4
   04/03/2017 10:10      60.7      59.4       64     47.9      0.00     18.10      66.0     0.39      1013.0     2       135         4        94        8.55     272      393.8
   04/03/2017 10:00      59.8      58.9       65     47.8      0.00     18.10      66.3     0.39      1013.0     3        98         5       122        8.55     272      376.8
   04/03/2017 09:50      58.8      57.0       69     47.5      0.00     18.10      66.4     0.40      1014.0     2       339         3       316        8.55     272      267.9
   04/03/2017 09:40      57.0      56.5       70     47.1      0.00     18.10      66.1     0.40      1014.0     2       312         4       332        8.55     272      156.0
   04/03/2017 09:30      57.0      56.4       71     47.4      0.00     18.10      66.4     0.40      1014.0     2       294         3       321        8.55     272      141.3
   04/03/2017 09:20      56.4      55.9       73     47.4      0.00     18.10      66.4     0.40      1014.0     1       204         3       156        8.55     273      130.0
   04/03/2017 09:10      56.0      55.5       73     47.3      0.00     18.10      66.4     0.40      1014.0     2       150         3       127        8.55     272      120.4
   04/03/2017 09:00      55.9      54.7       75     47.4      0.00     18.10      66.4     0.40      1013.0     2       231         4       239        8.55     272      128.5
   04/03/2017 08:50      55.0      54.4       77     47.5      0.00     18.10      66.5     0.40      1013.0     3       204         4       219        8.55     272      151.7
   04/03/2017 08:40      54.8      54.3       77     47.4      0.00     18.10      66.4     0.40      1013.0     3       154         4       166        8.55     272      121.6
   04/03/2017 08:30      55.1      54.5       76     47.3      0.00     18.10      66.7     0.40      1013.0     2       127         4       141        8.55     272       84.5
   04/03/2017 08:20      54.7      54.1       77     47.4      0.00     18.10      66.7     0.40      1013.0     2        49         3        85        8.55     272       65.9
   04/03/2017 08:10      54.3      53.8       79     47.8      0.00     18.10      66.8     0.40      1013.0     3       109         4        71        8.55     272       70.0
   04/03/2017 08:00      54.0      53.6       81     47.9      0.00     18.10      66.6     0.40      1013.0     3       132         4       101        8.55     272       48.4
   04/03/2017 07:50      53.8      53.5       81     48.0      0.00     18.10      66.5     0.40      1013.0     3       138         4       150        8.55     272       34.7
   04/03/2017 07:40      53.8      53.4       81     48.0      0.00     18.10      66.5     0.40      1013.0     2        77         5       140        8.55     272       23.0
   04/03/2017 07:30      53.4      53.0       82     48.0      0.00     18.10      66.7     0.40      1013.0     1       326         1         8        8.55     272        9.8
   04/03/2017 07:20      53.1      52.8       84     48.2      0.00     18.10      66.7     0.40      1013.0     2       133         3        21        8.55     272        2.3
   04/03/2017 07:10      53.2      52.8       83     48.0      0.00     18.10      66.7     0.40      1013.0     2       178         3       209        8.55     271       -2.5
   04/03/2017 07:00      53.3      53.1       83     48.2      0.00     18.10      66.8     0.40      1013.0     2        79         3       131        8.56     271       -7.5
   04/03/2017 06:50      53.2      53.0       84     48.3      0.00     18.10      66.8     0.40      1013.0     1        79         3        63        8.56     271      -10.0
   04/03/2017 06:40      53.1      52.8       84     48.4      0.00     18.10      66.9     0.40      1013.0     1        84         2        75        8.56     271      -10.4
   04/03/2017 06:30      53.1      52.7       85     48.4      0.00     18.10      66.5     0.40      1013.0     1       101         2       127        8.56     271       -9.6
   04/03/2017 06:20      52.9      52.6       85     48.4      0.00     18.10      66.8     0.40      1013.0     1       105         2        83        8.56     271       -8.6
   04/03/2017 06:10      52.9      52.5       86     48.5      0.00     18.10      67.2     0.40      1012.0     1       117         3        94        8.56     271       -7.7
   04/03/2017 06:00      52.8      52.3       86     48.4      0.00     18.10      67.0     0.40      1012.0     1       101         3        87        8.56     271       -7.4
   04/03/2017 05:50      52.4      52.0       86     48.3      0.00     18.10      66.9     0.40      1013.0     2       118         2       125        8.56     271       -6.9
   04/03/2017 05:40      52.1      51.7       87     48.0      0.00     18.10      67.1     0.40      1013.0     1       142         1       116        8.56     271       -5.6
   04/03/2017 05:30      51.9      51.6       87     48.0      0.00     18.10      66.7     0.40      1013.0     2       150         3       146        8.56     272       -4.8
   04/03/2017 05:20      51.8      51.5       89     48.5      0.00     18.10      67.1     0.40      1013.0     1       154         3       131        8.56     272       -3.8
   04/03/2017 05:10      51.6      50.8       90     48.4      0.00     18.10      67.0     0.40      1013.0     1       103         2       137        8.56     272       -3.1
   04/03/2017 05:00      50.8      49.4       91     47.7      0.00     18.10      67.1     0.40      1013.0     1       106         2       104        8.56     273       -2.9
   04/03/2017 04:50      49.4      48.6       91     46.5      0.00     18.10      67.3     0.40      1013.0     1       155         1       154        8.56     273       -2.1
   04/03/2017 04:40      48.7      48.3       91     46.0      0.00     18.10      67.1     0.40      1013.0     1       148         1       134        8.56     272       -3.7
   04/03/2017 04:30      48.8      48.3       91     46.1      0.00     18.10      67.0     0.40      1013.0     2       140         2       135        8.56     271      -16.0
   04/03/2017 04:20      48.9      48.7       91     46.3      0.00     18.10      67.6     0.40      1013.0     1       151         3       141        8.56     271      -18.7
   04/03/2017 04:10      49.1      48.9       91     46.5      0.00     18.10      67.3     0.40      1013.0     2       147         2       143        8.56     271      -19.8
   04/03/2017 04:00      49.4      49.1       91     46.7      0.00     18.10      67.3     0.40      1013.0     2       135         2       138        8.56     271      -21.3
   04/03/2017 03:50      49.5      49.3       91     46.7      0.00     18.10      67.6     0.40      1013.0     2       145         2       133        8.56     271      -22.1
   04/03/2017 03:40      49.9      49.6       90     46.9      0.00     18.10      67.5     0.40      1013.0     1       151         2       143        8.56     270      -23.8
   04/03/2017 03:30      49.9      49.7       89     46.8      0.00     18.10      67.6     0.40      1013.0     1       152         1       126        8.56     270      -25.9
   04/03/2017 03:20      49.9      49.7       89     46.8      0.00     18.10      67.6     0.40      1013.0     1       150         1       134        8.56     270      -28.0
   04/03/2017 03:10      50.1      49.8       89     46.9      0.00     18.10      67.6     0.40      1014.0     0       125         1       120        8.56     270      -30.1
   04/03/2017 03:00      50.1      49.5       89     46.8      0.00     18.10      67.8     0.40      1014.0     1       126         1       116        8.56     269      -33.0
   04/03/2017 02:50      49.7      49.4       88     46.3      0.00     18.10      67.7     0.40      1014.0     2       130         2       140        8.56     269      -36.1
   04/03/2017 02:40      50.2      49.7       88     46.3      0.00     18.10      67.5     0.40      1014.0     2       143         2       149        8.56     269      -37.8
   04/03/2017 02:30      50.6      50.2       88     46.9      0.00     18.10      67.5     0.40      1014.0     1       150         2       136        8.56     269      -39.2
   04/03/2017 02:20      50.5      50.2       87     46.6      0.00     18.10      67.5     0.40      1014.0     1       168         2       146        8.56     269      -42.5
   04/03/2017 02:10      51.0      50.6       86     46.9      0.00     18.10      67.5     0.40      1014.0     1       135         1       142        8.56     269      -42.9
   04/03/2017 02:00      51.1      50.9       86     47.0      0.00     18.10      67.7     0.40      1014.0     1       161         2       148        8.56     269      -43.7
   04/03/2017 01:50      51.0      50.7       86     46.8      0.00     18.10      67.6     0.40      1014.0     2       142         2       144        8.56     269      -47.1
   04/03/2017 01:40      51.4      50.9       85     46.9      0.00     18.10      67.9     0.40      1014.0     2       143         3       155        8.56     269      -50.3
   04/03/2017 01:30      51.8      51.7       85     47.3      0.00     18.10      67.9     0.40      1014.0     2       147         2       159        8.56     269      -51.6
   04/03/2017 01:20      51.9      51.5       85     47.3      0.00     18.10      67.8     0.40      1014.0     2       139         3       140        8.57     269      -54.0
   04/03/2017 01:10      52.3      51.8       84     47.5      0.00     18.10      67.8     0.40      1014.0     2       162         2       139        8.57     269      -54.3
   04/03/2017 01:00      53.4      52.6       83     47.9      0.00     18.10      67.9     0.40      1014.0     2       128         2       137        8.57     269      -55.0
   04/03/2017 00:50      53.5      53.3       82     48.1      0.00     18.10      67.9     0.40      1014.0     1        16         1        12        8.57     269      -56.0
   04/03/2017 00:40      53.8      53.4       81     48.1      0.00     18.10      68.1     0.40      1014.0     0        50         1        53        8.57     269      -58.4
   04/03/2017 00:30      53.7      53.5       81     47.8      0.00     18.10      67.8     0.40      1014.0     0        70         1        67        8.57     269      -61.7
   04/03/2017 00:20      53.6      53.5       80     47.6      0.00     18.10      68.0     0.40      1014.0     1       117         1        87        8.57     269      -63.4
   04/03/2017 00:10      53.6      53.5       79     47.3      0.00     18.10      67.8     0.40      1014.0     1       107         2       141        8.57     269      -63.4
   04/03/2017 00:00      54.0      53.5       77     46.8      0.00     18.10      68.0     0.40      1014.0     1        88         2        79        8.57     269      -64.0
   04/02/2017 23:50      54.7      54.2       76     47.1      0.00     18.10      67.7     0.40      1014.0     1       129         2       135        8.57     269      -64.1
   04/02/2017 23:40      54.6      54.5       75     46.9      0.00     18.10      68.0     0.40      1014.0     1       110         1       143        8.57     269      -64.4
   04/02/2017 23:30      55.1      54.7       74     46.7      0.00     18.10      68.0     0.40      1014.0     1        89         1       143        8.57     269      -64.3
   04/02/2017 23:20      55.0      54.8       72     46.2      0.00     18.10      67.9     0.40      1014.0     1       112         1        86        8.57     269      -64.5
   04/02/2017 23:10      55.4      55.1       71     46.0      0.00     18.10      68.2     0.40      1015.0     1       108         2       106        8.57     270      -64.9
   04/02/2017 23:00      55.7      55.5       70     45.9      0.00     18.10      68.1     0.40      1015.0     1        65         1        73        8.57     269      -65.1
   04/02/2017 22:50      56.3      55.8       69     45.9      0.00     18.10      68.0     0.40      1014.0     1       116         1       127        8.57     269      -65.6
   04/02/2017 22:40      56.4      56.1       67     45.7      0.00     18.10      68.2     0.40      1014.0     1        87         1        83        8.57     269      -66.1
   04/02/2017 22:30      56.3      56.0       66     45.1      0.00     18.10      67.9     0.40      1014.0     1        58         2        72        8.57     269      -66.6
   04/02/2017 22:20      56.1      55.7       65     44.3      0.00     18.10      68.0     0.40      1014.0     0       335         1       104        8.57     270      -67.2
   04/02/2017 22:10      56.4      55.8       63     43.6      0.00     18.10      68.1     0.40      1014.0     1       101         2        72        8.57     269      -67.4
   04/02/2017 22:00      57.3      56.5       61     43.4      0.00     18.10      68.0     0.40      1014.0     1       188         2       199        8.57     269      -66.9
   04/02/2017 21:50      57.5      57.0       60     43.3      0.00     18.10      68.2     0.40      1014.0     1       277         1       202        8.57     269      -66.2
   04/02/2017 21:40      57.5      57.2       59     43.3      0.00     18.10      68.3     0.40      1014.0     0        67         1        46        8.57     269      -68.0
   04/02/2017 21:30      57.7      57.0       60     43.4      0.00     18.10      68.0     0.40      1014.0     1       158         1       162        8.57     269      -68.0
   04/02/2017 21:20      58.5      57.2       59     43.6      0.00     18.10      68.2     0.40      1014.0     1       151         2       174        8.57     269      -69.5
   04/02/2017 21:10      59.9      58.6       56     43.7      0.00     18.10      68.2     0.40      1014.0     1       148         2       137        8.57     269      -69.5
   04/02/2017 21:00      60.4      60.0       54     43.5      0.00     18.10      68.1     0.40      1014.0     0        93         1        48        8.57     269      -70.4
   04/02/2017 20:50      61.0      60.5       52     43.2      0.00     18.10      68.1     0.40      1014.0     1        74         1        83        8.57     269      -71.7
   04/02/2017 20:40      61.4      61.1       51     42.9      0.00     18.10      68.1     0.40      1014.0     1        56         3        76        8.57     269      -73.3
   04/02/2017 20:30      61.9      61.4       49     42.2      0.00     18.10      68.0     0.40      1014.0     1        71         3        73        8.57     268      -73.7
   04/02/2017 20:20      62.0      61.6       46     40.8      0.00     18.10      67.8     0.40      1014.0     0       110         1        90        8.58     268      -72.8
   04/02/2017 20:10      62.9      61.9       44     40.0      0.00     18.10      67.9     0.40      1013.0     1        95         2        92        8.58     268      -73.5
   04/02/2017 20:00      63.6      63.0       42     39.7      0.00     18.10      67.9     0.40      1013.0     1       205         2       196        8.58     268      -73.7
   04/02/2017 19:50      64.5      63.5       40     39.5      0.00     18.10      67.9     0.40      1013.0     2       188         3       180        8.58     268      -74.7
   04/02/2017 19:40      65.5      64.8       39     39.3      0.00     18.10      68.0     0.40      1013.0     2       195         3       186        8.58     268      -77.7
   04/02/2017 19:30      66.1      65.3       38     39.4      0.00     18.10      67.8     0.40      1013.0     1       121         2       154        8.58     268      -81.0
   04/02/2017 19:20      66.6      66.2       36     38.8      0.00     18.10      67.8     0.40      1013.0     4       170         4       186        8.58     268      -80.0
   04/02/2017 19:10      67.4      66.8       35     38.7      0.00     18.10      67.8     0.40      1013.0     4       174         5       162        8.58     267      -74.2
   04/02/2017 19:00      68.6      67.6       35     39.3      0.00     18.10      67.7     0.40      1013.0     3       153         5       150        8.58     267      -69.0
   04/02/2017 18:50      69.8      68.9       33     38.7      0.00     18.10      67.8     0.40      1013.0     3       155         4       149        8.58     267      -59.4
   04/02/2017 18:40      70.2      69.9       32     39.1      0.00     18.10      67.6     0.40      1013.0     2       153         4       162        8.58     267      -35.9
   04/02/2017 18:30      70.8      70.3       32     39.2      0.00     18.10      67.5     0.40      1013.0     3       156         6       148        8.58     267      -19.3
   04/02/2017 18:20      70.8      70.5       32     39.5      0.00     18.10      67.5     0.40      1013.0     4       157         6       183        8.58     267       12.2
   04/02/2017 18:10      71.3      70.8       32     39.7      0.00     18.10      67.5     0.40      1013.0     4       174         6       170        8.59     267       20.3
   04/02/2017 18:00      71.8      71.5       32     40.1      0.00     18.10      67.5     0.40      1013.0     4       178         5       188        8.59     267       53.3
   04/02/2017 17:50      72.0      71.5       31     39.7      0.00     18.10      67.3     0.40      1013.0     5       164         8       153        8.59     267       69.6
   04/02/2017 17:40      72.3      71.5       31     39.8      0.00     18.10      67.3     0.40      1013.0     5       169         7       167        8.59     267       75.7
   04/02/2017 17:30      73.0      72.7       30     39.9      0.00     18.10      67.3     0.40      1013.0     5       156         7       154        8.60     267      128.6
   04/02/2017 17:20      72.9      72.2       30     39.3      0.00     18.10      67.2     0.40      1013.0     5       170         8       145        8.60     268      139.3
   04/02/2017 17:10      72.9      72.7       30     39.3      0.00     18.10      67.1     0.40      1013.0     5       168        10       175        8.60     267      120.8
   04/02/2017 17:00      73.5      72.8       29     38.6      0.00     18.10      67.2     0.40      1013.0     6       155         8       182        8.60     267      198.8
   04/02/2017 16:50      74.0      73.2       27     37.3      0.00     18.10      67.3     0.40      1013.0     6       143         7       148        8.60     267      225.9
   04/02/2017 16:40      73.8      73.3       26     36.8      0.00     18.10      66.9     0.40      1013.0     6       149        11       133        8.61     267      229.6
   04/02/2017 16:30      73.8      73.2       26     36.1      0.00     18.10      66.9     0.40      1013.0     8       153        12       146        8.61     268      235.0
   04/02/2017 16:20      74.0      73.5       27     37.9      0.00     18.10      66.9     0.40      1013.0     9       157        12       146        8.61     268      280.7
   04/02/2017 16:10      74.4      73.6       29     39.6      0.00     18.10      66.8     0.40      1013.0     8       143        10       176        8.61     268      313.1
   04/02/2017 16:00      75.1      74.4       29     40.1      0.00     18.10      66.7     0.40      1013.0     8       141        10       137        8.61     268      343.5
   04/02/2017 15:50      75.0      74.8       28     39.6      0.00     18.10      66.7     0.40      1013.0     6       156         9       147        8.62     268      371.5
   04/02/2017 15:40      75.8      75.0       26     38.4      0.00     18.10      66.6     0.40      1013.0     7       149        10       154        8.62     268      390.5
   04/02/2017 15:30      75.8      74.3       27     38.2      0.00     18.10      66.5     0.40      1013.0     7       151        11       161        8.62     268      409.7
   04/02/2017 15:20      75.0      74.6       28     39.6      0.00     18.10      66.3     0.40      1013.0     7       164        10       194        8.62     268      427.6
   04/02/2017 15:10      75.7      74.6       27     39.1      0.00     18.10      66.3     0.39      1013.0     8       171        12       154        8.63     268      440.0
   04/02/2017 15:00      76.8      75.7       25     37.9      0.00     18.10      66.4     0.40      1013.0     7       174         9       191        8.63     268      458.0
   04/02/2017 14:50      77.0      76.3       24     37.0      0.00     18.10      66.1     0.39      1013.0     6       147         8       143        8.63     268      469.1
   04/02/2017 14:40      76.7      76.0       24     36.8      0.00     18.10      66.3     0.39      1013.0     9       154        13       126        8.63     268      481.0
   04/02/2017 14:30      77.4      76.6       23     36.8      0.00     18.10      66.0     0.39      1014.0     7       159         9       164        8.63     268      490.1
   04/02/2017 14:20      77.1      75.3       24     37.2      0.00     18.10      66.0     0.39      1014.0     8       144        10       130        8.63     269      503.1
   04/02/2017 14:10      77.1      75.3       25     37.6      0.00     18.10      66.0     0.39      1014.0     8       132        11       148        8.63     270      513.4
   04/02/2017 14:00      77.2      75.6       26     38.5      0.00     18.10      66.0     0.39      1014.0     6       163         9       172        8.63     270      519.5
   04/02/2017 13:50      76.8      75.9       27     39.8      0.00     18.10      66.0     0.39      1014.0     6       174        11       182        8.63     270      531.0
   04/02/2017 13:40      76.4      75.8       26     38.7      0.00     18.10      65.8     0.39      1014.0     6       143        10       220        8.63     270      535.9
   04/02/2017 13:30      76.4      75.9       27     39.5      0.00     18.10      65.8     0.39      1014.0     5       152        10       204        8.63     270      539.8
   04/02/2017 13:20      76.4      75.1       28     40.1      0.00     18.10      66.0     0.39      1014.0     5       131         8       116        8.63     270      542.8
   04/02/2017 13:10      76.2      75.3       30     42.1      0.00     18.10      65.8     0.39      1014.0     7       158        10       131        8.63     270      544.0
   04/02/2017 13:00      75.8      75.3       31     42.4      0.00     18.10      65.8     0.39      1015.0     4       193         7       188        8.64     270      543.6
   04/02/2017 12:50      76.5      75.8       28     40.7      0.00     18.10      65.8     0.39      1014.0     5       138         8       129        8.64     271      545.3
   04/02/2017 12:40      77.1      75.8       29     42.0      0.00     18.10      65.7     0.39      1015.0     4       114         8       131        8.63     271      542.4
   04/02/2017 12:30      76.7      76.1       30     42.9      0.00     18.10      65.5     0.39      1015.0     5        89         8        56        8.64     271      541.7
   04/02/2017 12:20      77.5      76.6       30     43.3      0.00     18.10      65.9     0.39      1015.0     5        49        10       112        8.64     272      530.1
   04/02/2017 12:10      76.5      75.5       31     43.1      0.00     18.10      65.6     0.39      1015.0     4        40         7       114        8.64     272      527.7
   04/02/2017 12:00      75.6      74.8       32     43.0      0.00     18.10      65.8     0.39      1015.0     3        26         5        21        8.64     273      523.8
   04/02/2017 11:50      75.4      74.6       32     43.4      0.00     18.10      65.8     0.39      1015.0     4        26         6        51        8.64     272      516.5
   04/02/2017 11:40      75.5      74.1       33     43.6      0.00     18.10      65.8     0.39      1015.0     5        34         7         2        8.64     277      510.4
   04/02/2017 11:30      74.4      73.3       34     43.5      0.00     18.10      65.7     0.39      1015.0     3        28         5       357        8.64     293      501.6
   04/02/2017 11:20      73.7      72.4       35     43.9      0.00     18.10      65.8     0.39      1016.0     2        30         5         5        8.64     307      491.4
   04/02/2017 11:10      72.7      72.3       36     44.2      0.00     18.10      65.7     0.39      1016.0     4        10         4        21        8.64     327      480.6
   04/02/2017 11:00      72.6      71.8       38     45.1      0.00     18.10      66.0     0.39      1016.0     3        14         4        69        8.64     346      468.1
   04/02/2017 10:50      72.1      70.3       40     45.5      0.00     18.10      66.0     0.39      1016.0     3        54         6        74        8.64     355      457.7
   04/02/2017 10:40      70.4      69.0       42     45.5      0.00     18.10      65.9     0.39      1016.0     4        26         5        22        8.64     362      443.1
   04/02/2017 10:30      69.5      68.8       42     45.4      0.00     18.10      66.0     0.40      1016.0     3        82         5       105        8.64     370      427.7
   04/02/2017 10:20      69.1      68.6       42     44.9      0.00     18.10      65.8     0.40      1016.0     3        19         5        13        8.64     376      411.9
   04/02/2017 10:10      68.8      67.2       42     43.7      0.00     18.10      65.8     0.40      1016.0     2        53         4        21        8.64     382      397.0
   04/02/2017 10:00      67.4      65.9       44     44.2      0.00     18.10      65.9     0.40      1016.0     2        37         3       344        8.64     390      380.8
   04/02/2017 09:50      65.9      65.3       46     44.3      0.00     18.10      66.1     0.40      1017.0     2        28         3         5        8.64     392      361.3
   04/02/2017 09:40      66.2      65.0       47     44.6      0.00     18.10      66.0     0.40      1017.0     2        12         4       352        8.64     273      335.3
   04/02/2017 09:30      66.4      64.7       47     44.5      0.00     18.10      66.0     0.40      1017.0     2        79         4        65        8.64     273      316.8
   04/02/2017 09:20      64.7      64.3       48     44.2      0.00     18.10      66.2     0.40      1017.0     2        25         3        83        8.64     274      296.6
   04/02/2017 09:10      64.4      62.2       51     45.1      0.00     18.10      66.2     0.40      1017.0     2        62         3        88        8.64     275      276.7
   04/02/2017 09:00      62.9      62.3       54     45.5      0.00     18.10      66.1     0.40      1017.0     1        26         2        22        8.64     277      255.1
   04/02/2017 08:50      62.2      61.0       56     45.8      0.00     18.10      66.2     0.40      1017.0     2        53         3        77        8.64     281      231.1
   04/02/2017 08:40      61.4      60.4       58     45.9      0.00     18.10      66.3     0.40      1017.0     1        21         2        26        8.65     283      205.8
   04/02/2017 08:30      60.5      59.5       60     46.2      0.00     18.10      66.4     0.40      1016.0     2        38         2         1        8.65     285      180.4
   04/02/2017 08:20      60.4      59.4       59     45.7      0.00     18.10      66.5     0.40      1016.0     1        26         2       357        8.65     287      154.1
   04/02/2017 08:10      59.2      57.3       63     45.9      0.00     18.10      66.4     0.40      1016.0     1        86         2       100        8.65     290      124.4
   04/02/2017 08:00      57.7      56.6       64     45.3      0.00     18.10      66.6     0.40      1016.0     1        85         1       116        8.65     291       92.9
   04/02/2017 07:50      56.5      54.1       69     45.2      0.00     18.10      66.5     0.40      1016.0     1        19         2       357        8.65     291       64.2
   04/02/2017 07:40      53.9      49.9       80     45.6      0.00     18.10      66.5     0.40      1016.0     1       354         1       353        8.65     291       47.9
   04/02/2017 07:30      50.0      49.3       83     44.8      0.00     18.10      66.3     0.40      1016.0     1         6         1       329        8.65     291       25.0
   04/02/2017 07:20      49.3      48.7       85     44.5      0.00     18.10      66.4     0.40      1016.0     1        90         1       123        8.65     290      -21.7
   04/02/2017 07:10      48.8      48.2       86     44.4      0.00     18.10      66.5     0.40      1016.0     1       131         1       135        8.65     289      -18.3
   04/02/2017 07:00      48.4      47.9       87     44.4      0.00     18.10      66.3     0.40      1016.0     1       206         1       177        8.65     289      -31.2
   04/02/2017 06:50      48.0      47.3       87     43.8      0.00     18.10      66.6     0.40      1016.0     1       161         1       140        8.65     289      -43.1
   04/02/2017 06:40      48.1      47.4       85     43.5      0.00     18.10      66.7     0.40      1016.0     2       140         2       177        8.65     289      -49.7
   04/02/2017 06:30      48.7      48.2       83     43.4      0.00     18.10      66.5     0.40      1016.0     1       163         2       158        8.65     288      -54.0
   04/02/2017 06:20      49.0      48.4       80     42.7      0.00     18.10      66.5     0.40      1016.0     1       229         2       256        8.65     288      -56.0
   04/02/2017 06:10      49.0      48.2       82     43.3      0.00     18.10      66.8     0.40      1016.0     2       280         2       292        8.65     287      -53.8
   04/02/2017 06:00      48.3      48.0       84     43.4      0.00     18.10      66.7     0.40      1015.0     1       181         1       279        8.65     287      -52.5
   04/02/2017 05:50      48.7      48.5       82     43.3      0.00     18.10      67.0     0.40      1016.0     1       300         1       249        8.65     287      -53.3
   04/02/2017 05:40      49.0      48.5       82     43.6      0.00     18.10      66.9     0.40      1016.0     1       153         1       143        8.65     287      -52.4
   04/02/2017 05:30      49.5      48.8       83     44.0      0.00     18.10      66.8     0.40      1016.0     0       183         1       149        8.65     287      -51.9
   04/02/2017 05:20      49.8      49.5       83     44.6      0.00     18.10      66.7     0.40      1016.0     0        20         1        96        8.65     287      -52.4
   04/02/2017 05:10      49.5      49.1       83     44.2      0.00     18.10      67.0     0.40      1016.0     1       146         2       140        8.65     287      -54.5
   04/02/2017 05:00      49.4      49.3       82     43.9      0.00     18.10      66.9     0.40      1016.0     1       136         1       129        8.65     286      -57.2
   04/02/2017 04:50      49.8      49.3       81     43.8      0.00     18.10      66.9     0.40      1016.0     1       134         1       125        8.65     286      -58.4
   04/02/2017 04:40      49.9      49.7       80     43.9      0.00     18.10      67.3     0.40      1016.0     2       139         2       144        8.65     286      -58.3
   04/02/2017 04:30      50.1      49.9       77     43.1      0.00     18.10      66.8     0.40      1016.0     1        97         3       132        8.65     286      -58.3
   04/02/2017 04:20      50.0      49.6       78     43.2      0.00     18.10      67.1     0.40      1016.0     1       278         2       241        8.65     285      -58.0
   04/02/2017 04:10      50.2      49.7       79     43.8      0.00     18.10      67.0     0.40      1016.0     1       147         2       139        8.65     285      -58.4
   04/02/2017 04:00      50.2      49.8       80     44.0      0.00     18.10      67.3     0.40      1016.0     1       161         2       145        8.65     285      -59.1
   04/02/2017 03:50      50.4      50.0       80     44.3      0.00     18.10      67.1     0.40      1016.0     2       141         3       140        8.65     284      -59.5
   04/02/2017 03:40      50.2      50.0       80     44.3      0.00     18.10      67.3     0.40      1016.0     1       189         2       128        8.65     283      -59.1
   04/02/2017 03:30      50.8      50.5       77     43.6      0.00     18.10      67.2     0.40      1016.0     1       175         2       162        8.65     283      -59.3
   04/02/2017 03:20      51.0      50.7       76     43.4      0.00     18.10      67.1     0.40      1016.0     1       191         1       216        8.65     282      -59.6
   04/02/2017 03:10      50.9      50.7       75     43.2      0.00     18.10      67.3     0.40      1016.0     1       191         2       188        8.65     282      -59.5
   04/02/2017 03:00      50.9      50.6       75     43.1      0.00     18.10      67.4     0.40      1016.0     0       211         1       139        8.65     282      -59.5
   04/02/2017 02:50      50.7      50.5       74     42.7      0.00     18.10      67.5     0.40      1016.0     1       141         2       135        8.65     281      -59.8
   04/02/2017 02:40      51.3      50.8       73     42.7      0.00     18.10      67.3     0.40      1016.0     1       125         2       124        8.65     281      -60.1
   04/02/2017 02:30      51.5      51.3       73     43.0      0.00     18.10      67.4     0.40      1016.0     1       324         1       281        8.65     280      -60.0
   04/02/2017 02:20      52.5      51.3       70     42.6      0.00     18.10      67.3     0.40      1016.0     1       153         2       133        8.65     280      -60.1
   04/02/2017 02:10      52.5      52.0       69     42.5      0.00     18.10      67.6     0.40      1016.0     1       149         1       142        8.65     280      -60.5
   04/02/2017 02:00      52.2      51.8       73     43.7      0.00     18.10      67.3     0.40      1016.0     2       149         2       153        8.65     279      -61.2
   04/02/2017 01:50      52.2      51.7       72     43.3      0.00     18.10      67.6     0.40      1016.0     1       154         2       135        8.65     278      -60.9
   04/02/2017 01:40      53.2      52.4       68     42.7      0.00     18.10      67.5     0.40      1016.0     2       148         3       138        8.65     278      -60.8
   04/02/2017 01:30      52.8      52.4       67     41.8      0.00     18.10      67.4     0.40      1016.0     0       181         2       137        8.65     277      -60.8
   04/02/2017 01:20      52.8      52.6       66     41.5      0.00     18.10      67.6     0.40      1016.0     1       165         2       146        8.65     277      -60.9
   04/02/2017 01:10      52.8      52.6       63     40.5      0.00     18.10      67.6     0.40      1016.0     1       148         2       147        8.65     276      -61.0
   04/02/2017 01:00      53.4      53.1       61     40.0      0.00     18.10      67.5     0.40      1016.0     2       150         2       138        8.65     276      -61.3
   04/02/2017 00:50      53.4      53.1       61     40.0      0.00     18.10      67.6     0.40      1016.0     1       187         2       140        8.65     276      -61.3
   04/02/2017 00:40      53.8      53.4       59     39.7      0.00     18.10      67.8     0.40      1016.0     1       150         2       126        8.65     275      -61.5
   04/02/2017 00:30      53.9      53.7       57     39.0      0.00     18.10      67.6     0.40      1016.0     1       172         1       200        8.66     275      -61.7
   04/02/2017 00:20      54.5      53.7       58     39.6      0.00     18.10      67.3     0.40      1016.0     1       134         2       118        8.66     274      -62.6
   04/02/2017 00:10      54.6      54.3       55     38.7      0.00     18.10      67.6     0.40      1016.0     0       146         1       156        8.66     274      -62.3
   04/02/2017 00:00      54.6      54.4       55     38.7      0.00     18.10      67.7     0.40      1016.0     1       170         1       149        8.66     273      -63.1
   04/01/2017 23:50      55.5      54.6       54     38.6      0.00     18.10      67.8     0.40      1016.0     1       117         2       136        8.66     273      -63.6
   04/01/2017 23:40      55.7      55.4       51     37.6      0.00     18.10      67.6     0.40      1016.0     1       181         2       195        8.66     273      -63.2
   04/01/2017 23:30      55.7      55.5       51     37.6      0.00     18.10      67.7     0.40      1016.0     1       258         1       151        8.66     272      -63.5
   04/01/2017 23:20      55.7      55.4       51     37.6      0.00     18.10      67.7     0.40      1016.0     1       151         2       156        8.66     272      -64.3
   04/01/2017 23:10      56.0      55.7       50     37.5      0.00     18.10      67.7     0.40      1016.0     1       116         2       194        8.66     271      -65.2
   04/01/2017 23:00      57.0      56.1       48     37.2      0.00     18.10      67.5     0.40      1015.0     1       157         2       143        8.66     271      -65.5
   04/01/2017 22:50      57.3      56.6       47     36.7      0.00     18.10      67.9     0.40      1015.0     1       154         2       137        8.66     270      -66.2
   04/01/2017 22:40      57.5      56.9       46     36.8      0.00     18.10      67.8     0.40      1015.0     2       157         4       167        8.66     270      -68.3
   04/01/2017 22:30      57.9      56.5       46     36.6      0.00     18.10      67.8     0.40      1016.0     3       146         4       158        8.66     269      -67.8
   04/01/2017 22:20      58.5      58.0       43     35.6      0.00     18.10      67.7     0.40      1015.0     1       252         2       256        8.66     269      -65.9
   04/01/2017 22:10      58.9      58.0       43     36.0      0.00     18.10      67.8     0.40      1015.0     1        66         2        69        8.66     268      -67.9
   04/01/2017 22:00      59.6      59.1       41     35.9      0.00     18.10      67.8     0.40      1015.0     1        18         3       350        8.66     268      -68.5
   04/01/2017 21:50      60.4      59.5       39     34.7      0.00     18.10      67.8     0.40      1015.0     1       189         3       143        8.66     268      -68.3
   04/01/2017 21:40      60.3      59.8       40     35.4      0.00     18.10      67.7     0.40      1015.0     1       294         1       248        8.66     268      -69.8
   04/01/2017 21:30      61.9      60.4       39     35.8      0.00     18.10      67.7     0.40      1015.0     3       154         3       168        8.66     267      -70.4
   04/01/2017 21:20      62.7      61.7       36     35.0      0.00     18.10      67.5     0.40      1015.0     2       167         4       203        8.66     267      -72.0
   04/01/2017 21:10      63.9      63.2       33     34.2      0.00     18.10      67.6     0.40      1015.0     2       197         3       199        8.66     267      -73.2
   04/01/2017 21:00      64.6      64.0       32     33.9      0.00     18.10      67.7     0.40      1015.0     2       210         3       211        8.67     267      -75.0
   04/01/2017 20:50      64.8      64.5       31     33.3      0.00     18.10      67.6     0.40      1015.0     3       199         4       216        8.67     266      -75.7
   04/01/2017 20:40      65.2      64.7       30     32.9      0.00     18.10      67.6     0.40      1014.0     2       210         3       214        8.67     266      -76.5
   04/01/2017 20:30      66.1      65.3       29     32.3      0.00     18.10      67.6     0.40      1014.0     2       205         3       195        8.67     266      -79.0
   04/01/2017 20:20      66.3      66.1       27     31.7      0.00     18.10      67.5     0.40      1014.0     3       217         4       198        8.67     266      -80.5
   04/01/2017 20:10      66.4      66.1       28     31.8      0.00     18.10      67.4     0.40      1014.0     2       204         3       198        8.67     266      -80.7
   04/01/2017 20:00      66.9      66.3       27     32.0      0.00     18.10      67.5     0.40      1014.0     2       223         3       249        8.67     265      -81.6
   04/01/2017 19:50      67.2      66.7       27     32.1      0.00     18.10      67.4     0.40      1014.0     2       201         4       207        8.68     265      -82.8
   04/01/2017 19:40      68.1      67.5       27     32.2      0.00     18.10      67.4     0.40      1014.0     2       208         4       243        8.68     265      -85.7
   04/01/2017 19:30      68.6      68.1       26     32.3      0.00     18.10      67.4     0.40      1013.0     3       214         6       206        8.68     267      -87.0
   04/01/2017 19:20      69.2      68.7       26     32.7      0.00     18.10      67.3     0.40      1013.0     3       210         5       247        8.68     265      -86.8
   04/01/2017 19:10      69.7      69.4       26     32.9      0.00     18.10      67.3     0.40      1013.0     4       215         6       205        8.69     264      -84.7
   04/01/2017 19:00      70.8      69.8       25     33.2      0.00     18.10      67.2     0.40      1013.0     3       214         5       214        8.70     264      -81.1
   04/01/2017 18:50      71.4      70.9       25     33.3      0.00     18.10      67.3     0.40      1013.0     5       223        10       210        8.70     264      -72.6
   04/01/2017 18:40      72.2      71.5       25     33.7      0.00     18.10      67.1     0.40      1013.0     5       221         8       234        8.71     264      -48.3
   04/01/2017 18:30      72.9      72.4       23     33.0      0.00     18.10      67.1     0.40      1013.0     6       236         9       228        8.71     264      -27.9
   04/01/2017 18:20      73.3      72.9       23     33.1      0.00     18.10      67.0     0.40      1013.0     6       234         8       217        8.71     264       -5.0
   04/01/2017 18:10      73.9      73.4       22     32.4      0.00     18.10      67.0     0.40      1013.0     7       227         9       227        8.72     264       22.3
   04/01/2017 18:00      73.9      73.7       22     32.6      0.00     18.10      66.8     0.40      1013.0     6       225         9       258        8.72     265       48.5
   04/01/2017 17:50      74.1      73.8       21     32.0      0.00     18.10      66.8     0.40      1013.0     7       227        11       213        8.73     264       76.0
   04/01/2017 17:40      75.0      74.3       22     32.9      0.00     18.10      66.7     0.40      1013.0     7       237        10       230        8.74     264      102.5
   04/01/2017 17:30      76.0      74.9       21     33.1      0.00     18.10      66.7     0.40      1013.0     7       240        11       248        8.75     264       98.9
   04/01/2017 17:20      76.1      75.5       21     32.6      0.00     18.10      66.5     0.40      1013.0     7       253        10       241        8.75     265      156.5
   04/01/2017 17:10      76.4      75.4       21     33.0      0.00     18.10      66.5     0.40      1012.0    10       225        14       239        8.76     265      181.8
   04/01/2017 17:00      76.8      76.3       20     32.5      0.00     18.10      66.5     0.40      1012.0     9       237        14       237        8.76     265      202.0
   04/01/2017 16:50      77.5      76.8       20     32.8      0.00     18.10      66.5     0.40      1012.0     8       218        10       221        8.76     265      228.6
   04/01/2017 16:40      79.0      77.6       19     32.6      0.00     18.10      66.2     0.40      1012.0     7       244        14       234        8.77     265      249.2
   04/01/2017 16:30      79.6      78.7       20     34.4      0.00     18.10      66.3     0.40      1012.0     6       280         9       253        8.77     266      269.7
   04/01/2017 16:20      79.9      79.5       19     34.2      0.00     18.10      66.3     0.40      1012.0     5       300         8       265        8.77     266      291.2
   04/01/2017 16:10      80.3      79.5       21     36.3      0.00     18.10      66.0     0.40      1012.0     6       300        11       270        8.77     266      310.3
   04/01/2017 16:00      80.2      79.7       21     37.0      0.00     18.10      66.0     0.40      1012.0     6       307         9       317        8.78     267      330.2
   04/01/2017 15:50      81.4      80.5       21     38.0      0.00     18.10      66.0     0.40      1012.0     7       321        11       308        8.78     267      347.3
   04/01/2017 15:40      81.7      80.9       24     41.1      0.00     18.10      65.9     0.40      1012.0     3        43         5        75        8.78     267      358.7
   04/01/2017 15:30      82.3      81.7       24     41.2      0.00     18.10      65.8     0.40      1012.0     3         6         4       347        8.78     267      377.1
   04/01/2017 15:20      82.4      81.7       22     40.0      0.00     18.10      65.8     0.40      1012.0     3        44         5        77        8.78     268      392.9
   04/01/2017 15:10      81.9      81.0       23     40.4      0.00     18.10      65.8     0.40      1012.0     3        34         4        76        8.78     268      416.4
   04/01/2017 15:00      82.4      81.3       22     39.8      0.00     18.10      65.7     0.40      1012.0     4        48         5        61        8.78     268      429.9
   04/01/2017 14:50      82.1      81.3       20     37.0      0.00     18.10      65.5     0.40      1013.0     3        53         7        75        8.78     268      442.5
   04/01/2017 14:40      82.5      81.3       21     38.5      0.00     18.10      65.6     0.40      1013.0     4        59         7        86        8.78     267      454.1
   04/01/2017 14:30      81.5      80.7       22     38.3      0.00     18.10      65.3     0.40      1013.0     2        76         5        30        8.78     267      468.3
   04/01/2017 14:20      81.7      80.8       22     39.1      0.00     18.10      65.4     0.40      1013.0     4        62         5        71        8.79     267      479.2
   04/01/2017 14:10      81.3      80.3       22     38.3      0.00     18.10      65.3     0.40      1013.0     2        50         3        58        8.78     267      490.2
   04/01/2017 14:00      80.7      80.2       23     39.3      0.00     18.10      65.3     0.40      1013.0     3        62         4        41        8.78     268      498.6
   04/01/2017 13:50      80.9      79.7       23     39.2      0.00     18.10      65.3     0.40      1013.0     2        35         4        36        8.79     268      508.7
   04/01/2017 13:40      80.4      79.8       23     38.8      0.00     18.10      65.2     0.40      1013.0     3        19         6        41        8.78     267      515.2
   04/01/2017 13:30      80.4      79.8       23     39.4      0.00     18.10      65.2     0.39      1013.0     4        56         9        74        8.78     267      520.9
   04/01/2017 13:20      79.9      78.9       23     37.8      0.00     18.10      65.1     0.39      1014.0     2         5         6        58        8.78     267      526.5
   04/01/2017 13:10      79.3      78.5       24     38.9      0.00     18.10      65.0     0.39      1014.0     4         8         5       340        8.78     268      527.2
   04/01/2017 13:00      79.5      78.5       21     35.5      0.00     18.10      65.1     0.39      1014.0     4       346         7       350        8.78     268      531.6
   04/01/2017 12:50      79.8      78.0       21     36.0      0.00     18.10      65.1     0.39      1014.0     3        13         7         2        8.78     268      531.1
   04/01/2017 12:40      78.3      77.4       21     35.4      0.00     18.10      65.0     0.39      1014.0     3       352         6       349        8.78     268      532.2
   04/01/2017 12:30      78.4      77.1       21     34.9      0.00     18.10      65.0     0.39      1014.0     3        52         5        62        8.78     268      530.7
   04/01/2017 12:20      77.4      76.0       22     34.8      0.00     18.10      65.0     0.39      1014.0     2       348         3       277        8.78     268      529.1
   04/01/2017 12:10      77.8      75.8       22     35.1      0.00     18.10      64.9     0.39      1014.0     4       261         7       312        8.78     268      526.2
   04/01/2017 12:00      78.0      74.6       22     35.3      0.00     18.10      65.0     0.39      1014.0     2       348         4       234        8.79     268      522.9
   04/01/2017 11:50      74.4      73.8       24     34.9      0.00     18.10      65.0     0.39      1015.0     4       184         8       193        8.79     268      521.3
   04/01/2017 11:40      74.3      73.8       24     34.9      0.00     18.10      65.0     0.39      1015.0     4       186         7       179        8.79     268      511.6
   04/01/2017 11:30      74.2      72.7       24     34.4      0.00     18.10      65.1     0.39      1015.0     3       271         7       302        8.79     269      500.7
   04/01/2017 11:20      73.2      72.5       24     34.2      0.00     18.10      65.0     0.39      1015.0     4       232         6       243        8.78     269      491.0
   04/01/2017 11:10      74.1      73.2       24     34.6      0.00     18.10      65.1     0.39      1015.0     3       339         6       354        8.78     269      476.9
   04/01/2017 11:00      73.4      72.4       26     35.9      0.00     18.10      65.1     0.40      1015.0     3        37         5       107        8.78     269      463.9
   04/01/2017 10:50      73.3      72.2       26     35.6      0.00     18.10      65.2     0.40      1015.0     3        55         5        63        8.78     269      450.3
   04/01/2017 10:40      72.2      71.8       26     35.4      0.00     18.10      65.2     0.40      1015.0     3        13         4       358        8.79     269      436.6
   04/01/2017 10:30      72.2      71.5       26     35.2      0.00     18.10      65.2     0.40      1015.0     3        21         4        14        8.79     269      422.0
   04/01/2017 10:20      72.2      70.0       27     34.9      0.00     18.10      65.4     0.40      1015.0     2        10         5       314        8.79     270      406.7
   04/01/2017 10:10      70.2      69.8       28     35.1      0.00     18.10      65.0     0.40      1015.0     3         4         4       337        8.79     271      389.1
   04/01/2017 10:00      70.4      69.7       28     35.0      0.00     18.10      65.2     0.40      1015.0     2        18         4       335        8.79     271      372.0
   04/01/2017 09:50      69.3      68.5       27     33.2      0.00     18.10      65.4     0.40      1015.0     4         7         6         5        8.79     272      357.0
   04/01/2017 09:40      68.5      68.1       26     32.5      0.00     18.10      65.2     0.40      1015.0     6         0        10        10        8.79     272      341.3
   04/01/2017 09:30      68.4      67.2       28     33.1      0.00     18.10      65.5     0.40      1015.0     5       327         8       331        8.79     273      322.7
   04/01/2017 09:20      67.2      65.2       34     36.6      0.00     18.10      65.3     0.40      1015.0     4       333         5       313        8.79     274      302.7
   04/01/2017 09:10      65.0      63.8       39     38.7      0.00     18.10      65.5     0.40      1015.0     2       350         4         6        8.79     276      281.3
   04/01/2017 09:00      63.5      61.5       43     39.8      0.00     18.10      65.6     0.40      1015.0     1       302         2        13        8.79     278      259.3
   04/01/2017 08:50      61.4      59.9       46     40.0      0.00     18.10      65.8     0.40      1015.0     1       339         2         3        8.79     281      235.8
   04/01/2017 08:40      59.5      58.3       50     40.1      0.00     18.10      65.6     0.40      1015.0     1       337         2         2        8.79     283      210.9
   04/01/2017 08:30      58.7      56.0       53     40.3      0.00     18.10      65.6     0.40      1015.0     1       331         2        19        8.79     284      184.2
   04/01/2017 08:20      56.0      55.5       56     40.2      0.00     18.10      65.3     0.40      1015.0     1       351         2         6        8.80     286      156.2
   04/01/2017 08:10      55.9      54.9       56     40.4      0.00     18.10      65.6     0.40      1015.0     2        16         3        16        8.80     288      127.5
   04/01/2017 08:00      55.1      54.1       57     39.8      0.00     18.10      65.7     0.40      1015.0     2        28         3        24        8.80     289       98.0
   04/01/2017 07:50      55.0      53.4       56     39.3      0.00     18.10      65.5     0.40      1015.0     2        52         2        30        8.81     289       68.6
   04/01/2017 07:40      53.3      51.6       58     38.2      0.00     18.10      65.7     0.40      1015.0     1        43         2        64        8.80     289       38.6
   04/01/2017 07:30      51.4      50.7       60     37.7      0.00     18.10      66.0     0.40      1014.0     2        88         3       102        8.80     289       11.4
   04/01/2017 07:20      51.7      50.9       57     36.7      0.00     18.10      65.8     0.40      1014.0     2        76         3        86        8.80     289      -22.2
   04/01/2017 07:10      52.4      50.7       54     35.6      0.00     18.10      65.8     0.40      1014.0     3       352         4       322        8.80     288      -32.3
   04/01/2017 07:00      51.6      47.2       58     35.3      0.00     18.10      65.8     0.40      1014.0     2       320         3       284        8.81     288      -43.1
   04/01/2017 06:50      46.8      44.5       73     37.4      0.00     18.10      65.7     0.40      1014.0     1       313         3       325        8.81     287      -49.9
   04/01/2017 06:40      44.4      43.9       79     38.2      0.00     18.10      65.8     0.40      1014.0     1       164         3       139        8.81     287      -55.8
   04/01/2017 06:30      44.3      43.9       80     38.2      0.00     18.10      66.1     0.40      1014.0     1       138         3       210        8.81     287      -59.7
   04/01/2017 06:20      44.5      44.1       79     38.3      0.00     18.10      65.9     0.40      1014.0     1       100         2        69        8.81     287      -61.0
   04/01/2017 06:10      44.6      44.4       77     37.8      0.00     18.10      66.0     0.40      1014.0     2       169         3        92        8.81     286      -60.6
   04/01/2017 06:00      44.7      44.4       77     37.9      0.00     18.10      66.1     0.40      1014.0     2       226         3       241        8.81     286      -60.6
   04/01/2017 05:50      45.1      44.5       77     37.9      0.00     18.10      66.4     0.40      1013.0     1       139         3       233        8.81     286      -61.4
   04/01/2017 05:40      45.5      45.1       75     37.8      0.00     18.10      66.3     0.40      1013.0     1       343         3       184        8.81     286      -61.6
   04/01/2017 05:30      45.4      44.5       76     37.9      0.00     18.10      66.3     0.40      1013.0     2       200         4       225        8.81     286      -61.0
   04/01/2017 05:20      45.1      44.5       75     37.4      0.00     18.10      66.2     0.40      1013.0     1        42         2        38        8.81     287      -62.1
   04/01/2017 05:10      45.5      45.1       74     37.7      0.00     18.10      65.9     0.40      1013.0     2       122         5       163        8.81     287      -62.0
   04/01/2017 05:00      45.4      44.4       75     37.4      0.00     18.10      66.4     0.40      1013.0     3       157         5       170        8.81     287      -62.0
   04/01/2017 04:50      45.4      45.0       73     37.2      0.00     18.10      66.2     0.40      1013.0     1       137         3       174        8.81     286      -63.0
   04/01/2017 04:40      45.7      44.6       75     37.5      0.00     18.10      66.4     0.40      1013.0     1       228         2       258        8.81     286      -62.8
   04/01/2017 04:30      45.7      45.0       72     37.0      0.00     18.10      66.6     0.40      1013.0     1        84         2        50        8.81     285      -63.1
   04/01/2017 04:20      45.7      45.5       73     37.4      0.00     18.10      66.5     0.40      1013.0     1       318         3       334        8.81     285      -61.9
   04/01/2017 04:10      46.0      45.4       72     37.2      0.00     18.10      66.5     0.40      1013.0     2       189         3       207        8.81     285      -62.0
   04/01/2017 04:00      46.1      45.7       71     37.0      0.00     18.10      66.5     0.40      1013.0     1       191         1        65        8.81     285      -62.7
   04/01/2017 03:50      45.7      45.4       74     37.5      0.00     18.10      66.9     0.40      1013.0     1       179         2       146        8.81     284      -62.8
   04/01/2017 03:40      45.9      45.5       71     37.0      0.00     18.10      66.4     0.40      1013.0     1       139         2       125        8.81     284      -62.7
   04/01/2017 03:30      46.1      45.7       70     36.9      0.00     18.10      66.6     0.40      1013.0     1       159         2       123        8.81     284      -62.8
   04/01/2017 03:20      46.6      46.2       68     36.3      0.00     18.10      66.9     0.40      1013.0     1       179         1       214        8.82     283      -62.8
   04/01/2017 03:10      46.6      45.9       69     36.7      0.00     18.10      66.8     0.40      1014.0     1       194         1       142        8.82     283      -62.6
   04/01/2017 03:00      47.1      46.0       69     36.9      0.00     18.10      66.9     0.40      1013.0     2       135         2       155        8.82     283      -63.2
   04/01/2017 02:50      47.3      47.1       66     36.2      0.00     18.10      66.5     0.40      1014.0     0       169         1       268        8.82     283      -63.7
   04/01/2017 02:40      47.4      46.6       65     36.0      0.00     18.10      67.0     0.40      1014.0     1       215         2       233        8.82     283      -63.3
   04/01/2017 02:30      46.6      46.3       68     36.5      0.00     18.10      67.0     0.40      1014.0     1       173         2       250        8.82     283      -64.1
   04/01/2017 02:20      47.4      47.0       66     36.6      0.00     18.10      66.9     0.40      1014.0     1       118         1       122        8.82     283      -65.0
   04/01/2017 02:10      48.0      47.3       65     36.4      0.00     18.10      66.9     0.40      1014.0     1       166         2       145        8.82     283      -64.9
   04/01/2017 02:00      48.3      47.8       64     36.5      0.00     18.10      66.8     0.40      1014.0     1       163         2       138        8.82     283      -65.2
   04/01/2017 01:50      48.4      47.9       64     36.6      0.00     18.10      66.8     0.40      1014.0     1       120         2        91        8.82     282      -65.3
   04/01/2017 01:40      48.7      47.9       65     37.1      0.00     18.10      67.1     0.40      1014.0     2       160         3       149        8.83     282      -65.0
   04/01/2017 01:30      48.9      48.4       65     37.3      0.00     18.10      66.9     0.40      1014.0     1       188         1       170        8.83     282      -65.8
   04/01/2017 01:20      49.0      48.3       65     37.3      0.00     18.10      67.2     0.40      1014.0     1       196         2       130        8.83     282      -65.8
   04/01/2017 01:10      49.1      48.0       66     37.7      0.00     18.10      67.0     0.40      1014.0     2       179         3       155        8.83     281      -66.6
   04/01/2017 01:00      49.8      49.0       63     37.5      0.00     18.10      67.2     0.40      1014.0     2       141         3       140        8.83     281      -66.1
   04/01/2017 00:50      49.7      49.2       62     37.2      0.00     18.10      66.9     0.40      1014.0     0       211         1       218        8.83     281      -66.5
   04/01/2017 00:40      49.7      49.3       62     37.0      0.00     18.10      67.4     0.40      1014.0     2       161         3       134        8.83     280      -66.8
   04/01/2017 00:30      49.6      49.3       62     36.9      0.00     18.10      67.0     0.40      1013.0     1       159         2       135        8.83     280      -66.7
   04/01/2017 00:20      50.7      49.4       60     36.7      0.00     18.10      67.1     0.40      1013.0     2       151         3       135        8.83     279      -67.2
   04/01/2017 00:10      50.9      50.5       58     36.3      0.00     18.10      67.2     0.41      1013.0     1       213         2       194        8.83     279      -67.0
   04/01/2017 00:00      51.2      50.7       56     35.9      0.00     18.10      67.3     0.40      1013.0     1       228         2       267        8.83     279      -66.8


<<Back to data home page